<?xml version="1.0" encoding="UTF-8" standalone="no" ?>
<gpx xmlns="http://www.topografix.com/GPX/1/1" xmlns:xsi="http://www.w3.org/2001/XMLSchema-instance" xsi:schemaLocation="http://www.topografix.com/GPX/1/1 http://www.topografix.com/GPX/1/1/gpx.xsd" version="1.1" creator="VisuGPX - https://www.visugpx.com">
  <metadata>
    <name>mrt chambon-les gorges de la voueize</name>
    <desc><![CDATA[depart chambon-chassat-chatelet-gare de budeliere-etang de reyberie-etang des fayes-l age-marsat le chateau-longeville-chambon]]></desc>
  </metadata>
  <trk>
    <name><![CDATA[mrt chambon-les gorges de la voueize_1]]></name>
    <trkseg>
      <trkpt lat="46.18895" lon="2.42584">
        <ele>294</ele>
        <time>2016-04-08T12:00:22Z</time>
      </trkpt>
      <trkpt lat="46.18936" lon="2.42644">
        <ele>332</ele>
        <time>2016-04-08T12:00:52Z</time>
      </trkpt>
      <trkpt lat="46.18934" lon="2.42649">
        <ele>331</ele>
        <time>2016-04-08T12:00:55Z</time>
      </trkpt>
      <trkpt lat="46.18932" lon="2.42654">
        <ele>331</ele>
        <time>2016-04-08T12:00:58Z</time>
      </trkpt>
      <trkpt lat="46.18926" lon="2.42658">
        <ele>331</ele>
        <time>2016-04-08T12:01:01Z</time>
      </trkpt>
      <trkpt lat="46.18921" lon="2.42662">
        <ele>331</ele>
        <time>2016-04-08T12:01:04Z</time>
      </trkpt>
      <trkpt lat="46.18915" lon="2.42662">
        <ele>330</ele>
        <time>2016-04-08T12:01:07Z</time>
      </trkpt>
      <trkpt lat="46.18912" lon="2.42665">
        <ele>327</ele>
        <time>2016-04-08T12:01:11Z</time>
      </trkpt>
      <trkpt lat="46.18913" lon="2.42672">
        <ele>327</ele>
        <time>2016-04-08T12:01:14Z</time>
      </trkpt>
      <trkpt lat="46.18912" lon="2.42679">
        <ele>327</ele>
        <time>2016-04-08T12:01:18Z</time>
      </trkpt>
      <trkpt lat="46.18909" lon="2.42679">
        <ele>327</ele>
        <time>2016-04-08T12:01:21Z</time>
      </trkpt>
      <trkpt lat="46.18907" lon="2.42679">
        <ele>327</ele>
        <time>2016-04-08T12:01:24Z</time>
      </trkpt>
      <trkpt lat="46.18902" lon="2.42679">
        <ele>327</ele>
        <time>2016-04-08T12:01:27Z</time>
      </trkpt>
      <trkpt lat="46.18897" lon="2.4268">
        <ele>330</ele>
        <time>2016-04-08T12:01:30Z</time>
      </trkpt>
      <trkpt lat="46.18893" lon="2.42684">
        <ele>332</ele>
        <time>2016-04-08T12:01:34Z</time>
      </trkpt>
      <trkpt lat="46.1889" lon="2.42685">
        <ele>330</ele>
        <time>2016-04-08T12:01:38Z</time>
      </trkpt>
      <trkpt lat="46.18886" lon="2.42688">
        <ele>330</ele>
        <time>2016-04-08T12:01:41Z</time>
      </trkpt>
      <trkpt lat="46.18882" lon="2.42692">
        <ele>330</ele>
        <time>2016-04-08T12:01:44Z</time>
      </trkpt>
      <trkpt lat="46.18878" lon="2.42698">
        <ele>329</ele>
        <time>2016-04-08T12:01:47Z</time>
      </trkpt>
      <trkpt lat="46.18882" lon="2.42707">
        <ele>329</ele>
        <time>2016-04-08T12:01:50Z</time>
      </trkpt>
      <trkpt lat="46.18885" lon="2.42716">
        <ele>329</ele>
        <time>2016-04-08T12:01:53Z</time>
      </trkpt>
      <trkpt lat="46.18887" lon="2.42723">
        <ele>329</ele>
        <time>2016-04-08T12:01:56Z</time>
      </trkpt>
      <trkpt lat="46.1889" lon="2.42729">
        <ele>329</ele>
        <time>2016-04-08T12:01:59Z</time>
      </trkpt>
      <trkpt lat="46.18892" lon="2.42738">
        <ele>329</ele>
        <time>2016-04-08T12:02:02Z</time>
      </trkpt>
      <trkpt lat="46.18893" lon="2.42746">
        <ele>329</ele>
        <time>2016-04-08T12:02:05Z</time>
      </trkpt>
      <trkpt lat="46.18894" lon="2.42753">
        <ele>329</ele>
        <time>2016-04-08T12:02:08Z</time>
      </trkpt>
      <trkpt lat="46.18895" lon="2.42759">
        <ele>329</ele>
        <time>2016-04-08T12:02:11Z</time>
      </trkpt>
      <trkpt lat="46.18895" lon="2.42767">
        <ele>329</ele>
        <time>2016-04-08T12:02:15Z</time>
      </trkpt>
      <trkpt lat="46.18896" lon="2.42775">
        <ele>329</ele>
        <time>2016-04-08T12:02:19Z</time>
      </trkpt>
      <trkpt lat="46.18898" lon="2.42782">
        <ele>329</ele>
        <time>2016-04-08T12:02:22Z</time>
      </trkpt>
      <trkpt lat="46.189" lon="2.42788">
        <ele>329</ele>
        <time>2016-04-08T12:02:25Z</time>
      </trkpt>
      <trkpt lat="46.18904" lon="2.42796">
        <ele>329</ele>
        <time>2016-04-08T12:02:28Z</time>
      </trkpt>
      <trkpt lat="46.18906" lon="2.42803">
        <ele>330</ele>
        <time>2016-04-08T12:02:31Z</time>
      </trkpt>
      <trkpt lat="46.18908" lon="2.4281">
        <ele>331</ele>
        <time>2016-04-08T12:02:34Z</time>
      </trkpt>
      <trkpt lat="46.18911" lon="2.42815">
        <ele>332</ele>
        <time>2016-04-08T12:02:37Z</time>
      </trkpt>
      <trkpt lat="46.18915" lon="2.42816">
        <ele>333</ele>
        <time>2016-04-08T12:02:41Z</time>
      </trkpt>
      <trkpt lat="46.18916" lon="2.42814">
        <ele>333</ele>
        <time>2016-04-08T12:02:44Z</time>
      </trkpt>
      <trkpt lat="46.18919" lon="2.42811">
        <ele>333</ele>
        <time>2016-04-08T12:02:47Z</time>
      </trkpt>
      <trkpt lat="46.18924" lon="2.42809">
        <ele>333</ele>
        <time>2016-04-08T12:02:50Z</time>
      </trkpt>
      <trkpt lat="46.1893" lon="2.42809">
        <ele>333</ele>
        <time>2016-04-08T12:02:53Z</time>
      </trkpt>
      <trkpt lat="46.18934" lon="2.42811">
        <ele>333</ele>
        <time>2016-04-08T12:02:57Z</time>
      </trkpt>
      <trkpt lat="46.18938" lon="2.42814">
        <ele>333</ele>
        <time>2016-04-08T12:03:00Z</time>
      </trkpt>
      <trkpt lat="46.1894" lon="2.42821">
        <ele>333</ele>
        <time>2016-04-08T12:03:04Z</time>
      </trkpt>
      <trkpt lat="46.18944" lon="2.42827">
        <ele>333</ele>
        <time>2016-04-08T12:03:07Z</time>
      </trkpt>
      <trkpt lat="46.18946" lon="2.42833">
        <ele>333</ele>
        <time>2016-04-08T12:03:10Z</time>
      </trkpt>
      <trkpt lat="46.18949" lon="2.42838">
        <ele>335</ele>
        <time>2016-04-08T12:03:13Z</time>
      </trkpt>
      <trkpt lat="46.18951" lon="2.42844">
        <ele>338</ele>
        <time>2016-04-08T12:03:16Z</time>
      </trkpt>
      <trkpt lat="46.18953" lon="2.42849">
        <ele>340</ele>
        <time>2016-04-08T12:03:19Z</time>
      </trkpt>
      <trkpt lat="46.18956" lon="2.42854">
        <ele>341</ele>
        <time>2016-04-08T12:03:22Z</time>
      </trkpt>
      <trkpt lat="46.18957" lon="2.4286">
        <ele>341</ele>
        <time>2016-04-08T12:03:25Z</time>
      </trkpt>
      <trkpt lat="46.18959" lon="2.42863">
        <ele>341</ele>
        <time>2016-04-08T12:03:29Z</time>
      </trkpt>
      <trkpt lat="46.18962" lon="2.42867">
        <ele>340</ele>
        <time>2016-04-08T12:03:32Z</time>
      </trkpt>
      <trkpt lat="46.18965" lon="2.42871">
        <ele>339</ele>
        <time>2016-04-08T12:03:35Z</time>
      </trkpt>
      <trkpt lat="46.18968" lon="2.42876">
        <ele>338</ele>
        <time>2016-04-08T12:03:39Z</time>
      </trkpt>
      <trkpt lat="46.18969" lon="2.42881">
        <ele>337</ele>
        <time>2016-04-08T12:03:42Z</time>
      </trkpt>
      <trkpt lat="46.1897" lon="2.42886">
        <ele>336</ele>
        <time>2016-04-08T12:03:45Z</time>
      </trkpt>
      <trkpt lat="46.1897" lon="2.42891">
        <ele>336</ele>
        <time>2016-04-08T12:03:48Z</time>
      </trkpt>
      <trkpt lat="46.18967" lon="2.42897">
        <ele>336</ele>
        <time>2016-04-08T12:03:52Z</time>
      </trkpt>
      <trkpt lat="46.18964" lon="2.429">
        <ele>336</ele>
        <time>2016-04-08T12:03:56Z</time>
      </trkpt>
      <trkpt lat="46.1896" lon="2.42901">
        <ele>337</ele>
        <time>2016-04-08T12:03:59Z</time>
      </trkpt>
      <trkpt lat="46.18957" lon="2.42902">
        <ele>339</ele>
        <time>2016-04-08T12:04:02Z</time>
      </trkpt>
      <trkpt lat="46.18953" lon="2.42904">
        <ele>341</ele>
        <time>2016-04-08T12:04:05Z</time>
      </trkpt>
      <trkpt lat="46.18948" lon="2.42907">
        <ele>342</ele>
        <time>2016-04-08T12:04:09Z</time>
      </trkpt>
      <trkpt lat="46.18943" lon="2.42908">
        <ele>342</ele>
        <time>2016-04-08T12:04:12Z</time>
      </trkpt>
      <trkpt lat="46.18939" lon="2.42909">
        <ele>342</ele>
        <time>2016-04-08T12:04:15Z</time>
      </trkpt>
      <trkpt lat="46.18934" lon="2.42909">
        <ele>343</ele>
        <time>2016-04-08T12:04:18Z</time>
      </trkpt>
      <trkpt lat="46.18927" lon="2.42911">
        <ele>346</ele>
        <time>2016-04-08T12:04:22Z</time>
      </trkpt>
      <trkpt lat="46.18924" lon="2.42914">
        <ele>346</ele>
        <time>2016-04-08T12:04:25Z</time>
      </trkpt>
      <trkpt lat="46.18922" lon="2.42917">
        <ele>348</ele>
        <time>2016-04-08T12:04:28Z</time>
      </trkpt>
      <trkpt lat="46.18916" lon="2.4292">
        <ele>348</ele>
        <time>2016-04-08T12:04:31Z</time>
      </trkpt>
      <trkpt lat="46.18913" lon="2.42924">
        <ele>348</ele>
        <time>2016-04-08T12:04:34Z</time>
      </trkpt>
      <trkpt lat="46.18909" lon="2.42927">
        <ele>348</ele>
        <time>2016-04-08T12:04:37Z</time>
      </trkpt>
      <trkpt lat="46.18906" lon="2.42932">
        <ele>348</ele>
        <time>2016-04-08T12:04:40Z</time>
      </trkpt>
      <trkpt lat="46.18902" lon="2.42934">
        <ele>348</ele>
        <time>2016-04-08T12:04:43Z</time>
      </trkpt>
      <trkpt lat="46.18899" lon="2.42939">
        <ele>348</ele>
        <time>2016-04-08T12:04:46Z</time>
      </trkpt>
      <trkpt lat="46.18892" lon="2.42947">
        <ele>348</ele>
        <time>2016-04-08T12:04:52Z</time>
      </trkpt>
      <trkpt lat="46.18888" lon="2.42952">
        <ele>348</ele>
        <time>2016-04-08T12:04:56Z</time>
      </trkpt>
      <trkpt lat="46.18888" lon="2.42958">
        <ele>348</ele>
        <time>2016-04-08T12:04:59Z</time>
      </trkpt>
      <trkpt lat="46.18886" lon="2.42964">
        <ele>348</ele>
        <time>2016-04-08T12:05:02Z</time>
      </trkpt>
      <trkpt lat="46.18885" lon="2.42969">
        <ele>348</ele>
        <time>2016-04-08T12:05:05Z</time>
      </trkpt>
      <trkpt lat="46.18884" lon="2.42976">
        <ele>348</ele>
        <time>2016-04-08T12:05:08Z</time>
      </trkpt>
      <trkpt lat="46.18883" lon="2.42982">
        <ele>348</ele>
        <time>2016-04-08T12:05:11Z</time>
      </trkpt>
      <trkpt lat="46.18882" lon="2.42988">
        <ele>348</ele>
        <time>2016-04-08T12:05:14Z</time>
      </trkpt>
      <trkpt lat="46.18881" lon="2.42993">
        <ele>348</ele>
        <time>2016-04-08T12:05:17Z</time>
      </trkpt>
      <trkpt lat="46.1888" lon="2.42999">
        <ele>348</ele>
        <time>2016-04-08T12:05:20Z</time>
      </trkpt>
      <trkpt lat="46.18879" lon="2.43004">
        <ele>348</ele>
        <time>2016-04-08T12:05:23Z</time>
      </trkpt>
      <trkpt lat="46.18879" lon="2.4301">
        <ele>348</ele>
        <time>2016-04-08T12:05:26Z</time>
      </trkpt>
      <trkpt lat="46.18879" lon="2.43016">
        <ele>348</ele>
        <time>2016-04-08T12:05:29Z</time>
      </trkpt>
      <trkpt lat="46.18879" lon="2.43022">
        <ele>348</ele>
        <time>2016-04-08T12:05:32Z</time>
      </trkpt>
      <trkpt lat="46.18879" lon="2.43028">
        <ele>348</ele>
        <time>2016-04-08T12:05:35Z</time>
      </trkpt>
      <trkpt lat="46.1888" lon="2.43034">
        <ele>348</ele>
        <time>2016-04-08T12:05:38Z</time>
      </trkpt>
      <trkpt lat="46.18881" lon="2.43039">
        <ele>348</ele>
        <time>2016-04-08T12:05:41Z</time>
      </trkpt>
      <trkpt lat="46.18882" lon="2.43046">
        <ele>349</ele>
        <time>2016-04-08T12:05:44Z</time>
      </trkpt>
      <trkpt lat="46.18882" lon="2.43051">
        <ele>349</ele>
        <time>2016-04-08T12:05:47Z</time>
      </trkpt>
      <trkpt lat="46.18883" lon="2.43057">
        <ele>349</ele>
        <time>2016-04-08T12:05:50Z</time>
      </trkpt>
      <trkpt lat="46.18883" lon="2.43063">
        <ele>350</ele>
        <time>2016-04-08T12:05:53Z</time>
      </trkpt>
      <trkpt lat="46.18883" lon="2.4307">
        <ele>350</ele>
        <time>2016-04-08T12:05:56Z</time>
      </trkpt>
      <trkpt lat="46.18882" lon="2.43075">
        <ele>351</ele>
        <time>2016-04-08T12:05:59Z</time>
      </trkpt>
      <trkpt lat="46.18882" lon="2.43081">
        <ele>351</ele>
        <time>2016-04-08T12:06:02Z</time>
      </trkpt>
      <trkpt lat="46.1888" lon="2.43088">
        <ele>351</ele>
        <time>2016-04-08T12:06:05Z</time>
      </trkpt>
      <trkpt lat="46.18879" lon="2.43092">
        <ele>351</ele>
        <time>2016-04-08T12:06:08Z</time>
      </trkpt>
      <trkpt lat="46.18878" lon="2.43099">
        <ele>352</ele>
        <time>2016-04-08T12:06:11Z</time>
      </trkpt>
      <trkpt lat="46.18877" lon="2.43105">
        <ele>352</ele>
        <time>2016-04-08T12:06:14Z</time>
      </trkpt>
      <trkpt lat="46.18877" lon="2.43111">
        <ele>352</ele>
        <time>2016-04-08T12:06:17Z</time>
      </trkpt>
      <trkpt lat="46.18877" lon="2.43116">
        <ele>352</ele>
        <time>2016-04-08T12:06:20Z</time>
      </trkpt>
      <trkpt lat="46.18876" lon="2.43122">
        <ele>352</ele>
        <time>2016-04-08T12:06:23Z</time>
      </trkpt>
      <trkpt lat="46.18876" lon="2.43128">
        <ele>352</ele>
        <time>2016-04-08T12:06:26Z</time>
      </trkpt>
      <trkpt lat="46.18877" lon="2.43133">
        <ele>352</ele>
        <time>2016-04-08T12:06:29Z</time>
      </trkpt>
      <trkpt lat="46.18877" lon="2.43139">
        <ele>352</ele>
        <time>2016-04-08T12:06:32Z</time>
      </trkpt>
      <trkpt lat="46.18877" lon="2.43144">
        <ele>352</ele>
        <time>2016-04-08T12:06:35Z</time>
      </trkpt>
      <trkpt lat="46.18877" lon="2.43151">
        <ele>352</ele>
        <time>2016-04-08T12:06:38Z</time>
      </trkpt>
      <trkpt lat="46.18876" lon="2.43156">
        <ele>353</ele>
        <time>2016-04-08T12:06:41Z</time>
      </trkpt>
      <trkpt lat="46.18875" lon="2.43162">
        <ele>355</ele>
        <time>2016-04-08T12:06:44Z</time>
      </trkpt>
      <trkpt lat="46.18876" lon="2.43168">
        <ele>355</ele>
        <time>2016-04-08T12:06:47Z</time>
      </trkpt>
      <trkpt lat="46.18876" lon="2.43173">
        <ele>355</ele>
        <time>2016-04-08T12:06:50Z</time>
      </trkpt>
      <trkpt lat="46.18875" lon="2.43179">
        <ele>356</ele>
        <time>2016-04-08T12:06:53Z</time>
      </trkpt>
      <trkpt lat="46.18875" lon="2.43184">
        <ele>356</ele>
        <time>2016-04-08T12:06:56Z</time>
      </trkpt>
      <trkpt lat="46.18876" lon="2.43191">
        <ele>356</ele>
        <time>2016-04-08T12:06:59Z</time>
      </trkpt>
      <trkpt lat="46.18876" lon="2.43196">
        <ele>357</ele>
        <time>2016-04-08T12:07:02Z</time>
      </trkpt>
      <trkpt lat="46.18877" lon="2.43202">
        <ele>357</ele>
        <time>2016-04-08T12:07:05Z</time>
      </trkpt>
      <trkpt lat="46.18877" lon="2.43207">
        <ele>357</ele>
        <time>2016-04-08T12:07:08Z</time>
      </trkpt>
      <trkpt lat="46.18879" lon="2.43213">
        <ele>358</ele>
        <time>2016-04-08T12:07:11Z</time>
      </trkpt>
      <trkpt lat="46.1888" lon="2.43218">
        <ele>358</ele>
        <time>2016-04-08T12:07:14Z</time>
      </trkpt>
      <trkpt lat="46.18882" lon="2.43224">
        <ele>358</ele>
        <time>2016-04-08T12:07:17Z</time>
      </trkpt>
      <trkpt lat="46.18884" lon="2.43229">
        <ele>358</ele>
        <time>2016-04-08T12:07:20Z</time>
      </trkpt>
      <trkpt lat="46.18885" lon="2.43234">
        <ele>358</ele>
        <time>2016-04-08T12:07:23Z</time>
      </trkpt>
      <trkpt lat="46.18887" lon="2.43239">
        <ele>358</ele>
        <time>2016-04-08T12:07:26Z</time>
      </trkpt>
      <trkpt lat="46.18888" lon="2.43244">
        <ele>358</ele>
        <time>2016-04-08T12:07:29Z</time>
      </trkpt>
      <trkpt lat="46.18891" lon="2.43251">
        <ele>358</ele>
        <time>2016-04-08T12:07:33Z</time>
      </trkpt>
      <trkpt lat="46.18893" lon="2.43255">
        <ele>358</ele>
        <time>2016-04-08T12:07:36Z</time>
      </trkpt>
      <trkpt lat="46.18897" lon="2.4326">
        <ele>359</ele>
        <time>2016-04-08T12:07:39Z</time>
      </trkpt>
      <trkpt lat="46.189" lon="2.43265">
        <ele>361</ele>
        <time>2016-04-08T12:07:42Z</time>
      </trkpt>
      <trkpt lat="46.18903" lon="2.4327">
        <ele>361</ele>
        <time>2016-04-08T12:07:46Z</time>
      </trkpt>
      <trkpt lat="46.18904" lon="2.43277">
        <ele>361</ele>
        <time>2016-04-08T12:07:50Z</time>
      </trkpt>
      <trkpt lat="46.18903" lon="2.43284">
        <ele>361</ele>
        <time>2016-04-08T12:07:53Z</time>
      </trkpt>
      <trkpt lat="46.18902" lon="2.43289">
        <ele>361</ele>
        <time>2016-04-08T12:07:56Z</time>
      </trkpt>
      <trkpt lat="46.18899" lon="2.43296">
        <ele>361</ele>
        <time>2016-04-08T12:07:59Z</time>
      </trkpt>
      <trkpt lat="46.18896" lon="2.43302">
        <ele>361</ele>
        <time>2016-04-08T12:08:03Z</time>
      </trkpt>
      <trkpt lat="46.18893" lon="2.43306">
        <ele>361</ele>
        <time>2016-04-08T12:08:06Z</time>
      </trkpt>
      <trkpt lat="46.1889" lon="2.4331">
        <ele>362</ele>
        <time>2016-04-08T12:08:09Z</time>
      </trkpt>
      <trkpt lat="46.18886" lon="2.43315">
        <ele>363</ele>
        <time>2016-04-08T12:08:13Z</time>
      </trkpt>
      <trkpt lat="46.18882" lon="2.4332">
        <ele>363</ele>
        <time>2016-04-08T12:08:17Z</time>
      </trkpt>
      <trkpt lat="46.18879" lon="2.43324">
        <ele>363</ele>
        <time>2016-04-08T12:08:20Z</time>
      </trkpt>
      <trkpt lat="46.18876" lon="2.43329">
        <ele>363</ele>
        <time>2016-04-08T12:08:23Z</time>
      </trkpt>
      <trkpt lat="46.18873" lon="2.43333">
        <ele>363</ele>
        <time>2016-04-08T12:08:26Z</time>
      </trkpt>
      <trkpt lat="46.1887" lon="2.43338">
        <ele>363</ele>
        <time>2016-04-08T12:08:29Z</time>
      </trkpt>
      <trkpt lat="46.18868" lon="2.43343">
        <ele>363</ele>
        <time>2016-04-08T12:08:32Z</time>
      </trkpt>
      <trkpt lat="46.18866" lon="2.43349">
        <ele>364</ele>
        <time>2016-04-08T12:08:35Z</time>
      </trkpt>
      <trkpt lat="46.18864" lon="2.43354">
        <ele>364</ele>
        <time>2016-04-08T12:08:38Z</time>
      </trkpt>
      <trkpt lat="46.18863" lon="2.43359">
        <ele>365</ele>
        <time>2016-04-08T12:08:41Z</time>
      </trkpt>
      <trkpt lat="46.18861" lon="2.43365">
        <ele>365</ele>
        <time>2016-04-08T12:08:44Z</time>
      </trkpt>
      <trkpt lat="46.18861" lon="2.43371">
        <ele>366</ele>
        <time>2016-04-08T12:08:47Z</time>
      </trkpt>
      <trkpt lat="46.1886" lon="2.43377">
        <ele>366</ele>
        <time>2016-04-08T12:08:50Z</time>
      </trkpt>
      <trkpt lat="46.1886" lon="2.43382">
        <ele>366</ele>
        <time>2016-04-08T12:08:53Z</time>
      </trkpt>
      <trkpt lat="46.1886" lon="2.43388">
        <ele>366</ele>
        <time>2016-04-08T12:08:56Z</time>
      </trkpt>
      <trkpt lat="46.1886" lon="2.43394">
        <ele>367</ele>
        <time>2016-04-08T12:08:59Z</time>
      </trkpt>
      <trkpt lat="46.1886" lon="2.434">
        <ele>367</ele>
        <time>2016-04-08T12:09:02Z</time>
      </trkpt>
      <trkpt lat="46.18859" lon="2.43405">
        <ele>367</ele>
        <time>2016-04-08T12:09:05Z</time>
      </trkpt>
      <trkpt lat="46.18859" lon="2.43411">
        <ele>367</ele>
        <time>2016-04-08T12:09:08Z</time>
      </trkpt>
      <trkpt lat="46.18858" lon="2.43416">
        <ele>367</ele>
        <time>2016-04-08T12:09:11Z</time>
      </trkpt>
      <trkpt lat="46.18857" lon="2.43421">
        <ele>367</ele>
        <time>2016-04-08T12:09:14Z</time>
      </trkpt>
      <trkpt lat="46.18856" lon="2.43427">
        <ele>367</ele>
        <time>2016-04-08T12:09:17Z</time>
      </trkpt>
      <trkpt lat="46.18855" lon="2.43433">
        <ele>368</ele>
        <time>2016-04-08T12:09:20Z</time>
      </trkpt>
      <trkpt lat="46.18855" lon="2.43439">
        <ele>369</ele>
        <time>2016-04-08T12:09:23Z</time>
      </trkpt>
      <trkpt lat="46.18853" lon="2.43444">
        <ele>370</ele>
        <time>2016-04-08T12:09:26Z</time>
      </trkpt>
      <trkpt lat="46.18853" lon="2.43449">
        <ele>370</ele>
        <time>2016-04-08T12:09:29Z</time>
      </trkpt>
      <trkpt lat="46.18853" lon="2.43455">
        <ele>370</ele>
        <time>2016-04-08T12:09:32Z</time>
      </trkpt>
      <trkpt lat="46.18853" lon="2.43461">
        <ele>371</ele>
        <time>2016-04-08T12:09:35Z</time>
      </trkpt>
      <trkpt lat="46.18852" lon="2.43467">
        <ele>371</ele>
        <time>2016-04-08T12:09:38Z</time>
      </trkpt>
      <trkpt lat="46.18852" lon="2.43472">
        <ele>371</ele>
        <time>2016-04-08T12:09:41Z</time>
      </trkpt>
      <trkpt lat="46.18852" lon="2.43478">
        <ele>371</ele>
        <time>2016-04-08T12:09:44Z</time>
      </trkpt>
      <trkpt lat="46.18852" lon="2.43483">
        <ele>372</ele>
        <time>2016-04-08T12:09:47Z</time>
      </trkpt>
      <trkpt lat="46.18852" lon="2.43488">
        <ele>372</ele>
        <time>2016-04-08T12:09:50Z</time>
      </trkpt>
      <trkpt lat="46.18853" lon="2.43494">
        <ele>372</ele>
        <time>2016-04-08T12:09:53Z</time>
      </trkpt>
      <trkpt lat="46.18854" lon="2.43499">
        <ele>373</ele>
        <time>2016-04-08T12:09:56Z</time>
      </trkpt>
      <trkpt lat="46.18855" lon="2.43504">
        <ele>373</ele>
        <time>2016-04-08T12:09:59Z</time>
      </trkpt>
      <trkpt lat="46.18857" lon="2.43508">
        <ele>373</ele>
        <time>2016-04-08T12:10:02Z</time>
      </trkpt>
      <trkpt lat="46.1886" lon="2.43513">
        <ele>373</ele>
        <time>2016-04-08T12:10:06Z</time>
      </trkpt>
      <trkpt lat="46.18863" lon="2.43519">
        <ele>373</ele>
        <time>2016-04-08T12:10:10Z</time>
      </trkpt>
      <trkpt lat="46.18864" lon="2.43526">
        <ele>373</ele>
        <time>2016-04-08T12:10:13Z</time>
      </trkpt>
      <trkpt lat="46.18866" lon="2.43531">
        <ele>373</ele>
        <time>2016-04-08T12:10:17Z</time>
      </trkpt>
      <trkpt lat="46.18868" lon="2.43536">
        <ele>374</ele>
        <time>2016-04-08T12:10:20Z</time>
      </trkpt>
      <trkpt lat="46.18871" lon="2.43539">
        <ele>374</ele>
        <time>2016-04-08T12:10:23Z</time>
      </trkpt>
      <trkpt lat="46.18875" lon="2.43543">
        <ele>375</ele>
        <time>2016-04-08T12:10:27Z</time>
      </trkpt>
      <trkpt lat="46.18878" lon="2.43546">
        <ele>375</ele>
        <time>2016-04-08T12:10:30Z</time>
      </trkpt>
      <trkpt lat="46.1888" lon="2.43548">
        <ele>375</ele>
        <time>2016-04-08T12:10:33Z</time>
      </trkpt>
      <trkpt lat="46.18884" lon="2.43551">
        <ele>375</ele>
        <time>2016-04-08T12:10:36Z</time>
      </trkpt>
      <trkpt lat="46.18888" lon="2.43556">
        <ele>375</ele>
        <time>2016-04-08T12:10:40Z</time>
      </trkpt>
      <trkpt lat="46.18891" lon="2.4356">
        <ele>375</ele>
        <time>2016-04-08T12:10:43Z</time>
      </trkpt>
      <trkpt lat="46.18894" lon="2.43564">
        <ele>375</ele>
        <time>2016-04-08T12:10:46Z</time>
      </trkpt>
      <trkpt lat="46.18898" lon="2.43568">
        <ele>375</ele>
        <time>2016-04-08T12:10:49Z</time>
      </trkpt>
      <trkpt lat="46.18899" lon="2.43574">
        <ele>375</ele>
        <time>2016-04-08T12:10:52Z</time>
      </trkpt>
      <trkpt lat="46.18901" lon="2.43577">
        <ele>375</ele>
        <time>2016-04-08T12:10:55Z</time>
      </trkpt>
      <trkpt lat="46.18904" lon="2.43583">
        <ele>375</ele>
        <time>2016-04-08T12:10:59Z</time>
      </trkpt>
      <trkpt lat="46.18905" lon="2.43588">
        <ele>375</ele>
        <time>2016-04-08T12:11:02Z</time>
      </trkpt>
      <trkpt lat="46.18906" lon="2.43594">
        <ele>375</ele>
        <time>2016-04-08T12:11:06Z</time>
      </trkpt>
      <trkpt lat="46.18906" lon="2.43598">
        <ele>375</ele>
        <time>2016-04-08T12:11:09Z</time>
      </trkpt>
      <trkpt lat="46.18906" lon="2.43604">
        <ele>376</ele>
        <time>2016-04-08T12:11:12Z</time>
      </trkpt>
      <trkpt lat="46.18906" lon="2.43609">
        <ele>377</ele>
        <time>2016-04-08T12:11:15Z</time>
      </trkpt>
      <trkpt lat="46.18904" lon="2.43615">
        <ele>378</ele>
        <time>2016-04-08T12:11:18Z</time>
      </trkpt>
      <trkpt lat="46.18902" lon="2.43619">
        <ele>379</ele>
        <time>2016-04-08T12:11:21Z</time>
      </trkpt>
      <trkpt lat="46.18899" lon="2.43625">
        <ele>380</ele>
        <time>2016-04-08T12:11:25Z</time>
      </trkpt>
      <trkpt lat="46.18897" lon="2.4363">
        <ele>380</ele>
        <time>2016-04-08T12:11:28Z</time>
      </trkpt>
      <trkpt lat="46.18893" lon="2.43635">
        <ele>381</ele>
        <time>2016-04-08T12:11:31Z</time>
      </trkpt>
      <trkpt lat="46.18892" lon="2.4364">
        <ele>381</ele>
        <time>2016-04-08T12:11:34Z</time>
      </trkpt>
      <trkpt lat="46.18888" lon="2.43644">
        <ele>381</ele>
        <time>2016-04-08T12:11:37Z</time>
      </trkpt>
      <trkpt lat="46.18884" lon="2.4365">
        <ele>383</ele>
        <time>2016-04-08T12:11:41Z</time>
      </trkpt>
      <trkpt lat="46.18882" lon="2.43656">
        <ele>385</ele>
        <time>2016-04-08T12:11:45Z</time>
      </trkpt>
      <trkpt lat="46.1888" lon="2.43661">
        <ele>385</ele>
        <time>2016-04-08T12:11:48Z</time>
      </trkpt>
      <trkpt lat="46.18878" lon="2.43665">
        <ele>385</ele>
        <time>2016-04-08T12:11:51Z</time>
      </trkpt>
      <trkpt lat="46.18876" lon="2.43671">
        <ele>385</ele>
        <time>2016-04-08T12:11:55Z</time>
      </trkpt>
      <trkpt lat="46.18875" lon="2.43677">
        <ele>385</ele>
        <time>2016-04-08T12:11:58Z</time>
      </trkpt>
      <trkpt lat="46.18874" lon="2.43683">
        <ele>385</ele>
        <time>2016-04-08T12:12:01Z</time>
      </trkpt>
      <trkpt lat="46.18874" lon="2.4369">
        <ele>385</ele>
        <time>2016-04-08T12:12:05Z</time>
      </trkpt>
      <trkpt lat="46.18873" lon="2.43696">
        <ele>385</ele>
        <time>2016-04-08T12:12:08Z</time>
      </trkpt>
      <trkpt lat="46.18873" lon="2.43702">
        <ele>385</ele>
        <time>2016-04-08T12:12:11Z</time>
      </trkpt>
      <trkpt lat="46.18872" lon="2.43707">
        <ele>385</ele>
        <time>2016-04-08T12:12:14Z</time>
      </trkpt>
      <trkpt lat="46.18872" lon="2.43712">
        <ele>385</ele>
        <time>2016-04-08T12:12:17Z</time>
      </trkpt>
      <trkpt lat="46.18871" lon="2.43718">
        <ele>385</ele>
        <time>2016-04-08T12:12:20Z</time>
      </trkpt>
      <trkpt lat="46.18869" lon="2.43723">
        <ele>385</ele>
        <time>2016-04-08T12:12:23Z</time>
      </trkpt>
      <trkpt lat="46.18869" lon="2.43728">
        <ele>386</ele>
        <time>2016-04-08T12:12:26Z</time>
      </trkpt>
      <trkpt lat="46.18871" lon="2.43734">
        <ele>386</ele>
        <time>2016-04-08T12:12:29Z</time>
      </trkpt>
      <trkpt lat="46.18872" lon="2.4374">
        <ele>386</ele>
        <time>2016-04-08T12:12:32Z</time>
      </trkpt>
      <trkpt lat="46.18873" lon="2.43746">
        <ele>386</ele>
        <time>2016-04-08T12:12:35Z</time>
      </trkpt>
      <trkpt lat="46.18874" lon="2.43751">
        <ele>386</ele>
        <time>2016-04-08T12:12:38Z</time>
      </trkpt>
      <trkpt lat="46.18875" lon="2.43757">
        <ele>386</ele>
        <time>2016-04-08T12:12:41Z</time>
      </trkpt>
      <trkpt lat="46.18875" lon="2.43762">
        <ele>386</ele>
        <time>2016-04-08T12:12:44Z</time>
      </trkpt>
      <trkpt lat="46.18876" lon="2.43767">
        <ele>386</ele>
        <time>2016-04-08T12:12:47Z</time>
      </trkpt>
      <trkpt lat="46.18877" lon="2.43773">
        <ele>387</ele>
        <time>2016-04-08T12:12:50Z</time>
      </trkpt>
      <trkpt lat="46.18878" lon="2.43778">
        <ele>387</ele>
        <time>2016-04-08T12:12:53Z</time>
      </trkpt>
      <trkpt lat="46.18878" lon="2.43783">
        <ele>387</ele>
        <time>2016-04-08T12:12:56Z</time>
      </trkpt>
      <trkpt lat="46.18878" lon="2.43789">
        <ele>388</ele>
        <time>2016-04-08T12:12:59Z</time>
      </trkpt>
      <trkpt lat="46.18878" lon="2.43794">
        <ele>388</ele>
        <time>2016-04-08T12:13:02Z</time>
      </trkpt>
      <trkpt lat="46.18878" lon="2.43799">
        <ele>388</ele>
        <time>2016-04-08T12:13:05Z</time>
      </trkpt>
      <trkpt lat="46.18877" lon="2.43805">
        <ele>388</ele>
        <time>2016-04-08T12:13:08Z</time>
      </trkpt>
      <trkpt lat="46.18877" lon="2.43811">
        <ele>388</ele>
        <time>2016-04-08T12:13:12Z</time>
      </trkpt>
      <trkpt lat="46.18878" lon="2.43818">
        <ele>388</ele>
        <time>2016-04-08T12:13:15Z</time>
      </trkpt>
      <trkpt lat="46.1888" lon="2.43823">
        <ele>388</ele>
        <time>2016-04-08T12:13:18Z</time>
      </trkpt>
      <trkpt lat="46.18883" lon="2.43828">
        <ele>388</ele>
        <time>2016-04-08T12:13:21Z</time>
      </trkpt>
      <trkpt lat="46.18885" lon="2.43833">
        <ele>389</ele>
        <time>2016-04-08T12:13:24Z</time>
      </trkpt>
      <trkpt lat="46.18888" lon="2.43838">
        <ele>389</ele>
        <time>2016-04-08T12:13:27Z</time>
      </trkpt>
      <trkpt lat="46.18891" lon="2.43844">
        <ele>390</ele>
        <time>2016-04-08T12:13:31Z</time>
      </trkpt>
      <trkpt lat="46.18893" lon="2.4385">
        <ele>390</ele>
        <time>2016-04-08T12:13:35Z</time>
      </trkpt>
      <trkpt lat="46.18896" lon="2.43855">
        <ele>390</ele>
        <time>2016-04-08T12:13:38Z</time>
      </trkpt>
      <trkpt lat="46.18898" lon="2.43859">
        <ele>390</ele>
        <time>2016-04-08T12:13:41Z</time>
      </trkpt>
      <trkpt lat="46.189" lon="2.43864">
        <ele>391</ele>
        <time>2016-04-08T12:13:44Z</time>
      </trkpt>
      <trkpt lat="46.18901" lon="2.43869">
        <ele>391</ele>
        <time>2016-04-08T12:13:47Z</time>
      </trkpt>
      <trkpt lat="46.18902" lon="2.43875">
        <ele>392</ele>
        <time>2016-04-08T12:13:50Z</time>
      </trkpt>
      <trkpt lat="46.18902" lon="2.43881">
        <ele>393</ele>
        <time>2016-04-08T12:13:53Z</time>
      </trkpt>
      <trkpt lat="46.18902" lon="2.43886">
        <ele>394</ele>
        <time>2016-04-08T12:13:56Z</time>
      </trkpt>
      <trkpt lat="46.18902" lon="2.43891">
        <ele>394</ele>
        <time>2016-04-08T12:13:59Z</time>
      </trkpt>
      <trkpt lat="46.18903" lon="2.43897">
        <ele>394</ele>
        <time>2016-04-08T12:14:02Z</time>
      </trkpt>
      <trkpt lat="46.18903" lon="2.43902">
        <ele>395</ele>
        <time>2016-04-08T12:14:05Z</time>
      </trkpt>
      <trkpt lat="46.18904" lon="2.43907">
        <ele>396</ele>
        <time>2016-04-08T12:14:08Z</time>
      </trkpt>
      <trkpt lat="46.18905" lon="2.43912">
        <ele>396</ele>
        <time>2016-04-08T12:14:11Z</time>
      </trkpt>
      <trkpt lat="46.18907" lon="2.43917">
        <ele>397</ele>
        <time>2016-04-08T12:14:14Z</time>
      </trkpt>
      <trkpt lat="46.18909" lon="2.43923">
        <ele>398</ele>
        <time>2016-04-08T12:14:18Z</time>
      </trkpt>
      <trkpt lat="46.18913" lon="2.43928">
        <ele>398</ele>
        <time>2016-04-08T12:14:21Z</time>
      </trkpt>
      <trkpt lat="46.18916" lon="2.4393">
        <ele>398</ele>
        <time>2016-04-08T12:14:24Z</time>
      </trkpt>
      <trkpt lat="46.18919" lon="2.43934">
        <ele>398</ele>
        <time>2016-04-08T12:14:28Z</time>
      </trkpt>
      <trkpt lat="46.18924" lon="2.43936">
        <ele>398</ele>
        <time>2016-04-08T12:14:31Z</time>
      </trkpt>
      <trkpt lat="46.18927" lon="2.43938">
        <ele>398</ele>
        <time>2016-04-08T12:14:35Z</time>
      </trkpt>
      <trkpt lat="46.1893" lon="2.43939">
        <ele>398</ele>
        <time>2016-04-08T12:14:38Z</time>
      </trkpt>
      <trkpt lat="46.18935" lon="2.43942">
        <ele>398</ele>
        <time>2016-04-08T12:14:41Z</time>
      </trkpt>
      <trkpt lat="46.18938" lon="2.43944">
        <ele>398</ele>
        <time>2016-04-08T12:14:44Z</time>
      </trkpt>
      <trkpt lat="46.18941" lon="2.43946">
        <ele>398</ele>
        <time>2016-04-08T12:14:47Z</time>
      </trkpt>
      <trkpt lat="46.18945" lon="2.43947">
        <ele>398</ele>
        <time>2016-04-08T12:14:50Z</time>
      </trkpt>
      <trkpt lat="46.18948" lon="2.43949">
        <ele>398</ele>
        <time>2016-04-08T12:14:53Z</time>
      </trkpt>
      <trkpt lat="46.18951" lon="2.4395">
        <ele>398</ele>
        <time>2016-04-08T12:14:56Z</time>
      </trkpt>
      <trkpt lat="46.18956" lon="2.43952">
        <ele>398</ele>
        <time>2016-04-08T12:15:00Z</time>
      </trkpt>
      <trkpt lat="46.18959" lon="2.43954">
        <ele>398</ele>
        <time>2016-04-08T12:15:03Z</time>
      </trkpt>
      <trkpt lat="46.18963" lon="2.43956">
        <ele>398</ele>
        <time>2016-04-08T12:15:06Z</time>
      </trkpt>
      <trkpt lat="46.18966" lon="2.43959">
        <ele>398</ele>
        <time>2016-04-08T12:15:09Z</time>
      </trkpt>
      <trkpt lat="46.1897" lon="2.43961">
        <ele>398</ele>
        <time>2016-04-08T12:15:12Z</time>
      </trkpt>
      <trkpt lat="46.18974" lon="2.43962">
        <ele>399</ele>
        <time>2016-04-08T12:15:15Z</time>
      </trkpt>
      <trkpt lat="46.18977" lon="2.43963">
        <ele>400</ele>
        <time>2016-04-08T12:15:18Z</time>
      </trkpt>
      <trkpt lat="46.18981" lon="2.43965">
        <ele>401</ele>
        <time>2016-04-08T12:15:21Z</time>
      </trkpt>
      <trkpt lat="46.18984" lon="2.43968">
        <ele>402</ele>
        <time>2016-04-08T12:15:24Z</time>
      </trkpt>
      <trkpt lat="46.18988" lon="2.43969">
        <ele>403</ele>
        <time>2016-04-08T12:15:28Z</time>
      </trkpt>
      <trkpt lat="46.18991" lon="2.43971">
        <ele>403</ele>
        <time>2016-04-08T12:15:32Z</time>
      </trkpt>
      <trkpt lat="46.18994" lon="2.43973">
        <ele>403</ele>
        <time>2016-04-08T12:15:35Z</time>
      </trkpt>
      <trkpt lat="46.18998" lon="2.43977">
        <ele>403</ele>
        <time>2016-04-08T12:15:39Z</time>
      </trkpt>
      <trkpt lat="46.19004" lon="2.43979">
        <ele>403</ele>
        <time>2016-04-08T12:15:42Z</time>
      </trkpt>
      <trkpt lat="46.19008" lon="2.43982">
        <ele>403</ele>
        <time>2016-04-08T12:15:45Z</time>
      </trkpt>
      <trkpt lat="46.19012" lon="2.43983">
        <ele>403</ele>
        <time>2016-04-08T12:15:48Z</time>
      </trkpt>
      <trkpt lat="46.19016" lon="2.43986">
        <ele>403</ele>
        <time>2016-04-08T12:15:51Z</time>
      </trkpt>
      <trkpt lat="46.1902" lon="2.43989">
        <ele>403</ele>
        <time>2016-04-08T12:15:54Z</time>
      </trkpt>
      <trkpt lat="46.19024" lon="2.43991">
        <ele>403</ele>
        <time>2016-04-08T12:15:57Z</time>
      </trkpt>
      <trkpt lat="46.19028" lon="2.43994">
        <ele>404</ele>
        <time>2016-04-08T12:16:00Z</time>
      </trkpt>
      <trkpt lat="46.19032" lon="2.43995">
        <ele>405</ele>
        <time>2016-04-08T12:16:03Z</time>
      </trkpt>
      <trkpt lat="46.19036" lon="2.43998">
        <ele>405</ele>
        <time>2016-04-08T12:16:06Z</time>
      </trkpt>
      <trkpt lat="46.1904" lon="2.44">
        <ele>405</ele>
        <time>2016-04-08T12:16:09Z</time>
      </trkpt>
      <trkpt lat="46.19044" lon="2.44002">
        <ele>405</ele>
        <time>2016-04-08T12:16:12Z</time>
      </trkpt>
      <trkpt lat="46.19048" lon="2.44004">
        <ele>406</ele>
        <time>2016-04-08T12:16:15Z</time>
      </trkpt>
      <trkpt lat="46.19052" lon="2.44006">
        <ele>406</ele>
        <time>2016-04-08T12:16:18Z</time>
      </trkpt>
      <trkpt lat="46.19056" lon="2.44008">
        <ele>406</ele>
        <time>2016-04-08T12:16:21Z</time>
      </trkpt>
      <trkpt lat="46.1906" lon="2.4401">
        <ele>407</ele>
        <time>2016-04-08T12:16:24Z</time>
      </trkpt>
      <trkpt lat="46.19064" lon="2.44012">
        <ele>407</ele>
        <time>2016-04-08T12:16:27Z</time>
      </trkpt>
      <trkpt lat="46.19068" lon="2.44015">
        <ele>407</ele>
        <time>2016-04-08T12:16:30Z</time>
      </trkpt>
      <trkpt lat="46.19072" lon="2.44017">
        <ele>407</ele>
        <time>2016-04-08T12:16:33Z</time>
      </trkpt>
      <trkpt lat="46.19076" lon="2.44019">
        <ele>407</ele>
        <time>2016-04-08T12:16:36Z</time>
      </trkpt>
      <trkpt lat="46.1908" lon="2.44021">
        <ele>407</ele>
        <time>2016-04-08T12:16:39Z</time>
      </trkpt>
      <trkpt lat="46.19084" lon="2.44024">
        <ele>407</ele>
        <time>2016-04-08T12:16:42Z</time>
      </trkpt>
      <trkpt lat="46.19088" lon="2.44026">
        <ele>408</ele>
        <time>2016-04-08T12:16:45Z</time>
      </trkpt>
      <trkpt lat="46.19092" lon="2.44028">
        <ele>408</ele>
        <time>2016-04-08T12:16:48Z</time>
      </trkpt>
      <trkpt lat="46.19096" lon="2.44031">
        <ele>408</ele>
        <time>2016-04-08T12:16:51Z</time>
      </trkpt>
      <trkpt lat="46.191" lon="2.44034">
        <ele>409</ele>
        <time>2016-04-08T12:16:54Z</time>
      </trkpt>
      <trkpt lat="46.19104" lon="2.44036">
        <ele>409</ele>
        <time>2016-04-08T12:16:57Z</time>
      </trkpt>
      <trkpt lat="46.19108" lon="2.44038">
        <ele>409</ele>
        <time>2016-04-08T12:17:00Z</time>
      </trkpt>
      <trkpt lat="46.19112" lon="2.44039">
        <ele>409</ele>
        <time>2016-04-08T12:17:03Z</time>
      </trkpt>
      <trkpt lat="46.19116" lon="2.44041">
        <ele>409</ele>
        <time>2016-04-08T12:17:06Z</time>
      </trkpt>
      <trkpt lat="46.1912" lon="2.44043">
        <ele>409</ele>
        <time>2016-04-08T12:17:09Z</time>
      </trkpt>
      <trkpt lat="46.19124" lon="2.44046">
        <ele>409</ele>
        <time>2016-04-08T12:17:12Z</time>
      </trkpt>
      <trkpt lat="46.19128" lon="2.44048">
        <ele>409</ele>
        <time>2016-04-08T12:17:15Z</time>
      </trkpt>
      <trkpt lat="46.19132" lon="2.4405">
        <ele>409</ele>
        <time>2016-04-08T12:17:18Z</time>
      </trkpt>
      <trkpt lat="46.19136" lon="2.44053">
        <ele>409</ele>
        <time>2016-04-08T12:17:21Z</time>
      </trkpt>
      <trkpt lat="46.1914" lon="2.44054">
        <ele>409</ele>
        <time>2016-04-08T12:17:24Z</time>
      </trkpt>
      <trkpt lat="46.19144" lon="2.44056">
        <ele>409</ele>
        <time>2016-04-08T12:17:27Z</time>
      </trkpt>
      <trkpt lat="46.19148" lon="2.44058">
        <ele>409</ele>
        <time>2016-04-08T12:17:30Z</time>
      </trkpt>
      <trkpt lat="46.19152" lon="2.4406">
        <ele>410</ele>
        <time>2016-04-08T12:17:33Z</time>
      </trkpt>
      <trkpt lat="46.19157" lon="2.44062">
        <ele>410</ele>
        <time>2016-04-08T12:17:36Z</time>
      </trkpt>
      <trkpt lat="46.1916" lon="2.44064">
        <ele>411</ele>
        <time>2016-04-08T12:17:39Z</time>
      </trkpt>
      <trkpt lat="46.19164" lon="2.44066">
        <ele>411</ele>
        <time>2016-04-08T12:17:43Z</time>
      </trkpt>
      <trkpt lat="46.19168" lon="2.44069">
        <ele>411</ele>
        <time>2016-04-08T12:17:46Z</time>
      </trkpt>
      <trkpt lat="46.19173" lon="2.44071">
        <ele>411</ele>
        <time>2016-04-08T12:17:49Z</time>
      </trkpt>
      <trkpt lat="46.19176" lon="2.44074">
        <ele>411</ele>
        <time>2016-04-08T12:17:52Z</time>
      </trkpt>
      <trkpt lat="46.19181" lon="2.44076">
        <ele>412</ele>
        <time>2016-04-08T12:17:55Z</time>
      </trkpt>
      <trkpt lat="46.19186" lon="2.44079">
        <ele>412</ele>
        <time>2016-04-08T12:17:58Z</time>
      </trkpt>
      <trkpt lat="46.1919" lon="2.44082">
        <ele>413</ele>
        <time>2016-04-08T12:18:01Z</time>
      </trkpt>
      <trkpt lat="46.19194" lon="2.44084">
        <ele>413</ele>
        <time>2016-04-08T12:18:04Z</time>
      </trkpt>
      <trkpt lat="46.19197" lon="2.44086">
        <ele>413</ele>
        <time>2016-04-08T12:18:07Z</time>
      </trkpt>
      <trkpt lat="46.19201" lon="2.44089">
        <ele>413</ele>
        <time>2016-04-08T12:18:10Z</time>
      </trkpt>
      <trkpt lat="46.19204" lon="2.4409">
        <ele>413</ele>
        <time>2016-04-08T12:18:13Z</time>
      </trkpt>
      <trkpt lat="46.19209" lon="2.44092">
        <ele>413</ele>
        <time>2016-04-08T12:18:16Z</time>
      </trkpt>
      <trkpt lat="46.19212" lon="2.44093">
        <ele>413</ele>
        <time>2016-04-08T12:18:19Z</time>
      </trkpt>
      <trkpt lat="46.19217" lon="2.44095">
        <ele>413</ele>
        <time>2016-04-08T12:18:22Z</time>
      </trkpt>
      <trkpt lat="46.1922" lon="2.44097">
        <ele>413</ele>
        <time>2016-04-08T12:18:25Z</time>
      </trkpt>
      <trkpt lat="46.19225" lon="2.44099">
        <ele>413</ele>
        <time>2016-04-08T12:18:28Z</time>
      </trkpt>
      <trkpt lat="46.19228" lon="2.44101">
        <ele>413</ele>
        <time>2016-04-08T12:18:31Z</time>
      </trkpt>
      <trkpt lat="46.19232" lon="2.44104">
        <ele>413</ele>
        <time>2016-04-08T12:18:34Z</time>
      </trkpt>
      <trkpt lat="46.19236" lon="2.44105">
        <ele>413</ele>
        <time>2016-04-08T12:18:37Z</time>
      </trkpt>
      <trkpt lat="46.19239" lon="2.44107">
        <ele>413</ele>
        <time>2016-04-08T12:18:40Z</time>
      </trkpt>
      <trkpt lat="46.19243" lon="2.44109">
        <ele>413</ele>
        <time>2016-04-08T12:18:43Z</time>
      </trkpt>
      <trkpt lat="46.19247" lon="2.44111">
        <ele>413</ele>
        <time>2016-04-08T12:18:46Z</time>
      </trkpt>
      <trkpt lat="46.1925" lon="2.44113">
        <ele>413</ele>
        <time>2016-04-08T12:18:49Z</time>
      </trkpt>
      <trkpt lat="46.19254" lon="2.44116">
        <ele>413</ele>
        <time>2016-04-08T12:18:52Z</time>
      </trkpt>
      <trkpt lat="46.19257" lon="2.44118">
        <ele>413</ele>
        <time>2016-04-08T12:18:55Z</time>
      </trkpt>
      <trkpt lat="46.19261" lon="2.4412">
        <ele>413</ele>
        <time>2016-04-08T12:18:58Z</time>
      </trkpt>
      <trkpt lat="46.19265" lon="2.44122">
        <ele>413</ele>
        <time>2016-04-08T12:19:01Z</time>
      </trkpt>
      <trkpt lat="46.19269" lon="2.44125">
        <ele>413</ele>
        <time>2016-04-08T12:19:04Z</time>
      </trkpt>
      <trkpt lat="46.19272" lon="2.44126">
        <ele>413</ele>
        <time>2016-04-08T12:19:07Z</time>
      </trkpt>
      <trkpt lat="46.19276" lon="2.44129">
        <ele>413</ele>
        <time>2016-04-08T12:19:10Z</time>
      </trkpt>
      <trkpt lat="46.1928" lon="2.44131">
        <ele>413</ele>
        <time>2016-04-08T12:19:13Z</time>
      </trkpt>
      <trkpt lat="46.19284" lon="2.44133">
        <ele>413</ele>
        <time>2016-04-08T12:19:16Z</time>
      </trkpt>
      <trkpt lat="46.19287" lon="2.44135">
        <ele>413</ele>
        <time>2016-04-08T12:19:19Z</time>
      </trkpt>
      <trkpt lat="46.19291" lon="2.44137">
        <ele>413</ele>
        <time>2016-04-08T12:19:22Z</time>
      </trkpt>
      <trkpt lat="46.19295" lon="2.44139">
        <ele>413</ele>
        <time>2016-04-08T12:19:25Z</time>
      </trkpt>
      <trkpt lat="46.19298" lon="2.44141">
        <ele>413</ele>
        <time>2016-04-08T12:19:28Z</time>
      </trkpt>
      <trkpt lat="46.19303" lon="2.44143">
        <ele>413</ele>
        <time>2016-04-08T12:19:32Z</time>
      </trkpt>
      <trkpt lat="46.19307" lon="2.44145">
        <ele>413</ele>
        <time>2016-04-08T12:19:35Z</time>
      </trkpt>
      <trkpt lat="46.19311" lon="2.44148">
        <ele>413</ele>
        <time>2016-04-08T12:19:38Z</time>
      </trkpt>
      <trkpt lat="46.19315" lon="2.4415">
        <ele>414</ele>
        <time>2016-04-08T12:19:41Z</time>
      </trkpt>
      <trkpt lat="46.19318" lon="2.44152">
        <ele>414</ele>
        <time>2016-04-08T12:19:44Z</time>
      </trkpt>
      <trkpt lat="46.19322" lon="2.44154">
        <ele>415</ele>
        <time>2016-04-08T12:19:47Z</time>
      </trkpt>
      <trkpt lat="46.19327" lon="2.44157">
        <ele>416</ele>
        <time>2016-04-08T12:19:51Z</time>
      </trkpt>
      <trkpt lat="46.19331" lon="2.44158">
        <ele>416</ele>
        <time>2016-04-08T12:19:54Z</time>
      </trkpt>
      <trkpt lat="46.19334" lon="2.4416">
        <ele>416</ele>
        <time>2016-04-08T12:19:57Z</time>
      </trkpt>
      <trkpt lat="46.19337" lon="2.44162">
        <ele>416</ele>
        <time>2016-04-08T12:20:00Z</time>
      </trkpt>
      <trkpt lat="46.1934" lon="2.44164">
        <ele>416</ele>
        <time>2016-04-08T12:20:03Z</time>
      </trkpt>
      <trkpt lat="46.19344" lon="2.44166">
        <ele>416</ele>
        <time>2016-04-08T12:20:06Z</time>
      </trkpt>
      <trkpt lat="46.19348" lon="2.44169">
        <ele>416</ele>
        <time>2016-04-08T12:20:09Z</time>
      </trkpt>
      <trkpt lat="46.19352" lon="2.44171">
        <ele>416</ele>
        <time>2016-04-08T12:20:12Z</time>
      </trkpt>
      <trkpt lat="46.19356" lon="2.44173">
        <ele>416</ele>
        <time>2016-04-08T12:20:15Z</time>
      </trkpt>
      <trkpt lat="46.19359" lon="2.44175">
        <ele>416</ele>
        <time>2016-04-08T12:20:18Z</time>
      </trkpt>
      <trkpt lat="46.19363" lon="2.44178">
        <ele>416</ele>
        <time>2016-04-08T12:20:21Z</time>
      </trkpt>
      <trkpt lat="46.19367" lon="2.4418">
        <ele>416</ele>
        <time>2016-04-08T12:20:25Z</time>
      </trkpt>
      <trkpt lat="46.1937" lon="2.44182">
        <ele>417</ele>
        <time>2016-04-08T12:20:28Z</time>
      </trkpt>
      <trkpt lat="46.19376" lon="2.44185">
        <ele>419</ele>
        <time>2016-04-08T12:20:33Z</time>
      </trkpt>
      <trkpt lat="46.1938" lon="2.44187">
        <ele>420</ele>
        <time>2016-04-08T12:20:36Z</time>
      </trkpt>
      <trkpt lat="46.19384" lon="2.44188">
        <ele>421</ele>
        <time>2016-04-08T12:20:39Z</time>
      </trkpt>
      <trkpt lat="46.19387" lon="2.4419">
        <ele>421</ele>
        <time>2016-04-08T12:20:42Z</time>
      </trkpt>
      <trkpt lat="46.19391" lon="2.44193">
        <ele>422</ele>
        <time>2016-04-08T12:20:45Z</time>
      </trkpt>
      <trkpt lat="46.19394" lon="2.44195">
        <ele>422</ele>
        <time>2016-04-08T12:20:48Z</time>
      </trkpt>
      <trkpt lat="46.19398" lon="2.44197">
        <ele>423</ele>
        <time>2016-04-08T12:20:51Z</time>
      </trkpt>
      <trkpt lat="46.19402" lon="2.44199">
        <ele>423</ele>
        <time>2016-04-08T12:20:54Z</time>
      </trkpt>
      <trkpt lat="46.19406" lon="2.44201">
        <ele>424</ele>
        <time>2016-04-08T12:20:57Z</time>
      </trkpt>
      <trkpt lat="46.1941" lon="2.44203">
        <ele>424</ele>
        <time>2016-04-08T12:21:00Z</time>
      </trkpt>
      <trkpt lat="46.19413" lon="2.44206">
        <ele>424</ele>
        <time>2016-04-08T12:21:03Z</time>
      </trkpt>
      <trkpt lat="46.19418" lon="2.44208">
        <ele>424</ele>
        <time>2016-04-08T12:21:06Z</time>
      </trkpt>
      <trkpt lat="46.19422" lon="2.44211">
        <ele>425</ele>
        <time>2016-04-08T12:21:09Z</time>
      </trkpt>
      <trkpt lat="46.19425" lon="2.44213">
        <ele>425</ele>
        <time>2016-04-08T12:21:12Z</time>
      </trkpt>
      <trkpt lat="46.1943" lon="2.44215">
        <ele>426</ele>
        <time>2016-04-08T12:21:15Z</time>
      </trkpt>
      <trkpt lat="46.19434" lon="2.44217">
        <ele>426</ele>
        <time>2016-04-08T12:21:18Z</time>
      </trkpt>
      <trkpt lat="46.19438" lon="2.44219">
        <ele>426</ele>
        <time>2016-04-08T12:21:21Z</time>
      </trkpt>
      <trkpt lat="46.19442" lon="2.44221">
        <ele>426</ele>
        <time>2016-04-08T12:21:24Z</time>
      </trkpt>
      <trkpt lat="46.19446" lon="2.44223">
        <ele>426</ele>
        <time>2016-04-08T12:21:27Z</time>
      </trkpt>
      <trkpt lat="46.1945" lon="2.44226">
        <ele>426</ele>
        <time>2016-04-08T12:21:30Z</time>
      </trkpt>
      <trkpt lat="46.19453" lon="2.44228">
        <ele>426</ele>
        <time>2016-04-08T12:21:33Z</time>
      </trkpt>
      <trkpt lat="46.19457" lon="2.4423">
        <ele>426</ele>
        <time>2016-04-08T12:21:36Z</time>
      </trkpt>
      <trkpt lat="46.19461" lon="2.44232">
        <ele>426</ele>
        <time>2016-04-08T12:21:39Z</time>
      </trkpt>
      <trkpt lat="46.19465" lon="2.44234">
        <ele>426</ele>
        <time>2016-04-08T12:21:42Z</time>
      </trkpt>
      <trkpt lat="46.19469" lon="2.44237">
        <ele>426</ele>
        <time>2016-04-08T12:21:45Z</time>
      </trkpt>
      <trkpt lat="46.19473" lon="2.44239">
        <ele>426</ele>
        <time>2016-04-08T12:21:48Z</time>
      </trkpt>
      <trkpt lat="46.19476" lon="2.44241">
        <ele>426</ele>
        <time>2016-04-08T12:21:51Z</time>
      </trkpt>
      <trkpt lat="46.1948" lon="2.44243">
        <ele>426</ele>
        <time>2016-04-08T12:21:54Z</time>
      </trkpt>
      <trkpt lat="46.19484" lon="2.44246">
        <ele>426</ele>
        <time>2016-04-08T12:21:57Z</time>
      </trkpt>
      <trkpt lat="46.19489" lon="2.44248">
        <ele>426</ele>
        <time>2016-04-08T12:22:00Z</time>
      </trkpt>
      <trkpt lat="46.19492" lon="2.4425">
        <ele>426</ele>
        <time>2016-04-08T12:22:03Z</time>
      </trkpt>
      <trkpt lat="46.19496" lon="2.44252">
        <ele>426</ele>
        <time>2016-04-08T12:22:06Z</time>
      </trkpt>
      <trkpt lat="46.195" lon="2.44254">
        <ele>426</ele>
        <time>2016-04-08T12:22:09Z</time>
      </trkpt>
      <trkpt lat="46.19504" lon="2.44256">
        <ele>426</ele>
        <time>2016-04-08T12:22:12Z</time>
      </trkpt>
      <trkpt lat="46.19508" lon="2.44259">
        <ele>426</ele>
        <time>2016-04-08T12:22:15Z</time>
      </trkpt>
      <trkpt lat="46.19512" lon="2.44261">
        <ele>426</ele>
        <time>2016-04-08T12:22:18Z</time>
      </trkpt>
      <trkpt lat="46.19516" lon="2.44263">
        <ele>426</ele>
        <time>2016-04-08T12:22:21Z</time>
      </trkpt>
      <trkpt lat="46.1952" lon="2.44266">
        <ele>426</ele>
        <time>2016-04-08T12:22:24Z</time>
      </trkpt>
      <trkpt lat="46.19524" lon="2.44268">
        <ele>426</ele>
        <time>2016-04-08T12:22:27Z</time>
      </trkpt>
      <trkpt lat="46.19528" lon="2.4427">
        <ele>426</ele>
        <time>2016-04-08T12:22:30Z</time>
      </trkpt>
      <trkpt lat="46.19532" lon="2.44272">
        <ele>426</ele>
        <time>2016-04-08T12:22:33Z</time>
      </trkpt>
      <trkpt lat="46.19536" lon="2.44274">
        <ele>427</ele>
        <time>2016-04-08T12:22:36Z</time>
      </trkpt>
      <trkpt lat="46.1954" lon="2.44277">
        <ele>427</ele>
        <time>2016-04-08T12:22:39Z</time>
      </trkpt>
      <trkpt lat="46.19544" lon="2.44279">
        <ele>427</ele>
        <time>2016-04-08T12:22:42Z</time>
      </trkpt>
      <trkpt lat="46.19548" lon="2.44282">
        <ele>427</ele>
        <time>2016-04-08T12:22:45Z</time>
      </trkpt>
      <trkpt lat="46.19552" lon="2.44284">
        <ele>427</ele>
        <time>2016-04-08T12:22:48Z</time>
      </trkpt>
      <trkpt lat="46.19556" lon="2.44286">
        <ele>427</ele>
        <time>2016-04-08T12:22:51Z</time>
      </trkpt>
      <trkpt lat="46.1956" lon="2.44288">
        <ele>427</ele>
        <time>2016-04-08T12:22:54Z</time>
      </trkpt>
      <trkpt lat="46.19564" lon="2.4429">
        <ele>427</ele>
        <time>2016-04-08T12:22:57Z</time>
      </trkpt>
      <trkpt lat="46.19568" lon="2.44292">
        <ele>427</ele>
        <time>2016-04-08T12:23:00Z</time>
      </trkpt>
      <trkpt lat="46.19572" lon="2.44295">
        <ele>427</ele>
        <time>2016-04-08T12:23:03Z</time>
      </trkpt>
      <trkpt lat="46.19576" lon="2.44297">
        <ele>427</ele>
        <time>2016-04-08T12:23:06Z</time>
      </trkpt>
      <trkpt lat="46.19579" lon="2.44299">
        <ele>427</ele>
        <time>2016-04-08T12:23:09Z</time>
      </trkpt>
      <trkpt lat="46.19583" lon="2.44301">
        <ele>427</ele>
        <time>2016-04-08T12:23:12Z</time>
      </trkpt>
      <trkpt lat="46.19587" lon="2.44303">
        <ele>427</ele>
        <time>2016-04-08T12:23:15Z</time>
      </trkpt>
      <trkpt lat="46.19591" lon="2.44305">
        <ele>428</ele>
        <time>2016-04-08T12:23:18Z</time>
      </trkpt>
      <trkpt lat="46.19595" lon="2.44307">
        <ele>428</ele>
        <time>2016-04-08T12:23:21Z</time>
      </trkpt>
      <trkpt lat="46.19598" lon="2.4431">
        <ele>429</ele>
        <time>2016-04-08T12:23:24Z</time>
      </trkpt>
      <trkpt lat="46.19603" lon="2.44313">
        <ele>429</ele>
        <time>2016-04-08T12:23:28Z</time>
      </trkpt>
      <trkpt lat="46.19608" lon="2.44317">
        <ele>430</ele>
        <time>2016-04-08T12:23:33Z</time>
      </trkpt>
      <trkpt lat="46.19608" lon="2.44319">
        <ele>430</ele>
        <time>2016-04-08T12:23:40Z</time>
      </trkpt>
      <trkpt lat="46.19608" lon="2.4432">
        <ele>430</ele>
        <time>2016-04-08T12:23:47Z</time>
      </trkpt>
      <trkpt lat="46.19609" lon="2.44322">
        <ele>430</ele>
        <time>2016-04-08T12:23:50Z</time>
      </trkpt>
      <trkpt lat="46.19609" lon="2.44323">
        <ele>431</ele>
        <time>2016-04-08T12:23:56Z</time>
      </trkpt>
      <trkpt lat="46.19606" lon="2.44326">
        <ele>431</ele>
        <time>2016-04-08T12:23:59Z</time>
      </trkpt>
      <trkpt lat="46.19602" lon="2.44328">
        <ele>431</ele>
        <time>2016-04-08T12:24:02Z</time>
      </trkpt>
      <trkpt lat="46.19598" lon="2.44331">
        <ele>431</ele>
        <time>2016-04-08T12:24:05Z</time>
      </trkpt>
      <trkpt lat="46.19594" lon="2.44334">
        <ele>431</ele>
        <time>2016-04-08T12:24:08Z</time>
      </trkpt>
      <trkpt lat="46.1959" lon="2.44336">
        <ele>431</ele>
        <time>2016-04-08T12:24:11Z</time>
      </trkpt>
      <trkpt lat="46.19587" lon="2.44338">
        <ele>431</ele>
        <time>2016-04-08T12:24:14Z</time>
      </trkpt>
      <trkpt lat="46.19582" lon="2.44341">
        <ele>431</ele>
        <time>2016-04-08T12:24:17Z</time>
      </trkpt>
      <trkpt lat="46.19579" lon="2.44343">
        <ele>431</ele>
        <time>2016-04-08T12:24:20Z</time>
      </trkpt>
      <trkpt lat="46.19575" lon="2.44346">
        <ele>431</ele>
        <time>2016-04-08T12:24:23Z</time>
      </trkpt>
      <trkpt lat="46.19569" lon="2.4435">
        <ele>431</ele>
        <time>2016-04-08T12:24:26Z</time>
      </trkpt>
      <trkpt lat="46.19565" lon="2.44353">
        <ele>431</ele>
        <time>2016-04-08T12:24:30Z</time>
      </trkpt>
      <trkpt lat="46.19561" lon="2.44356">
        <ele>431</ele>
        <time>2016-04-08T12:24:33Z</time>
      </trkpt>
      <trkpt lat="46.19558" lon="2.44359">
        <ele>431</ele>
        <time>2016-04-08T12:24:36Z</time>
      </trkpt>
      <trkpt lat="46.19552" lon="2.44363">
        <ele>431</ele>
        <time>2016-04-08T12:24:40Z</time>
      </trkpt>
      <trkpt lat="46.19547" lon="2.44368">
        <ele>431</ele>
        <time>2016-04-08T12:24:44Z</time>
      </trkpt>
      <trkpt lat="46.19542" lon="2.44372">
        <ele>431</ele>
        <time>2016-04-08T12:24:48Z</time>
      </trkpt>
      <trkpt lat="46.19538" lon="2.44374">
        <ele>431</ele>
        <time>2016-04-08T12:24:51Z</time>
      </trkpt>
      <trkpt lat="46.19534" lon="2.44379">
        <ele>431</ele>
        <time>2016-04-08T12:24:55Z</time>
      </trkpt>
      <trkpt lat="46.19529" lon="2.44384">
        <ele>431</ele>
        <time>2016-04-08T12:24:58Z</time>
      </trkpt>
      <trkpt lat="46.19525" lon="2.44387">
        <ele>431</ele>
        <time>2016-04-08T12:25:01Z</time>
      </trkpt>
      <trkpt lat="46.19521" lon="2.4439">
        <ele>431</ele>
        <time>2016-04-08T12:25:05Z</time>
      </trkpt>
      <trkpt lat="46.19517" lon="2.44392">
        <ele>431</ele>
        <time>2016-04-08T12:25:08Z</time>
      </trkpt>
      <trkpt lat="46.19513" lon="2.44394">
        <ele>431</ele>
        <time>2016-04-08T12:25:11Z</time>
      </trkpt>
      <trkpt lat="46.19507" lon="2.44396">
        <ele>431</ele>
        <time>2016-04-08T12:25:14Z</time>
      </trkpt>
      <trkpt lat="46.19503" lon="2.44398">
        <ele>431</ele>
        <time>2016-04-08T12:25:18Z</time>
      </trkpt>
      <trkpt lat="46.19497" lon="2.44398">
        <ele>431</ele>
        <time>2016-04-08T12:25:22Z</time>
      </trkpt>
      <trkpt lat="46.19491" lon="2.44397">
        <ele>431</ele>
        <time>2016-04-08T12:25:25Z</time>
      </trkpt>
      <trkpt lat="46.19487" lon="2.44395">
        <ele>431</ele>
        <time>2016-04-08T12:25:28Z</time>
      </trkpt>
      <trkpt lat="46.19483" lon="2.44394">
        <ele>431</ele>
        <time>2016-04-08T12:25:32Z</time>
      </trkpt>
      <trkpt lat="46.19477" lon="2.44392">
        <ele>431</ele>
        <time>2016-04-08T12:25:35Z</time>
      </trkpt>
      <trkpt lat="46.19473" lon="2.4439">
        <ele>431</ele>
        <time>2016-04-08T12:25:38Z</time>
      </trkpt>
      <trkpt lat="46.19469" lon="2.44388">
        <ele>431</ele>
        <time>2016-04-08T12:25:42Z</time>
      </trkpt>
      <trkpt lat="46.19464" lon="2.44389">
        <ele>431</ele>
        <time>2016-04-08T12:25:47Z</time>
      </trkpt>
      <trkpt lat="46.19459" lon="2.44387">
        <ele>431</ele>
        <time>2016-04-08T12:25:52Z</time>
      </trkpt>
      <trkpt lat="46.1946" lon="2.44395">
        <ele>431</ele>
        <time>2016-04-08T12:25:55Z</time>
      </trkpt>
      <trkpt lat="46.19461" lon="2.444">
        <ele>431</ele>
        <time>2016-04-08T12:25:58Z</time>
      </trkpt>
      <trkpt lat="46.19463" lon="2.44405">
        <ele>430</ele>
        <time>2016-04-08T12:26:02Z</time>
      </trkpt>
      <trkpt lat="46.19464" lon="2.4441">
        <ele>430</ele>
        <time>2016-04-08T12:26:05Z</time>
      </trkpt>
      <trkpt lat="46.19464" lon="2.44415">
        <ele>429</ele>
        <time>2016-04-08T12:26:08Z</time>
      </trkpt>
      <trkpt lat="46.19463" lon="2.44422">
        <ele>428</ele>
        <time>2016-04-08T12:26:11Z</time>
      </trkpt>
      <trkpt lat="46.19462" lon="2.44428">
        <ele>427</ele>
        <time>2016-04-08T12:26:14Z</time>
      </trkpt>
      <trkpt lat="46.19461" lon="2.44434">
        <ele>427</ele>
        <time>2016-04-08T12:26:18Z</time>
      </trkpt>
      <trkpt lat="46.1946" lon="2.4444">
        <ele>427</ele>
        <time>2016-04-08T12:26:21Z</time>
      </trkpt>
      <trkpt lat="46.19459" lon="2.44446">
        <ele>427</ele>
        <time>2016-04-08T12:26:24Z</time>
      </trkpt>
      <trkpt lat="46.19458" lon="2.44455">
        <ele>426</ele>
        <time>2016-04-08T12:26:28Z</time>
      </trkpt>
      <trkpt lat="46.19456" lon="2.44463">
        <ele>426</ele>
        <time>2016-04-08T12:26:32Z</time>
      </trkpt>
      <trkpt lat="46.19455" lon="2.44468">
        <ele>426</ele>
        <time>2016-04-08T12:26:35Z</time>
      </trkpt>
      <trkpt lat="46.19453" lon="2.44477">
        <ele>426</ele>
        <time>2016-04-08T12:26:39Z</time>
      </trkpt>
      <trkpt lat="46.19452" lon="2.44482">
        <ele>425</ele>
        <time>2016-04-08T12:26:42Z</time>
      </trkpt>
      <trkpt lat="46.1945" lon="2.44487">
        <ele>425</ele>
        <time>2016-04-08T12:26:45Z</time>
      </trkpt>
      <trkpt lat="46.19446" lon="2.44494">
        <ele>425</ele>
        <time>2016-04-08T12:26:48Z</time>
      </trkpt>
      <trkpt lat="46.19443" lon="2.44499">
        <ele>425</ele>
        <time>2016-04-08T12:26:52Z</time>
      </trkpt>
      <trkpt lat="46.1944" lon="2.44506">
        <ele>425</ele>
        <time>2016-04-08T12:26:56Z</time>
      </trkpt>
      <trkpt lat="46.19437" lon="2.44513">
        <ele>424</ele>
        <time>2016-04-08T12:26:59Z</time>
      </trkpt>
      <trkpt lat="46.19435" lon="2.44519">
        <ele>424</ele>
        <time>2016-04-08T12:27:02Z</time>
      </trkpt>
      <trkpt lat="46.19434" lon="2.44525">
        <ele>424</ele>
        <time>2016-04-08T12:27:05Z</time>
      </trkpt>
      <trkpt lat="46.19432" lon="2.44531">
        <ele>424</ele>
        <time>2016-04-08T12:27:09Z</time>
      </trkpt>
      <trkpt lat="46.19431" lon="2.44539">
        <ele>423</ele>
        <time>2016-04-08T12:27:12Z</time>
      </trkpt>
      <trkpt lat="46.1943" lon="2.44545">
        <ele>423</ele>
        <time>2016-04-08T12:27:15Z</time>
      </trkpt>
      <trkpt lat="46.19429" lon="2.44551">
        <ele>423</ele>
        <time>2016-04-08T12:27:19Z</time>
      </trkpt>
      <trkpt lat="46.19427" lon="2.4456">
        <ele>423</ele>
        <time>2016-04-08T12:27:22Z</time>
      </trkpt>
      <trkpt lat="46.19426" lon="2.44566">
        <ele>422</ele>
        <time>2016-04-08T12:27:25Z</time>
      </trkpt>
      <trkpt lat="46.19425" lon="2.44572">
        <ele>422</ele>
        <time>2016-04-08T12:27:29Z</time>
      </trkpt>
      <trkpt lat="46.19423" lon="2.44581">
        <ele>422</ele>
        <time>2016-04-08T12:27:32Z</time>
      </trkpt>
      <trkpt lat="46.19422" lon="2.44587">
        <ele>422</ele>
        <time>2016-04-08T12:27:35Z</time>
      </trkpt>
      <trkpt lat="46.19421" lon="2.44594">
        <ele>422</ele>
        <time>2016-04-08T12:27:39Z</time>
      </trkpt>
      <trkpt lat="46.19421" lon="2.44602">
        <ele>421</ele>
        <time>2016-04-08T12:27:42Z</time>
      </trkpt>
      <trkpt lat="46.19422" lon="2.44608">
        <ele>421</ele>
        <time>2016-04-08T12:27:45Z</time>
      </trkpt>
      <trkpt lat="46.19424" lon="2.44614">
        <ele>421</ele>
        <time>2016-04-08T12:27:49Z</time>
      </trkpt>
      <trkpt lat="46.19427" lon="2.44621">
        <ele>421</ele>
        <time>2016-04-08T12:27:53Z</time>
      </trkpt>
      <trkpt lat="46.1943" lon="2.44628">
        <ele>420</ele>
        <time>2016-04-08T12:27:56Z</time>
      </trkpt>
      <trkpt lat="46.19433" lon="2.44633">
        <ele>420</ele>
        <time>2016-04-08T12:27:59Z</time>
      </trkpt>
      <trkpt lat="46.19436" lon="2.44638">
        <ele>420</ele>
        <time>2016-04-08T12:28:02Z</time>
      </trkpt>
      <trkpt lat="46.19438" lon="2.44643">
        <ele>419</ele>
        <time>2016-04-08T12:28:05Z</time>
      </trkpt>
      <trkpt lat="46.19441" lon="2.44648">
        <ele>419</ele>
        <time>2016-04-08T12:28:09Z</time>
      </trkpt>
      <trkpt lat="46.19444" lon="2.44654">
        <ele>418</ele>
        <time>2016-04-08T12:28:12Z</time>
      </trkpt>
      <trkpt lat="46.19445" lon="2.4466">
        <ele>418</ele>
        <time>2016-04-08T12:28:15Z</time>
      </trkpt>
      <trkpt lat="46.19444" lon="2.44665">
        <ele>417</ele>
        <time>2016-04-08T12:28:19Z</time>
      </trkpt>
      <trkpt lat="46.19444" lon="2.44672">
        <ele>416</ele>
        <time>2016-04-08T12:28:22Z</time>
      </trkpt>
      <trkpt lat="46.19444" lon="2.44678">
        <ele>416</ele>
        <time>2016-04-08T12:28:25Z</time>
      </trkpt>
      <trkpt lat="46.19443" lon="2.44684">
        <ele>416</ele>
        <time>2016-04-08T12:28:29Z</time>
      </trkpt>
      <trkpt lat="46.19443" lon="2.44691">
        <ele>416</ele>
        <time>2016-04-08T12:28:32Z</time>
      </trkpt>
      <trkpt lat="46.19442" lon="2.44697">
        <ele>416</ele>
        <time>2016-04-08T12:28:35Z</time>
      </trkpt>
      <trkpt lat="46.19442" lon="2.44703">
        <ele>416</ele>
        <time>2016-04-08T12:28:39Z</time>
      </trkpt>
      <trkpt lat="46.19443" lon="2.4471">
        <ele>416</ele>
        <time>2016-04-08T12:28:42Z</time>
      </trkpt>
      <trkpt lat="46.19443" lon="2.44715">
        <ele>416</ele>
        <time>2016-04-08T12:28:45Z</time>
      </trkpt>
      <trkpt lat="46.19443" lon="2.44721">
        <ele>415</ele>
        <time>2016-04-08T12:28:49Z</time>
      </trkpt>
      <trkpt lat="46.19443" lon="2.44728">
        <ele>415</ele>
        <time>2016-04-08T12:28:52Z</time>
      </trkpt>
      <trkpt lat="46.19443" lon="2.44735">
        <ele>414</ele>
        <time>2016-04-08T12:28:55Z</time>
      </trkpt>
      <trkpt lat="46.19444" lon="2.44741">
        <ele>414</ele>
        <time>2016-04-08T12:28:59Z</time>
      </trkpt>
      <trkpt lat="46.19444" lon="2.44749">
        <ele>414</ele>
        <time>2016-04-08T12:29:02Z</time>
      </trkpt>
      <trkpt lat="46.19444" lon="2.44755">
        <ele>414</ele>
        <time>2016-04-08T12:29:05Z</time>
      </trkpt>
      <trkpt lat="46.19444" lon="2.44761">
        <ele>414</ele>
        <time>2016-04-08T12:29:09Z</time>
      </trkpt>
      <trkpt lat="46.19442" lon="2.44769">
        <ele>414</ele>
        <time>2016-04-08T12:29:12Z</time>
      </trkpt>
      <trkpt lat="46.19441" lon="2.44775">
        <ele>414</ele>
        <time>2016-04-08T12:29:15Z</time>
      </trkpt>
      <trkpt lat="46.1944" lon="2.44781">
        <ele>414</ele>
        <time>2016-04-08T12:29:19Z</time>
      </trkpt>
      <trkpt lat="46.19438" lon="2.44788">
        <ele>414</ele>
        <time>2016-04-08T12:29:22Z</time>
      </trkpt>
      <trkpt lat="46.19436" lon="2.44794">
        <ele>414</ele>
        <time>2016-04-08T12:29:25Z</time>
      </trkpt>
      <trkpt lat="46.19434" lon="2.448">
        <ele>414</ele>
        <time>2016-04-08T12:29:29Z</time>
      </trkpt>
      <trkpt lat="46.19432" lon="2.44808">
        <ele>414</ele>
        <time>2016-04-08T12:29:32Z</time>
      </trkpt>
      <trkpt lat="46.1943" lon="2.44814">
        <ele>414</ele>
        <time>2016-04-08T12:29:35Z</time>
      </trkpt>
      <trkpt lat="46.19429" lon="2.4482">
        <ele>414</ele>
        <time>2016-04-08T12:29:39Z</time>
      </trkpt>
      <trkpt lat="46.19426" lon="2.44827">
        <ele>414</ele>
        <time>2016-04-08T12:29:42Z</time>
      </trkpt>
      <trkpt lat="46.19425" lon="2.44832">
        <ele>414</ele>
        <time>2016-04-08T12:29:45Z</time>
      </trkpt>
      <trkpt lat="46.19423" lon="2.44838">
        <ele>414</ele>
        <time>2016-04-08T12:29:49Z</time>
      </trkpt>
      <trkpt lat="46.19421" lon="2.44846">
        <ele>415</ele>
        <time>2016-04-08T12:29:52Z</time>
      </trkpt>
      <trkpt lat="46.1942" lon="2.44851">
        <ele>415</ele>
        <time>2016-04-08T12:29:55Z</time>
      </trkpt>
      <trkpt lat="46.19418" lon="2.44857">
        <ele>416</ele>
        <time>2016-04-08T12:29:59Z</time>
      </trkpt>
      <trkpt lat="46.19415" lon="2.44864">
        <ele>416</ele>
        <time>2016-04-08T12:30:02Z</time>
      </trkpt>
      <trkpt lat="46.19414" lon="2.44869">
        <ele>416</ele>
        <time>2016-04-08T12:30:05Z</time>
      </trkpt>
      <trkpt lat="46.19413" lon="2.44875">
        <ele>416</ele>
        <time>2016-04-08T12:30:09Z</time>
      </trkpt>
      <trkpt lat="46.19411" lon="2.44882">
        <ele>416</ele>
        <time>2016-04-08T12:30:12Z</time>
      </trkpt>
      <trkpt lat="46.19409" lon="2.44888">
        <ele>416</ele>
        <time>2016-04-08T12:30:15Z</time>
      </trkpt>
      <trkpt lat="46.19408" lon="2.44895">
        <ele>417</ele>
        <time>2016-04-08T12:30:19Z</time>
      </trkpt>
      <trkpt lat="46.19405" lon="2.44902">
        <ele>417</ele>
        <time>2016-04-08T12:30:22Z</time>
      </trkpt>
      <trkpt lat="46.19404" lon="2.44908">
        <ele>418</ele>
        <time>2016-04-08T12:30:25Z</time>
      </trkpt>
      <trkpt lat="46.19402" lon="2.44914">
        <ele>418</ele>
        <time>2016-04-08T12:30:29Z</time>
      </trkpt>
      <trkpt lat="46.19401" lon="2.44921">
        <ele>418</ele>
        <time>2016-04-08T12:30:32Z</time>
      </trkpt>
      <trkpt lat="46.194" lon="2.44927">
        <ele>418</ele>
        <time>2016-04-08T12:30:35Z</time>
      </trkpt>
      <trkpt lat="46.19398" lon="2.44933">
        <ele>418</ele>
        <time>2016-04-08T12:30:39Z</time>
      </trkpt>
      <trkpt lat="46.19396" lon="2.4494">
        <ele>418</ele>
        <time>2016-04-08T12:30:42Z</time>
      </trkpt>
      <trkpt lat="46.19395" lon="2.44945">
        <ele>419</ele>
        <time>2016-04-08T12:30:45Z</time>
      </trkpt>
      <trkpt lat="46.19393" lon="2.44951">
        <ele>419</ele>
        <time>2016-04-08T12:30:48Z</time>
      </trkpt>
      <trkpt lat="46.19392" lon="2.44956">
        <ele>420</ele>
        <time>2016-04-08T12:30:51Z</time>
      </trkpt>
      <trkpt lat="46.1939" lon="2.44962">
        <ele>421</ele>
        <time>2016-04-08T12:30:54Z</time>
      </trkpt>
      <trkpt lat="46.19388" lon="2.44967">
        <ele>421</ele>
        <time>2016-04-08T12:30:57Z</time>
      </trkpt>
      <trkpt lat="46.19387" lon="2.44973">
        <ele>422</ele>
        <time>2016-04-08T12:31:00Z</time>
      </trkpt>
      <trkpt lat="46.19386" lon="2.44978">
        <ele>422</ele>
        <time>2016-04-08T12:31:04Z</time>
      </trkpt>
      <trkpt lat="46.19383" lon="2.44986">
        <ele>423</ele>
        <time>2016-04-08T12:31:07Z</time>
      </trkpt>
      <trkpt lat="46.19382" lon="2.44991">
        <ele>423</ele>
        <time>2016-04-08T12:31:10Z</time>
      </trkpt>
      <trkpt lat="46.1938" lon="2.44997">
        <ele>423</ele>
        <time>2016-04-08T12:31:14Z</time>
      </trkpt>
      <trkpt lat="46.19378" lon="2.45005">
        <ele>423</ele>
        <time>2016-04-08T12:31:17Z</time>
      </trkpt>
      <trkpt lat="46.19376" lon="2.4501">
        <ele>424</ele>
        <time>2016-04-08T12:31:20Z</time>
      </trkpt>
      <trkpt lat="46.19375" lon="2.45016">
        <ele>424</ele>
        <time>2016-04-08T12:31:24Z</time>
      </trkpt>
      <trkpt lat="46.19373" lon="2.45024">
        <ele>425</ele>
        <time>2016-04-08T12:31:27Z</time>
      </trkpt>
      <trkpt lat="46.19372" lon="2.45029">
        <ele>425</ele>
        <time>2016-04-08T12:31:30Z</time>
      </trkpt>
      <trkpt lat="46.19371" lon="2.45035">
        <ele>426</ele>
        <time>2016-04-08T12:31:33Z</time>
      </trkpt>
      <trkpt lat="46.1937" lon="2.45041">
        <ele>426</ele>
        <time>2016-04-08T12:31:36Z</time>
      </trkpt>
      <trkpt lat="46.19368" lon="2.45047">
        <ele>426</ele>
        <time>2016-04-08T12:31:39Z</time>
      </trkpt>
      <trkpt lat="46.19368" lon="2.45052">
        <ele>426</ele>
        <time>2016-04-08T12:31:42Z</time>
      </trkpt>
      <trkpt lat="46.19366" lon="2.45058">
        <ele>426</ele>
        <time>2016-04-08T12:31:45Z</time>
      </trkpt>
      <trkpt lat="46.19365" lon="2.45064">
        <ele>426</ele>
        <time>2016-04-08T12:31:49Z</time>
      </trkpt>
      <trkpt lat="46.19364" lon="2.45072">
        <ele>426</ele>
        <time>2016-04-08T12:31:52Z</time>
      </trkpt>
      <trkpt lat="46.19363" lon="2.45077">
        <ele>427</ele>
        <time>2016-04-08T12:31:55Z</time>
      </trkpt>
      <trkpt lat="46.19363" lon="2.45083">
        <ele>428</ele>
        <time>2016-04-08T12:31:59Z</time>
      </trkpt>
      <trkpt lat="46.19361" lon="2.45091">
        <ele>428</ele>
        <time>2016-04-08T12:32:02Z</time>
      </trkpt>
      <trkpt lat="46.1936" lon="2.45096">
        <ele>428</ele>
        <time>2016-04-08T12:32:05Z</time>
      </trkpt>
      <trkpt lat="46.1936" lon="2.45102">
        <ele>428</ele>
        <time>2016-04-08T12:32:09Z</time>
      </trkpt>
      <trkpt lat="46.19359" lon="2.45111">
        <ele>429</ele>
        <time>2016-04-08T12:32:12Z</time>
      </trkpt>
      <trkpt lat="46.19358" lon="2.45116">
        <ele>429</ele>
        <time>2016-04-08T12:32:15Z</time>
      </trkpt>
      <trkpt lat="46.19358" lon="2.45123">
        <ele>429</ele>
        <time>2016-04-08T12:32:19Z</time>
      </trkpt>
      <trkpt lat="46.19356" lon="2.45132">
        <ele>429</ele>
        <time>2016-04-08T12:32:22Z</time>
      </trkpt>
      <trkpt lat="46.19355" lon="2.45139">
        <ele>430</ele>
        <time>2016-04-08T12:32:25Z</time>
      </trkpt>
      <trkpt lat="46.19355" lon="2.45145">
        <ele>430</ele>
        <time>2016-04-08T12:32:29Z</time>
      </trkpt>
      <trkpt lat="46.19354" lon="2.45153">
        <ele>430</ele>
        <time>2016-04-08T12:32:32Z</time>
      </trkpt>
      <trkpt lat="46.19353" lon="2.45159">
        <ele>430</ele>
        <time>2016-04-08T12:32:35Z</time>
      </trkpt>
      <trkpt lat="46.19352" lon="2.45165">
        <ele>430</ele>
        <time>2016-04-08T12:32:39Z</time>
      </trkpt>
      <trkpt lat="46.19352" lon="2.45173">
        <ele>430</ele>
        <time>2016-04-08T12:32:42Z</time>
      </trkpt>
      <trkpt lat="46.19351" lon="2.45179">
        <ele>430</ele>
        <time>2016-04-08T12:32:45Z</time>
      </trkpt>
      <trkpt lat="46.19351" lon="2.45185">
        <ele>430</ele>
        <time>2016-04-08T12:32:48Z</time>
      </trkpt>
      <trkpt lat="46.1935" lon="2.45192">
        <ele>430</ele>
        <time>2016-04-08T12:32:51Z</time>
      </trkpt>
      <trkpt lat="46.1935" lon="2.45198">
        <ele>430</ele>
        <time>2016-04-08T12:32:54Z</time>
      </trkpt>
      <trkpt lat="46.19349" lon="2.45204">
        <ele>430</ele>
        <time>2016-04-08T12:32:57Z</time>
      </trkpt>
      <trkpt lat="46.19349" lon="2.4521">
        <ele>430</ele>
        <time>2016-04-08T12:33:00Z</time>
      </trkpt>
      <trkpt lat="46.19348" lon="2.45216">
        <ele>430</ele>
        <time>2016-04-08T12:33:03Z</time>
      </trkpt>
      <trkpt lat="46.19347" lon="2.45222">
        <ele>430</ele>
        <time>2016-04-08T12:33:06Z</time>
      </trkpt>
      <trkpt lat="46.19347" lon="2.45228">
        <ele>430</ele>
        <time>2016-04-08T12:33:09Z</time>
      </trkpt>
      <trkpt lat="46.19346" lon="2.45234">
        <ele>430</ele>
        <time>2016-04-08T12:33:12Z</time>
      </trkpt>
      <trkpt lat="46.19345" lon="2.4524">
        <ele>430</ele>
        <time>2016-04-08T12:33:15Z</time>
      </trkpt>
      <trkpt lat="46.19344" lon="2.45246">
        <ele>430</ele>
        <time>2016-04-08T12:33:18Z</time>
      </trkpt>
      <trkpt lat="46.19344" lon="2.45252">
        <ele>430</ele>
        <time>2016-04-08T12:33:21Z</time>
      </trkpt>
      <trkpt lat="46.19343" lon="2.45258">
        <ele>430</ele>
        <time>2016-04-08T12:33:24Z</time>
      </trkpt>
      <trkpt lat="46.19343" lon="2.45264">
        <ele>430</ele>
        <time>2016-04-08T12:33:27Z</time>
      </trkpt>
      <trkpt lat="46.19342" lon="2.4527">
        <ele>430</ele>
        <time>2016-04-08T12:33:30Z</time>
      </trkpt>
      <trkpt lat="46.19341" lon="2.45276">
        <ele>430</ele>
        <time>2016-04-08T12:33:33Z</time>
      </trkpt>
      <trkpt lat="46.19341" lon="2.45282">
        <ele>430</ele>
        <time>2016-04-08T12:33:36Z</time>
      </trkpt>
      <trkpt lat="46.1934" lon="2.45288">
        <ele>430</ele>
        <time>2016-04-08T12:33:39Z</time>
      </trkpt>
      <trkpt lat="46.19339" lon="2.45295">
        <ele>430</ele>
        <time>2016-04-08T12:33:42Z</time>
      </trkpt>
      <trkpt lat="46.19339" lon="2.45301">
        <ele>430</ele>
        <time>2016-04-08T12:33:45Z</time>
      </trkpt>
      <trkpt lat="46.19338" lon="2.45308">
        <ele>430</ele>
        <time>2016-04-08T12:33:48Z</time>
      </trkpt>
      <trkpt lat="46.19337" lon="2.45314">
        <ele>430</ele>
        <time>2016-04-08T12:33:51Z</time>
      </trkpt>
      <trkpt lat="46.19336" lon="2.4532">
        <ele>430</ele>
        <time>2016-04-08T12:33:54Z</time>
      </trkpt>
      <trkpt lat="46.19336" lon="2.45326">
        <ele>430</ele>
        <time>2016-04-08T12:33:57Z</time>
      </trkpt>
      <trkpt lat="46.19335" lon="2.45333">
        <ele>430</ele>
        <time>2016-04-08T12:34:00Z</time>
      </trkpt>
      <trkpt lat="46.19334" lon="2.45339">
        <ele>430</ele>
        <time>2016-04-08T12:34:03Z</time>
      </trkpt>
      <trkpt lat="46.19333" lon="2.45345">
        <ele>430</ele>
        <time>2016-04-08T12:34:06Z</time>
      </trkpt>
      <trkpt lat="46.19332" lon="2.45351">
        <ele>430</ele>
        <time>2016-04-08T12:34:09Z</time>
      </trkpt>
      <trkpt lat="46.19332" lon="2.45357">
        <ele>430</ele>
        <time>2016-04-08T12:34:12Z</time>
      </trkpt>
      <trkpt lat="46.19331" lon="2.45363">
        <ele>430</ele>
        <time>2016-04-08T12:34:15Z</time>
      </trkpt>
      <trkpt lat="46.1933" lon="2.45369">
        <ele>430</ele>
        <time>2016-04-08T12:34:18Z</time>
      </trkpt>
      <trkpt lat="46.19329" lon="2.45375">
        <ele>430</ele>
        <time>2016-04-08T12:34:21Z</time>
      </trkpt>
      <trkpt lat="46.19328" lon="2.45381">
        <ele>430</ele>
        <time>2016-04-08T12:34:24Z</time>
      </trkpt>
      <trkpt lat="46.19327" lon="2.45387">
        <ele>430</ele>
        <time>2016-04-08T12:34:27Z</time>
      </trkpt>
      <trkpt lat="46.19326" lon="2.45393">
        <ele>430</ele>
        <time>2016-04-08T12:34:30Z</time>
      </trkpt>
      <trkpt lat="46.19324" lon="2.45398">
        <ele>430</ele>
        <time>2016-04-08T12:34:33Z</time>
      </trkpt>
      <trkpt lat="46.19323" lon="2.45404">
        <ele>430</ele>
        <time>2016-04-08T12:34:36Z</time>
      </trkpt>
      <trkpt lat="46.19321" lon="2.45409">
        <ele>430</ele>
        <time>2016-04-08T12:34:39Z</time>
      </trkpt>
      <trkpt lat="46.19321" lon="2.45413">
        <ele>430</ele>
        <time>2016-04-08T12:34:42Z</time>
      </trkpt>
      <trkpt lat="46.19322" lon="2.45418">
        <ele>430</ele>
        <time>2016-04-08T12:34:46Z</time>
      </trkpt>
      <trkpt lat="46.19325" lon="2.45422">
        <ele>430</ele>
        <time>2016-04-08T12:35:03Z</time>
      </trkpt>
      <trkpt lat="46.19326" lon="2.45424">
        <ele>430</ele>
        <time>2016-04-08T12:35:25Z</time>
      </trkpt>
      <trkpt lat="46.19329" lon="2.45425">
        <ele>430</ele>
        <time>2016-04-08T12:35:28Z</time>
      </trkpt>
      <trkpt lat="46.19333" lon="2.45426">
        <ele>430</ele>
        <time>2016-04-08T12:35:31Z</time>
      </trkpt>
      <trkpt lat="46.19337" lon="2.45426">
        <ele>430</ele>
        <time>2016-04-08T12:35:34Z</time>
      </trkpt>
      <trkpt lat="46.19341" lon="2.45426">
        <ele>430</ele>
        <time>2016-04-08T12:35:37Z</time>
      </trkpt>
      <trkpt lat="46.19346" lon="2.45426">
        <ele>430</ele>
        <time>2016-04-08T12:35:40Z</time>
      </trkpt>
      <trkpt lat="46.1935" lon="2.45426">
        <ele>430</ele>
        <time>2016-04-08T12:35:43Z</time>
      </trkpt>
      <trkpt lat="46.19355" lon="2.45426">
        <ele>430</ele>
        <time>2016-04-08T12:35:46Z</time>
      </trkpt>
      <trkpt lat="46.1936" lon="2.45428">
        <ele>430</ele>
        <time>2016-04-08T12:35:50Z</time>
      </trkpt>
      <trkpt lat="46.19363" lon="2.45429">
        <ele>430</ele>
        <time>2016-04-08T12:35:53Z</time>
      </trkpt>
      <trkpt lat="46.19367" lon="2.4543">
        <ele>430</ele>
        <time>2016-04-08T12:35:56Z</time>
      </trkpt>
      <trkpt lat="46.19372" lon="2.4543">
        <ele>430</ele>
        <time>2016-04-08T12:35:59Z</time>
      </trkpt>
      <trkpt lat="46.19377" lon="2.45431">
        <ele>430</ele>
        <time>2016-04-08T12:36:03Z</time>
      </trkpt>
      <trkpt lat="46.19381" lon="2.45433">
        <ele>430</ele>
        <time>2016-04-08T12:36:06Z</time>
      </trkpt>
      <trkpt lat="46.19386" lon="2.45434">
        <ele>430</ele>
        <time>2016-04-08T12:36:09Z</time>
      </trkpt>
      <trkpt lat="46.1939" lon="2.45436">
        <ele>430</ele>
        <time>2016-04-08T12:36:12Z</time>
      </trkpt>
      <trkpt lat="46.19395" lon="2.45438">
        <ele>430</ele>
        <time>2016-04-08T12:36:15Z</time>
      </trkpt>
      <trkpt lat="46.19399" lon="2.45438">
        <ele>430</ele>
        <time>2016-04-08T12:36:18Z</time>
      </trkpt>
      <trkpt lat="46.19403" lon="2.4544">
        <ele>430</ele>
        <time>2016-04-08T12:36:21Z</time>
      </trkpt>
      <trkpt lat="46.19407" lon="2.45442">
        <ele>430</ele>
        <time>2016-04-08T12:36:24Z</time>
      </trkpt>
      <trkpt lat="46.19412" lon="2.45443">
        <ele>430</ele>
        <time>2016-04-08T12:36:27Z</time>
      </trkpt>
      <trkpt lat="46.19416" lon="2.45444">
        <ele>430</ele>
        <time>2016-04-08T12:36:30Z</time>
      </trkpt>
      <trkpt lat="46.19421" lon="2.45446">
        <ele>430</ele>
        <time>2016-04-08T12:36:33Z</time>
      </trkpt>
      <trkpt lat="46.19425" lon="2.45446">
        <ele>430</ele>
        <time>2016-04-08T12:36:36Z</time>
      </trkpt>
      <trkpt lat="46.19429" lon="2.45446">
        <ele>430</ele>
        <time>2016-04-08T12:36:39Z</time>
      </trkpt>
      <trkpt lat="46.19434" lon="2.45446">
        <ele>430</ele>
        <time>2016-04-08T12:36:42Z</time>
      </trkpt>
      <trkpt lat="46.19438" lon="2.45447">
        <ele>430</ele>
        <time>2016-04-08T12:36:45Z</time>
      </trkpt>
      <trkpt lat="46.19442" lon="2.45448">
        <ele>430</ele>
        <time>2016-04-08T12:36:48Z</time>
      </trkpt>
      <trkpt lat="46.19446" lon="2.45449">
        <ele>430</ele>
        <time>2016-04-08T12:36:51Z</time>
      </trkpt>
      <trkpt lat="46.1945" lon="2.4545">
        <ele>430</ele>
        <time>2016-04-08T12:36:54Z</time>
      </trkpt>
      <trkpt lat="46.19454" lon="2.45452">
        <ele>430</ele>
        <time>2016-04-08T12:36:57Z</time>
      </trkpt>
      <trkpt lat="46.19458" lon="2.45455">
        <ele>429</ele>
        <time>2016-04-08T12:37:01Z</time>
      </trkpt>
      <trkpt lat="46.19462" lon="2.45456">
        <ele>429</ele>
        <time>2016-04-08T12:37:04Z</time>
      </trkpt>
      <trkpt lat="46.19467" lon="2.45459">
        <ele>428</ele>
        <time>2016-04-08T12:37:07Z</time>
      </trkpt>
      <trkpt lat="46.19471" lon="2.4546">
        <ele>428</ele>
        <time>2016-04-08T12:37:10Z</time>
      </trkpt>
      <trkpt lat="46.19476" lon="2.45462">
        <ele>428</ele>
        <time>2016-04-08T12:37:13Z</time>
      </trkpt>
      <trkpt lat="46.19481" lon="2.45462">
        <ele>428</ele>
        <time>2016-04-08T12:37:16Z</time>
      </trkpt>
      <trkpt lat="46.19485" lon="2.45464">
        <ele>428</ele>
        <time>2016-04-08T12:37:19Z</time>
      </trkpt>
      <trkpt lat="46.19489" lon="2.45464">
        <ele>428</ele>
        <time>2016-04-08T12:37:22Z</time>
      </trkpt>
      <trkpt lat="46.19493" lon="2.45464">
        <ele>428</ele>
        <time>2016-04-08T12:37:25Z</time>
      </trkpt>
      <trkpt lat="46.19497" lon="2.45465">
        <ele>428</ele>
        <time>2016-04-08T12:37:28Z</time>
      </trkpt>
      <trkpt lat="46.19501" lon="2.45465">
        <ele>428</ele>
        <time>2016-04-08T12:37:31Z</time>
      </trkpt>
      <trkpt lat="46.19505" lon="2.45466">
        <ele>428</ele>
        <time>2016-04-08T12:37:34Z</time>
      </trkpt>
      <trkpt lat="46.19509" lon="2.45467">
        <ele>428</ele>
        <time>2016-04-08T12:37:37Z</time>
      </trkpt>
      <trkpt lat="46.19513" lon="2.45466">
        <ele>428</ele>
        <time>2016-04-08T12:37:40Z</time>
      </trkpt>
      <trkpt lat="46.19518" lon="2.45465">
        <ele>428</ele>
        <time>2016-04-08T12:37:44Z</time>
      </trkpt>
      <trkpt lat="46.19521" lon="2.45463">
        <ele>428</ele>
        <time>2016-04-08T12:37:49Z</time>
      </trkpt>
      <trkpt lat="46.19524" lon="2.45465">
        <ele>428</ele>
        <time>2016-04-08T12:37:52Z</time>
      </trkpt>
      <trkpt lat="46.19527" lon="2.45464">
        <ele>428</ele>
        <time>2016-04-08T12:37:55Z</time>
      </trkpt>
      <trkpt lat="46.19531" lon="2.45463">
        <ele>428</ele>
        <time>2016-04-08T12:37:58Z</time>
      </trkpt>
      <trkpt lat="46.19535" lon="2.45462">
        <ele>428</ele>
        <time>2016-04-08T12:38:01Z</time>
      </trkpt>
      <trkpt lat="46.1954" lon="2.45461">
        <ele>427</ele>
        <time>2016-04-08T12:38:04Z</time>
      </trkpt>
      <trkpt lat="46.19544" lon="2.4546">
        <ele>427</ele>
        <time>2016-04-08T12:38:07Z</time>
      </trkpt>
      <trkpt lat="46.19548" lon="2.45459">
        <ele>426</ele>
        <time>2016-04-08T12:38:10Z</time>
      </trkpt>
      <trkpt lat="46.19553" lon="2.45458">
        <ele>425</ele>
        <time>2016-04-08T12:38:13Z</time>
      </trkpt>
      <trkpt lat="46.19557" lon="2.45456">
        <ele>424</ele>
        <time>2016-04-08T12:38:16Z</time>
      </trkpt>
      <trkpt lat="46.19561" lon="2.45454">
        <ele>424</ele>
        <time>2016-04-08T12:38:19Z</time>
      </trkpt>
      <trkpt lat="46.19565" lon="2.45452">
        <ele>424</ele>
        <time>2016-04-08T12:38:22Z</time>
      </trkpt>
      <trkpt lat="46.19569" lon="2.4545">
        <ele>424</ele>
        <time>2016-04-08T12:38:25Z</time>
      </trkpt>
      <trkpt lat="46.19573" lon="2.45448">
        <ele>424</ele>
        <time>2016-04-08T12:38:28Z</time>
      </trkpt>
      <trkpt lat="46.19577" lon="2.45446">
        <ele>424</ele>
        <time>2016-04-08T12:38:31Z</time>
      </trkpt>
      <trkpt lat="46.19582" lon="2.45444">
        <ele>424</ele>
        <time>2016-04-08T12:38:34Z</time>
      </trkpt>
      <trkpt lat="46.19585" lon="2.45441">
        <ele>424</ele>
        <time>2016-04-08T12:38:37Z</time>
      </trkpt>
      <trkpt lat="46.19589" lon="2.4544">
        <ele>424</ele>
        <time>2016-04-08T12:38:40Z</time>
      </trkpt>
      <trkpt lat="46.19593" lon="2.45438">
        <ele>424</ele>
        <time>2016-04-08T12:38:43Z</time>
      </trkpt>
      <trkpt lat="46.19598" lon="2.45436">
        <ele>424</ele>
        <time>2016-04-08T12:38:46Z</time>
      </trkpt>
      <trkpt lat="46.19602" lon="2.45434">
        <ele>424</ele>
        <time>2016-04-08T12:38:49Z</time>
      </trkpt>
      <trkpt lat="46.19606" lon="2.45431">
        <ele>424</ele>
        <time>2016-04-08T12:38:52Z</time>
      </trkpt>
      <trkpt lat="46.19611" lon="2.45429">
        <ele>424</ele>
        <time>2016-04-08T12:38:55Z</time>
      </trkpt>
      <trkpt lat="46.19615" lon="2.45427">
        <ele>424</ele>
        <time>2016-04-08T12:38:58Z</time>
      </trkpt>
      <trkpt lat="46.1962" lon="2.45425">
        <ele>424</ele>
        <time>2016-04-08T12:39:01Z</time>
      </trkpt>
      <trkpt lat="46.19624" lon="2.45424">
        <ele>424</ele>
        <time>2016-04-08T12:39:04Z</time>
      </trkpt>
      <trkpt lat="46.19629" lon="2.45422">
        <ele>424</ele>
        <time>2016-04-08T12:39:07Z</time>
      </trkpt>
      <trkpt lat="46.19633" lon="2.4542">
        <ele>424</ele>
        <time>2016-04-08T12:39:10Z</time>
      </trkpt>
      <trkpt lat="46.19638" lon="2.45419">
        <ele>424</ele>
        <time>2016-04-08T12:39:13Z</time>
      </trkpt>
      <trkpt lat="46.19642" lon="2.45418">
        <ele>424</ele>
        <time>2016-04-08T12:39:16Z</time>
      </trkpt>
      <trkpt lat="46.19647" lon="2.45417">
        <ele>424</ele>
        <time>2016-04-08T12:39:19Z</time>
      </trkpt>
      <trkpt lat="46.19651" lon="2.45415">
        <ele>423</ele>
        <time>2016-04-08T12:39:22Z</time>
      </trkpt>
      <trkpt lat="46.19655" lon="2.45414">
        <ele>423</ele>
        <time>2016-04-08T12:39:25Z</time>
      </trkpt>
      <trkpt lat="46.1966" lon="2.45412">
        <ele>423</ele>
        <time>2016-04-08T12:39:28Z</time>
      </trkpt>
      <trkpt lat="46.19664" lon="2.4541">
        <ele>423</ele>
        <time>2016-04-08T12:39:31Z</time>
      </trkpt>
      <trkpt lat="46.19668" lon="2.45409">
        <ele>423</ele>
        <time>2016-04-08T12:39:34Z</time>
      </trkpt>
      <trkpt lat="46.19673" lon="2.45408">
        <ele>423</ele>
        <time>2016-04-08T12:39:37Z</time>
      </trkpt>
      <trkpt lat="46.19677" lon="2.45408">
        <ele>422</ele>
        <time>2016-04-08T12:39:40Z</time>
      </trkpt>
      <trkpt lat="46.19681" lon="2.45408">
        <ele>422</ele>
        <time>2016-04-08T12:39:43Z</time>
      </trkpt>
      <trkpt lat="46.19685" lon="2.45408">
        <ele>422</ele>
        <time>2016-04-08T12:39:46Z</time>
      </trkpt>
      <trkpt lat="46.1969" lon="2.45408">
        <ele>422</ele>
        <time>2016-04-08T12:39:49Z</time>
      </trkpt>
      <trkpt lat="46.19695" lon="2.45408">
        <ele>422</ele>
        <time>2016-04-08T12:39:52Z</time>
      </trkpt>
      <trkpt lat="46.19699" lon="2.45408">
        <ele>421</ele>
        <time>2016-04-08T12:39:55Z</time>
      </trkpt>
      <trkpt lat="46.19704" lon="2.45408">
        <ele>421</ele>
        <time>2016-04-08T12:39:58Z</time>
      </trkpt>
      <trkpt lat="46.19708" lon="2.45407">
        <ele>421</ele>
        <time>2016-04-08T12:40:01Z</time>
      </trkpt>
      <trkpt lat="46.19712" lon="2.45406">
        <ele>421</ele>
        <time>2016-04-08T12:40:04Z</time>
      </trkpt>
      <trkpt lat="46.19717" lon="2.45406">
        <ele>420</ele>
        <time>2016-04-08T12:40:07Z</time>
      </trkpt>
      <trkpt lat="46.19721" lon="2.45407">
        <ele>419</ele>
        <time>2016-04-08T12:40:10Z</time>
      </trkpt>
      <trkpt lat="46.19725" lon="2.45407">
        <ele>418</ele>
        <time>2016-04-08T12:40:13Z</time>
      </trkpt>
      <trkpt lat="46.1973" lon="2.45408">
        <ele>418</ele>
        <time>2016-04-08T12:40:16Z</time>
      </trkpt>
      <trkpt lat="46.19734" lon="2.45407">
        <ele>417</ele>
        <time>2016-04-08T12:40:19Z</time>
      </trkpt>
      <trkpt lat="46.19739" lon="2.45407">
        <ele>416</ele>
        <time>2016-04-08T12:40:22Z</time>
      </trkpt>
      <trkpt lat="46.19743" lon="2.45408">
        <ele>416</ele>
        <time>2016-04-08T12:40:25Z</time>
      </trkpt>
      <trkpt lat="46.19748" lon="2.45409">
        <ele>416</ele>
        <time>2016-04-08T12:40:28Z</time>
      </trkpt>
      <trkpt lat="46.19752" lon="2.45409">
        <ele>416</ele>
        <time>2016-04-08T12:40:31Z</time>
      </trkpt>
      <trkpt lat="46.19756" lon="2.4541">
        <ele>416</ele>
        <time>2016-04-08T12:40:34Z</time>
      </trkpt>
      <trkpt lat="46.19761" lon="2.45411">
        <ele>416</ele>
        <time>2016-04-08T12:40:37Z</time>
      </trkpt>
      <trkpt lat="46.19765" lon="2.45411">
        <ele>416</ele>
        <time>2016-04-08T12:40:40Z</time>
      </trkpt>
      <trkpt lat="46.1977" lon="2.45412">
        <ele>416</ele>
        <time>2016-04-08T12:40:43Z</time>
      </trkpt>
      <trkpt lat="46.19774" lon="2.45413">
        <ele>416</ele>
        <time>2016-04-08T12:40:46Z</time>
      </trkpt>
      <trkpt lat="46.19778" lon="2.45413">
        <ele>416</ele>
        <time>2016-04-08T12:40:49Z</time>
      </trkpt>
      <trkpt lat="46.19783" lon="2.45414">
        <ele>416</ele>
        <time>2016-04-08T12:40:52Z</time>
      </trkpt>
      <trkpt lat="46.19787" lon="2.45414">
        <ele>416</ele>
        <time>2016-04-08T12:40:55Z</time>
      </trkpt>
      <trkpt lat="46.19791" lon="2.45414">
        <ele>416</ele>
        <time>2016-04-08T12:40:58Z</time>
      </trkpt>
      <trkpt lat="46.19796" lon="2.45414">
        <ele>416</ele>
        <time>2016-04-08T12:41:01Z</time>
      </trkpt>
      <trkpt lat="46.198" lon="2.45415">
        <ele>416</ele>
        <time>2016-04-08T12:41:04Z</time>
      </trkpt>
      <trkpt lat="46.19804" lon="2.45415">
        <ele>416</ele>
        <time>2016-04-08T12:41:07Z</time>
      </trkpt>
      <trkpt lat="46.19809" lon="2.45415">
        <ele>416</ele>
        <time>2016-04-08T12:41:10Z</time>
      </trkpt>
      <trkpt lat="46.19813" lon="2.45416">
        <ele>416</ele>
        <time>2016-04-08T12:41:13Z</time>
      </trkpt>
      <trkpt lat="46.19817" lon="2.45417">
        <ele>416</ele>
        <time>2016-04-08T12:41:16Z</time>
      </trkpt>
      <trkpt lat="46.19822" lon="2.45419">
        <ele>416</ele>
        <time>2016-04-08T12:41:19Z</time>
      </trkpt>
      <trkpt lat="46.19826" lon="2.45421">
        <ele>416</ele>
        <time>2016-04-08T12:41:22Z</time>
      </trkpt>
      <trkpt lat="46.1983" lon="2.45422">
        <ele>416</ele>
        <time>2016-04-08T12:41:25Z</time>
      </trkpt>
      <trkpt lat="46.19835" lon="2.45424">
        <ele>416</ele>
        <time>2016-04-08T12:41:28Z</time>
      </trkpt>
      <trkpt lat="46.19839" lon="2.45426">
        <ele>416</ele>
        <time>2016-04-08T12:41:31Z</time>
      </trkpt>
      <trkpt lat="46.19843" lon="2.45427">
        <ele>416</ele>
        <time>2016-04-08T12:41:34Z</time>
      </trkpt>
      <trkpt lat="46.19847" lon="2.45428">
        <ele>416</ele>
        <time>2016-04-08T12:41:37Z</time>
      </trkpt>
      <trkpt lat="46.19851" lon="2.45429">
        <ele>416</ele>
        <time>2016-04-08T12:41:40Z</time>
      </trkpt>
      <trkpt lat="46.19854" lon="2.4543">
        <ele>416</ele>
        <time>2016-04-08T12:41:43Z</time>
      </trkpt>
      <trkpt lat="46.19857" lon="2.45433">
        <ele>416</ele>
        <time>2016-04-08T12:41:46Z</time>
      </trkpt>
      <trkpt lat="46.1986" lon="2.45438">
        <ele>416</ele>
        <time>2016-04-08T12:41:49Z</time>
      </trkpt>
      <trkpt lat="46.19862" lon="2.45444">
        <ele>416</ele>
        <time>2016-04-08T12:41:52Z</time>
      </trkpt>
      <trkpt lat="46.19864" lon="2.45449">
        <ele>416</ele>
        <time>2016-04-08T12:41:55Z</time>
      </trkpt>
      <trkpt lat="46.19866" lon="2.45454">
        <ele>416</ele>
        <time>2016-04-08T12:41:58Z</time>
      </trkpt>
      <trkpt lat="46.19867" lon="2.45458">
        <ele>416</ele>
        <time>2016-04-08T12:42:01Z</time>
      </trkpt>
      <trkpt lat="46.19868" lon="2.45463">
        <ele>416</ele>
        <time>2016-04-08T12:42:04Z</time>
      </trkpt>
      <trkpt lat="46.1987" lon="2.45469">
        <ele>416</ele>
        <time>2016-04-08T12:42:08Z</time>
      </trkpt>
      <trkpt lat="46.1987" lon="2.45474">
        <ele>416</ele>
        <time>2016-04-08T12:42:11Z</time>
      </trkpt>
      <trkpt lat="46.19871" lon="2.4548">
        <ele>416</ele>
        <time>2016-04-08T12:42:14Z</time>
      </trkpt>
      <trkpt lat="46.19872" lon="2.45486">
        <ele>416</ele>
        <time>2016-04-08T12:42:17Z</time>
      </trkpt>
      <trkpt lat="46.19873" lon="2.45492">
        <ele>416</ele>
        <time>2016-04-08T12:42:20Z</time>
      </trkpt>
      <trkpt lat="46.19874" lon="2.45497">
        <ele>416</ele>
        <time>2016-04-08T12:42:23Z</time>
      </trkpt>
      <trkpt lat="46.19874" lon="2.45503">
        <ele>416</ele>
        <time>2016-04-08T12:42:26Z</time>
      </trkpt>
      <trkpt lat="46.19875" lon="2.45509">
        <ele>416</ele>
        <time>2016-04-08T12:42:29Z</time>
      </trkpt>
      <trkpt lat="46.19876" lon="2.45515">
        <ele>416</ele>
        <time>2016-04-08T12:42:32Z</time>
      </trkpt>
      <trkpt lat="46.19876" lon="2.45521">
        <ele>416</ele>
        <time>2016-04-08T12:42:35Z</time>
      </trkpt>
      <trkpt lat="46.19877" lon="2.45527">
        <ele>416</ele>
        <time>2016-04-08T12:42:38Z</time>
      </trkpt>
      <trkpt lat="46.19878" lon="2.45533">
        <ele>416</ele>
        <time>2016-04-08T12:42:41Z</time>
      </trkpt>
      <trkpt lat="46.19879" lon="2.4554">
        <ele>416</ele>
        <time>2016-04-08T12:42:44Z</time>
      </trkpt>
      <trkpt lat="46.1988" lon="2.45547">
        <ele>416</ele>
        <time>2016-04-08T12:42:47Z</time>
      </trkpt>
      <trkpt lat="46.19881" lon="2.45553">
        <ele>416</ele>
        <time>2016-04-08T12:42:50Z</time>
      </trkpt>
      <trkpt lat="46.19881" lon="2.45559">
        <ele>416</ele>
        <time>2016-04-08T12:42:53Z</time>
      </trkpt>
      <trkpt lat="46.19882" lon="2.45566">
        <ele>416</ele>
        <time>2016-04-08T12:42:56Z</time>
      </trkpt>
      <trkpt lat="46.19883" lon="2.45572">
        <ele>416</ele>
        <time>2016-04-08T12:42:59Z</time>
      </trkpt>
      <trkpt lat="46.19884" lon="2.45579">
        <ele>416</ele>
        <time>2016-04-08T12:43:02Z</time>
      </trkpt>
      <trkpt lat="46.19885" lon="2.45585">
        <ele>416</ele>
        <time>2016-04-08T12:43:05Z</time>
      </trkpt>
      <trkpt lat="46.19886" lon="2.45591">
        <ele>416</ele>
        <time>2016-04-08T12:43:08Z</time>
      </trkpt>
      <trkpt lat="46.19886" lon="2.45597">
        <ele>416</ele>
        <time>2016-04-08T12:43:11Z</time>
      </trkpt>
      <trkpt lat="46.19887" lon="2.45603">
        <ele>416</ele>
        <time>2016-04-08T12:43:14Z</time>
      </trkpt>
      <trkpt lat="46.19888" lon="2.4561">
        <ele>416</ele>
        <time>2016-04-08T12:43:17Z</time>
      </trkpt>
      <trkpt lat="46.19889" lon="2.45616">
        <ele>416</ele>
        <time>2016-04-08T12:43:20Z</time>
      </trkpt>
      <trkpt lat="46.19889" lon="2.45623">
        <ele>416</ele>
        <time>2016-04-08T12:43:23Z</time>
      </trkpt>
      <trkpt lat="46.1989" lon="2.4563">
        <ele>416</ele>
        <time>2016-04-08T12:43:26Z</time>
      </trkpt>
      <trkpt lat="46.19891" lon="2.45636">
        <ele>416</ele>
        <time>2016-04-08T12:43:29Z</time>
      </trkpt>
      <trkpt lat="46.19892" lon="2.45642">
        <ele>416</ele>
        <time>2016-04-08T12:43:32Z</time>
      </trkpt>
      <trkpt lat="46.19893" lon="2.45648">
        <ele>416</ele>
        <time>2016-04-08T12:43:35Z</time>
      </trkpt>
      <trkpt lat="46.19893" lon="2.45655">
        <ele>416</ele>
        <time>2016-04-08T12:43:38Z</time>
      </trkpt>
      <trkpt lat="46.19894" lon="2.45661">
        <ele>416</ele>
        <time>2016-04-08T12:43:41Z</time>
      </trkpt>
      <trkpt lat="46.19895" lon="2.45668">
        <ele>416</ele>
        <time>2016-04-08T12:43:44Z</time>
      </trkpt>
      <trkpt lat="46.19895" lon="2.45674">
        <ele>416</ele>
        <time>2016-04-08T12:43:47Z</time>
      </trkpt>
      <trkpt lat="46.19896" lon="2.4568">
        <ele>416</ele>
        <time>2016-04-08T12:43:50Z</time>
      </trkpt>
      <trkpt lat="46.19897" lon="2.45687">
        <ele>416</ele>
        <time>2016-04-08T12:43:53Z</time>
      </trkpt>
      <trkpt lat="46.19897" lon="2.45693">
        <ele>416</ele>
        <time>2016-04-08T12:43:56Z</time>
      </trkpt>
      <trkpt lat="46.19898" lon="2.45698">
        <ele>416</ele>
        <time>2016-04-08T12:43:59Z</time>
      </trkpt>
      <trkpt lat="46.19899" lon="2.45705">
        <ele>416</ele>
        <time>2016-04-08T12:44:02Z</time>
      </trkpt>
      <trkpt lat="46.199" lon="2.45711">
        <ele>416</ele>
        <time>2016-04-08T12:44:05Z</time>
      </trkpt>
      <trkpt lat="46.19901" lon="2.45717">
        <ele>416</ele>
        <time>2016-04-08T12:44:08Z</time>
      </trkpt>
      <trkpt lat="46.19902" lon="2.45723">
        <ele>416</ele>
        <time>2016-04-08T12:44:11Z</time>
      </trkpt>
      <trkpt lat="46.19904" lon="2.45729">
        <ele>416</ele>
        <time>2016-04-08T12:44:14Z</time>
      </trkpt>
      <trkpt lat="46.19906" lon="2.45736">
        <ele>416</ele>
        <time>2016-04-08T12:44:17Z</time>
      </trkpt>
      <trkpt lat="46.19908" lon="2.45742">
        <ele>416</ele>
        <time>2016-04-08T12:44:20Z</time>
      </trkpt>
      <trkpt lat="46.1991" lon="2.45747">
        <ele>416</ele>
        <time>2016-04-08T12:44:23Z</time>
      </trkpt>
      <trkpt lat="46.19912" lon="2.45753">
        <ele>416</ele>
        <time>2016-04-08T12:44:26Z</time>
      </trkpt>
      <trkpt lat="46.19915" lon="2.45758">
        <ele>416</ele>
        <time>2016-04-08T12:44:29Z</time>
      </trkpt>
      <trkpt lat="46.19917" lon="2.45763">
        <ele>416</ele>
        <time>2016-04-08T12:44:32Z</time>
      </trkpt>
      <trkpt lat="46.1992" lon="2.45768">
        <ele>416</ele>
        <time>2016-04-08T12:44:35Z</time>
      </trkpt>
      <trkpt lat="46.19923" lon="2.45773">
        <ele>415</ele>
        <time>2016-04-08T12:44:38Z</time>
      </trkpt>
      <trkpt lat="46.19925" lon="2.45778">
        <ele>414</ele>
        <time>2016-04-08T12:44:41Z</time>
      </trkpt>
      <trkpt lat="46.19928" lon="2.45783">
        <ele>414</ele>
        <time>2016-04-08T12:44:44Z</time>
      </trkpt>
      <trkpt lat="46.1993" lon="2.45788">
        <ele>413</ele>
        <time>2016-04-08T12:44:47Z</time>
      </trkpt>
      <trkpt lat="46.19933" lon="2.45794">
        <ele>413</ele>
        <time>2016-04-08T12:44:50Z</time>
      </trkpt>
      <trkpt lat="46.19935" lon="2.45799">
        <ele>413</ele>
        <time>2016-04-08T12:44:53Z</time>
      </trkpt>
      <trkpt lat="46.19936" lon="2.45805">
        <ele>413</ele>
        <time>2016-04-08T12:44:56Z</time>
      </trkpt>
      <trkpt lat="46.19937" lon="2.45811">
        <ele>413</ele>
        <time>2016-04-08T12:44:59Z</time>
      </trkpt>
      <trkpt lat="46.19936" lon="2.45818">
        <ele>413</ele>
        <time>2016-04-08T12:45:02Z</time>
      </trkpt>
      <trkpt lat="46.19935" lon="2.45824">
        <ele>413</ele>
        <time>2016-04-08T12:45:05Z</time>
      </trkpt>
      <trkpt lat="46.19933" lon="2.4583">
        <ele>413</ele>
        <time>2016-04-08T12:45:08Z</time>
      </trkpt>
      <trkpt lat="46.19931" lon="2.45835">
        <ele>413</ele>
        <time>2016-04-08T12:45:11Z</time>
      </trkpt>
      <trkpt lat="46.19928" lon="2.45841">
        <ele>413</ele>
        <time>2016-04-08T12:45:14Z</time>
      </trkpt>
      <trkpt lat="46.19926" lon="2.45847">
        <ele>413</ele>
        <time>2016-04-08T12:45:17Z</time>
      </trkpt>
      <trkpt lat="46.19923" lon="2.45853">
        <ele>413</ele>
        <time>2016-04-08T12:45:20Z</time>
      </trkpt>
      <trkpt lat="46.19921" lon="2.4586">
        <ele>413</ele>
        <time>2016-04-08T12:45:23Z</time>
      </trkpt>
      <trkpt lat="46.19919" lon="2.45866">
        <ele>413</ele>
        <time>2016-04-08T12:45:26Z</time>
      </trkpt>
      <trkpt lat="46.19918" lon="2.45873">
        <ele>413</ele>
        <time>2016-04-08T12:45:29Z</time>
      </trkpt>
      <trkpt lat="46.19917" lon="2.4588">
        <ele>413</ele>
        <time>2016-04-08T12:45:32Z</time>
      </trkpt>
      <trkpt lat="46.19917" lon="2.45886">
        <ele>413</ele>
        <time>2016-04-08T12:45:35Z</time>
      </trkpt>
      <trkpt lat="46.19917" lon="2.45893">
        <ele>413</ele>
        <time>2016-04-08T12:45:38Z</time>
      </trkpt>
      <trkpt lat="46.19918" lon="2.459">
        <ele>413</ele>
        <time>2016-04-08T12:45:41Z</time>
      </trkpt>
      <trkpt lat="46.19918" lon="2.45906">
        <ele>413</ele>
        <time>2016-04-08T12:45:45Z</time>
      </trkpt>
      <trkpt lat="46.19919" lon="2.45915">
        <ele>412</ele>
        <time>2016-04-08T12:45:48Z</time>
      </trkpt>
      <trkpt lat="46.1992" lon="2.45921">
        <ele>412</ele>
        <time>2016-04-08T12:45:51Z</time>
      </trkpt>
      <trkpt lat="46.1992" lon="2.45928">
        <ele>412</ele>
        <time>2016-04-08T12:45:54Z</time>
      </trkpt>
      <trkpt lat="46.1992" lon="2.45934">
        <ele>412</ele>
        <time>2016-04-08T12:45:57Z</time>
      </trkpt>
      <trkpt lat="46.19921" lon="2.45941">
        <ele>412</ele>
        <time>2016-04-08T12:46:00Z</time>
      </trkpt>
      <trkpt lat="46.19922" lon="2.45947">
        <ele>412</ele>
        <time>2016-04-08T12:46:03Z</time>
      </trkpt>
      <trkpt lat="46.19922" lon="2.45953">
        <ele>412</ele>
        <time>2016-04-08T12:46:06Z</time>
      </trkpt>
      <trkpt lat="46.19923" lon="2.45959">
        <ele>412</ele>
        <time>2016-04-08T12:46:09Z</time>
      </trkpt>
      <trkpt lat="46.19923" lon="2.45965">
        <ele>412</ele>
        <time>2016-04-08T12:46:12Z</time>
      </trkpt>
      <trkpt lat="46.19924" lon="2.45971">
        <ele>412</ele>
        <time>2016-04-08T12:46:15Z</time>
      </trkpt>
      <trkpt lat="46.19924" lon="2.45977">
        <ele>412</ele>
        <time>2016-04-08T12:46:18Z</time>
      </trkpt>
      <trkpt lat="46.19925" lon="2.45983">
        <ele>412</ele>
        <time>2016-04-08T12:46:21Z</time>
      </trkpt>
      <trkpt lat="46.19925" lon="2.45988">
        <ele>412</ele>
        <time>2016-04-08T12:46:24Z</time>
      </trkpt>
      <trkpt lat="46.19926" lon="2.45994">
        <ele>412</ele>
        <time>2016-04-08T12:46:27Z</time>
      </trkpt>
      <trkpt lat="46.19926" lon="2.46">
        <ele>412</ele>
        <time>2016-04-08T12:46:30Z</time>
      </trkpt>
      <trkpt lat="46.19926" lon="2.46005">
        <ele>412</ele>
        <time>2016-04-08T12:46:33Z</time>
      </trkpt>
      <trkpt lat="46.19927" lon="2.46011">
        <ele>412</ele>
        <time>2016-04-08T12:46:36Z</time>
      </trkpt>
      <trkpt lat="46.19927" lon="2.46017">
        <ele>411</ele>
        <time>2016-04-08T12:46:39Z</time>
      </trkpt>
      <trkpt lat="46.19928" lon="2.46023">
        <ele>411</ele>
        <time>2016-04-08T12:46:42Z</time>
      </trkpt>
      <trkpt lat="46.19928" lon="2.46029">
        <ele>411</ele>
        <time>2016-04-08T12:46:45Z</time>
      </trkpt>
      <trkpt lat="46.19929" lon="2.46034">
        <ele>411</ele>
        <time>2016-04-08T12:46:48Z</time>
      </trkpt>
      <trkpt lat="46.19929" lon="2.4604">
        <ele>411</ele>
        <time>2016-04-08T12:46:51Z</time>
      </trkpt>
      <trkpt lat="46.19929" lon="2.46045">
        <ele>411</ele>
        <time>2016-04-08T12:46:54Z</time>
      </trkpt>
      <trkpt lat="46.1993" lon="2.46051">
        <ele>411</ele>
        <time>2016-04-08T12:46:57Z</time>
      </trkpt>
      <trkpt lat="46.1993" lon="2.46056">
        <ele>411</ele>
        <time>2016-04-08T12:47:00Z</time>
      </trkpt>
      <trkpt lat="46.19931" lon="2.46062">
        <ele>411</ele>
        <time>2016-04-08T12:47:03Z</time>
      </trkpt>
      <trkpt lat="46.19931" lon="2.46068">
        <ele>410</ele>
        <time>2016-04-08T12:47:06Z</time>
      </trkpt>
      <trkpt lat="46.19931" lon="2.46074">
        <ele>410</ele>
        <time>2016-04-08T12:47:09Z</time>
      </trkpt>
      <trkpt lat="46.19931" lon="2.4608">
        <ele>410</ele>
        <time>2016-04-08T12:47:12Z</time>
      </trkpt>
      <trkpt lat="46.1993" lon="2.46085">
        <ele>410</ele>
        <time>2016-04-08T12:47:15Z</time>
      </trkpt>
      <trkpt lat="46.1993" lon="2.46091">
        <ele>409</ele>
        <time>2016-04-08T12:47:18Z</time>
      </trkpt>
      <trkpt lat="46.1993" lon="2.46097">
        <ele>409</ele>
        <time>2016-04-08T12:47:21Z</time>
      </trkpt>
      <trkpt lat="46.19929" lon="2.46104">
        <ele>408</ele>
        <time>2016-04-08T12:47:24Z</time>
      </trkpt>
      <trkpt lat="46.19928" lon="2.4611">
        <ele>408</ele>
        <time>2016-04-08T12:47:27Z</time>
      </trkpt>
      <trkpt lat="46.19927" lon="2.46115">
        <ele>407</ele>
        <time>2016-04-08T12:47:30Z</time>
      </trkpt>
      <trkpt lat="46.19926" lon="2.46121">
        <ele>406</ele>
        <time>2016-04-08T12:47:33Z</time>
      </trkpt>
      <trkpt lat="46.19926" lon="2.46127">
        <ele>405</ele>
        <time>2016-04-08T12:47:36Z</time>
      </trkpt>
      <trkpt lat="46.19925" lon="2.46132">
        <ele>404</ele>
        <time>2016-04-08T12:47:39Z</time>
      </trkpt>
      <trkpt lat="46.19924" lon="2.46138">
        <ele>404</ele>
        <time>2016-04-08T12:47:42Z</time>
      </trkpt>
      <trkpt lat="46.19923" lon="2.46144">
        <ele>403</ele>
        <time>2016-04-08T12:47:45Z</time>
      </trkpt>
      <trkpt lat="46.19922" lon="2.4615">
        <ele>403</ele>
        <time>2016-04-08T12:47:48Z</time>
      </trkpt>
      <trkpt lat="46.19922" lon="2.46156">
        <ele>402</ele>
        <time>2016-04-08T12:47:51Z</time>
      </trkpt>
      <trkpt lat="46.19921" lon="2.46163">
        <ele>402</ele>
        <time>2016-04-08T12:47:54Z</time>
      </trkpt>
      <trkpt lat="46.1992" lon="2.46169">
        <ele>402</ele>
        <time>2016-04-08T12:47:57Z</time>
      </trkpt>
      <trkpt lat="46.19919" lon="2.46176">
        <ele>402</ele>
        <time>2016-04-08T12:48:00Z</time>
      </trkpt>
      <trkpt lat="46.19918" lon="2.46182">
        <ele>401</ele>
        <time>2016-04-08T12:48:03Z</time>
      </trkpt>
      <trkpt lat="46.19917" lon="2.46188">
        <ele>400</ele>
        <time>2016-04-08T12:48:06Z</time>
      </trkpt>
      <trkpt lat="46.19915" lon="2.46195">
        <ele>400</ele>
        <time>2016-04-08T12:48:09Z</time>
      </trkpt>
      <trkpt lat="46.19914" lon="2.46201">
        <ele>400</ele>
        <time>2016-04-08T12:48:12Z</time>
      </trkpt>
      <trkpt lat="46.19913" lon="2.46207">
        <ele>399</ele>
        <time>2016-04-08T12:48:15Z</time>
      </trkpt>
      <trkpt lat="46.19912" lon="2.46213">
        <ele>399</ele>
        <time>2016-04-08T12:48:18Z</time>
      </trkpt>
      <trkpt lat="46.19911" lon="2.46219">
        <ele>399</ele>
        <time>2016-04-08T12:48:21Z</time>
      </trkpt>
      <trkpt lat="46.1991" lon="2.46225">
        <ele>398</ele>
        <time>2016-04-08T12:48:24Z</time>
      </trkpt>
      <trkpt lat="46.19909" lon="2.46231">
        <ele>398</ele>
        <time>2016-04-08T12:48:27Z</time>
      </trkpt>
      <trkpt lat="46.19909" lon="2.46236">
        <ele>398</ele>
        <time>2016-04-08T12:48:30Z</time>
      </trkpt>
      <trkpt lat="46.19907" lon="2.46242">
        <ele>397</ele>
        <time>2016-04-08T12:48:34Z</time>
      </trkpt>
      <trkpt lat="46.19907" lon="2.46245">
        <ele>397</ele>
        <time>2016-04-08T12:48:48Z</time>
      </trkpt>
      <trkpt lat="46.1991" lon="2.46247">
        <ele>396</ele>
        <time>2016-04-08T12:48:52Z</time>
      </trkpt>
      <trkpt lat="46.1991" lon="2.46249">
        <ele>396</ele>
        <time>2016-04-08T12:49:05Z</time>
      </trkpt>
      <trkpt lat="46.19908" lon="2.4625">
        <ele>396</ele>
        <time>2016-04-08T12:49:09Z</time>
      </trkpt>
      <trkpt lat="46.19911" lon="2.4625">
        <ele>396</ele>
        <time>2016-04-08T12:49:14Z</time>
      </trkpt>
      <trkpt lat="46.19915" lon="2.46251">
        <ele>396</ele>
        <time>2016-04-08T12:49:17Z</time>
      </trkpt>
      <trkpt lat="46.1992" lon="2.46253">
        <ele>395</ele>
        <time>2016-04-08T12:49:21Z</time>
      </trkpt>
      <trkpt lat="46.19924" lon="2.46255">
        <ele>395</ele>
        <time>2016-04-08T12:49:24Z</time>
      </trkpt>
      <trkpt lat="46.19928" lon="2.46256">
        <ele>395</ele>
        <time>2016-04-08T12:49:27Z</time>
      </trkpt>
      <trkpt lat="46.19932" lon="2.46258">
        <ele>394</ele>
        <time>2016-04-08T12:49:30Z</time>
      </trkpt>
      <trkpt lat="46.19936" lon="2.4626">
        <ele>394</ele>
        <time>2016-04-08T12:49:33Z</time>
      </trkpt>
      <trkpt lat="46.1994" lon="2.46262">
        <ele>393</ele>
        <time>2016-04-08T12:49:36Z</time>
      </trkpt>
      <trkpt lat="46.19944" lon="2.46264">
        <ele>393</ele>
        <time>2016-04-08T12:49:39Z</time>
      </trkpt>
      <trkpt lat="46.19948" lon="2.46265">
        <ele>393</ele>
        <time>2016-04-08T12:49:42Z</time>
      </trkpt>
      <trkpt lat="46.19952" lon="2.46268">
        <ele>392</ele>
        <time>2016-04-08T12:49:45Z</time>
      </trkpt>
      <trkpt lat="46.19955" lon="2.46269">
        <ele>391</ele>
        <time>2016-04-08T12:49:48Z</time>
      </trkpt>
      <trkpt lat="46.19959" lon="2.46271">
        <ele>391</ele>
        <time>2016-04-08T12:49:51Z</time>
      </trkpt>
      <trkpt lat="46.19962" lon="2.46273">
        <ele>391</ele>
        <time>2016-04-08T12:49:54Z</time>
      </trkpt>
      <trkpt lat="46.19967" lon="2.46277">
        <ele>391</ele>
        <time>2016-04-08T12:49:58Z</time>
      </trkpt>
      <trkpt lat="46.1997" lon="2.46282">
        <ele>391</ele>
        <time>2016-04-08T12:50:02Z</time>
      </trkpt>
      <trkpt lat="46.19973" lon="2.46287">
        <ele>390</ele>
        <time>2016-04-08T12:50:06Z</time>
      </trkpt>
      <trkpt lat="46.19975" lon="2.4629">
        <ele>390</ele>
        <time>2016-04-08T12:50:15Z</time>
      </trkpt>
      <trkpt lat="46.19976" lon="2.46291">
        <ele>390</ele>
        <time>2016-04-08T12:50:18Z</time>
      </trkpt>
      <trkpt lat="46.19979" lon="2.46292">
        <ele>390</ele>
        <time>2016-04-08T12:50:22Z</time>
      </trkpt>
      <trkpt lat="46.19984" lon="2.46292">
        <ele>390</ele>
        <time>2016-04-08T12:50:25Z</time>
      </trkpt>
      <trkpt lat="46.19988" lon="2.46292">
        <ele>390</ele>
        <time>2016-04-08T12:50:28Z</time>
      </trkpt>
      <trkpt lat="46.19992" lon="2.46291">
        <ele>390</ele>
        <time>2016-04-08T12:50:31Z</time>
      </trkpt>
      <trkpt lat="46.19996" lon="2.4629">
        <ele>390</ele>
        <time>2016-04-08T12:50:34Z</time>
      </trkpt>
      <trkpt lat="46.2" lon="2.46287">
        <ele>389</ele>
        <time>2016-04-08T12:50:37Z</time>
      </trkpt>
      <trkpt lat="46.20004" lon="2.46282">
        <ele>388</ele>
        <time>2016-04-08T12:50:41Z</time>
      </trkpt>
      <trkpt lat="46.20007" lon="2.4628">
        <ele>388</ele>
        <time>2016-04-08T12:50:44Z</time>
      </trkpt>
      <trkpt lat="46.20012" lon="2.46278">
        <ele>388</ele>
        <time>2016-04-08T12:50:47Z</time>
      </trkpt>
      <trkpt lat="46.20016" lon="2.46277">
        <ele>388</ele>
        <time>2016-04-08T12:50:50Z</time>
      </trkpt>
      <trkpt lat="46.20021" lon="2.46276">
        <ele>387</ele>
        <time>2016-04-08T12:50:53Z</time>
      </trkpt>
      <trkpt lat="46.20025" lon="2.46275">
        <ele>386</ele>
        <time>2016-04-08T12:50:56Z</time>
      </trkpt>
      <trkpt lat="46.20029" lon="2.46274">
        <ele>386</ele>
        <time>2016-04-08T12:50:59Z</time>
      </trkpt>
      <trkpt lat="46.20033" lon="2.46274">
        <ele>386</ele>
        <time>2016-04-08T12:51:02Z</time>
      </trkpt>
      <trkpt lat="46.20037" lon="2.46274">
        <ele>386</ele>
        <time>2016-04-08T12:51:05Z</time>
      </trkpt>
      <trkpt lat="46.20042" lon="2.46275">
        <ele>386</ele>
        <time>2016-04-08T12:51:08Z</time>
      </trkpt>
      <trkpt lat="46.20046" lon="2.46275">
        <ele>386</ele>
        <time>2016-04-08T12:51:11Z</time>
      </trkpt>
      <trkpt lat="46.2005" lon="2.46276">
        <ele>386</ele>
        <time>2016-04-08T12:51:15Z</time>
      </trkpt>
      <trkpt lat="46.20053" lon="2.46277">
        <ele>386</ele>
        <time>2016-04-08T12:51:19Z</time>
      </trkpt>
      <trkpt lat="46.20055" lon="2.4628">
        <ele>386</ele>
        <time>2016-04-08T12:51:24Z</time>
      </trkpt>
      <trkpt lat="46.20058" lon="2.46282">
        <ele>389</ele>
        <time>2016-04-08T12:51:28Z</time>
      </trkpt>
      <trkpt lat="46.20062" lon="2.46282">
        <ele>390</ele>
        <time>2016-04-08T12:51:31Z</time>
      </trkpt>
      <trkpt lat="46.20066" lon="2.46285">
        <ele>391</ele>
        <time>2016-04-08T12:51:34Z</time>
      </trkpt>
      <trkpt lat="46.2007" lon="2.46287">
        <ele>392</ele>
        <time>2016-04-08T12:51:37Z</time>
      </trkpt>
      <trkpt lat="46.20074" lon="2.46286">
        <ele>394</ele>
        <time>2016-04-08T12:51:40Z</time>
      </trkpt>
      <trkpt lat="46.20078" lon="2.46286">
        <ele>394</ele>
        <time>2016-04-08T12:51:44Z</time>
      </trkpt>
      <trkpt lat="46.20082" lon="2.46287">
        <ele>396</ele>
        <time>2016-04-08T12:51:47Z</time>
      </trkpt>
      <trkpt lat="46.20085" lon="2.46287">
        <ele>398</ele>
        <time>2016-04-08T12:51:50Z</time>
      </trkpt>
      <trkpt lat="46.20089" lon="2.46287">
        <ele>398</ele>
        <time>2016-04-08T12:51:53Z</time>
      </trkpt>
      <trkpt lat="46.20092" lon="2.46287">
        <ele>398</ele>
        <time>2016-04-08T12:51:56Z</time>
      </trkpt>
      <trkpt lat="46.20096" lon="2.46288">
        <ele>398</ele>
        <time>2016-04-08T12:51:59Z</time>
      </trkpt>
      <trkpt lat="46.201" lon="2.46289">
        <ele>398</ele>
        <time>2016-04-08T12:52:02Z</time>
      </trkpt>
      <trkpt lat="46.20104" lon="2.4629">
        <ele>397</ele>
        <time>2016-04-08T12:52:06Z</time>
      </trkpt>
      <trkpt lat="46.20107" lon="2.46293">
        <ele>397</ele>
        <time>2016-04-08T12:52:09Z</time>
      </trkpt>
      <trkpt lat="46.20109" lon="2.46297">
        <ele>397</ele>
        <time>2016-04-08T12:52:12Z</time>
      </trkpt>
      <trkpt lat="46.20111" lon="2.46301">
        <ele>396</ele>
        <time>2016-04-08T12:52:16Z</time>
      </trkpt>
      <trkpt lat="46.20113" lon="2.46304">
        <ele>395</ele>
        <time>2016-04-08T12:52:20Z</time>
      </trkpt>
      <trkpt lat="46.20115" lon="2.46309">
        <ele>394</ele>
        <time>2016-04-08T12:52:24Z</time>
      </trkpt>
      <trkpt lat="46.20116" lon="2.46314">
        <ele>393</ele>
        <time>2016-04-08T12:52:27Z</time>
      </trkpt>
      <trkpt lat="46.20116" lon="2.46319">
        <ele>393</ele>
        <time>2016-04-08T12:52:30Z</time>
      </trkpt>
      <trkpt lat="46.20116" lon="2.46325">
        <ele>393</ele>
        <time>2016-04-08T12:52:34Z</time>
      </trkpt>
      <trkpt lat="46.20116" lon="2.4633">
        <ele>393</ele>
        <time>2016-04-08T12:52:37Z</time>
      </trkpt>
      <trkpt lat="46.20116" lon="2.46335">
        <ele>393</ele>
        <time>2016-04-08T12:52:40Z</time>
      </trkpt>
      <trkpt lat="46.20116" lon="2.46341">
        <ele>393</ele>
        <time>2016-04-08T12:52:43Z</time>
      </trkpt>
      <trkpt lat="46.20116" lon="2.46346">
        <ele>393</ele>
        <time>2016-04-08T12:52:46Z</time>
      </trkpt>
      <trkpt lat="46.20117" lon="2.46352">
        <ele>393</ele>
        <time>2016-04-08T12:52:49Z</time>
      </trkpt>
      <trkpt lat="46.20117" lon="2.46357">
        <ele>393</ele>
        <time>2016-04-08T12:52:52Z</time>
      </trkpt>
      <trkpt lat="46.20118" lon="2.46362">
        <ele>393</ele>
        <time>2016-04-08T12:52:55Z</time>
      </trkpt>
      <trkpt lat="46.20118" lon="2.46368">
        <ele>393</ele>
        <time>2016-04-08T12:52:58Z</time>
      </trkpt>
      <trkpt lat="46.20119" lon="2.46374">
        <ele>393</ele>
        <time>2016-04-08T12:53:01Z</time>
      </trkpt>
      <trkpt lat="46.2012" lon="2.46379">
        <ele>394</ele>
        <time>2016-04-08T12:53:04Z</time>
      </trkpt>
      <trkpt lat="46.20121" lon="2.46385">
        <ele>394</ele>
        <time>2016-04-08T12:53:07Z</time>
      </trkpt>
      <trkpt lat="46.20122" lon="2.46389">
        <ele>395</ele>
        <time>2016-04-08T12:53:10Z</time>
      </trkpt>
      <trkpt lat="46.20124" lon="2.46394">
        <ele>395</ele>
        <time>2016-04-08T12:53:13Z</time>
      </trkpt>
      <trkpt lat="46.20125" lon="2.46399">
        <ele>396</ele>
        <time>2016-04-08T12:53:16Z</time>
      </trkpt>
      <trkpt lat="46.20128" lon="2.46405">
        <ele>396</ele>
        <time>2016-04-08T12:53:20Z</time>
      </trkpt>
      <trkpt lat="46.2013" lon="2.46409">
        <ele>397</ele>
        <time>2016-04-08T12:53:23Z</time>
      </trkpt>
      <trkpt lat="46.20133" lon="2.46413">
        <ele>397</ele>
        <time>2016-04-08T12:53:26Z</time>
      </trkpt>
      <trkpt lat="46.20137" lon="2.46418">
        <ele>397</ele>
        <time>2016-04-08T12:53:30Z</time>
      </trkpt>
      <trkpt lat="46.20141" lon="2.46423">
        <ele>397</ele>
        <time>2016-04-08T12:53:34Z</time>
      </trkpt>
      <trkpt lat="46.20145" lon="2.46426">
        <ele>397</ele>
        <time>2016-04-08T12:53:37Z</time>
      </trkpt>
      <trkpt lat="46.20149" lon="2.46428">
        <ele>397</ele>
        <time>2016-04-08T12:53:40Z</time>
      </trkpt>
      <trkpt lat="46.20153" lon="2.4643">
        <ele>397</ele>
        <time>2016-04-08T12:53:43Z</time>
      </trkpt>
      <trkpt lat="46.20156" lon="2.46433">
        <ele>397</ele>
        <time>2016-04-08T12:53:46Z</time>
      </trkpt>
      <trkpt lat="46.20161" lon="2.46437">
        <ele>397</ele>
        <time>2016-04-08T12:53:50Z</time>
      </trkpt>
      <trkpt lat="46.20165" lon="2.4644">
        <ele>397</ele>
        <time>2016-04-08T12:53:53Z</time>
      </trkpt>
      <trkpt lat="46.20168" lon="2.46442">
        <ele>397</ele>
        <time>2016-04-08T12:53:56Z</time>
      </trkpt>
      <trkpt lat="46.20172" lon="2.46443">
        <ele>397</ele>
        <time>2016-04-08T12:53:59Z</time>
      </trkpt>
      <trkpt lat="46.20176" lon="2.46445">
        <ele>397</ele>
        <time>2016-04-08T12:54:02Z</time>
      </trkpt>
      <trkpt lat="46.2018" lon="2.46445">
        <ele>397</ele>
        <time>2016-04-08T12:54:05Z</time>
      </trkpt>
      <trkpt lat="46.20184" lon="2.46445">
        <ele>397</ele>
        <time>2016-04-08T12:54:08Z</time>
      </trkpt>
      <trkpt lat="46.20188" lon="2.46444">
        <ele>397</ele>
        <time>2016-04-08T12:54:11Z</time>
      </trkpt>
      <trkpt lat="46.20192" lon="2.46445">
        <ele>397</ele>
        <time>2016-04-08T12:54:14Z</time>
      </trkpt>
      <trkpt lat="46.20196" lon="2.46444">
        <ele>398</ele>
        <time>2016-04-08T12:54:17Z</time>
      </trkpt>
      <trkpt lat="46.202" lon="2.46444">
        <ele>398</ele>
        <time>2016-04-08T12:54:20Z</time>
      </trkpt>
      <trkpt lat="46.20204" lon="2.46444">
        <ele>398</ele>
        <time>2016-04-08T12:54:23Z</time>
      </trkpt>
      <trkpt lat="46.20208" lon="2.46444">
        <ele>398</ele>
        <time>2016-04-08T12:54:26Z</time>
      </trkpt>
      <trkpt lat="46.20212" lon="2.46445">
        <ele>398</ele>
        <time>2016-04-08T12:54:29Z</time>
      </trkpt>
      <trkpt lat="46.20216" lon="2.46445">
        <ele>398</ele>
        <time>2016-04-08T12:54:32Z</time>
      </trkpt>
      <trkpt lat="46.2022" lon="2.46446">
        <ele>398</ele>
        <time>2016-04-08T12:54:35Z</time>
      </trkpt>
      <trkpt lat="46.20224" lon="2.46447">
        <ele>398</ele>
        <time>2016-04-08T12:54:38Z</time>
      </trkpt>
      <trkpt lat="46.20227" lon="2.46449">
        <ele>398</ele>
        <time>2016-04-08T12:54:41Z</time>
      </trkpt>
      <trkpt lat="46.20231" lon="2.46451">
        <ele>399</ele>
        <time>2016-04-08T12:54:44Z</time>
      </trkpt>
      <trkpt lat="46.20235" lon="2.46453">
        <ele>399</ele>
        <time>2016-04-08T12:54:47Z</time>
      </trkpt>
      <trkpt lat="46.20239" lon="2.46454">
        <ele>400</ele>
        <time>2016-04-08T12:54:50Z</time>
      </trkpt>
      <trkpt lat="46.20243" lon="2.46456">
        <ele>400</ele>
        <time>2016-04-08T12:54:53Z</time>
      </trkpt>
      <trkpt lat="46.20247" lon="2.46457">
        <ele>401</ele>
        <time>2016-04-08T12:54:56Z</time>
      </trkpt>
      <trkpt lat="46.20251" lon="2.46459">
        <ele>401</ele>
        <time>2016-04-08T12:54:59Z</time>
      </trkpt>
      <trkpt lat="46.20254" lon="2.46461">
        <ele>401</ele>
        <time>2016-04-08T12:55:02Z</time>
      </trkpt>
      <trkpt lat="46.20258" lon="2.46465">
        <ele>401</ele>
        <time>2016-04-08T12:55:06Z</time>
      </trkpt>
      <trkpt lat="46.20261" lon="2.4647">
        <ele>401</ele>
        <time>2016-04-08T12:55:09Z</time>
      </trkpt>
      <trkpt lat="46.20263" lon="2.46475">
        <ele>401</ele>
        <time>2016-04-08T12:55:12Z</time>
      </trkpt>
      <trkpt lat="46.20266" lon="2.4648">
        <ele>401</ele>
        <time>2016-04-08T12:55:15Z</time>
      </trkpt>
      <trkpt lat="46.20267" lon="2.46486">
        <ele>401</ele>
        <time>2016-04-08T12:55:18Z</time>
      </trkpt>
      <trkpt lat="46.20269" lon="2.46491">
        <ele>401</ele>
        <time>2016-04-08T12:55:21Z</time>
      </trkpt>
      <trkpt lat="46.20271" lon="2.46497">
        <ele>401</ele>
        <time>2016-04-08T12:55:24Z</time>
      </trkpt>
      <trkpt lat="46.20273" lon="2.46503">
        <ele>401</ele>
        <time>2016-04-08T12:55:27Z</time>
      </trkpt>
      <trkpt lat="46.20275" lon="2.46509">
        <ele>401</ele>
        <time>2016-04-08T12:55:30Z</time>
      </trkpt>
      <trkpt lat="46.20277" lon="2.46515">
        <ele>401</ele>
        <time>2016-04-08T12:55:33Z</time>
      </trkpt>
      <trkpt lat="46.20279" lon="2.4652">
        <ele>401</ele>
        <time>2016-04-08T12:55:36Z</time>
      </trkpt>
      <trkpt lat="46.2028" lon="2.46525">
        <ele>401</ele>
        <time>2016-04-08T12:55:39Z</time>
      </trkpt>
      <trkpt lat="46.20283" lon="2.46531">
        <ele>401</ele>
        <time>2016-04-08T12:55:42Z</time>
      </trkpt>
      <trkpt lat="46.20283" lon="2.46534">
        <ele>402</ele>
        <time>2016-04-08T12:55:49Z</time>
      </trkpt>
      <trkpt lat="46.20283" lon="2.46535">
        <ele>404</ele>
        <time>2016-04-08T12:56:03Z</time>
      </trkpt>
      <trkpt lat="46.20285" lon="2.4654">
        <ele>404</ele>
        <time>2016-04-08T12:56:07Z</time>
      </trkpt>
      <trkpt lat="46.20287" lon="2.46545">
        <ele>404</ele>
        <time>2016-04-08T12:56:10Z</time>
      </trkpt>
      <trkpt lat="46.20288" lon="2.46549">
        <ele>404</ele>
        <time>2016-04-08T12:56:13Z</time>
      </trkpt>
      <trkpt lat="46.20287" lon="2.4655">
        <ele>404</ele>
        <time>2016-04-08T12:56:17Z</time>
      </trkpt>
      <trkpt lat="46.20285" lon="2.46551">
        <ele>404</ele>
        <time>2016-04-08T12:58:23Z</time>
      </trkpt>
      <trkpt lat="46.20285" lon="2.46553">
        <ele>401</ele>
        <time>2016-04-08T12:58:31Z</time>
      </trkpt>
      <trkpt lat="46.20289" lon="2.46558">
        <ele>401</ele>
        <time>2016-04-08T12:58:35Z</time>
      </trkpt>
      <trkpt lat="46.2029" lon="2.46564">
        <ele>401</ele>
        <time>2016-04-08T12:58:38Z</time>
      </trkpt>
      <trkpt lat="46.20292" lon="2.46569">
        <ele>401</ele>
        <time>2016-04-08T12:58:41Z</time>
      </trkpt>
      <trkpt lat="46.20293" lon="2.46575">
        <ele>401</ele>
        <time>2016-04-08T12:58:44Z</time>
      </trkpt>
      <trkpt lat="46.20295" lon="2.4658">
        <ele>401</ele>
        <time>2016-04-08T12:58:47Z</time>
      </trkpt>
      <trkpt lat="46.20296" lon="2.46586">
        <ele>401</ele>
        <time>2016-04-08T12:58:50Z</time>
      </trkpt>
      <trkpt lat="46.20298" lon="2.46591">
        <ele>401</ele>
        <time>2016-04-08T12:58:53Z</time>
      </trkpt>
      <trkpt lat="46.203" lon="2.46597">
        <ele>401</ele>
        <time>2016-04-08T12:58:56Z</time>
      </trkpt>
      <trkpt lat="46.20302" lon="2.46602">
        <ele>401</ele>
        <time>2016-04-08T12:58:59Z</time>
      </trkpt>
      <trkpt lat="46.20304" lon="2.46607">
        <ele>401</ele>
        <time>2016-04-08T12:59:02Z</time>
      </trkpt>
      <trkpt lat="46.20307" lon="2.46612">
        <ele>401</ele>
        <time>2016-04-08T12:59:05Z</time>
      </trkpt>
      <trkpt lat="46.20309" lon="2.46618">
        <ele>401</ele>
        <time>2016-04-08T12:59:08Z</time>
      </trkpt>
      <trkpt lat="46.20312" lon="2.46623">
        <ele>401</ele>
        <time>2016-04-08T12:59:11Z</time>
      </trkpt>
      <trkpt lat="46.20315" lon="2.46628">
        <ele>401</ele>
        <time>2016-04-08T12:59:14Z</time>
      </trkpt>
      <trkpt lat="46.20318" lon="2.46632">
        <ele>401</ele>
        <time>2016-04-08T12:59:17Z</time>
      </trkpt>
      <trkpt lat="46.20322" lon="2.46636">
        <ele>401</ele>
        <time>2016-04-08T12:59:20Z</time>
      </trkpt>
      <trkpt lat="46.20327" lon="2.46639">
        <ele>401</ele>
        <time>2016-04-08T12:59:23Z</time>
      </trkpt>
      <trkpt lat="46.20331" lon="2.46641">
        <ele>401</ele>
        <time>2016-04-08T12:59:26Z</time>
      </trkpt>
      <trkpt lat="46.20335" lon="2.46643">
        <ele>401</ele>
        <time>2016-04-08T12:59:29Z</time>
      </trkpt>
      <trkpt lat="46.20339" lon="2.46646">
        <ele>400</ele>
        <time>2016-04-08T12:59:32Z</time>
      </trkpt>
      <trkpt lat="46.20343" lon="2.46649">
        <ele>400</ele>
        <time>2016-04-08T12:59:35Z</time>
      </trkpt>
      <trkpt lat="46.20347" lon="2.46651">
        <ele>399</ele>
        <time>2016-04-08T12:59:38Z</time>
      </trkpt>
      <trkpt lat="46.20351" lon="2.46655">
        <ele>399</ele>
        <time>2016-04-08T12:59:41Z</time>
      </trkpt>
      <trkpt lat="46.20355" lon="2.46658">
        <ele>398</ele>
        <time>2016-04-08T12:59:44Z</time>
      </trkpt>
      <trkpt lat="46.20358" lon="2.46663">
        <ele>398</ele>
        <time>2016-04-08T12:59:47Z</time>
      </trkpt>
      <trkpt lat="46.20362" lon="2.46668">
        <ele>398</ele>
        <time>2016-04-08T12:59:50Z</time>
      </trkpt>
      <trkpt lat="46.20365" lon="2.46672">
        <ele>398</ele>
        <time>2016-04-08T12:59:53Z</time>
      </trkpt>
      <trkpt lat="46.20368" lon="2.46677">
        <ele>398</ele>
        <time>2016-04-08T12:59:56Z</time>
      </trkpt>
      <trkpt lat="46.20371" lon="2.46681">
        <ele>398</ele>
        <time>2016-04-08T12:59:59Z</time>
      </trkpt>
      <trkpt lat="46.20374" lon="2.46687">
        <ele>398</ele>
        <time>2016-04-08T13:00:02Z</time>
      </trkpt>
      <trkpt lat="46.20376" lon="2.46693">
        <ele>397</ele>
        <time>2016-04-08T13:00:05Z</time>
      </trkpt>
      <trkpt lat="46.20378" lon="2.46699">
        <ele>397</ele>
        <time>2016-04-08T13:00:08Z</time>
      </trkpt>
      <trkpt lat="46.2038" lon="2.46705">
        <ele>397</ele>
        <time>2016-04-08T13:00:11Z</time>
      </trkpt>
      <trkpt lat="46.20383" lon="2.46711">
        <ele>397</ele>
        <time>2016-04-08T13:00:14Z</time>
      </trkpt>
      <trkpt lat="46.20386" lon="2.46718">
        <ele>397</ele>
        <time>2016-04-08T13:00:17Z</time>
      </trkpt>
      <trkpt lat="46.20388" lon="2.46723">
        <ele>397</ele>
        <time>2016-04-08T13:00:20Z</time>
      </trkpt>
      <trkpt lat="46.20391" lon="2.46729">
        <ele>397</ele>
        <time>2016-04-08T13:00:23Z</time>
      </trkpt>
      <trkpt lat="46.20393" lon="2.46735">
        <ele>397</ele>
        <time>2016-04-08T13:00:26Z</time>
      </trkpt>
      <trkpt lat="46.20396" lon="2.46741">
        <ele>397</ele>
        <time>2016-04-08T13:00:29Z</time>
      </trkpt>
      <trkpt lat="46.20398" lon="2.46746">
        <ele>397</ele>
        <time>2016-04-08T13:00:32Z</time>
      </trkpt>
      <trkpt lat="46.204" lon="2.46752">
        <ele>397</ele>
        <time>2016-04-08T13:00:35Z</time>
      </trkpt>
      <trkpt lat="46.20402" lon="2.46757">
        <ele>397</ele>
        <time>2016-04-08T13:00:38Z</time>
      </trkpt>
      <trkpt lat="46.20405" lon="2.46763">
        <ele>397</ele>
        <time>2016-04-08T13:00:41Z</time>
      </trkpt>
      <trkpt lat="46.20407" lon="2.46768">
        <ele>397</ele>
        <time>2016-04-08T13:00:44Z</time>
      </trkpt>
      <trkpt lat="46.2041" lon="2.46774">
        <ele>396</ele>
        <time>2016-04-08T13:00:47Z</time>
      </trkpt>
      <trkpt lat="46.20412" lon="2.46779">
        <ele>396</ele>
        <time>2016-04-08T13:00:50Z</time>
      </trkpt>
      <trkpt lat="46.20414" lon="2.46785">
        <ele>396</ele>
        <time>2016-04-08T13:00:53Z</time>
      </trkpt>
      <trkpt lat="46.20417" lon="2.4679">
        <ele>396</ele>
        <time>2016-04-08T13:00:56Z</time>
      </trkpt>
      <trkpt lat="46.2042" lon="2.46794">
        <ele>395</ele>
        <time>2016-04-08T13:00:59Z</time>
      </trkpt>
      <trkpt lat="46.20425" lon="2.46795">
        <ele>394</ele>
        <time>2016-04-08T13:01:02Z</time>
      </trkpt>
      <trkpt lat="46.2043" lon="2.46795">
        <ele>394</ele>
        <time>2016-04-08T13:01:05Z</time>
      </trkpt>
      <trkpt lat="46.20433" lon="2.46796">
        <ele>394</ele>
        <time>2016-04-08T13:01:08Z</time>
      </trkpt>
      <trkpt lat="46.20436" lon="2.46796">
        <ele>394</ele>
        <time>2016-04-08T13:01:11Z</time>
      </trkpt>
      <trkpt lat="46.2044" lon="2.46795">
        <ele>394</ele>
        <time>2016-04-08T13:01:14Z</time>
      </trkpt>
      <trkpt lat="46.20444" lon="2.46793">
        <ele>394</ele>
        <time>2016-04-08T13:01:17Z</time>
      </trkpt>
      <trkpt lat="46.20448" lon="2.46789">
        <ele>394</ele>
        <time>2016-04-08T13:01:20Z</time>
      </trkpt>
      <trkpt lat="46.2045" lon="2.46784">
        <ele>395</ele>
        <time>2016-04-08T13:01:23Z</time>
      </trkpt>
      <trkpt lat="46.20451" lon="2.46778">
        <ele>396</ele>
        <time>2016-04-08T13:01:26Z</time>
      </trkpt>
      <trkpt lat="46.20451" lon="2.46771">
        <ele>396</ele>
        <time>2016-04-08T13:01:29Z</time>
      </trkpt>
      <trkpt lat="46.2045" lon="2.46765">
        <ele>397</ele>
        <time>2016-04-08T13:01:32Z</time>
      </trkpt>
      <trkpt lat="46.20448" lon="2.4676">
        <ele>397</ele>
        <time>2016-04-08T13:01:35Z</time>
      </trkpt>
      <trkpt lat="46.20445" lon="2.46754">
        <ele>397</ele>
        <time>2016-04-08T13:01:39Z</time>
      </trkpt>
      <trkpt lat="46.20441" lon="2.46749">
        <ele>397</ele>
        <time>2016-04-08T13:01:43Z</time>
      </trkpt>
      <trkpt lat="46.20437" lon="2.46744">
        <ele>397</ele>
        <time>2016-04-08T13:01:47Z</time>
      </trkpt>
      <trkpt lat="46.20433" lon="2.46739">
        <ele>397</ele>
        <time>2016-04-08T13:01:51Z</time>
      </trkpt>
      <trkpt lat="46.20429" lon="2.46733">
        <ele>397</ele>
        <time>2016-04-08T13:01:55Z</time>
      </trkpt>
      <trkpt lat="46.20426" lon="2.46729">
        <ele>397</ele>
        <time>2016-04-08T13:01:58Z</time>
      </trkpt>
      <trkpt lat="46.20422" lon="2.46725">
        <ele>397</ele>
        <time>2016-04-08T13:02:02Z</time>
      </trkpt>
      <trkpt lat="46.20419" lon="2.4672">
        <ele>397</ele>
        <time>2016-04-08T13:02:05Z</time>
      </trkpt>
      <trkpt lat="46.20417" lon="2.46716">
        <ele>397</ele>
        <time>2016-04-08T13:02:08Z</time>
      </trkpt>
      <trkpt lat="46.20414" lon="2.46711">
        <ele>397</ele>
        <time>2016-04-08T13:02:11Z</time>
      </trkpt>
      <trkpt lat="46.20412" lon="2.46706">
        <ele>397</ele>
        <time>2016-04-08T13:02:14Z</time>
      </trkpt>
      <trkpt lat="46.2041" lon="2.46699">
        <ele>397</ele>
        <time>2016-04-08T13:02:17Z</time>
      </trkpt>
      <trkpt lat="46.20408" lon="2.46692">
        <ele>397</ele>
        <time>2016-04-08T13:02:20Z</time>
      </trkpt>
      <trkpt lat="46.20406" lon="2.46686">
        <ele>397</ele>
        <time>2016-04-08T13:02:23Z</time>
      </trkpt>
      <trkpt lat="46.20404" lon="2.46679">
        <ele>397</ele>
        <time>2016-04-08T13:02:26Z</time>
      </trkpt>
      <trkpt lat="46.20403" lon="2.46673">
        <ele>397</ele>
        <time>2016-04-08T13:02:29Z</time>
      </trkpt>
      <trkpt lat="46.20401" lon="2.46667">
        <ele>397</ele>
        <time>2016-04-08T13:02:32Z</time>
      </trkpt>
      <trkpt lat="46.204" lon="2.46659">
        <ele>397</ele>
        <time>2016-04-08T13:02:35Z</time>
      </trkpt>
      <trkpt lat="46.20398" lon="2.46652">
        <ele>397</ele>
        <time>2016-04-08T13:02:38Z</time>
      </trkpt>
      <trkpt lat="46.20397" lon="2.46646">
        <ele>397</ele>
        <time>2016-04-08T13:02:41Z</time>
      </trkpt>
      <trkpt lat="46.20396" lon="2.4664">
        <ele>397</ele>
        <time>2016-04-08T13:02:44Z</time>
      </trkpt>
      <trkpt lat="46.20395" lon="2.46634">
        <ele>397</ele>
        <time>2016-04-08T13:02:47Z</time>
      </trkpt>
      <trkpt lat="46.20393" lon="2.46627">
        <ele>397</ele>
        <time>2016-04-08T13:02:50Z</time>
      </trkpt>
      <trkpt lat="46.20392" lon="2.46621">
        <ele>397</ele>
        <time>2016-04-08T13:02:53Z</time>
      </trkpt>
      <trkpt lat="46.20391" lon="2.46616">
        <ele>397</ele>
        <time>2016-04-08T13:02:56Z</time>
      </trkpt>
      <trkpt lat="46.2039" lon="2.46609">
        <ele>397</ele>
        <time>2016-04-08T13:02:59Z</time>
      </trkpt>
      <trkpt lat="46.20389" lon="2.46603">
        <ele>398</ele>
        <time>2016-04-08T13:03:02Z</time>
      </trkpt>
      <trkpt lat="46.20388" lon="2.46597">
        <ele>398</ele>
        <time>2016-04-08T13:03:05Z</time>
      </trkpt>
      <trkpt lat="46.20387" lon="2.46591">
        <ele>398</ele>
        <time>2016-04-08T13:03:08Z</time>
      </trkpt>
      <trkpt lat="46.20387" lon="2.46585">
        <ele>398</ele>
        <time>2016-04-08T13:03:11Z</time>
      </trkpt>
      <trkpt lat="46.20386" lon="2.46579">
        <ele>399</ele>
        <time>2016-04-08T13:03:14Z</time>
      </trkpt>
      <trkpt lat="46.20385" lon="2.46572">
        <ele>399</ele>
        <time>2016-04-08T13:03:17Z</time>
      </trkpt>
      <trkpt lat="46.20384" lon="2.46566">
        <ele>399</ele>
        <time>2016-04-08T13:03:20Z</time>
      </trkpt>
      <trkpt lat="46.20383" lon="2.4656">
        <ele>399</ele>
        <time>2016-04-08T13:03:23Z</time>
      </trkpt>
      <trkpt lat="46.20383" lon="2.46554">
        <ele>399</ele>
        <time>2016-04-08T13:03:26Z</time>
      </trkpt>
      <trkpt lat="46.20382" lon="2.46548">
        <ele>399</ele>
        <time>2016-04-08T13:03:29Z</time>
      </trkpt>
      <trkpt lat="46.20381" lon="2.4654">
        <ele>400</ele>
        <time>2016-04-08T13:03:32Z</time>
      </trkpt>
      <trkpt lat="46.2038" lon="2.46533">
        <ele>401</ele>
        <time>2016-04-08T13:03:35Z</time>
      </trkpt>
      <trkpt lat="46.2038" lon="2.46526">
        <ele>402</ele>
        <time>2016-04-08T13:03:38Z</time>
      </trkpt>
      <trkpt lat="46.20379" lon="2.4652">
        <ele>403</ele>
        <time>2016-04-08T13:03:41Z</time>
      </trkpt>
      <trkpt lat="46.20379" lon="2.46513">
        <ele>404</ele>
        <time>2016-04-08T13:03:44Z</time>
      </trkpt>
      <trkpt lat="46.20379" lon="2.46507">
        <ele>404</ele>
        <time>2016-04-08T13:03:47Z</time>
      </trkpt>
      <trkpt lat="46.20379" lon="2.465">
        <ele>404</ele>
        <time>2016-04-08T13:03:50Z</time>
      </trkpt>
      <trkpt lat="46.20378" lon="2.46494">
        <ele>404</ele>
        <time>2016-04-08T13:03:53Z</time>
      </trkpt>
      <trkpt lat="46.20378" lon="2.46487">
        <ele>405</ele>
        <time>2016-04-08T13:03:56Z</time>
      </trkpt>
      <trkpt lat="46.20377" lon="2.46481">
        <ele>405</ele>
        <time>2016-04-08T13:03:59Z</time>
      </trkpt>
      <trkpt lat="46.20377" lon="2.46475">
        <ele>405</ele>
        <time>2016-04-08T13:04:02Z</time>
      </trkpt>
      <trkpt lat="46.20377" lon="2.46468">
        <ele>406</ele>
        <time>2016-04-08T13:04:05Z</time>
      </trkpt>
      <trkpt lat="46.20376" lon="2.46462">
        <ele>406</ele>
        <time>2016-04-08T13:04:08Z</time>
      </trkpt>
      <trkpt lat="46.20375" lon="2.46456">
        <ele>406</ele>
        <time>2016-04-08T13:04:11Z</time>
      </trkpt>
      <trkpt lat="46.20375" lon="2.46449">
        <ele>406</ele>
        <time>2016-04-08T13:04:14Z</time>
      </trkpt>
      <trkpt lat="46.20374" lon="2.46443">
        <ele>407</ele>
        <time>2016-04-08T13:04:17Z</time>
      </trkpt>
      <trkpt lat="46.20373" lon="2.46437">
        <ele>407</ele>
        <time>2016-04-08T13:04:20Z</time>
      </trkpt>
      <trkpt lat="46.20372" lon="2.46431">
        <ele>408</ele>
        <time>2016-04-08T13:04:23Z</time>
      </trkpt>
      <trkpt lat="46.2037" lon="2.46425">
        <ele>408</ele>
        <time>2016-04-08T13:04:26Z</time>
      </trkpt>
      <trkpt lat="46.20369" lon="2.4642">
        <ele>408</ele>
        <time>2016-04-08T13:04:29Z</time>
      </trkpt>
      <trkpt lat="46.20367" lon="2.46415">
        <ele>408</ele>
        <time>2016-04-08T13:04:32Z</time>
      </trkpt>
      <trkpt lat="46.20366" lon="2.46409">
        <ele>408</ele>
        <time>2016-04-08T13:04:35Z</time>
      </trkpt>
      <trkpt lat="46.20365" lon="2.46404">
        <ele>408</ele>
        <time>2016-04-08T13:04:38Z</time>
      </trkpt>
      <trkpt lat="46.20363" lon="2.46398">
        <ele>408</ele>
        <time>2016-04-08T13:04:41Z</time>
      </trkpt>
      <trkpt lat="46.20362" lon="2.46392">
        <ele>408</ele>
        <time>2016-04-08T13:04:44Z</time>
      </trkpt>
      <trkpt lat="46.20361" lon="2.46386">
        <ele>408</ele>
        <time>2016-04-08T13:04:47Z</time>
      </trkpt>
      <trkpt lat="46.20359" lon="2.46381">
        <ele>408</ele>
        <time>2016-04-08T13:04:50Z</time>
      </trkpt>
      <trkpt lat="46.20358" lon="2.46375">
        <ele>408</ele>
        <time>2016-04-08T13:04:53Z</time>
      </trkpt>
      <trkpt lat="46.20356" lon="2.46369">
        <ele>408</ele>
        <time>2016-04-08T13:04:56Z</time>
      </trkpt>
      <trkpt lat="46.20355" lon="2.46363">
        <ele>408</ele>
        <time>2016-04-08T13:04:59Z</time>
      </trkpt>
      <trkpt lat="46.20353" lon="2.46357">
        <ele>408</ele>
        <time>2016-04-08T13:05:02Z</time>
      </trkpt>
      <trkpt lat="46.20352" lon="2.4635">
        <ele>408</ele>
        <time>2016-04-08T13:05:05Z</time>
      </trkpt>
      <trkpt lat="46.2035" lon="2.46344">
        <ele>408</ele>
        <time>2016-04-08T13:05:08Z</time>
      </trkpt>
      <trkpt lat="46.20349" lon="2.46338">
        <ele>408</ele>
        <time>2016-04-08T13:05:11Z</time>
      </trkpt>
      <trkpt lat="46.20347" lon="2.46332">
        <ele>408</ele>
        <time>2016-04-08T13:05:14Z</time>
      </trkpt>
      <trkpt lat="46.20346" lon="2.46326">
        <ele>408</ele>
        <time>2016-04-08T13:05:17Z</time>
      </trkpt>
      <trkpt lat="46.20344" lon="2.4632">
        <ele>408</ele>
        <time>2016-04-08T13:05:20Z</time>
      </trkpt>
      <trkpt lat="46.20343" lon="2.46313">
        <ele>408</ele>
        <time>2016-04-08T13:05:23Z</time>
      </trkpt>
      <trkpt lat="46.20341" lon="2.46307">
        <ele>408</ele>
        <time>2016-04-08T13:05:26Z</time>
      </trkpt>
      <trkpt lat="46.2034" lon="2.46301">
        <ele>408</ele>
        <time>2016-04-08T13:05:29Z</time>
      </trkpt>
      <trkpt lat="46.20338" lon="2.46294">
        <ele>408</ele>
        <time>2016-04-08T13:05:32Z</time>
      </trkpt>
      <trkpt lat="46.20336" lon="2.46288">
        <ele>408</ele>
        <time>2016-04-08T13:05:35Z</time>
      </trkpt>
      <trkpt lat="46.20335" lon="2.46282">
        <ele>408</ele>
        <time>2016-04-08T13:05:38Z</time>
      </trkpt>
      <trkpt lat="46.20333" lon="2.46276">
        <ele>408</ele>
        <time>2016-04-08T13:05:41Z</time>
      </trkpt>
      <trkpt lat="46.20332" lon="2.4627">
        <ele>408</ele>
        <time>2016-04-08T13:05:44Z</time>
      </trkpt>
      <trkpt lat="46.2033" lon="2.46264">
        <ele>408</ele>
        <time>2016-04-08T13:05:47Z</time>
      </trkpt>
      <trkpt lat="46.20329" lon="2.46258">
        <ele>408</ele>
        <time>2016-04-08T13:05:50Z</time>
      </trkpt>
      <trkpt lat="46.20327" lon="2.46253">
        <ele>408</ele>
        <time>2016-04-08T13:05:53Z</time>
      </trkpt>
      <trkpt lat="46.20326" lon="2.46248">
        <ele>408</ele>
        <time>2016-04-08T13:05:56Z</time>
      </trkpt>
      <trkpt lat="46.20325" lon="2.46243">
        <ele>408</ele>
        <time>2016-04-08T13:05:59Z</time>
      </trkpt>
      <trkpt lat="46.20324" lon="2.46238">
        <ele>408</ele>
        <time>2016-04-08T13:06:02Z</time>
      </trkpt>
      <trkpt lat="46.20322" lon="2.46233">
        <ele>408</ele>
        <time>2016-04-08T13:06:05Z</time>
      </trkpt>
      <trkpt lat="46.2032" lon="2.46227">
        <ele>407</ele>
        <time>2016-04-08T13:06:08Z</time>
      </trkpt>
      <trkpt lat="46.20319" lon="2.46222">
        <ele>407</ele>
        <time>2016-04-08T13:06:11Z</time>
      </trkpt>
      <trkpt lat="46.20318" lon="2.46216">
        <ele>407</ele>
        <time>2016-04-08T13:06:14Z</time>
      </trkpt>
      <trkpt lat="46.20316" lon="2.46211">
        <ele>407</ele>
        <time>2016-04-08T13:06:17Z</time>
      </trkpt>
      <trkpt lat="46.20315" lon="2.46205">
        <ele>407</ele>
        <time>2016-04-08T13:06:20Z</time>
      </trkpt>
      <trkpt lat="46.20315" lon="2.46199">
        <ele>406</ele>
        <time>2016-04-08T13:06:23Z</time>
      </trkpt>
      <trkpt lat="46.20315" lon="2.46193">
        <ele>406</ele>
        <time>2016-04-08T13:06:26Z</time>
      </trkpt>
      <trkpt lat="46.20315" lon="2.46189">
        <ele>406</ele>
        <time>2016-04-08T13:06:29Z</time>
      </trkpt>
      <trkpt lat="46.20316" lon="2.46183">
        <ele>406</ele>
        <time>2016-04-08T13:06:32Z</time>
      </trkpt>
      <trkpt lat="46.20316" lon="2.46177">
        <ele>406</ele>
        <time>2016-04-08T13:06:35Z</time>
      </trkpt>
      <trkpt lat="46.20316" lon="2.46176">
        <ele>406</ele>
        <time>2016-04-08T13:06:43Z</time>
      </trkpt>
      <trkpt lat="46.20314" lon="2.46176">
        <ele>406</ele>
        <time>2016-04-08T13:06:52Z</time>
      </trkpt>
      <trkpt lat="46.20315" lon="2.46172">
        <ele>406</ele>
        <time>2016-04-08T13:06:56Z</time>
      </trkpt>
      <trkpt lat="46.20315" lon="2.46167">
        <ele>406</ele>
        <time>2016-04-08T13:07:00Z</time>
      </trkpt>
      <trkpt lat="46.20316" lon="2.4616">
        <ele>406</ele>
        <time>2016-04-08T13:07:03Z</time>
      </trkpt>
      <trkpt lat="46.20317" lon="2.46154">
        <ele>406</ele>
        <time>2016-04-08T13:07:06Z</time>
      </trkpt>
      <trkpt lat="46.20317" lon="2.46148">
        <ele>406</ele>
        <time>2016-04-08T13:07:09Z</time>
      </trkpt>
      <trkpt lat="46.20318" lon="2.46143">
        <ele>406</ele>
        <time>2016-04-08T13:07:12Z</time>
      </trkpt>
      <trkpt lat="46.20318" lon="2.46137">
        <ele>406</ele>
        <time>2016-04-08T13:07:15Z</time>
      </trkpt>
      <trkpt lat="46.20319" lon="2.46131">
        <ele>406</ele>
        <time>2016-04-08T13:07:18Z</time>
      </trkpt>
      <trkpt lat="46.2032" lon="2.46125">
        <ele>406</ele>
        <time>2016-04-08T13:07:21Z</time>
      </trkpt>
      <trkpt lat="46.20321" lon="2.46119">
        <ele>406</ele>
        <time>2016-04-08T13:07:24Z</time>
      </trkpt>
      <trkpt lat="46.20321" lon="2.46113">
        <ele>406</ele>
        <time>2016-04-08T13:07:27Z</time>
      </trkpt>
      <trkpt lat="46.20322" lon="2.46108">
        <ele>406</ele>
        <time>2016-04-08T13:07:30Z</time>
      </trkpt>
      <trkpt lat="46.20322" lon="2.46102">
        <ele>406</ele>
        <time>2016-04-08T13:07:33Z</time>
      </trkpt>
      <trkpt lat="46.20323" lon="2.46096">
        <ele>406</ele>
        <time>2016-04-08T13:07:36Z</time>
      </trkpt>
      <trkpt lat="46.20323" lon="2.46091">
        <ele>406</ele>
        <time>2016-04-08T13:07:39Z</time>
      </trkpt>
      <trkpt lat="46.20324" lon="2.46085">
        <ele>406</ele>
        <time>2016-04-08T13:07:42Z</time>
      </trkpt>
      <trkpt lat="46.20325" lon="2.46079">
        <ele>406</ele>
        <time>2016-04-08T13:07:45Z</time>
      </trkpt>
      <trkpt lat="46.20326" lon="2.46073">
        <ele>406</ele>
        <time>2016-04-08T13:07:48Z</time>
      </trkpt>
      <trkpt lat="46.20326" lon="2.46066">
        <ele>406</ele>
        <time>2016-04-08T13:07:51Z</time>
      </trkpt>
      <trkpt lat="46.20327" lon="2.4606">
        <ele>406</ele>
        <time>2016-04-08T13:07:54Z</time>
      </trkpt>
      <trkpt lat="46.20328" lon="2.46054">
        <ele>406</ele>
        <time>2016-04-08T13:07:57Z</time>
      </trkpt>
      <trkpt lat="46.20328" lon="2.46047">
        <ele>406</ele>
        <time>2016-04-08T13:08:00Z</time>
      </trkpt>
      <trkpt lat="46.20329" lon="2.46041">
        <ele>406</ele>
        <time>2016-04-08T13:08:03Z</time>
      </trkpt>
      <trkpt lat="46.20329" lon="2.46034">
        <ele>406</ele>
        <time>2016-04-08T13:08:06Z</time>
      </trkpt>
      <trkpt lat="46.20329" lon="2.46028">
        <ele>405</ele>
        <time>2016-04-08T13:08:09Z</time>
      </trkpt>
      <trkpt lat="46.2033" lon="2.46022">
        <ele>405</ele>
        <time>2016-04-08T13:08:12Z</time>
      </trkpt>
      <trkpt lat="46.2033" lon="2.46016">
        <ele>405</ele>
        <time>2016-04-08T13:08:15Z</time>
      </trkpt>
      <trkpt lat="46.2033" lon="2.4601">
        <ele>405</ele>
        <time>2016-04-08T13:08:18Z</time>
      </trkpt>
      <trkpt lat="46.20331" lon="2.46005">
        <ele>405</ele>
        <time>2016-04-08T13:08:21Z</time>
      </trkpt>
      <trkpt lat="46.20331" lon="2.45999">
        <ele>405</ele>
        <time>2016-04-08T13:08:24Z</time>
      </trkpt>
      <trkpt lat="46.20332" lon="2.45992">
        <ele>405</ele>
        <time>2016-04-08T13:08:27Z</time>
      </trkpt>
      <trkpt lat="46.20333" lon="2.45986">
        <ele>405</ele>
        <time>2016-04-08T13:08:30Z</time>
      </trkpt>
      <trkpt lat="46.20334" lon="2.45979">
        <ele>405</ele>
        <time>2016-04-08T13:08:33Z</time>
      </trkpt>
      <trkpt lat="46.20335" lon="2.45972">
        <ele>404</ele>
        <time>2016-04-08T13:08:36Z</time>
      </trkpt>
      <trkpt lat="46.20335" lon="2.45965">
        <ele>404</ele>
        <time>2016-04-08T13:08:39Z</time>
      </trkpt>
      <trkpt lat="46.20336" lon="2.45959">
        <ele>404</ele>
        <time>2016-04-08T13:08:42Z</time>
      </trkpt>
      <trkpt lat="46.20337" lon="2.45953">
        <ele>404</ele>
        <time>2016-04-08T13:08:45Z</time>
      </trkpt>
      <trkpt lat="46.20337" lon="2.45946">
        <ele>404</ele>
        <time>2016-04-08T13:08:48Z</time>
      </trkpt>
      <trkpt lat="46.20338" lon="2.4594">
        <ele>404</ele>
        <time>2016-04-08T13:08:51Z</time>
      </trkpt>
      <trkpt lat="46.20339" lon="2.45934">
        <ele>404</ele>
        <time>2016-04-08T13:08:54Z</time>
      </trkpt>
      <trkpt lat="46.20339" lon="2.45928">
        <ele>404</ele>
        <time>2016-04-08T13:08:57Z</time>
      </trkpt>
      <trkpt lat="46.2034" lon="2.45922">
        <ele>404</ele>
        <time>2016-04-08T13:09:00Z</time>
      </trkpt>
      <trkpt lat="46.20341" lon="2.45916">
        <ele>404</ele>
        <time>2016-04-08T13:09:03Z</time>
      </trkpt>
      <trkpt lat="46.20341" lon="2.45909">
        <ele>404</ele>
        <time>2016-04-08T13:09:06Z</time>
      </trkpt>
      <trkpt lat="46.20342" lon="2.45902">
        <ele>404</ele>
        <time>2016-04-08T13:09:09Z</time>
      </trkpt>
      <trkpt lat="46.20342" lon="2.45896">
        <ele>404</ele>
        <time>2016-04-08T13:09:12Z</time>
      </trkpt>
      <trkpt lat="46.20343" lon="2.45889">
        <ele>404</ele>
        <time>2016-04-08T13:09:15Z</time>
      </trkpt>
      <trkpt lat="46.20343" lon="2.45883">
        <ele>404</ele>
        <time>2016-04-08T13:09:18Z</time>
      </trkpt>
      <trkpt lat="46.20344" lon="2.45877">
        <ele>404</ele>
        <time>2016-04-08T13:09:21Z</time>
      </trkpt>
      <trkpt lat="46.20345" lon="2.45871">
        <ele>404</ele>
        <time>2016-04-08T13:09:24Z</time>
      </trkpt>
      <trkpt lat="46.20345" lon="2.45865">
        <ele>404</ele>
        <time>2016-04-08T13:09:27Z</time>
      </trkpt>
      <trkpt lat="46.20347" lon="2.45858">
        <ele>404</ele>
        <time>2016-04-08T13:09:30Z</time>
      </trkpt>
      <trkpt lat="46.20348" lon="2.45852">
        <ele>404</ele>
        <time>2016-04-08T13:09:33Z</time>
      </trkpt>
      <trkpt lat="46.20349" lon="2.45846">
        <ele>404</ele>
        <time>2016-04-08T13:09:36Z</time>
      </trkpt>
      <trkpt lat="46.2035" lon="2.4584">
        <ele>404</ele>
        <time>2016-04-08T13:09:39Z</time>
      </trkpt>
      <trkpt lat="46.2035" lon="2.45834">
        <ele>404</ele>
        <time>2016-04-08T13:09:42Z</time>
      </trkpt>
      <trkpt lat="46.20351" lon="2.45828">
        <ele>404</ele>
        <time>2016-04-08T13:09:45Z</time>
      </trkpt>
      <trkpt lat="46.20351" lon="2.45822">
        <ele>404</ele>
        <time>2016-04-08T13:09:48Z</time>
      </trkpt>
      <trkpt lat="46.20352" lon="2.45815">
        <ele>404</ele>
        <time>2016-04-08T13:09:51Z</time>
      </trkpt>
      <trkpt lat="46.20353" lon="2.45809">
        <ele>404</ele>
        <time>2016-04-08T13:09:54Z</time>
      </trkpt>
      <trkpt lat="46.20353" lon="2.45803">
        <ele>404</ele>
        <time>2016-04-08T13:09:57Z</time>
      </trkpt>
      <trkpt lat="46.20355" lon="2.45797">
        <ele>404</ele>
        <time>2016-04-08T13:10:00Z</time>
      </trkpt>
      <trkpt lat="46.20355" lon="2.4579">
        <ele>404</ele>
        <time>2016-04-08T13:10:03Z</time>
      </trkpt>
      <trkpt lat="46.20356" lon="2.45784">
        <ele>404</ele>
        <time>2016-04-08T13:10:06Z</time>
      </trkpt>
      <trkpt lat="46.20356" lon="2.45777">
        <ele>404</ele>
        <time>2016-04-08T13:10:09Z</time>
      </trkpt>
      <trkpt lat="46.20358" lon="2.45771">
        <ele>404</ele>
        <time>2016-04-08T13:10:12Z</time>
      </trkpt>
      <trkpt lat="46.20358" lon="2.45763">
        <ele>404</ele>
        <time>2016-04-08T13:10:15Z</time>
      </trkpt>
      <trkpt lat="46.20358" lon="2.45756">
        <ele>404</ele>
        <time>2016-04-08T13:10:18Z</time>
      </trkpt>
      <trkpt lat="46.20359" lon="2.4575">
        <ele>404</ele>
        <time>2016-04-08T13:10:21Z</time>
      </trkpt>
      <trkpt lat="46.20358" lon="2.45743">
        <ele>404</ele>
        <time>2016-04-08T13:10:24Z</time>
      </trkpt>
      <trkpt lat="46.20358" lon="2.45737">
        <ele>405</ele>
        <time>2016-04-08T13:10:27Z</time>
      </trkpt>
      <trkpt lat="46.20358" lon="2.45731">
        <ele>405</ele>
        <time>2016-04-08T13:10:30Z</time>
      </trkpt>
      <trkpt lat="46.20357" lon="2.45725">
        <ele>405</ele>
        <time>2016-04-08T13:10:33Z</time>
      </trkpt>
      <trkpt lat="46.20357" lon="2.45719">
        <ele>406</ele>
        <time>2016-04-08T13:10:36Z</time>
      </trkpt>
      <trkpt lat="46.20356" lon="2.45712">
        <ele>406</ele>
        <time>2016-04-08T13:10:39Z</time>
      </trkpt>
      <trkpt lat="46.20355" lon="2.45706">
        <ele>406</ele>
        <time>2016-04-08T13:10:42Z</time>
      </trkpt>
      <trkpt lat="46.20354" lon="2.457">
        <ele>406</ele>
        <time>2016-04-08T13:10:45Z</time>
      </trkpt>
      <trkpt lat="46.20353" lon="2.45694">
        <ele>406</ele>
        <time>2016-04-08T13:10:48Z</time>
      </trkpt>
      <trkpt lat="46.20352" lon="2.45687">
        <ele>406</ele>
        <time>2016-04-08T13:10:51Z</time>
      </trkpt>
      <trkpt lat="46.2035" lon="2.45681">
        <ele>406</ele>
        <time>2016-04-08T13:10:54Z</time>
      </trkpt>
      <trkpt lat="46.20347" lon="2.45673">
        <ele>406</ele>
        <time>2016-04-08T13:10:57Z</time>
      </trkpt>
      <trkpt lat="46.20345" lon="2.45667">
        <ele>406</ele>
        <time>2016-04-08T13:11:00Z</time>
      </trkpt>
      <trkpt lat="46.20344" lon="2.45661">
        <ele>407</ele>
        <time>2016-04-08T13:11:03Z</time>
      </trkpt>
      <trkpt lat="46.20341" lon="2.45655">
        <ele>407</ele>
        <time>2016-04-08T13:11:06Z</time>
      </trkpt>
      <trkpt lat="46.20339" lon="2.4565">
        <ele>407</ele>
        <time>2016-04-08T13:11:09Z</time>
      </trkpt>
      <trkpt lat="46.20337" lon="2.45644">
        <ele>407</ele>
        <time>2016-04-08T13:11:12Z</time>
      </trkpt>
      <trkpt lat="46.20335" lon="2.45639">
        <ele>407</ele>
        <time>2016-04-08T13:11:15Z</time>
      </trkpt>
      <trkpt lat="46.20333" lon="2.45633">
        <ele>407</ele>
        <time>2016-04-08T13:11:18Z</time>
      </trkpt>
      <trkpt lat="46.20331" lon="2.45627">
        <ele>407</ele>
        <time>2016-04-08T13:11:21Z</time>
      </trkpt>
      <trkpt lat="46.20329" lon="2.45622">
        <ele>407</ele>
        <time>2016-04-08T13:11:24Z</time>
      </trkpt>
      <trkpt lat="46.20327" lon="2.45617">
        <ele>407</ele>
        <time>2016-04-08T13:11:27Z</time>
      </trkpt>
      <trkpt lat="46.20326" lon="2.4561">
        <ele>407</ele>
        <time>2016-04-08T13:11:30Z</time>
      </trkpt>
      <trkpt lat="46.20324" lon="2.45605">
        <ele>407</ele>
        <time>2016-04-08T13:11:33Z</time>
      </trkpt>
      <trkpt lat="46.20322" lon="2.456">
        <ele>407</ele>
        <time>2016-04-08T13:11:36Z</time>
      </trkpt>
      <trkpt lat="46.2032" lon="2.45594">
        <ele>407</ele>
        <time>2016-04-08T13:11:39Z</time>
      </trkpt>
      <trkpt lat="46.20318" lon="2.45589">
        <ele>407</ele>
        <time>2016-04-08T13:11:42Z</time>
      </trkpt>
      <trkpt lat="46.20316" lon="2.45583">
        <ele>407</ele>
        <time>2016-04-08T13:11:45Z</time>
      </trkpt>
      <trkpt lat="46.20314" lon="2.45579">
        <ele>407</ele>
        <time>2016-04-08T13:11:48Z</time>
      </trkpt>
      <trkpt lat="46.20312" lon="2.45573">
        <ele>407</ele>
        <time>2016-04-08T13:11:51Z</time>
      </trkpt>
      <trkpt lat="46.20309" lon="2.45568">
        <ele>407</ele>
        <time>2016-04-08T13:11:54Z</time>
      </trkpt>
      <trkpt lat="46.20308" lon="2.45562">
        <ele>407</ele>
        <time>2016-04-08T13:11:57Z</time>
      </trkpt>
      <trkpt lat="46.20306" lon="2.45557">
        <ele>407</ele>
        <time>2016-04-08T13:12:00Z</time>
      </trkpt>
      <trkpt lat="46.20303" lon="2.4555">
        <ele>407</ele>
        <time>2016-04-08T13:12:03Z</time>
      </trkpt>
      <trkpt lat="46.20301" lon="2.45545">
        <ele>407</ele>
        <time>2016-04-08T13:12:06Z</time>
      </trkpt>
      <trkpt lat="46.203" lon="2.45539">
        <ele>407</ele>
        <time>2016-04-08T13:12:09Z</time>
      </trkpt>
      <trkpt lat="46.20298" lon="2.45533">
        <ele>407</ele>
        <time>2016-04-08T13:12:12Z</time>
      </trkpt>
      <trkpt lat="46.20296" lon="2.45527">
        <ele>408</ele>
        <time>2016-04-08T13:12:15Z</time>
      </trkpt>
      <trkpt lat="46.20294" lon="2.45521">
        <ele>408</ele>
        <time>2016-04-08T13:12:18Z</time>
      </trkpt>
      <trkpt lat="46.20292" lon="2.45515">
        <ele>408</ele>
        <time>2016-04-08T13:12:21Z</time>
      </trkpt>
      <trkpt lat="46.2029" lon="2.4551">
        <ele>408</ele>
        <time>2016-04-08T13:12:24Z</time>
      </trkpt>
      <trkpt lat="46.20287" lon="2.45505">
        <ele>408</ele>
        <time>2016-04-08T13:12:27Z</time>
      </trkpt>
      <trkpt lat="46.20285" lon="2.455">
        <ele>408</ele>
        <time>2016-04-08T13:12:30Z</time>
      </trkpt>
      <trkpt lat="46.20283" lon="2.45494">
        <ele>408</ele>
        <time>2016-04-08T13:12:33Z</time>
      </trkpt>
      <trkpt lat="46.20282" lon="2.4549">
        <ele>408</ele>
        <time>2016-04-08T13:12:36Z</time>
      </trkpt>
      <trkpt lat="46.2028" lon="2.45484">
        <ele>408</ele>
        <time>2016-04-08T13:12:39Z</time>
      </trkpt>
      <trkpt lat="46.20278" lon="2.4548">
        <ele>408</ele>
        <time>2016-04-08T13:12:42Z</time>
      </trkpt>
      <trkpt lat="46.20276" lon="2.45475">
        <ele>408</ele>
        <time>2016-04-08T13:12:45Z</time>
      </trkpt>
      <trkpt lat="46.20274" lon="2.4547">
        <ele>408</ele>
        <time>2016-04-08T13:12:48Z</time>
      </trkpt>
      <trkpt lat="46.20272" lon="2.45464">
        <ele>408</ele>
        <time>2016-04-08T13:12:51Z</time>
      </trkpt>
      <trkpt lat="46.20271" lon="2.45459">
        <ele>408</ele>
        <time>2016-04-08T13:12:54Z</time>
      </trkpt>
      <trkpt lat="46.20268" lon="2.45451">
        <ele>408</ele>
        <time>2016-04-08T13:12:57Z</time>
      </trkpt>
      <trkpt lat="46.20266" lon="2.45445">
        <ele>408</ele>
        <time>2016-04-08T13:13:00Z</time>
      </trkpt>
      <trkpt lat="46.20264" lon="2.4544">
        <ele>408</ele>
        <time>2016-04-08T13:13:03Z</time>
      </trkpt>
      <trkpt lat="46.20262" lon="2.45434">
        <ele>408</ele>
        <time>2016-04-08T13:13:06Z</time>
      </trkpt>
      <trkpt lat="46.20261" lon="2.45427">
        <ele>408</ele>
        <time>2016-04-08T13:13:09Z</time>
      </trkpt>
      <trkpt lat="46.2026" lon="2.45421">
        <ele>408</ele>
        <time>2016-04-08T13:13:12Z</time>
      </trkpt>
      <trkpt lat="46.20258" lon="2.45415">
        <ele>408</ele>
        <time>2016-04-08T13:13:15Z</time>
      </trkpt>
      <trkpt lat="46.20256" lon="2.4541">
        <ele>408</ele>
        <time>2016-04-08T13:13:18Z</time>
      </trkpt>
      <trkpt lat="46.20255" lon="2.45405">
        <ele>408</ele>
        <time>2016-04-08T13:13:21Z</time>
      </trkpt>
      <trkpt lat="46.20253" lon="2.454">
        <ele>408</ele>
        <time>2016-04-08T13:13:24Z</time>
      </trkpt>
      <trkpt lat="46.20252" lon="2.45395">
        <ele>408</ele>
        <time>2016-04-08T13:13:27Z</time>
      </trkpt>
      <trkpt lat="46.20251" lon="2.45389">
        <ele>408</ele>
        <time>2016-04-08T13:13:37Z</time>
      </trkpt>
      <trkpt lat="46.20253" lon="2.45382">
        <ele>409</ele>
        <time>2016-04-08T13:13:40Z</time>
      </trkpt>
      <trkpt lat="46.20254" lon="2.45377">
        <ele>410</ele>
        <time>2016-04-08T13:13:43Z</time>
      </trkpt>
      <trkpt lat="46.20256" lon="2.45372">
        <ele>411</ele>
        <time>2016-04-08T13:13:46Z</time>
      </trkpt>
      <trkpt lat="46.20259" lon="2.45368">
        <ele>411</ele>
        <time>2016-04-08T13:13:49Z</time>
      </trkpt>
      <trkpt lat="46.20262" lon="2.45363">
        <ele>411</ele>
        <time>2016-04-08T13:13:52Z</time>
      </trkpt>
      <trkpt lat="46.20265" lon="2.45359">
        <ele>411</ele>
        <time>2016-04-08T13:13:55Z</time>
      </trkpt>
      <trkpt lat="46.20268" lon="2.45355">
        <ele>411</ele>
        <time>2016-04-08T13:13:58Z</time>
      </trkpt>
      <trkpt lat="46.20271" lon="2.45351">
        <ele>411</ele>
        <time>2016-04-08T13:14:01Z</time>
      </trkpt>
      <trkpt lat="46.20274" lon="2.45346">
        <ele>412</ele>
        <time>2016-04-08T13:14:04Z</time>
      </trkpt>
      <trkpt lat="46.20277" lon="2.45341">
        <ele>412</ele>
        <time>2016-04-08T13:14:07Z</time>
      </trkpt>
      <trkpt lat="46.20279" lon="2.45337">
        <ele>412</ele>
        <time>2016-04-08T13:14:10Z</time>
      </trkpt>
      <trkpt lat="46.20283" lon="2.45332">
        <ele>412</ele>
        <time>2016-04-08T13:14:13Z</time>
      </trkpt>
      <trkpt lat="46.20286" lon="2.45327">
        <ele>412</ele>
        <time>2016-04-08T13:14:16Z</time>
      </trkpt>
      <trkpt lat="46.20289" lon="2.45323">
        <ele>412</ele>
        <time>2016-04-08T13:14:19Z</time>
      </trkpt>
      <trkpt lat="46.20292" lon="2.45318">
        <ele>412</ele>
        <time>2016-04-08T13:14:22Z</time>
      </trkpt>
      <trkpt lat="46.20294" lon="2.45314">
        <ele>412</ele>
        <time>2016-04-08T13:14:25Z</time>
      </trkpt>
      <trkpt lat="46.20297" lon="2.45309">
        <ele>413</ele>
        <time>2016-04-08T13:14:28Z</time>
      </trkpt>
      <trkpt lat="46.203" lon="2.45304">
        <ele>413</ele>
        <time>2016-04-08T13:14:31Z</time>
      </trkpt>
      <trkpt lat="46.20303" lon="2.453">
        <ele>413</ele>
        <time>2016-04-08T13:14:34Z</time>
      </trkpt>
      <trkpt lat="46.20306" lon="2.45295">
        <ele>413</ele>
        <time>2016-04-08T13:14:37Z</time>
      </trkpt>
      <trkpt lat="46.20309" lon="2.45291">
        <ele>413</ele>
        <time>2016-04-08T13:14:40Z</time>
      </trkpt>
      <trkpt lat="46.20313" lon="2.45286">
        <ele>413</ele>
        <time>2016-04-08T13:14:43Z</time>
      </trkpt>
      <trkpt lat="46.20316" lon="2.45281">
        <ele>413</ele>
        <time>2016-04-08T13:14:46Z</time>
      </trkpt>
      <trkpt lat="46.20319" lon="2.45276">
        <ele>413</ele>
        <time>2016-04-08T13:14:49Z</time>
      </trkpt>
      <trkpt lat="46.20323" lon="2.45271">
        <ele>413</ele>
        <time>2016-04-08T13:14:52Z</time>
      </trkpt>
      <trkpt lat="46.20327" lon="2.45267">
        <ele>413</ele>
        <time>2016-04-08T13:14:55Z</time>
      </trkpt>
      <trkpt lat="46.2033" lon="2.45262">
        <ele>413</ele>
        <time>2016-04-08T13:14:58Z</time>
      </trkpt>
      <trkpt lat="46.20333" lon="2.45258">
        <ele>413</ele>
        <time>2016-04-08T13:15:01Z</time>
      </trkpt>
      <trkpt lat="46.20337" lon="2.45254">
        <ele>413</ele>
        <time>2016-04-08T13:15:04Z</time>
      </trkpt>
      <trkpt lat="46.2034" lon="2.4525">
        <ele>413</ele>
        <time>2016-04-08T13:15:07Z</time>
      </trkpt>
      <trkpt lat="46.20344" lon="2.45243">
        <ele>413</ele>
        <time>2016-04-08T13:15:11Z</time>
      </trkpt>
      <trkpt lat="46.20347" lon="2.45239">
        <ele>413</ele>
        <time>2016-04-08T13:15:14Z</time>
      </trkpt>
      <trkpt lat="46.2035" lon="2.45234">
        <ele>413</ele>
        <time>2016-04-08T13:15:17Z</time>
      </trkpt>
      <trkpt lat="46.20353" lon="2.4523">
        <ele>413</ele>
        <time>2016-04-08T13:15:20Z</time>
      </trkpt>
      <trkpt lat="46.20355" lon="2.45226">
        <ele>413</ele>
        <time>2016-04-08T13:15:23Z</time>
      </trkpt>
      <trkpt lat="46.20358" lon="2.45222">
        <ele>413</ele>
        <time>2016-04-08T13:15:26Z</time>
      </trkpt>
      <trkpt lat="46.20361" lon="2.45217">
        <ele>413</ele>
        <time>2016-04-08T13:15:29Z</time>
      </trkpt>
      <trkpt lat="46.20363" lon="2.45213">
        <ele>413</ele>
        <time>2016-04-08T13:15:32Z</time>
      </trkpt>
      <trkpt lat="46.20366" lon="2.45207">
        <ele>413</ele>
        <time>2016-04-08T13:15:36Z</time>
      </trkpt>
      <trkpt lat="46.20369" lon="2.45202">
        <ele>413</ele>
        <time>2016-04-08T13:15:40Z</time>
      </trkpt>
      <trkpt lat="46.20373" lon="2.45199">
        <ele>413</ele>
        <time>2016-04-08T13:15:43Z</time>
      </trkpt>
      <trkpt lat="46.20377" lon="2.45196">
        <ele>413</ele>
        <time>2016-04-08T13:15:46Z</time>
      </trkpt>
      <trkpt lat="46.20381" lon="2.45193">
        <ele>413</ele>
        <time>2016-04-08T13:15:49Z</time>
      </trkpt>
      <trkpt lat="46.20385" lon="2.45189">
        <ele>413</ele>
        <time>2016-04-08T13:15:53Z</time>
      </trkpt>
      <trkpt lat="46.20389" lon="2.45186">
        <ele>413</ele>
        <time>2016-04-08T13:15:56Z</time>
      </trkpt>
      <trkpt lat="46.20392" lon="2.45183">
        <ele>413</ele>
        <time>2016-04-08T13:16:00Z</time>
      </trkpt>
      <trkpt lat="46.20395" lon="2.4518">
        <ele>413</ele>
        <time>2016-04-08T13:16:04Z</time>
      </trkpt>
      <trkpt lat="46.20398" lon="2.45176">
        <ele>413</ele>
        <time>2016-04-08T13:16:08Z</time>
      </trkpt>
      <trkpt lat="46.20398" lon="2.45174">
        <ele>413</ele>
        <time>2016-04-08T13:16:11Z</time>
      </trkpt>
      <trkpt lat="46.20399" lon="2.4517">
        <ele>413</ele>
        <time>2016-04-08T13:16:15Z</time>
      </trkpt>
      <trkpt lat="46.20402" lon="2.45168">
        <ele>413</ele>
        <time>2016-04-08T13:16:19Z</time>
      </trkpt>
      <trkpt lat="46.20406" lon="2.45164">
        <ele>413</ele>
        <time>2016-04-08T13:16:23Z</time>
      </trkpt>
      <trkpt lat="46.20409" lon="2.45162">
        <ele>413</ele>
        <time>2016-04-08T13:16:26Z</time>
      </trkpt>
      <trkpt lat="46.20412" lon="2.45158">
        <ele>413</ele>
        <time>2016-04-08T13:16:29Z</time>
      </trkpt>
      <trkpt lat="46.20414" lon="2.45153">
        <ele>413</ele>
        <time>2016-04-08T13:16:32Z</time>
      </trkpt>
      <trkpt lat="46.20417" lon="2.45149">
        <ele>413</ele>
        <time>2016-04-08T13:16:35Z</time>
      </trkpt>
      <trkpt lat="46.2042" lon="2.45145">
        <ele>413</ele>
        <time>2016-04-08T13:16:38Z</time>
      </trkpt>
      <trkpt lat="46.20423" lon="2.45141">
        <ele>413</ele>
        <time>2016-04-08T13:16:41Z</time>
      </trkpt>
      <trkpt lat="46.20427" lon="2.45135">
        <ele>414</ele>
        <time>2016-04-08T13:16:44Z</time>
      </trkpt>
      <trkpt lat="46.2043" lon="2.4513">
        <ele>416</ele>
        <time>2016-04-08T13:16:47Z</time>
      </trkpt>
      <trkpt lat="46.20433" lon="2.45127">
        <ele>417</ele>
        <time>2016-04-08T13:16:50Z</time>
      </trkpt>
      <trkpt lat="46.20436" lon="2.45122">
        <ele>417</ele>
        <time>2016-04-08T13:16:53Z</time>
      </trkpt>
      <trkpt lat="46.20439" lon="2.45118">
        <ele>417</ele>
        <time>2016-04-08T13:16:56Z</time>
      </trkpt>
      <trkpt lat="46.20443" lon="2.45114">
        <ele>417</ele>
        <time>2016-04-08T13:17:00Z</time>
      </trkpt>
      <trkpt lat="46.20446" lon="2.45111">
        <ele>417</ele>
        <time>2016-04-08T13:17:03Z</time>
      </trkpt>
      <trkpt lat="46.20449" lon="2.45106">
        <ele>417</ele>
        <time>2016-04-08T13:17:07Z</time>
      </trkpt>
      <trkpt lat="46.20452" lon="2.45102">
        <ele>417</ele>
        <time>2016-04-08T13:17:10Z</time>
      </trkpt>
      <trkpt lat="46.20457" lon="2.45095">
        <ele>417</ele>
        <time>2016-04-08T13:17:14Z</time>
      </trkpt>
      <trkpt lat="46.20459" lon="2.45091">
        <ele>417</ele>
        <time>2016-04-08T13:17:17Z</time>
      </trkpt>
      <trkpt lat="46.20463" lon="2.45086">
        <ele>417</ele>
        <time>2016-04-08T13:17:20Z</time>
      </trkpt>
      <trkpt lat="46.20467" lon="2.45081">
        <ele>417</ele>
        <time>2016-04-08T13:17:24Z</time>
      </trkpt>
      <trkpt lat="46.20471" lon="2.45077">
        <ele>417</ele>
        <time>2016-04-08T13:17:28Z</time>
      </trkpt>
      <trkpt lat="46.20474" lon="2.45074">
        <ele>417</ele>
        <time>2016-04-08T13:17:31Z</time>
      </trkpt>
      <trkpt lat="46.20477" lon="2.45071">
        <ele>417</ele>
        <time>2016-04-08T13:17:34Z</time>
      </trkpt>
      <trkpt lat="46.2048" lon="2.45067">
        <ele>417</ele>
        <time>2016-04-08T13:17:37Z</time>
      </trkpt>
      <trkpt lat="46.20483" lon="2.45063">
        <ele>417</ele>
        <time>2016-04-08T13:17:40Z</time>
      </trkpt>
      <trkpt lat="46.20486" lon="2.45059">
        <ele>417</ele>
        <time>2016-04-08T13:17:43Z</time>
      </trkpt>
      <trkpt lat="46.2049" lon="2.45054">
        <ele>417</ele>
        <time>2016-04-08T13:17:47Z</time>
      </trkpt>
      <trkpt lat="46.20493" lon="2.4505">
        <ele>417</ele>
        <time>2016-04-08T13:17:50Z</time>
      </trkpt>
      <trkpt lat="46.20497" lon="2.45047">
        <ele>417</ele>
        <time>2016-04-08T13:17:54Z</time>
      </trkpt>
      <trkpt lat="46.20501" lon="2.45044">
        <ele>417</ele>
        <time>2016-04-08T13:17:57Z</time>
      </trkpt>
      <trkpt lat="46.20507" lon="2.4504">
        <ele>417</ele>
        <time>2016-04-08T13:18:01Z</time>
      </trkpt>
      <trkpt lat="46.2051" lon="2.45037">
        <ele>417</ele>
        <time>2016-04-08T13:18:04Z</time>
      </trkpt>
      <trkpt lat="46.20514" lon="2.45034">
        <ele>417</ele>
        <time>2016-04-08T13:18:07Z</time>
      </trkpt>
      <trkpt lat="46.20518" lon="2.45029">
        <ele>417</ele>
        <time>2016-04-08T13:18:11Z</time>
      </trkpt>
      <trkpt lat="46.20523" lon="2.45024">
        <ele>417</ele>
        <time>2016-04-08T13:18:15Z</time>
      </trkpt>
      <trkpt lat="46.20527" lon="2.4502">
        <ele>417</ele>
        <time>2016-04-08T13:18:18Z</time>
      </trkpt>
      <trkpt lat="46.20531" lon="2.45016">
        <ele>417</ele>
        <time>2016-04-08T13:18:22Z</time>
      </trkpt>
      <trkpt lat="46.20535" lon="2.45011">
        <ele>417</ele>
        <time>2016-04-08T13:18:26Z</time>
      </trkpt>
      <trkpt lat="46.20538" lon="2.45008">
        <ele>417</ele>
        <time>2016-04-08T13:18:29Z</time>
      </trkpt>
      <trkpt lat="46.20543" lon="2.45004">
        <ele>417</ele>
        <time>2016-04-08T13:18:32Z</time>
      </trkpt>
      <trkpt lat="46.20546" lon="2.45002">
        <ele>417</ele>
        <time>2016-04-08T13:18:35Z</time>
      </trkpt>
      <trkpt lat="46.20549" lon="2.44998">
        <ele>417</ele>
        <time>2016-04-08T13:18:38Z</time>
      </trkpt>
      <trkpt lat="46.20552" lon="2.44993">
        <ele>417</ele>
        <time>2016-04-08T13:18:41Z</time>
      </trkpt>
      <trkpt lat="46.20558" lon="2.44991">
        <ele>417</ele>
        <time>2016-04-08T13:18:45Z</time>
      </trkpt>
      <trkpt lat="46.20561" lon="2.44988">
        <ele>417</ele>
        <time>2016-04-08T13:18:48Z</time>
      </trkpt>
      <trkpt lat="46.20564" lon="2.44984">
        <ele>417</ele>
        <time>2016-04-08T13:18:52Z</time>
      </trkpt>
      <trkpt lat="46.20567" lon="2.4498">
        <ele>417</ele>
        <time>2016-04-08T13:18:55Z</time>
      </trkpt>
      <trkpt lat="46.2057" lon="2.44976">
        <ele>417</ele>
        <time>2016-04-08T13:18:58Z</time>
      </trkpt>
      <trkpt lat="46.20575" lon="2.4497">
        <ele>417</ele>
        <time>2016-04-08T13:19:02Z</time>
      </trkpt>
      <trkpt lat="46.20579" lon="2.44968">
        <ele>417</ele>
        <time>2016-04-08T13:19:05Z</time>
      </trkpt>
      <trkpt lat="46.20584" lon="2.44967">
        <ele>417</ele>
        <time>2016-04-08T13:19:08Z</time>
      </trkpt>
      <trkpt lat="46.20587" lon="2.44965">
        <ele>417</ele>
        <time>2016-04-08T13:19:11Z</time>
      </trkpt>
      <trkpt lat="46.20591" lon="2.44961">
        <ele>417</ele>
        <time>2016-04-08T13:19:15Z</time>
      </trkpt>
      <trkpt lat="46.20595" lon="2.44958">
        <ele>417</ele>
        <time>2016-04-08T13:19:18Z</time>
      </trkpt>
      <trkpt lat="46.20599" lon="2.44953">
        <ele>417</ele>
        <time>2016-04-08T13:19:22Z</time>
      </trkpt>
      <trkpt lat="46.20603" lon="2.44949">
        <ele>417</ele>
        <time>2016-04-08T13:19:26Z</time>
      </trkpt>
      <trkpt lat="46.20608" lon="2.44943">
        <ele>417</ele>
        <time>2016-04-08T13:19:30Z</time>
      </trkpt>
      <trkpt lat="46.20612" lon="2.44938">
        <ele>417</ele>
        <time>2016-04-08T13:19:33Z</time>
      </trkpt>
      <trkpt lat="46.20618" lon="2.44934">
        <ele>417</ele>
        <time>2016-04-08T13:19:37Z</time>
      </trkpt>
      <trkpt lat="46.20621" lon="2.4493">
        <ele>417</ele>
        <time>2016-04-08T13:19:41Z</time>
      </trkpt>
      <trkpt lat="46.20625" lon="2.44926">
        <ele>417</ele>
        <time>2016-04-08T13:19:45Z</time>
      </trkpt>
      <trkpt lat="46.20629" lon="2.44922">
        <ele>417</ele>
        <time>2016-04-08T13:19:49Z</time>
      </trkpt>
      <trkpt lat="46.20633" lon="2.44917">
        <ele>417</ele>
        <time>2016-04-08T13:19:53Z</time>
      </trkpt>
      <trkpt lat="46.20637" lon="2.44914">
        <ele>417</ele>
        <time>2016-04-08T13:19:56Z</time>
      </trkpt>
      <trkpt lat="46.20641" lon="2.44909">
        <ele>417</ele>
        <time>2016-04-08T13:20:00Z</time>
      </trkpt>
      <trkpt lat="46.20644" lon="2.44905">
        <ele>417</ele>
        <time>2016-04-08T13:20:04Z</time>
      </trkpt>
      <trkpt lat="46.20649" lon="2.44902">
        <ele>417</ele>
        <time>2016-04-08T13:20:07Z</time>
      </trkpt>
      <trkpt lat="46.20652" lon="2.44897">
        <ele>417</ele>
        <time>2016-04-08T13:20:11Z</time>
      </trkpt>
      <trkpt lat="46.20656" lon="2.44893">
        <ele>417</ele>
        <time>2016-04-08T13:20:14Z</time>
      </trkpt>
      <trkpt lat="46.20659" lon="2.44889">
        <ele>417</ele>
        <time>2016-04-08T13:20:17Z</time>
      </trkpt>
      <trkpt lat="46.20664" lon="2.44882">
        <ele>417</ele>
        <time>2016-04-08T13:20:21Z</time>
      </trkpt>
      <trkpt lat="46.20666" lon="2.44877">
        <ele>418</ele>
        <time>2016-04-08T13:20:24Z</time>
      </trkpt>
      <trkpt lat="46.20671" lon="2.44871">
        <ele>418</ele>
        <time>2016-04-08T13:20:29Z</time>
      </trkpt>
      <trkpt lat="46.20675" lon="2.44867">
        <ele>418</ele>
        <time>2016-04-08T13:20:32Z</time>
      </trkpt>
      <trkpt lat="46.20677" lon="2.44862">
        <ele>418</ele>
        <time>2016-04-08T13:20:35Z</time>
      </trkpt>
      <trkpt lat="46.20682" lon="2.44856">
        <ele>418</ele>
        <time>2016-04-08T13:20:40Z</time>
      </trkpt>
      <trkpt lat="46.20686" lon="2.44851">
        <ele>418</ele>
        <time>2016-04-08T13:20:44Z</time>
      </trkpt>
      <trkpt lat="46.20689" lon="2.44848">
        <ele>418</ele>
        <time>2016-04-08T13:20:47Z</time>
      </trkpt>
      <trkpt lat="46.20693" lon="2.44842">
        <ele>418</ele>
        <time>2016-04-08T13:20:51Z</time>
      </trkpt>
      <trkpt lat="46.20698" lon="2.44837">
        <ele>418</ele>
        <time>2016-04-08T13:20:55Z</time>
      </trkpt>
      <trkpt lat="46.20702" lon="2.4483">
        <ele>418</ele>
        <time>2016-04-08T13:20:59Z</time>
      </trkpt>
      <trkpt lat="46.20706" lon="2.44826">
        <ele>418</ele>
        <time>2016-04-08T13:21:02Z</time>
      </trkpt>
      <trkpt lat="46.20709" lon="2.44821">
        <ele>418</ele>
        <time>2016-04-08T13:21:05Z</time>
      </trkpt>
      <trkpt lat="46.20712" lon="2.44816">
        <ele>418</ele>
        <time>2016-04-08T13:21:08Z</time>
      </trkpt>
      <trkpt lat="46.20717" lon="2.44811">
        <ele>418</ele>
        <time>2016-04-08T13:21:12Z</time>
      </trkpt>
      <trkpt lat="46.20721" lon="2.44806">
        <ele>418</ele>
        <time>2016-04-08T13:21:16Z</time>
      </trkpt>
      <trkpt lat="46.20724" lon="2.44801">
        <ele>418</ele>
        <time>2016-04-08T13:21:19Z</time>
      </trkpt>
      <trkpt lat="46.20727" lon="2.44798">
        <ele>418</ele>
        <time>2016-04-08T13:21:22Z</time>
      </trkpt>
      <trkpt lat="46.2073" lon="2.44793">
        <ele>418</ele>
        <time>2016-04-08T13:21:25Z</time>
      </trkpt>
      <trkpt lat="46.20732" lon="2.4479">
        <ele>418</ele>
        <time>2016-04-08T13:21:28Z</time>
      </trkpt>
      <trkpt lat="46.20737" lon="2.44784">
        <ele>418</ele>
        <time>2016-04-08T13:21:32Z</time>
      </trkpt>
      <trkpt lat="46.2074" lon="2.44777">
        <ele>418</ele>
        <time>2016-04-08T13:21:36Z</time>
      </trkpt>
      <trkpt lat="46.20744" lon="2.44773">
        <ele>418</ele>
        <time>2016-04-08T13:21:39Z</time>
      </trkpt>
      <trkpt lat="46.20748" lon="2.44767">
        <ele>418</ele>
        <time>2016-04-08T13:21:43Z</time>
      </trkpt>
      <trkpt lat="46.20751" lon="2.44762">
        <ele>418</ele>
        <time>2016-04-08T13:21:46Z</time>
      </trkpt>
      <trkpt lat="46.20754" lon="2.44758">
        <ele>418</ele>
        <time>2016-04-08T13:21:49Z</time>
      </trkpt>
      <trkpt lat="46.20758" lon="2.44755">
        <ele>418</ele>
        <time>2016-04-08T13:21:52Z</time>
      </trkpt>
      <trkpt lat="46.20762" lon="2.4475">
        <ele>418</ele>
        <time>2016-04-08T13:21:56Z</time>
      </trkpt>
      <trkpt lat="46.20767" lon="2.44744">
        <ele>418</ele>
        <time>2016-04-08T13:22:01Z</time>
      </trkpt>
      <trkpt lat="46.20771" lon="2.44738">
        <ele>418</ele>
        <time>2016-04-08T13:22:05Z</time>
      </trkpt>
      <trkpt lat="46.20775" lon="2.44732">
        <ele>418</ele>
        <time>2016-04-08T13:22:09Z</time>
      </trkpt>
      <trkpt lat="46.20778" lon="2.44729">
        <ele>418</ele>
        <time>2016-04-08T13:22:12Z</time>
      </trkpt>
      <trkpt lat="46.20781" lon="2.44723">
        <ele>418</ele>
        <time>2016-04-08T13:22:16Z</time>
      </trkpt>
      <trkpt lat="46.20784" lon="2.44719">
        <ele>418</ele>
        <time>2016-04-08T13:22:19Z</time>
      </trkpt>
      <trkpt lat="46.20787" lon="2.44713">
        <ele>418</ele>
        <time>2016-04-08T13:22:22Z</time>
      </trkpt>
      <trkpt lat="46.2079" lon="2.44707">
        <ele>418</ele>
        <time>2016-04-08T13:22:26Z</time>
      </trkpt>
      <trkpt lat="46.20794" lon="2.44704">
        <ele>418</ele>
        <time>2016-04-08T13:22:30Z</time>
      </trkpt>
      <trkpt lat="46.20798" lon="2.44702">
        <ele>418</ele>
        <time>2016-04-08T13:22:33Z</time>
      </trkpt>
      <trkpt lat="46.20803" lon="2.44701">
        <ele>418</ele>
        <time>2016-04-08T13:22:37Z</time>
      </trkpt>
      <trkpt lat="46.20807" lon="2.44699">
        <ele>418</ele>
        <time>2016-04-08T13:22:41Z</time>
      </trkpt>
      <trkpt lat="46.20812" lon="2.44697">
        <ele>418</ele>
        <time>2016-04-08T13:22:45Z</time>
      </trkpt>
      <trkpt lat="46.20816" lon="2.44696">
        <ele>418</ele>
        <time>2016-04-08T13:22:48Z</time>
      </trkpt>
      <trkpt lat="46.20821" lon="2.44695">
        <ele>418</ele>
        <time>2016-04-08T13:22:52Z</time>
      </trkpt>
      <trkpt lat="46.20824" lon="2.44694">
        <ele>418</ele>
        <time>2016-04-08T13:22:55Z</time>
      </trkpt>
      <trkpt lat="46.20828" lon="2.44693">
        <ele>418</ele>
        <time>2016-04-08T13:22:58Z</time>
      </trkpt>
      <trkpt lat="46.20833" lon="2.44692">
        <ele>418</ele>
        <time>2016-04-08T13:23:02Z</time>
      </trkpt>
      <trkpt lat="46.20837" lon="2.44691">
        <ele>418</ele>
        <time>2016-04-08T13:23:14Z</time>
      </trkpt>
      <trkpt lat="46.2084" lon="2.4469">
        <ele>418</ele>
        <time>2016-04-08T13:23:18Z</time>
      </trkpt>
      <trkpt lat="46.20844" lon="2.44689">
        <ele>418</ele>
        <time>2016-04-08T13:23:22Z</time>
      </trkpt>
      <trkpt lat="46.20847" lon="2.44688">
        <ele>418</ele>
        <time>2016-04-08T13:23:25Z</time>
      </trkpt>
      <trkpt lat="46.20852" lon="2.44687">
        <ele>418</ele>
        <time>2016-04-08T13:23:29Z</time>
      </trkpt>
      <trkpt lat="46.20855" lon="2.44686">
        <ele>418</ele>
        <time>2016-04-08T13:23:32Z</time>
      </trkpt>
      <trkpt lat="46.20859" lon="2.44684">
        <ele>418</ele>
        <time>2016-04-08T13:23:35Z</time>
      </trkpt>
      <trkpt lat="46.20864" lon="2.44683">
        <ele>418</ele>
        <time>2016-04-08T13:23:39Z</time>
      </trkpt>
      <trkpt lat="46.20868" lon="2.44683">
        <ele>418</ele>
        <time>2016-04-08T13:23:42Z</time>
      </trkpt>
      <trkpt lat="46.20872" lon="2.44682">
        <ele>418</ele>
        <time>2016-04-08T13:23:46Z</time>
      </trkpt>
      <trkpt lat="46.20877" lon="2.4468">
        <ele>418</ele>
        <time>2016-04-08T13:23:50Z</time>
      </trkpt>
      <trkpt lat="46.2088" lon="2.44679">
        <ele>418</ele>
        <time>2016-04-08T13:23:53Z</time>
      </trkpt>
      <trkpt lat="46.20884" lon="2.44678">
        <ele>418</ele>
        <time>2016-04-08T13:23:56Z</time>
      </trkpt>
      <trkpt lat="46.20889" lon="2.44676">
        <ele>418</ele>
        <time>2016-04-08T13:24:01Z</time>
      </trkpt>
      <trkpt lat="46.20894" lon="2.44675">
        <ele>418</ele>
        <time>2016-04-08T13:24:05Z</time>
      </trkpt>
      <trkpt lat="46.20898" lon="2.44674">
        <ele>418</ele>
        <time>2016-04-08T13:24:08Z</time>
      </trkpt>
      <trkpt lat="46.20903" lon="2.44673">
        <ele>418</ele>
        <time>2016-04-08T13:24:11Z</time>
      </trkpt>
      <trkpt lat="46.20907" lon="2.44672">
        <ele>418</ele>
        <time>2016-04-08T13:24:14Z</time>
      </trkpt>
      <trkpt lat="46.20911" lon="2.44671">
        <ele>418</ele>
        <time>2016-04-08T13:24:17Z</time>
      </trkpt>
      <trkpt lat="46.20916" lon="2.44671">
        <ele>418</ele>
        <time>2016-04-08T13:24:20Z</time>
      </trkpt>
      <trkpt lat="46.2092" lon="2.44669">
        <ele>418</ele>
        <time>2016-04-08T13:24:23Z</time>
      </trkpt>
      <trkpt lat="46.20924" lon="2.44668">
        <ele>418</ele>
        <time>2016-04-08T13:24:26Z</time>
      </trkpt>
      <trkpt lat="46.20929" lon="2.44667">
        <ele>418</ele>
        <time>2016-04-08T13:24:29Z</time>
      </trkpt>
      <trkpt lat="46.20933" lon="2.44666">
        <ele>418</ele>
        <time>2016-04-08T13:24:32Z</time>
      </trkpt>
      <trkpt lat="46.20937" lon="2.44664">
        <ele>418</ele>
        <time>2016-04-08T13:24:35Z</time>
      </trkpt>
      <trkpt lat="46.20941" lon="2.44662">
        <ele>418</ele>
        <time>2016-04-08T13:24:38Z</time>
      </trkpt>
      <trkpt lat="46.20945" lon="2.4466">
        <ele>418</ele>
        <time>2016-04-08T13:24:41Z</time>
      </trkpt>
      <trkpt lat="46.2095" lon="2.44659">
        <ele>418</ele>
        <time>2016-04-08T13:24:45Z</time>
      </trkpt>
      <trkpt lat="46.20954" lon="2.44658">
        <ele>418</ele>
        <time>2016-04-08T13:24:48Z</time>
      </trkpt>
      <trkpt lat="46.20959" lon="2.44657">
        <ele>418</ele>
        <time>2016-04-08T13:24:51Z</time>
      </trkpt>
      <trkpt lat="46.20963" lon="2.44656">
        <ele>418</ele>
        <time>2016-04-08T13:24:54Z</time>
      </trkpt>
      <trkpt lat="46.20967" lon="2.44655">
        <ele>418</ele>
        <time>2016-04-08T13:24:57Z</time>
      </trkpt>
      <trkpt lat="46.20971" lon="2.44654">
        <ele>418</ele>
        <time>2016-04-08T13:25:00Z</time>
      </trkpt>
      <trkpt lat="46.20975" lon="2.44653">
        <ele>418</ele>
        <time>2016-04-08T13:25:03Z</time>
      </trkpt>
      <trkpt lat="46.20981" lon="2.44652">
        <ele>418</ele>
        <time>2016-04-08T13:25:06Z</time>
      </trkpt>
      <trkpt lat="46.20985" lon="2.44651">
        <ele>418</ele>
        <time>2016-04-08T13:25:09Z</time>
      </trkpt>
      <trkpt lat="46.20989" lon="2.44649">
        <ele>418</ele>
        <time>2016-04-08T13:25:12Z</time>
      </trkpt>
      <trkpt lat="46.20994" lon="2.44647">
        <ele>418</ele>
        <time>2016-04-08T13:25:15Z</time>
      </trkpt>
      <trkpt lat="46.20998" lon="2.44641">
        <ele>418</ele>
        <time>2016-04-08T13:25:19Z</time>
      </trkpt>
      <trkpt lat="46.21001" lon="2.44637">
        <ele>418</ele>
        <time>2016-04-08T13:25:22Z</time>
      </trkpt>
      <trkpt lat="46.21006" lon="2.44635">
        <ele>418</ele>
        <time>2016-04-08T13:25:25Z</time>
      </trkpt>
      <trkpt lat="46.2101" lon="2.44636">
        <ele>418</ele>
        <time>2016-04-08T13:25:28Z</time>
      </trkpt>
      <trkpt lat="46.21014" lon="2.44637">
        <ele>418</ele>
        <time>2016-04-08T13:25:31Z</time>
      </trkpt>
      <trkpt lat="46.21019" lon="2.44638">
        <ele>418</ele>
        <time>2016-04-08T13:25:34Z</time>
      </trkpt>
      <trkpt lat="46.21024" lon="2.44639">
        <ele>418</ele>
        <time>2016-04-08T13:25:37Z</time>
      </trkpt>
      <trkpt lat="46.21029" lon="2.44639">
        <ele>418</ele>
        <time>2016-04-08T13:25:40Z</time>
      </trkpt>
      <trkpt lat="46.21034" lon="2.44638">
        <ele>418</ele>
        <time>2016-04-08T13:25:43Z</time>
      </trkpt>
      <trkpt lat="46.21039" lon="2.44639">
        <ele>418</ele>
        <time>2016-04-08T13:25:46Z</time>
      </trkpt>
      <trkpt lat="46.21045" lon="2.44639">
        <ele>418</ele>
        <time>2016-04-08T13:25:50Z</time>
      </trkpt>
      <trkpt lat="46.21049" lon="2.44639">
        <ele>418</ele>
        <time>2016-04-08T13:25:53Z</time>
      </trkpt>
      <trkpt lat="46.21055" lon="2.44638">
        <ele>418</ele>
        <time>2016-04-08T13:25:56Z</time>
      </trkpt>
      <trkpt lat="46.2106" lon="2.44638">
        <ele>418</ele>
        <time>2016-04-08T13:25:59Z</time>
      </trkpt>
      <trkpt lat="46.21065" lon="2.44637">
        <ele>418</ele>
        <time>2016-04-08T13:26:02Z</time>
      </trkpt>
      <trkpt lat="46.21069" lon="2.44637">
        <ele>418</ele>
        <time>2016-04-08T13:26:05Z</time>
      </trkpt>
      <trkpt lat="46.21074" lon="2.44637">
        <ele>418</ele>
        <time>2016-04-08T13:26:08Z</time>
      </trkpt>
      <trkpt lat="46.21079" lon="2.44637">
        <ele>418</ele>
        <time>2016-04-08T13:26:11Z</time>
      </trkpt>
      <trkpt lat="46.21085" lon="2.44637">
        <ele>418</ele>
        <time>2016-04-08T13:26:15Z</time>
      </trkpt>
      <trkpt lat="46.2109" lon="2.44636">
        <ele>418</ele>
        <time>2016-04-08T13:26:18Z</time>
      </trkpt>
      <trkpt lat="46.21095" lon="2.44635">
        <ele>418</ele>
        <time>2016-04-08T13:26:21Z</time>
      </trkpt>
      <trkpt lat="46.211" lon="2.44631">
        <ele>418</ele>
        <time>2016-04-08T13:26:25Z</time>
      </trkpt>
      <trkpt lat="46.21104" lon="2.44629">
        <ele>418</ele>
        <time>2016-04-08T13:26:28Z</time>
      </trkpt>
      <trkpt lat="46.21109" lon="2.44626">
        <ele>418</ele>
        <time>2016-04-08T13:26:31Z</time>
      </trkpt>
      <trkpt lat="46.21114" lon="2.44622">
        <ele>418</ele>
        <time>2016-04-08T13:26:35Z</time>
      </trkpt>
      <trkpt lat="46.21117" lon="2.44619">
        <ele>418</ele>
        <time>2016-04-08T13:26:38Z</time>
      </trkpt>
      <trkpt lat="46.21121" lon="2.44616">
        <ele>418</ele>
        <time>2016-04-08T13:26:41Z</time>
      </trkpt>
      <trkpt lat="46.21125" lon="2.44613">
        <ele>418</ele>
        <time>2016-04-08T13:26:44Z</time>
      </trkpt>
      <trkpt lat="46.2113" lon="2.4461">
        <ele>418</ele>
        <time>2016-04-08T13:26:47Z</time>
      </trkpt>
      <trkpt lat="46.21134" lon="2.44607">
        <ele>418</ele>
        <time>2016-04-08T13:26:50Z</time>
      </trkpt>
      <trkpt lat="46.21138" lon="2.44604">
        <ele>418</ele>
        <time>2016-04-08T13:26:53Z</time>
      </trkpt>
      <trkpt lat="46.21142" lon="2.44601">
        <ele>418</ele>
        <time>2016-04-08T13:26:56Z</time>
      </trkpt>
      <trkpt lat="46.21146" lon="2.44598">
        <ele>418</ele>
        <time>2016-04-08T13:26:59Z</time>
      </trkpt>
      <trkpt lat="46.21151" lon="2.44596">
        <ele>418</ele>
        <time>2016-04-08T13:27:02Z</time>
      </trkpt>
      <trkpt lat="46.21155" lon="2.44592">
        <ele>418</ele>
        <time>2016-04-08T13:27:05Z</time>
      </trkpt>
      <trkpt lat="46.21159" lon="2.44589">
        <ele>418</ele>
        <time>2016-04-08T13:27:08Z</time>
      </trkpt>
      <trkpt lat="46.21163" lon="2.44586">
        <ele>418</ele>
        <time>2016-04-08T13:27:11Z</time>
      </trkpt>
      <trkpt lat="46.21167" lon="2.44583">
        <ele>418</ele>
        <time>2016-04-08T13:27:14Z</time>
      </trkpt>
      <trkpt lat="46.21171" lon="2.4458">
        <ele>418</ele>
        <time>2016-04-08T13:27:17Z</time>
      </trkpt>
      <trkpt lat="46.21174" lon="2.44576">
        <ele>418</ele>
        <time>2016-04-08T13:27:20Z</time>
      </trkpt>
      <trkpt lat="46.21178" lon="2.44573">
        <ele>418</ele>
        <time>2016-04-08T13:27:23Z</time>
      </trkpt>
      <trkpt lat="46.21183" lon="2.44569">
        <ele>418</ele>
        <time>2016-04-08T13:27:26Z</time>
      </trkpt>
      <trkpt lat="46.21186" lon="2.44566">
        <ele>418</ele>
        <time>2016-04-08T13:27:29Z</time>
      </trkpt>
      <trkpt lat="46.21191" lon="2.44563">
        <ele>418</ele>
        <time>2016-04-08T13:27:32Z</time>
      </trkpt>
      <trkpt lat="46.21195" lon="2.4456">
        <ele>418</ele>
        <time>2016-04-08T13:27:35Z</time>
      </trkpt>
      <trkpt lat="46.21199" lon="2.44556">
        <ele>418</ele>
        <time>2016-04-08T13:27:38Z</time>
      </trkpt>
      <trkpt lat="46.21203" lon="2.44553">
        <ele>418</ele>
        <time>2016-04-08T13:27:41Z</time>
      </trkpt>
      <trkpt lat="46.21207" lon="2.44549">
        <ele>418</ele>
        <time>2016-04-08T13:27:44Z</time>
      </trkpt>
      <trkpt lat="46.21211" lon="2.44547">
        <ele>418</ele>
        <time>2016-04-08T13:27:47Z</time>
      </trkpt>
      <trkpt lat="46.21215" lon="2.44543">
        <ele>418</ele>
        <time>2016-04-08T13:27:50Z</time>
      </trkpt>
      <trkpt lat="46.21219" lon="2.4454">
        <ele>418</ele>
        <time>2016-04-08T13:27:53Z</time>
      </trkpt>
      <trkpt lat="46.21223" lon="2.44537">
        <ele>418</ele>
        <time>2016-04-08T13:27:56Z</time>
      </trkpt>
      <trkpt lat="46.21227" lon="2.44533">
        <ele>418</ele>
        <time>2016-04-08T13:27:59Z</time>
      </trkpt>
      <trkpt lat="46.21231" lon="2.4453">
        <ele>418</ele>
        <time>2016-04-08T13:28:02Z</time>
      </trkpt>
      <trkpt lat="46.21235" lon="2.44527">
        <ele>418</ele>
        <time>2016-04-08T13:28:05Z</time>
      </trkpt>
      <trkpt lat="46.21238" lon="2.44524">
        <ele>418</ele>
        <time>2016-04-08T13:28:08Z</time>
      </trkpt>
      <trkpt lat="46.21243" lon="2.44522">
        <ele>418</ele>
        <time>2016-04-08T13:28:11Z</time>
      </trkpt>
      <trkpt lat="46.21247" lon="2.44519">
        <ele>418</ele>
        <time>2016-04-08T13:28:14Z</time>
      </trkpt>
      <trkpt lat="46.21251" lon="2.44517">
        <ele>418</ele>
        <time>2016-04-08T13:28:17Z</time>
      </trkpt>
      <trkpt lat="46.21255" lon="2.44516">
        <ele>418</ele>
        <time>2016-04-08T13:28:20Z</time>
      </trkpt>
      <trkpt lat="46.2126" lon="2.44515">
        <ele>418</ele>
        <time>2016-04-08T13:28:23Z</time>
      </trkpt>
      <trkpt lat="46.21266" lon="2.44514">
        <ele>418</ele>
        <time>2016-04-08T13:28:26Z</time>
      </trkpt>
      <trkpt lat="46.21271" lon="2.44514">
        <ele>418</ele>
        <time>2016-04-08T13:28:29Z</time>
      </trkpt>
      <trkpt lat="46.21275" lon="2.44512">
        <ele>418</ele>
        <time>2016-04-08T13:28:32Z</time>
      </trkpt>
      <trkpt lat="46.21278" lon="2.44512">
        <ele>418</ele>
        <time>2016-04-08T13:28:35Z</time>
      </trkpt>
      <trkpt lat="46.21282" lon="2.4451">
        <ele>418</ele>
        <time>2016-04-08T13:28:38Z</time>
      </trkpt>
      <trkpt lat="46.21286" lon="2.44509">
        <ele>417</ele>
        <time>2016-04-08T13:28:41Z</time>
      </trkpt>
      <trkpt lat="46.21292" lon="2.44509">
        <ele>417</ele>
        <time>2016-04-08T13:28:44Z</time>
      </trkpt>
      <trkpt lat="46.21297" lon="2.44508">
        <ele>417</ele>
        <time>2016-04-08T13:28:47Z</time>
      </trkpt>
      <trkpt lat="46.21301" lon="2.44507">
        <ele>417</ele>
        <time>2016-04-08T13:28:50Z</time>
      </trkpt>
      <trkpt lat="46.21305" lon="2.44506">
        <ele>417</ele>
        <time>2016-04-08T13:28:53Z</time>
      </trkpt>
      <trkpt lat="46.21312" lon="2.44506">
        <ele>417</ele>
        <time>2016-04-08T13:28:56Z</time>
      </trkpt>
      <trkpt lat="46.21317" lon="2.44505">
        <ele>417</ele>
        <time>2016-04-08T13:28:59Z</time>
      </trkpt>
      <trkpt lat="46.21322" lon="2.44504">
        <ele>417</ele>
        <time>2016-04-08T13:29:02Z</time>
      </trkpt>
      <trkpt lat="46.21327" lon="2.44502">
        <ele>417</ele>
        <time>2016-04-08T13:29:05Z</time>
      </trkpt>
      <trkpt lat="46.2133" lon="2.44501">
        <ele>417</ele>
        <time>2016-04-08T13:29:08Z</time>
      </trkpt>
      <trkpt lat="46.21335" lon="2.445">
        <ele>417</ele>
        <time>2016-04-08T13:29:11Z</time>
      </trkpt>
      <trkpt lat="46.2134" lon="2.445">
        <ele>417</ele>
        <time>2016-04-08T13:29:14Z</time>
      </trkpt>
      <trkpt lat="46.21344" lon="2.44499">
        <ele>417</ele>
        <time>2016-04-08T13:29:17Z</time>
      </trkpt>
      <trkpt lat="46.21349" lon="2.44498">
        <ele>417</ele>
        <time>2016-04-08T13:29:20Z</time>
      </trkpt>
      <trkpt lat="46.21352" lon="2.44496">
        <ele>417</ele>
        <time>2016-04-08T13:29:23Z</time>
      </trkpt>
      <trkpt lat="46.21356" lon="2.44496">
        <ele>417</ele>
        <time>2016-04-08T13:29:26Z</time>
      </trkpt>
      <trkpt lat="46.2136" lon="2.44495">
        <ele>417</ele>
        <time>2016-04-08T13:29:29Z</time>
      </trkpt>
      <trkpt lat="46.21364" lon="2.44494">
        <ele>417</ele>
        <time>2016-04-08T13:29:32Z</time>
      </trkpt>
      <trkpt lat="46.21368" lon="2.44493">
        <ele>417</ele>
        <time>2016-04-08T13:29:35Z</time>
      </trkpt>
      <trkpt lat="46.21373" lon="2.44492">
        <ele>417</ele>
        <time>2016-04-08T13:29:38Z</time>
      </trkpt>
      <trkpt lat="46.21377" lon="2.44491">
        <ele>417</ele>
        <time>2016-04-08T13:29:41Z</time>
      </trkpt>
      <trkpt lat="46.21381" lon="2.44491">
        <ele>417</ele>
        <time>2016-04-08T13:29:44Z</time>
      </trkpt>
      <trkpt lat="46.21386" lon="2.4449">
        <ele>417</ele>
        <time>2016-04-08T13:29:47Z</time>
      </trkpt>
      <trkpt lat="46.2139" lon="2.44489">
        <ele>417</ele>
        <time>2016-04-08T13:29:50Z</time>
      </trkpt>
      <trkpt lat="46.21394" lon="2.44488">
        <ele>417</ele>
        <time>2016-04-08T13:29:53Z</time>
      </trkpt>
      <trkpt lat="46.214" lon="2.44487">
        <ele>417</ele>
        <time>2016-04-08T13:29:56Z</time>
      </trkpt>
      <trkpt lat="46.21404" lon="2.44486">
        <ele>417</ele>
        <time>2016-04-08T13:29:59Z</time>
      </trkpt>
      <trkpt lat="46.21409" lon="2.44485">
        <ele>417</ele>
        <time>2016-04-08T13:30:02Z</time>
      </trkpt>
      <trkpt lat="46.21414" lon="2.44484">
        <ele>417</ele>
        <time>2016-04-08T13:30:05Z</time>
      </trkpt>
      <trkpt lat="46.21418" lon="2.44484">
        <ele>417</ele>
        <time>2016-04-08T13:30:08Z</time>
      </trkpt>
      <trkpt lat="46.21423" lon="2.44483">
        <ele>417</ele>
        <time>2016-04-08T13:30:11Z</time>
      </trkpt>
      <trkpt lat="46.21427" lon="2.44482">
        <ele>417</ele>
        <time>2016-04-08T13:30:14Z</time>
      </trkpt>
      <trkpt lat="46.21431" lon="2.44481">
        <ele>417</ele>
        <time>2016-04-08T13:30:17Z</time>
      </trkpt>
      <trkpt lat="46.21436" lon="2.4448">
        <ele>417</ele>
        <time>2016-04-08T13:30:20Z</time>
      </trkpt>
      <trkpt lat="46.21442" lon="2.4448">
        <ele>417</ele>
        <time>2016-04-08T13:30:23Z</time>
      </trkpt>
      <trkpt lat="46.21446" lon="2.44479">
        <ele>417</ele>
        <time>2016-04-08T13:30:26Z</time>
      </trkpt>
      <trkpt lat="46.21449" lon="2.44478">
        <ele>417</ele>
        <time>2016-04-08T13:30:29Z</time>
      </trkpt>
      <trkpt lat="46.21453" lon="2.44476">
        <ele>417</ele>
        <time>2016-04-08T13:30:32Z</time>
      </trkpt>
      <trkpt lat="46.21458" lon="2.44475">
        <ele>417</ele>
        <time>2016-04-08T13:30:35Z</time>
      </trkpt>
      <trkpt lat="46.21461" lon="2.44474">
        <ele>417</ele>
        <time>2016-04-08T13:30:38Z</time>
      </trkpt>
      <trkpt lat="46.21466" lon="2.44473">
        <ele>417</ele>
        <time>2016-04-08T13:30:41Z</time>
      </trkpt>
      <trkpt lat="46.21472" lon="2.44473">
        <ele>417</ele>
        <time>2016-04-08T13:30:44Z</time>
      </trkpt>
      <trkpt lat="46.21478" lon="2.44472">
        <ele>417</ele>
        <time>2016-04-08T13:30:47Z</time>
      </trkpt>
      <trkpt lat="46.21482" lon="2.44471">
        <ele>417</ele>
        <time>2016-04-08T13:30:50Z</time>
      </trkpt>
      <trkpt lat="46.21487" lon="2.44469">
        <ele>417</ele>
        <time>2016-04-08T13:30:53Z</time>
      </trkpt>
      <trkpt lat="46.21492" lon="2.44469">
        <ele>417</ele>
        <time>2016-04-08T13:30:56Z</time>
      </trkpt>
      <trkpt lat="46.21496" lon="2.44468">
        <ele>417</ele>
        <time>2016-04-08T13:30:59Z</time>
      </trkpt>
      <trkpt lat="46.21502" lon="2.44467">
        <ele>417</ele>
        <time>2016-04-08T13:31:02Z</time>
      </trkpt>
      <trkpt lat="46.21506" lon="2.44466">
        <ele>417</ele>
        <time>2016-04-08T13:31:05Z</time>
      </trkpt>
      <trkpt lat="46.2151" lon="2.44465">
        <ele>417</ele>
        <time>2016-04-08T13:31:08Z</time>
      </trkpt>
      <trkpt lat="46.21515" lon="2.44464">
        <ele>417</ele>
        <time>2016-04-08T13:31:11Z</time>
      </trkpt>
      <trkpt lat="46.21519" lon="2.44463">
        <ele>417</ele>
        <time>2016-04-08T13:31:14Z</time>
      </trkpt>
      <trkpt lat="46.21524" lon="2.44462">
        <ele>417</ele>
        <time>2016-04-08T13:31:17Z</time>
      </trkpt>
      <trkpt lat="46.21528" lon="2.44462">
        <ele>417</ele>
        <time>2016-04-08T13:31:20Z</time>
      </trkpt>
      <trkpt lat="46.21532" lon="2.44461">
        <ele>417</ele>
        <time>2016-04-08T13:31:24Z</time>
      </trkpt>
      <trkpt lat="46.21536" lon="2.44459">
        <ele>417</ele>
        <time>2016-04-08T13:31:27Z</time>
      </trkpt>
      <trkpt lat="46.21541" lon="2.44458">
        <ele>417</ele>
        <time>2016-04-08T13:31:30Z</time>
      </trkpt>
      <trkpt lat="46.21544" lon="2.44457">
        <ele>417</ele>
        <time>2016-04-08T13:31:33Z</time>
      </trkpt>
      <trkpt lat="46.21549" lon="2.44456">
        <ele>417</ele>
        <time>2016-04-08T13:31:36Z</time>
      </trkpt>
      <trkpt lat="46.21554" lon="2.44457">
        <ele>417</ele>
        <time>2016-04-08T13:31:39Z</time>
      </trkpt>
      <trkpt lat="46.2156" lon="2.44456">
        <ele>417</ele>
        <time>2016-04-08T13:31:42Z</time>
      </trkpt>
      <trkpt lat="46.21568" lon="2.44455">
        <ele>417</ele>
        <time>2016-04-08T13:31:45Z</time>
      </trkpt>
      <trkpt lat="46.21574" lon="2.44454">
        <ele>417</ele>
        <time>2016-04-08T13:31:48Z</time>
      </trkpt>
      <trkpt lat="46.21579" lon="2.44453">
        <ele>417</ele>
        <time>2016-04-08T13:31:51Z</time>
      </trkpt>
      <trkpt lat="46.21583" lon="2.44453">
        <ele>417</ele>
        <time>2016-04-08T13:31:54Z</time>
      </trkpt>
      <trkpt lat="46.21588" lon="2.44453">
        <ele>417</ele>
        <time>2016-04-08T13:31:57Z</time>
      </trkpt>
      <trkpt lat="46.21593" lon="2.44452">
        <ele>417</ele>
        <time>2016-04-08T13:32:00Z</time>
      </trkpt>
      <trkpt lat="46.21598" lon="2.44451">
        <ele>417</ele>
        <time>2016-04-08T13:32:03Z</time>
      </trkpt>
      <trkpt lat="46.21602" lon="2.44449">
        <ele>417</ele>
        <time>2016-04-08T13:32:06Z</time>
      </trkpt>
      <trkpt lat="46.21607" lon="2.44447">
        <ele>417</ele>
        <time>2016-04-08T13:32:10Z</time>
      </trkpt>
      <trkpt lat="46.21611" lon="2.44446">
        <ele>417</ele>
        <time>2016-04-08T13:32:13Z</time>
      </trkpt>
      <trkpt lat="46.21616" lon="2.44444">
        <ele>417</ele>
        <time>2016-04-08T13:32:16Z</time>
      </trkpt>
      <trkpt lat="46.2162" lon="2.44444">
        <ele>417</ele>
        <time>2016-04-08T13:32:19Z</time>
      </trkpt>
      <trkpt lat="46.21624" lon="2.44443">
        <ele>417</ele>
        <time>2016-04-08T13:32:22Z</time>
      </trkpt>
      <trkpt lat="46.21629" lon="2.44442">
        <ele>417</ele>
        <time>2016-04-08T13:32:25Z</time>
      </trkpt>
      <trkpt lat="46.21634" lon="2.44442">
        <ele>417</ele>
        <time>2016-04-08T13:32:28Z</time>
      </trkpt>
      <trkpt lat="46.21641" lon="2.44441">
        <ele>417</ele>
        <time>2016-04-08T13:32:31Z</time>
      </trkpt>
      <trkpt lat="46.21646" lon="2.4444">
        <ele>417</ele>
        <time>2016-04-08T13:32:34Z</time>
      </trkpt>
      <trkpt lat="46.21651" lon="2.44438">
        <ele>417</ele>
        <time>2016-04-08T13:32:37Z</time>
      </trkpt>
      <trkpt lat="46.21656" lon="2.44438">
        <ele>417</ele>
        <time>2016-04-08T13:32:40Z</time>
      </trkpt>
      <trkpt lat="46.2166" lon="2.44437">
        <ele>417</ele>
        <time>2016-04-08T13:32:43Z</time>
      </trkpt>
      <trkpt lat="46.21665" lon="2.44438">
        <ele>417</ele>
        <time>2016-04-08T13:32:46Z</time>
      </trkpt>
      <trkpt lat="46.21669" lon="2.44441">
        <ele>417</ele>
        <time>2016-04-08T13:32:49Z</time>
      </trkpt>
      <trkpt lat="46.21673" lon="2.44443">
        <ele>417</ele>
        <time>2016-04-08T13:32:52Z</time>
      </trkpt>
      <trkpt lat="46.21678" lon="2.44446">
        <ele>417</ele>
        <time>2016-04-08T13:32:55Z</time>
      </trkpt>
      <trkpt lat="46.21682" lon="2.44449">
        <ele>417</ele>
        <time>2016-04-08T13:32:58Z</time>
      </trkpt>
      <trkpt lat="46.21687" lon="2.44453">
        <ele>417</ele>
        <time>2016-04-08T13:33:01Z</time>
      </trkpt>
      <trkpt lat="46.21691" lon="2.44457">
        <ele>417</ele>
        <time>2016-04-08T13:33:04Z</time>
      </trkpt>
      <trkpt lat="46.21695" lon="2.44462">
        <ele>417</ele>
        <time>2016-04-08T13:33:07Z</time>
      </trkpt>
      <trkpt lat="46.217" lon="2.44465">
        <ele>417</ele>
        <time>2016-04-08T13:33:10Z</time>
      </trkpt>
      <trkpt lat="46.21704" lon="2.44469">
        <ele>417</ele>
        <time>2016-04-08T13:33:13Z</time>
      </trkpt>
      <trkpt lat="46.21708" lon="2.44473">
        <ele>417</ele>
        <time>2016-04-08T13:33:16Z</time>
      </trkpt>
      <trkpt lat="46.21712" lon="2.44478">
        <ele>417</ele>
        <time>2016-04-08T13:33:19Z</time>
      </trkpt>
      <trkpt lat="46.21716" lon="2.44483">
        <ele>416</ele>
        <time>2016-04-08T13:33:22Z</time>
      </trkpt>
      <trkpt lat="46.21719" lon="2.44486">
        <ele>416</ele>
        <time>2016-04-08T13:33:25Z</time>
      </trkpt>
      <trkpt lat="46.21723" lon="2.44489">
        <ele>416</ele>
        <time>2016-04-08T13:33:28Z</time>
      </trkpt>
      <trkpt lat="46.21727" lon="2.44492">
        <ele>415</ele>
        <time>2016-04-08T13:33:31Z</time>
      </trkpt>
      <trkpt lat="46.21732" lon="2.44495">
        <ele>414</ele>
        <time>2016-04-08T13:33:34Z</time>
      </trkpt>
      <trkpt lat="46.21736" lon="2.44498">
        <ele>413</ele>
        <time>2016-04-08T13:33:37Z</time>
      </trkpt>
      <trkpt lat="46.21741" lon="2.44503">
        <ele>412</ele>
        <time>2016-04-08T13:33:40Z</time>
      </trkpt>
      <trkpt lat="46.21746" lon="2.44508">
        <ele>410</ele>
        <time>2016-04-08T13:33:44Z</time>
      </trkpt>
      <trkpt lat="46.21749" lon="2.44512">
        <ele>408</ele>
        <time>2016-04-08T13:33:47Z</time>
      </trkpt>
      <trkpt lat="46.21753" lon="2.44516">
        <ele>407</ele>
        <time>2016-04-08T13:33:50Z</time>
      </trkpt>
      <trkpt lat="46.21757" lon="2.4452">
        <ele>407</ele>
        <time>2016-04-08T13:33:53Z</time>
      </trkpt>
      <trkpt lat="46.2176" lon="2.44525">
        <ele>407</ele>
        <time>2016-04-08T13:33:56Z</time>
      </trkpt>
      <trkpt lat="46.21764" lon="2.4453">
        <ele>407</ele>
        <time>2016-04-08T13:33:59Z</time>
      </trkpt>
      <trkpt lat="46.21768" lon="2.44535">
        <ele>407</ele>
        <time>2016-04-08T13:34:02Z</time>
      </trkpt>
      <trkpt lat="46.21772" lon="2.4454">
        <ele>407</ele>
        <time>2016-04-08T13:34:05Z</time>
      </trkpt>
      <trkpt lat="46.21775" lon="2.44544">
        <ele>407</ele>
        <time>2016-04-08T13:34:08Z</time>
      </trkpt>
      <trkpt lat="46.2178" lon="2.44548">
        <ele>407</ele>
        <time>2016-04-08T13:34:12Z</time>
      </trkpt>
      <trkpt lat="46.21783" lon="2.44552">
        <ele>407</ele>
        <time>2016-04-08T13:34:15Z</time>
      </trkpt>
      <trkpt lat="46.21788" lon="2.44556">
        <ele>407</ele>
        <time>2016-04-08T13:34:19Z</time>
      </trkpt>
      <trkpt lat="46.21791" lon="2.44559">
        <ele>407</ele>
        <time>2016-04-08T13:34:22Z</time>
      </trkpt>
      <trkpt lat="46.21796" lon="2.44563">
        <ele>407</ele>
        <time>2016-04-08T13:34:25Z</time>
      </trkpt>
      <trkpt lat="46.218" lon="2.44568">
        <ele>407</ele>
        <time>2016-04-08T13:34:28Z</time>
      </trkpt>
      <trkpt lat="46.21804" lon="2.44572">
        <ele>406</ele>
        <time>2016-04-08T13:34:31Z</time>
      </trkpt>
      <trkpt lat="46.21807" lon="2.44577">
        <ele>406</ele>
        <time>2016-04-08T13:34:34Z</time>
      </trkpt>
      <trkpt lat="46.21811" lon="2.44582">
        <ele>406</ele>
        <time>2016-04-08T13:34:37Z</time>
      </trkpt>
      <trkpt lat="46.21814" lon="2.44584">
        <ele>406</ele>
        <time>2016-04-08T13:34:40Z</time>
      </trkpt>
      <trkpt lat="46.21818" lon="2.4459">
        <ele>406</ele>
        <time>2016-04-08T13:34:43Z</time>
      </trkpt>
      <trkpt lat="46.21823" lon="2.44595">
        <ele>406</ele>
        <time>2016-04-08T13:34:46Z</time>
      </trkpt>
      <trkpt lat="46.21828" lon="2.44599">
        <ele>406</ele>
        <time>2016-04-08T13:34:49Z</time>
      </trkpt>
      <trkpt lat="46.21831" lon="2.44603">
        <ele>406</ele>
        <time>2016-04-08T13:34:52Z</time>
      </trkpt>
      <trkpt lat="46.21835" lon="2.44607">
        <ele>406</ele>
        <time>2016-04-08T13:34:55Z</time>
      </trkpt>
      <trkpt lat="46.21838" lon="2.44612">
        <ele>406</ele>
        <time>2016-04-08T13:34:58Z</time>
      </trkpt>
      <trkpt lat="46.21842" lon="2.44618">
        <ele>406</ele>
        <time>2016-04-08T13:35:01Z</time>
      </trkpt>
      <trkpt lat="46.21846" lon="2.44622">
        <ele>406</ele>
        <time>2016-04-08T13:35:04Z</time>
      </trkpt>
      <trkpt lat="46.21851" lon="2.44627">
        <ele>408</ele>
        <time>2016-04-08T13:35:07Z</time>
      </trkpt>
      <trkpt lat="46.21854" lon="2.44631">
        <ele>410</ele>
        <time>2016-04-08T13:35:10Z</time>
      </trkpt>
      <trkpt lat="46.21857" lon="2.44635">
        <ele>410</ele>
        <time>2016-04-08T13:35:13Z</time>
      </trkpt>
      <trkpt lat="46.21861" lon="2.44639">
        <ele>410</ele>
        <time>2016-04-08T13:35:16Z</time>
      </trkpt>
      <trkpt lat="46.21864" lon="2.44642">
        <ele>410</ele>
        <time>2016-04-08T13:35:19Z</time>
      </trkpt>
      <trkpt lat="46.21868" lon="2.44645">
        <ele>410</ele>
        <time>2016-04-08T13:35:22Z</time>
      </trkpt>
      <trkpt lat="46.21872" lon="2.4465">
        <ele>410</ele>
        <time>2016-04-08T13:35:25Z</time>
      </trkpt>
      <trkpt lat="46.21875" lon="2.44654">
        <ele>410</ele>
        <time>2016-04-08T13:35:28Z</time>
      </trkpt>
      <trkpt lat="46.21879" lon="2.44658">
        <ele>411</ele>
        <time>2016-04-08T13:35:31Z</time>
      </trkpt>
      <trkpt lat="46.21882" lon="2.44661">
        <ele>412</ele>
        <time>2016-04-08T13:35:34Z</time>
      </trkpt>
      <trkpt lat="46.21886" lon="2.44665">
        <ele>412</ele>
        <time>2016-04-08T13:35:37Z</time>
      </trkpt>
      <trkpt lat="46.21889" lon="2.44669">
        <ele>413</ele>
        <time>2016-04-08T13:35:40Z</time>
      </trkpt>
      <trkpt lat="46.21893" lon="2.4467">
        <ele>415</ele>
        <time>2016-04-08T13:35:46Z</time>
      </trkpt>
      <trkpt lat="46.21891" lon="2.44664">
        <ele>416</ele>
        <time>2016-04-08T13:35:50Z</time>
      </trkpt>
      <trkpt lat="46.21891" lon="2.44663">
        <ele>416</ele>
        <time>2016-04-08T13:35:57Z</time>
      </trkpt>
      <trkpt lat="46.21894" lon="2.44668">
        <ele>416</ele>
        <time>2016-04-08T13:36:00Z</time>
      </trkpt>
      <trkpt lat="46.21898" lon="2.44674">
        <ele>417</ele>
        <time>2016-04-08T13:36:04Z</time>
      </trkpt>
      <trkpt lat="46.21901" lon="2.4468">
        <ele>417</ele>
        <time>2016-04-08T13:36:08Z</time>
      </trkpt>
      <trkpt lat="46.21905" lon="2.44684">
        <ele>417</ele>
        <time>2016-04-08T13:36:11Z</time>
      </trkpt>
      <trkpt lat="46.21909" lon="2.44688">
        <ele>417</ele>
        <time>2016-04-08T13:36:14Z</time>
      </trkpt>
      <trkpt lat="46.21912" lon="2.44691">
        <ele>417</ele>
        <time>2016-04-08T13:36:17Z</time>
      </trkpt>
      <trkpt lat="46.21916" lon="2.44695">
        <ele>417</ele>
        <time>2016-04-08T13:36:20Z</time>
      </trkpt>
      <trkpt lat="46.2192" lon="2.44698">
        <ele>417</ele>
        <time>2016-04-08T13:36:23Z</time>
      </trkpt>
      <trkpt lat="46.21924" lon="2.44701">
        <ele>417</ele>
        <time>2016-04-08T13:36:26Z</time>
      </trkpt>
      <trkpt lat="46.21928" lon="2.44704">
        <ele>417</ele>
        <time>2016-04-08T13:36:29Z</time>
      </trkpt>
      <trkpt lat="46.21932" lon="2.44708">
        <ele>417</ele>
        <time>2016-04-08T13:36:32Z</time>
      </trkpt>
      <trkpt lat="46.21937" lon="2.44712">
        <ele>417</ele>
        <time>2016-04-08T13:36:35Z</time>
      </trkpt>
      <trkpt lat="46.21941" lon="2.44716">
        <ele>417</ele>
        <time>2016-04-08T13:36:38Z</time>
      </trkpt>
      <trkpt lat="46.21945" lon="2.44719">
        <ele>418</ele>
        <time>2016-04-08T13:36:41Z</time>
      </trkpt>
      <trkpt lat="46.2195" lon="2.44722">
        <ele>418</ele>
        <time>2016-04-08T13:36:44Z</time>
      </trkpt>
      <trkpt lat="46.21954" lon="2.44725">
        <ele>418</ele>
        <time>2016-04-08T13:36:47Z</time>
      </trkpt>
      <trkpt lat="46.21959" lon="2.44728">
        <ele>418</ele>
        <time>2016-04-08T13:36:50Z</time>
      </trkpt>
      <trkpt lat="46.21964" lon="2.44732">
        <ele>418</ele>
        <time>2016-04-08T13:36:53Z</time>
      </trkpt>
      <trkpt lat="46.21968" lon="2.44735">
        <ele>418</ele>
        <time>2016-04-08T13:36:56Z</time>
      </trkpt>
      <trkpt lat="46.21973" lon="2.44739">
        <ele>418</ele>
        <time>2016-04-08T13:36:59Z</time>
      </trkpt>
      <trkpt lat="46.21977" lon="2.44742">
        <ele>418</ele>
        <time>2016-04-08T13:37:02Z</time>
      </trkpt>
      <trkpt lat="46.21981" lon="2.44745">
        <ele>418</ele>
        <time>2016-04-08T13:37:05Z</time>
      </trkpt>
      <trkpt lat="46.21986" lon="2.44748">
        <ele>418</ele>
        <time>2016-04-08T13:37:08Z</time>
      </trkpt>
      <trkpt lat="46.2199" lon="2.44751">
        <ele>418</ele>
        <time>2016-04-08T13:37:11Z</time>
      </trkpt>
      <trkpt lat="46.21995" lon="2.44754">
        <ele>418</ele>
        <time>2016-04-08T13:37:14Z</time>
      </trkpt>
      <trkpt lat="46.21999" lon="2.44757">
        <ele>418</ele>
        <time>2016-04-08T13:37:17Z</time>
      </trkpt>
      <trkpt lat="46.22004" lon="2.4476">
        <ele>418</ele>
        <time>2016-04-08T13:37:20Z</time>
      </trkpt>
      <trkpt lat="46.22008" lon="2.44763">
        <ele>418</ele>
        <time>2016-04-08T13:37:23Z</time>
      </trkpt>
      <trkpt lat="46.22012" lon="2.44766">
        <ele>418</ele>
        <time>2016-04-08T13:37:26Z</time>
      </trkpt>
      <trkpt lat="46.22017" lon="2.44769">
        <ele>418</ele>
        <time>2016-04-08T13:37:29Z</time>
      </trkpt>
      <trkpt lat="46.22022" lon="2.44772">
        <ele>418</ele>
        <time>2016-04-08T13:37:32Z</time>
      </trkpt>
      <trkpt lat="46.22027" lon="2.44775">
        <ele>418</ele>
        <time>2016-04-08T13:37:35Z</time>
      </trkpt>
      <trkpt lat="46.22031" lon="2.44779">
        <ele>418</ele>
        <time>2016-04-08T13:37:38Z</time>
      </trkpt>
      <trkpt lat="46.22036" lon="2.44782">
        <ele>418</ele>
        <time>2016-04-08T13:37:41Z</time>
      </trkpt>
      <trkpt lat="46.2204" lon="2.44785">
        <ele>419</ele>
        <time>2016-04-08T13:37:44Z</time>
      </trkpt>
      <trkpt lat="46.22045" lon="2.44788">
        <ele>419</ele>
        <time>2016-04-08T13:37:47Z</time>
      </trkpt>
      <trkpt lat="46.22049" lon="2.44791">
        <ele>419</ele>
        <time>2016-04-08T13:37:50Z</time>
      </trkpt>
      <trkpt lat="46.22053" lon="2.44794">
        <ele>419</ele>
        <time>2016-04-08T13:37:53Z</time>
      </trkpt>
      <trkpt lat="46.22058" lon="2.44797">
        <ele>419</ele>
        <time>2016-04-08T13:37:56Z</time>
      </trkpt>
      <trkpt lat="46.22062" lon="2.44801">
        <ele>419</ele>
        <time>2016-04-08T13:37:59Z</time>
      </trkpt>
      <trkpt lat="46.22066" lon="2.44805">
        <ele>419</ele>
        <time>2016-04-08T13:38:02Z</time>
      </trkpt>
      <trkpt lat="46.2207" lon="2.44809">
        <ele>419</ele>
        <time>2016-04-08T13:38:05Z</time>
      </trkpt>
      <trkpt lat="46.22074" lon="2.44813">
        <ele>419</ele>
        <time>2016-04-08T13:38:08Z</time>
      </trkpt>
      <trkpt lat="46.22078" lon="2.44816">
        <ele>419</ele>
        <time>2016-04-08T13:38:11Z</time>
      </trkpt>
      <trkpt lat="46.22083" lon="2.4482">
        <ele>419</ele>
        <time>2016-04-08T13:38:14Z</time>
      </trkpt>
      <trkpt lat="46.22086" lon="2.44824">
        <ele>419</ele>
        <time>2016-04-08T13:38:17Z</time>
      </trkpt>
      <trkpt lat="46.22091" lon="2.44827">
        <ele>419</ele>
        <time>2016-04-08T13:38:20Z</time>
      </trkpt>
      <trkpt lat="46.22095" lon="2.44832">
        <ele>419</ele>
        <time>2016-04-08T13:38:23Z</time>
      </trkpt>
      <trkpt lat="46.22099" lon="2.44836">
        <ele>419</ele>
        <time>2016-04-08T13:38:26Z</time>
      </trkpt>
      <trkpt lat="46.22103" lon="2.4484">
        <ele>419</ele>
        <time>2016-04-08T13:38:29Z</time>
      </trkpt>
      <trkpt lat="46.22107" lon="2.44844">
        <ele>419</ele>
        <time>2016-04-08T13:38:32Z</time>
      </trkpt>
      <trkpt lat="46.22111" lon="2.44849">
        <ele>419</ele>
        <time>2016-04-08T13:38:35Z</time>
      </trkpt>
      <trkpt lat="46.22115" lon="2.44853">
        <ele>419</ele>
        <time>2016-04-08T13:38:38Z</time>
      </trkpt>
      <trkpt lat="46.22119" lon="2.44858">
        <ele>419</ele>
        <time>2016-04-08T13:38:41Z</time>
      </trkpt>
      <trkpt lat="46.22123" lon="2.44862">
        <ele>419</ele>
        <time>2016-04-08T13:38:44Z</time>
      </trkpt>
      <trkpt lat="46.22128" lon="2.44866">
        <ele>419</ele>
        <time>2016-04-08T13:38:47Z</time>
      </trkpt>
      <trkpt lat="46.22131" lon="2.4487">
        <ele>419</ele>
        <time>2016-04-08T13:38:50Z</time>
      </trkpt>
      <trkpt lat="46.22136" lon="2.44874">
        <ele>419</ele>
        <time>2016-04-08T13:38:53Z</time>
      </trkpt>
      <trkpt lat="46.2214" lon="2.44878">
        <ele>419</ele>
        <time>2016-04-08T13:38:56Z</time>
      </trkpt>
      <trkpt lat="46.22144" lon="2.44883">
        <ele>419</ele>
        <time>2016-04-08T13:38:59Z</time>
      </trkpt>
      <trkpt lat="46.22148" lon="2.44887">
        <ele>419</ele>
        <time>2016-04-08T13:39:02Z</time>
      </trkpt>
      <trkpt lat="46.22152" lon="2.44892">
        <ele>419</ele>
        <time>2016-04-08T13:39:05Z</time>
      </trkpt>
      <trkpt lat="46.22156" lon="2.44896">
        <ele>419</ele>
        <time>2016-04-08T13:39:08Z</time>
      </trkpt>
      <trkpt lat="46.2216" lon="2.449">
        <ele>419</ele>
        <time>2016-04-08T13:39:11Z</time>
      </trkpt>
      <trkpt lat="46.22163" lon="2.44904">
        <ele>419</ele>
        <time>2016-04-08T13:39:14Z</time>
      </trkpt>
      <trkpt lat="46.22168" lon="2.44909">
        <ele>419</ele>
        <time>2016-04-08T13:39:17Z</time>
      </trkpt>
      <trkpt lat="46.22171" lon="2.44913">
        <ele>419</ele>
        <time>2016-04-08T13:39:20Z</time>
      </trkpt>
      <trkpt lat="46.22175" lon="2.44917">
        <ele>419</ele>
        <time>2016-04-08T13:39:23Z</time>
      </trkpt>
      <trkpt lat="46.22179" lon="2.44921">
        <ele>419</ele>
        <time>2016-04-08T13:39:26Z</time>
      </trkpt>
      <trkpt lat="46.22184" lon="2.44926">
        <ele>419</ele>
        <time>2016-04-08T13:39:29Z</time>
      </trkpt>
      <trkpt lat="46.22188" lon="2.4493">
        <ele>419</ele>
        <time>2016-04-08T13:39:32Z</time>
      </trkpt>
      <trkpt lat="46.22192" lon="2.44934">
        <ele>418</ele>
        <time>2016-04-08T13:39:35Z</time>
      </trkpt>
      <trkpt lat="46.22196" lon="2.44938">
        <ele>418</ele>
        <time>2016-04-08T13:39:38Z</time>
      </trkpt>
      <trkpt lat="46.222" lon="2.44943">
        <ele>418</ele>
        <time>2016-04-08T13:39:41Z</time>
      </trkpt>
      <trkpt lat="46.22204" lon="2.44946">
        <ele>418</ele>
        <time>2016-04-08T13:39:44Z</time>
      </trkpt>
      <trkpt lat="46.22208" lon="2.44951">
        <ele>418</ele>
        <time>2016-04-08T13:39:47Z</time>
      </trkpt>
      <trkpt lat="46.22212" lon="2.44955">
        <ele>418</ele>
        <time>2016-04-08T13:39:50Z</time>
      </trkpt>
      <trkpt lat="46.22216" lon="2.44959">
        <ele>418</ele>
        <time>2016-04-08T13:39:53Z</time>
      </trkpt>
      <trkpt lat="46.2222" lon="2.44963">
        <ele>417</ele>
        <time>2016-04-08T13:39:56Z</time>
      </trkpt>
      <trkpt lat="46.22224" lon="2.44967">
        <ele>417</ele>
        <time>2016-04-08T13:39:59Z</time>
      </trkpt>
      <trkpt lat="46.22228" lon="2.44969">
        <ele>417</ele>
        <time>2016-04-08T13:40:02Z</time>
      </trkpt>
      <trkpt lat="46.22232" lon="2.44966">
        <ele>417</ele>
        <time>2016-04-08T13:40:05Z</time>
      </trkpt>
      <trkpt lat="46.22234" lon="2.44959">
        <ele>417</ele>
        <time>2016-04-08T13:40:08Z</time>
      </trkpt>
      <trkpt lat="46.22235" lon="2.44952">
        <ele>417</ele>
        <time>2016-04-08T13:40:11Z</time>
      </trkpt>
      <trkpt lat="46.22237" lon="2.44945">
        <ele>417</ele>
        <time>2016-04-08T13:40:14Z</time>
      </trkpt>
      <trkpt lat="46.22238" lon="2.44938">
        <ele>417</ele>
        <time>2016-04-08T13:40:17Z</time>
      </trkpt>
      <trkpt lat="46.22239" lon="2.44931">
        <ele>417</ele>
        <time>2016-04-08T13:40:20Z</time>
      </trkpt>
      <trkpt lat="46.22241" lon="2.44924">
        <ele>417</ele>
        <time>2016-04-08T13:40:23Z</time>
      </trkpt>
      <trkpt lat="46.22242" lon="2.44917">
        <ele>417</ele>
        <time>2016-04-08T13:40:26Z</time>
      </trkpt>
      <trkpt lat="46.22243" lon="2.44911">
        <ele>417</ele>
        <time>2016-04-08T13:40:29Z</time>
      </trkpt>
      <trkpt lat="46.22245" lon="2.44904">
        <ele>417</ele>
        <time>2016-04-08T13:40:32Z</time>
      </trkpt>
      <trkpt lat="46.22246" lon="2.44898">
        <ele>417</ele>
        <time>2016-04-08T13:40:35Z</time>
      </trkpt>
      <trkpt lat="46.22247" lon="2.44892">
        <ele>417</ele>
        <time>2016-04-08T13:40:38Z</time>
      </trkpt>
      <trkpt lat="46.22248" lon="2.44885">
        <ele>417</ele>
        <time>2016-04-08T13:40:41Z</time>
      </trkpt>
      <trkpt lat="46.2225" lon="2.44879">
        <ele>417</ele>
        <time>2016-04-08T13:40:44Z</time>
      </trkpt>
      <trkpt lat="46.22251" lon="2.44871">
        <ele>417</ele>
        <time>2016-04-08T13:40:47Z</time>
      </trkpt>
      <trkpt lat="46.22252" lon="2.44864">
        <ele>417</ele>
        <time>2016-04-08T13:40:50Z</time>
      </trkpt>
      <trkpt lat="46.22253" lon="2.44858">
        <ele>417</ele>
        <time>2016-04-08T13:40:53Z</time>
      </trkpt>
      <trkpt lat="46.22254" lon="2.4485">
        <ele>417</ele>
        <time>2016-04-08T13:40:56Z</time>
      </trkpt>
      <trkpt lat="46.22255" lon="2.44844">
        <ele>417</ele>
        <time>2016-04-08T13:40:59Z</time>
      </trkpt>
      <trkpt lat="46.22256" lon="2.44837">
        <ele>417</ele>
        <time>2016-04-08T13:41:02Z</time>
      </trkpt>
      <trkpt lat="46.22257" lon="2.4483">
        <ele>417</ele>
        <time>2016-04-08T13:41:05Z</time>
      </trkpt>
      <trkpt lat="46.22258" lon="2.44823">
        <ele>417</ele>
        <time>2016-04-08T13:41:08Z</time>
      </trkpt>
      <trkpt lat="46.2226" lon="2.44816">
        <ele>417</ele>
        <time>2016-04-08T13:41:11Z</time>
      </trkpt>
      <trkpt lat="46.22261" lon="2.4481">
        <ele>417</ele>
        <time>2016-04-08T13:41:14Z</time>
      </trkpt>
      <trkpt lat="46.22262" lon="2.44803">
        <ele>417</ele>
        <time>2016-04-08T13:41:17Z</time>
      </trkpt>
      <trkpt lat="46.22263" lon="2.44796">
        <ele>417</ele>
        <time>2016-04-08T13:41:20Z</time>
      </trkpt>
      <trkpt lat="46.22264" lon="2.44789">
        <ele>417</ele>
        <time>2016-04-08T13:41:23Z</time>
      </trkpt>
      <trkpt lat="46.22266" lon="2.44782">
        <ele>417</ele>
        <time>2016-04-08T13:41:26Z</time>
      </trkpt>
      <trkpt lat="46.22267" lon="2.44776">
        <ele>417</ele>
        <time>2016-04-08T13:41:29Z</time>
      </trkpt>
      <trkpt lat="46.22268" lon="2.44769">
        <ele>417</ele>
        <time>2016-04-08T13:41:32Z</time>
      </trkpt>
      <trkpt lat="46.22269" lon="2.44762">
        <ele>417</ele>
        <time>2016-04-08T13:41:35Z</time>
      </trkpt>
      <trkpt lat="46.2227" lon="2.44756">
        <ele>417</ele>
        <time>2016-04-08T13:41:38Z</time>
      </trkpt>
      <trkpt lat="46.22271" lon="2.4475">
        <ele>417</ele>
        <time>2016-04-08T13:41:41Z</time>
      </trkpt>
      <trkpt lat="46.22272" lon="2.44744">
        <ele>417</ele>
        <time>2016-04-08T13:41:44Z</time>
      </trkpt>
      <trkpt lat="46.22274" lon="2.44738">
        <ele>417</ele>
        <time>2016-04-08T13:41:47Z</time>
      </trkpt>
      <trkpt lat="46.22275" lon="2.44731">
        <ele>417</ele>
        <time>2016-04-08T13:41:50Z</time>
      </trkpt>
      <trkpt lat="46.22276" lon="2.44724">
        <ele>417</ele>
        <time>2016-04-08T13:41:53Z</time>
      </trkpt>
      <trkpt lat="46.22277" lon="2.44717">
        <ele>417</ele>
        <time>2016-04-08T13:41:56Z</time>
      </trkpt>
      <trkpt lat="46.22279" lon="2.4471">
        <ele>417</ele>
        <time>2016-04-08T13:41:59Z</time>
      </trkpt>
      <trkpt lat="46.2228" lon="2.44703">
        <ele>417</ele>
        <time>2016-04-08T13:42:02Z</time>
      </trkpt>
      <trkpt lat="46.22281" lon="2.44696">
        <ele>417</ele>
        <time>2016-04-08T13:42:05Z</time>
      </trkpt>
      <trkpt lat="46.22282" lon="2.44689">
        <ele>417</ele>
        <time>2016-04-08T13:42:08Z</time>
      </trkpt>
      <trkpt lat="46.22284" lon="2.44682">
        <ele>417</ele>
        <time>2016-04-08T13:42:11Z</time>
      </trkpt>
      <trkpt lat="46.22284" lon="2.44675">
        <ele>417</ele>
        <time>2016-04-08T13:42:14Z</time>
      </trkpt>
      <trkpt lat="46.22285" lon="2.44668">
        <ele>417</ele>
        <time>2016-04-08T13:42:17Z</time>
      </trkpt>
      <trkpt lat="46.22286" lon="2.44661">
        <ele>417</ele>
        <time>2016-04-08T13:42:20Z</time>
      </trkpt>
      <trkpt lat="46.22287" lon="2.44654">
        <ele>417</ele>
        <time>2016-04-08T13:42:23Z</time>
      </trkpt>
      <trkpt lat="46.22287" lon="2.44647">
        <ele>417</ele>
        <time>2016-04-08T13:42:26Z</time>
      </trkpt>
      <trkpt lat="46.22287" lon="2.4464">
        <ele>417</ele>
        <time>2016-04-08T13:42:29Z</time>
      </trkpt>
      <trkpt lat="46.22288" lon="2.44633">
        <ele>417</ele>
        <time>2016-04-08T13:42:32Z</time>
      </trkpt>
      <trkpt lat="46.22288" lon="2.44625">
        <ele>417</ele>
        <time>2016-04-08T13:42:35Z</time>
      </trkpt>
      <trkpt lat="46.22289" lon="2.44618">
        <ele>417</ele>
        <time>2016-04-08T13:42:38Z</time>
      </trkpt>
      <trkpt lat="46.22289" lon="2.44611">
        <ele>417</ele>
        <time>2016-04-08T13:42:41Z</time>
      </trkpt>
      <trkpt lat="46.22289" lon="2.44604">
        <ele>417</ele>
        <time>2016-04-08T13:42:44Z</time>
      </trkpt>
      <trkpt lat="46.22289" lon="2.44598">
        <ele>417</ele>
        <time>2016-04-08T13:42:47Z</time>
      </trkpt>
      <trkpt lat="46.22289" lon="2.44591">
        <ele>417</ele>
        <time>2016-04-08T13:42:50Z</time>
      </trkpt>
      <trkpt lat="46.22289" lon="2.44584">
        <ele>417</ele>
        <time>2016-04-08T13:42:53Z</time>
      </trkpt>
      <trkpt lat="46.22289" lon="2.44577">
        <ele>417</ele>
        <time>2016-04-08T13:42:56Z</time>
      </trkpt>
      <trkpt lat="46.22289" lon="2.4457">
        <ele>417</ele>
        <time>2016-04-08T13:42:59Z</time>
      </trkpt>
      <trkpt lat="46.2229" lon="2.44564">
        <ele>417</ele>
        <time>2016-04-08T13:43:02Z</time>
      </trkpt>
      <trkpt lat="46.2229" lon="2.44556">
        <ele>417</ele>
        <time>2016-04-08T13:43:05Z</time>
      </trkpt>
      <trkpt lat="46.22291" lon="2.44549">
        <ele>417</ele>
        <time>2016-04-08T13:43:08Z</time>
      </trkpt>
      <trkpt lat="46.22292" lon="2.44543">
        <ele>417</ele>
        <time>2016-04-08T13:43:11Z</time>
      </trkpt>
      <trkpt lat="46.22293" lon="2.44536">
        <ele>417</ele>
        <time>2016-04-08T13:43:14Z</time>
      </trkpt>
      <trkpt lat="46.22295" lon="2.44529">
        <ele>417</ele>
        <time>2016-04-08T13:43:17Z</time>
      </trkpt>
      <trkpt lat="46.22296" lon="2.44522">
        <ele>417</ele>
        <time>2016-04-08T13:43:20Z</time>
      </trkpt>
      <trkpt lat="46.22297" lon="2.44515">
        <ele>417</ele>
        <time>2016-04-08T13:43:23Z</time>
      </trkpt>
      <trkpt lat="46.22299" lon="2.44509">
        <ele>417</ele>
        <time>2016-04-08T13:43:26Z</time>
      </trkpt>
      <trkpt lat="46.223" lon="2.44502">
        <ele>417</ele>
        <time>2016-04-08T13:43:29Z</time>
      </trkpt>
      <trkpt lat="46.22301" lon="2.44496">
        <ele>417</ele>
        <time>2016-04-08T13:43:32Z</time>
      </trkpt>
      <trkpt lat="46.22302" lon="2.44489">
        <ele>417</ele>
        <time>2016-04-08T13:43:35Z</time>
      </trkpt>
      <trkpt lat="46.22304" lon="2.44483">
        <ele>417</ele>
        <time>2016-04-08T13:43:38Z</time>
      </trkpt>
      <trkpt lat="46.22305" lon="2.44476">
        <ele>417</ele>
        <time>2016-04-08T13:43:41Z</time>
      </trkpt>
      <trkpt lat="46.22306" lon="2.44469">
        <ele>417</ele>
        <time>2016-04-08T13:43:44Z</time>
      </trkpt>
      <trkpt lat="46.22307" lon="2.44463">
        <ele>417</ele>
        <time>2016-04-08T13:43:47Z</time>
      </trkpt>
      <trkpt lat="46.22308" lon="2.44456">
        <ele>417</ele>
        <time>2016-04-08T13:43:50Z</time>
      </trkpt>
      <trkpt lat="46.22309" lon="2.44449">
        <ele>417</ele>
        <time>2016-04-08T13:43:53Z</time>
      </trkpt>
      <trkpt lat="46.22311" lon="2.44443">
        <ele>417</ele>
        <time>2016-04-08T13:43:56Z</time>
      </trkpt>
      <trkpt lat="46.22312" lon="2.44437">
        <ele>417</ele>
        <time>2016-04-08T13:43:59Z</time>
      </trkpt>
      <trkpt lat="46.22313" lon="2.4443">
        <ele>417</ele>
        <time>2016-04-08T13:44:02Z</time>
      </trkpt>
      <trkpt lat="46.22314" lon="2.44423">
        <ele>417</ele>
        <time>2016-04-08T13:44:05Z</time>
      </trkpt>
      <trkpt lat="46.22316" lon="2.44416">
        <ele>417</ele>
        <time>2016-04-08T13:44:08Z</time>
      </trkpt>
      <trkpt lat="46.22317" lon="2.4441">
        <ele>417</ele>
        <time>2016-04-08T13:44:11Z</time>
      </trkpt>
      <trkpt lat="46.22319" lon="2.44403">
        <ele>417</ele>
        <time>2016-04-08T13:44:14Z</time>
      </trkpt>
      <trkpt lat="46.2232" lon="2.44396">
        <ele>417</ele>
        <time>2016-04-08T13:44:17Z</time>
      </trkpt>
      <trkpt lat="46.22321" lon="2.4439">
        <ele>417</ele>
        <time>2016-04-08T13:44:20Z</time>
      </trkpt>
      <trkpt lat="46.22323" lon="2.44383">
        <ele>417</ele>
        <time>2016-04-08T13:44:23Z</time>
      </trkpt>
      <trkpt lat="46.22325" lon="2.44377">
        <ele>417</ele>
        <time>2016-04-08T13:44:26Z</time>
      </trkpt>
      <trkpt lat="46.22327" lon="2.44371">
        <ele>417</ele>
        <time>2016-04-08T13:44:29Z</time>
      </trkpt>
      <trkpt lat="46.22329" lon="2.44364">
        <ele>417</ele>
        <time>2016-04-08T13:44:32Z</time>
      </trkpt>
      <trkpt lat="46.22331" lon="2.44358">
        <ele>417</ele>
        <time>2016-04-08T13:44:35Z</time>
      </trkpt>
      <trkpt lat="46.22334" lon="2.44353">
        <ele>417</ele>
        <time>2016-04-08T13:44:38Z</time>
      </trkpt>
      <trkpt lat="46.22337" lon="2.44348">
        <ele>417</ele>
        <time>2016-04-08T13:44:41Z</time>
      </trkpt>
      <trkpt lat="46.2234" lon="2.44342">
        <ele>417</ele>
        <time>2016-04-08T13:44:44Z</time>
      </trkpt>
      <trkpt lat="46.22343" lon="2.44338">
        <ele>417</ele>
        <time>2016-04-08T13:44:47Z</time>
      </trkpt>
      <trkpt lat="46.22347" lon="2.44333">
        <ele>417</ele>
        <time>2016-04-08T13:44:50Z</time>
      </trkpt>
      <trkpt lat="46.22351" lon="2.44328">
        <ele>417</ele>
        <time>2016-04-08T13:44:53Z</time>
      </trkpt>
      <trkpt lat="46.22354" lon="2.44324">
        <ele>417</ele>
        <time>2016-04-08T13:44:56Z</time>
      </trkpt>
      <trkpt lat="46.22357" lon="2.44319">
        <ele>417</ele>
        <time>2016-04-08T13:44:59Z</time>
      </trkpt>
      <trkpt lat="46.22361" lon="2.44315">
        <ele>417</ele>
        <time>2016-04-08T13:45:02Z</time>
      </trkpt>
      <trkpt lat="46.22365" lon="2.4431">
        <ele>417</ele>
        <time>2016-04-08T13:45:05Z</time>
      </trkpt>
      <trkpt lat="46.22368" lon="2.44305">
        <ele>417</ele>
        <time>2016-04-08T13:45:08Z</time>
      </trkpt>
      <trkpt lat="46.22372" lon="2.44301">
        <ele>417</ele>
        <time>2016-04-08T13:45:11Z</time>
      </trkpt>
      <trkpt lat="46.22375" lon="2.44297">
        <ele>417</ele>
        <time>2016-04-08T13:45:14Z</time>
      </trkpt>
      <trkpt lat="46.22379" lon="2.44292">
        <ele>417</ele>
        <time>2016-04-08T13:45:17Z</time>
      </trkpt>
      <trkpt lat="46.22382" lon="2.44287">
        <ele>417</ele>
        <time>2016-04-08T13:45:20Z</time>
      </trkpt>
      <trkpt lat="46.22386" lon="2.44282">
        <ele>417</ele>
        <time>2016-04-08T13:45:23Z</time>
      </trkpt>
      <trkpt lat="46.22389" lon="2.44278">
        <ele>417</ele>
        <time>2016-04-08T13:45:26Z</time>
      </trkpt>
      <trkpt lat="46.22393" lon="2.44273">
        <ele>417</ele>
        <time>2016-04-08T13:45:29Z</time>
      </trkpt>
      <trkpt lat="46.22396" lon="2.44268">
        <ele>417</ele>
        <time>2016-04-08T13:45:32Z</time>
      </trkpt>
      <trkpt lat="46.224" lon="2.44264">
        <ele>417</ele>
        <time>2016-04-08T13:45:35Z</time>
      </trkpt>
      <trkpt lat="46.22403" lon="2.44259">
        <ele>417</ele>
        <time>2016-04-08T13:45:38Z</time>
      </trkpt>
      <trkpt lat="46.22406" lon="2.44255">
        <ele>417</ele>
        <time>2016-04-08T13:45:41Z</time>
      </trkpt>
      <trkpt lat="46.2241" lon="2.4425">
        <ele>417</ele>
        <time>2016-04-08T13:45:44Z</time>
      </trkpt>
      <trkpt lat="46.22414" lon="2.44246">
        <ele>417</ele>
        <time>2016-04-08T13:45:47Z</time>
      </trkpt>
      <trkpt lat="46.22417" lon="2.44242">
        <ele>417</ele>
        <time>2016-04-08T13:45:50Z</time>
      </trkpt>
      <trkpt lat="46.22421" lon="2.44237">
        <ele>416</ele>
        <time>2016-04-08T13:45:53Z</time>
      </trkpt>
      <trkpt lat="46.22424" lon="2.44232">
        <ele>416</ele>
        <time>2016-04-08T13:45:56Z</time>
      </trkpt>
      <trkpt lat="46.22427" lon="2.44228">
        <ele>416</ele>
        <time>2016-04-08T13:45:59Z</time>
      </trkpt>
      <trkpt lat="46.22431" lon="2.44223">
        <ele>416</ele>
        <time>2016-04-08T13:46:02Z</time>
      </trkpt>
      <trkpt lat="46.22435" lon="2.44219">
        <ele>416</ele>
        <time>2016-04-08T13:46:05Z</time>
      </trkpt>
      <trkpt lat="46.22439" lon="2.44214">
        <ele>416</ele>
        <time>2016-04-08T13:46:09Z</time>
      </trkpt>
      <trkpt lat="46.22443" lon="2.4421">
        <ele>416</ele>
        <time>2016-04-08T13:46:12Z</time>
      </trkpt>
      <trkpt lat="46.22447" lon="2.44207">
        <ele>416</ele>
        <time>2016-04-08T13:46:15Z</time>
      </trkpt>
      <trkpt lat="46.22452" lon="2.44201">
        <ele>416</ele>
        <time>2016-04-08T13:46:19Z</time>
      </trkpt>
      <trkpt lat="46.22456" lon="2.44198">
        <ele>416</ele>
        <time>2016-04-08T13:46:22Z</time>
      </trkpt>
      <trkpt lat="46.22461" lon="2.44192">
        <ele>416</ele>
        <time>2016-04-08T13:46:26Z</time>
      </trkpt>
      <trkpt lat="46.22466" lon="2.44188">
        <ele>416</ele>
        <time>2016-04-08T13:46:29Z</time>
      </trkpt>
      <trkpt lat="46.22469" lon="2.44183">
        <ele>416</ele>
        <time>2016-04-08T13:46:32Z</time>
      </trkpt>
      <trkpt lat="46.22473" lon="2.44179">
        <ele>416</ele>
        <time>2016-04-08T13:46:35Z</time>
      </trkpt>
      <trkpt lat="46.22476" lon="2.44176">
        <ele>416</ele>
        <time>2016-04-08T13:46:38Z</time>
      </trkpt>
      <trkpt lat="46.2248" lon="2.44173">
        <ele>416</ele>
        <time>2016-04-08T13:46:41Z</time>
      </trkpt>
      <trkpt lat="46.22482" lon="2.4417">
        <ele>416</ele>
        <time>2016-04-08T13:46:44Z</time>
      </trkpt>
      <trkpt lat="46.22486" lon="2.44166">
        <ele>416</ele>
        <time>2016-04-08T13:46:47Z</time>
      </trkpt>
      <trkpt lat="46.2249" lon="2.44163">
        <ele>416</ele>
        <time>2016-04-08T13:46:50Z</time>
      </trkpt>
      <trkpt lat="46.22496" lon="2.44158">
        <ele>416</ele>
        <time>2016-04-08T13:46:53Z</time>
      </trkpt>
      <trkpt lat="46.22499" lon="2.44152">
        <ele>416</ele>
        <time>2016-04-08T13:46:56Z</time>
      </trkpt>
      <trkpt lat="46.22503" lon="2.44146">
        <ele>416</ele>
        <time>2016-04-08T13:47:00Z</time>
      </trkpt>
      <trkpt lat="46.22506" lon="2.44142">
        <ele>416</ele>
        <time>2016-04-08T13:47:03Z</time>
      </trkpt>
      <trkpt lat="46.22509" lon="2.44138">
        <ele>416</ele>
        <time>2016-04-08T13:47:06Z</time>
      </trkpt>
      <trkpt lat="46.22513" lon="2.44134">
        <ele>416</ele>
        <time>2016-04-08T13:47:09Z</time>
      </trkpt>
      <trkpt lat="46.22517" lon="2.4413">
        <ele>416</ele>
        <time>2016-04-08T13:47:12Z</time>
      </trkpt>
      <trkpt lat="46.22521" lon="2.44127">
        <ele>416</ele>
        <time>2016-04-08T13:47:15Z</time>
      </trkpt>
      <trkpt lat="46.22524" lon="2.44122">
        <ele>416</ele>
        <time>2016-04-08T13:47:18Z</time>
      </trkpt>
      <trkpt lat="46.22528" lon="2.44118">
        <ele>416</ele>
        <time>2016-04-08T13:47:21Z</time>
      </trkpt>
      <trkpt lat="46.22532" lon="2.44113">
        <ele>416</ele>
        <time>2016-04-08T13:47:25Z</time>
      </trkpt>
      <trkpt lat="46.22537" lon="2.44109">
        <ele>416</ele>
        <time>2016-04-08T13:47:28Z</time>
      </trkpt>
      <trkpt lat="46.22542" lon="2.44105">
        <ele>416</ele>
        <time>2016-04-08T13:47:31Z</time>
      </trkpt>
      <trkpt lat="46.22546" lon="2.44101">
        <ele>417</ele>
        <time>2016-04-08T13:47:34Z</time>
      </trkpt>
      <trkpt lat="46.22549" lon="2.44097">
        <ele>417</ele>
        <time>2016-04-08T13:47:37Z</time>
      </trkpt>
      <trkpt lat="46.22553" lon="2.44093">
        <ele>417</ele>
        <time>2016-04-08T13:47:40Z</time>
      </trkpt>
      <trkpt lat="46.22557" lon="2.44087">
        <ele>417</ele>
        <time>2016-04-08T13:47:44Z</time>
      </trkpt>
      <trkpt lat="46.2256" lon="2.44082">
        <ele>417</ele>
        <time>2016-04-08T13:47:47Z</time>
      </trkpt>
      <trkpt lat="46.2256" lon="2.44075">
        <ele>417</ele>
        <time>2016-04-08T13:47:50Z</time>
      </trkpt>
      <trkpt lat="46.22559" lon="2.4407">
        <ele>417</ele>
        <time>2016-04-08T13:47:53Z</time>
      </trkpt>
      <trkpt lat="46.22556" lon="2.44065">
        <ele>417</ele>
        <time>2016-04-08T13:47:56Z</time>
      </trkpt>
      <trkpt lat="46.22552" lon="2.44061">
        <ele>417</ele>
        <time>2016-04-08T13:47:59Z</time>
      </trkpt>
      <trkpt lat="46.22549" lon="2.44058">
        <ele>418</ele>
        <time>2016-04-08T13:48:02Z</time>
      </trkpt>
      <trkpt lat="46.22545" lon="2.44056">
        <ele>418</ele>
        <time>2016-04-08T13:48:05Z</time>
      </trkpt>
      <trkpt lat="46.22541" lon="2.44053">
        <ele>418</ele>
        <time>2016-04-08T13:48:08Z</time>
      </trkpt>
      <trkpt lat="46.22538" lon="2.4405">
        <ele>418</ele>
        <time>2016-04-08T13:48:11Z</time>
      </trkpt>
      <trkpt lat="46.22534" lon="2.44046">
        <ele>418</ele>
        <time>2016-04-08T13:48:14Z</time>
      </trkpt>
      <trkpt lat="46.2253" lon="2.44043">
        <ele>418</ele>
        <time>2016-04-08T13:48:17Z</time>
      </trkpt>
      <trkpt lat="46.22527" lon="2.4404">
        <ele>418</ele>
        <time>2016-04-08T13:48:20Z</time>
      </trkpt>
      <trkpt lat="46.22523" lon="2.44038">
        <ele>419</ele>
        <time>2016-04-08T13:48:23Z</time>
      </trkpt>
      <trkpt lat="46.22519" lon="2.44034">
        <ele>419</ele>
        <time>2016-04-08T13:48:26Z</time>
      </trkpt>
      <trkpt lat="46.22515" lon="2.44032">
        <ele>419</ele>
        <time>2016-04-08T13:48:29Z</time>
      </trkpt>
      <trkpt lat="46.22512" lon="2.44028">
        <ele>419</ele>
        <time>2016-04-08T13:48:32Z</time>
      </trkpt>
      <trkpt lat="46.22508" lon="2.44025">
        <ele>419</ele>
        <time>2016-04-08T13:48:35Z</time>
      </trkpt>
      <trkpt lat="46.22504" lon="2.44022">
        <ele>419</ele>
        <time>2016-04-08T13:48:38Z</time>
      </trkpt>
      <trkpt lat="46.22501" lon="2.44019">
        <ele>420</ele>
        <time>2016-04-08T13:48:41Z</time>
      </trkpt>
      <trkpt lat="46.22498" lon="2.44016">
        <ele>420</ele>
        <time>2016-04-08T13:48:44Z</time>
      </trkpt>
      <trkpt lat="46.22493" lon="2.44013">
        <ele>420</ele>
        <time>2016-04-08T13:48:47Z</time>
      </trkpt>
      <trkpt lat="46.2249" lon="2.4401">
        <ele>420</ele>
        <time>2016-04-08T13:48:50Z</time>
      </trkpt>
      <trkpt lat="46.22486" lon="2.44007">
        <ele>420</ele>
        <time>2016-04-08T13:48:53Z</time>
      </trkpt>
      <trkpt lat="46.22482" lon="2.44004">
        <ele>420</ele>
        <time>2016-04-08T13:48:56Z</time>
      </trkpt>
      <trkpt lat="46.22477" lon="2.44001">
        <ele>420</ele>
        <time>2016-04-08T13:48:59Z</time>
      </trkpt>
      <trkpt lat="46.22473" lon="2.43998">
        <ele>420</ele>
        <time>2016-04-08T13:49:02Z</time>
      </trkpt>
      <trkpt lat="46.22468" lon="2.43995">
        <ele>420</ele>
        <time>2016-04-08T13:49:05Z</time>
      </trkpt>
      <trkpt lat="46.22463" lon="2.43992">
        <ele>420</ele>
        <time>2016-04-08T13:49:08Z</time>
      </trkpt>
      <trkpt lat="46.22459" lon="2.43989">
        <ele>420</ele>
        <time>2016-04-08T13:49:11Z</time>
      </trkpt>
      <trkpt lat="46.22456" lon="2.43986">
        <ele>420</ele>
        <time>2016-04-08T13:49:14Z</time>
      </trkpt>
      <trkpt lat="46.22452" lon="2.43983">
        <ele>420</ele>
        <time>2016-04-08T13:49:17Z</time>
      </trkpt>
      <trkpt lat="46.22448" lon="2.43981">
        <ele>420</ele>
        <time>2016-04-08T13:49:20Z</time>
      </trkpt>
      <trkpt lat="46.22444" lon="2.43978">
        <ele>420</ele>
        <time>2016-04-08T13:49:23Z</time>
      </trkpt>
      <trkpt lat="46.2244" lon="2.43976">
        <ele>420</ele>
        <time>2016-04-08T13:49:26Z</time>
      </trkpt>
      <trkpt lat="46.22435" lon="2.43971">
        <ele>420</ele>
        <time>2016-04-08T13:49:29Z</time>
      </trkpt>
      <trkpt lat="46.2243" lon="2.43968">
        <ele>420</ele>
        <time>2016-04-08T13:49:32Z</time>
      </trkpt>
      <trkpt lat="46.22427" lon="2.43965">
        <ele>420</ele>
        <time>2016-04-08T13:49:35Z</time>
      </trkpt>
      <trkpt lat="46.22423" lon="2.43962">
        <ele>420</ele>
        <time>2016-04-08T13:49:38Z</time>
      </trkpt>
      <trkpt lat="46.22419" lon="2.43958">
        <ele>420</ele>
        <time>2016-04-08T13:49:41Z</time>
      </trkpt>
      <trkpt lat="46.22415" lon="2.43956">
        <ele>420</ele>
        <time>2016-04-08T13:49:44Z</time>
      </trkpt>
      <trkpt lat="46.22412" lon="2.43952">
        <ele>420</ele>
        <time>2016-04-08T13:49:47Z</time>
      </trkpt>
      <trkpt lat="46.22409" lon="2.43948">
        <ele>420</ele>
        <time>2016-04-08T13:49:50Z</time>
      </trkpt>
      <trkpt lat="46.22407" lon="2.43943">
        <ele>420</ele>
        <time>2016-04-08T13:49:53Z</time>
      </trkpt>
      <trkpt lat="46.22405" lon="2.43936">
        <ele>420</ele>
        <time>2016-04-08T13:49:56Z</time>
      </trkpt>
      <trkpt lat="46.22404" lon="2.4393">
        <ele>420</ele>
        <time>2016-04-08T13:49:59Z</time>
      </trkpt>
      <trkpt lat="46.22403" lon="2.43924">
        <ele>420</ele>
        <time>2016-04-08T13:50:02Z</time>
      </trkpt>
      <trkpt lat="46.22404" lon="2.43917">
        <ele>420</ele>
        <time>2016-04-08T13:50:05Z</time>
      </trkpt>
      <trkpt lat="46.22404" lon="2.4391">
        <ele>420</ele>
        <time>2016-04-08T13:50:08Z</time>
      </trkpt>
      <trkpt lat="46.22405" lon="2.43903">
        <ele>422</ele>
        <time>2016-04-08T13:50:11Z</time>
      </trkpt>
      <trkpt lat="46.22405" lon="2.43897">
        <ele>422</ele>
        <time>2016-04-08T13:50:14Z</time>
      </trkpt>
      <trkpt lat="46.22405" lon="2.4389">
        <ele>423</ele>
        <time>2016-04-08T13:50:17Z</time>
      </trkpt>
      <trkpt lat="46.22405" lon="2.43884">
        <ele>424</ele>
        <time>2016-04-08T13:50:20Z</time>
      </trkpt>
      <trkpt lat="46.22406" lon="2.43878">
        <ele>424</ele>
        <time>2016-04-08T13:50:23Z</time>
      </trkpt>
      <trkpt lat="46.22408" lon="2.43873">
        <ele>424</ele>
        <time>2016-04-08T13:50:26Z</time>
      </trkpt>
      <trkpt lat="46.22409" lon="2.43867">
        <ele>425</ele>
        <time>2016-04-08T13:50:29Z</time>
      </trkpt>
      <trkpt lat="46.22411" lon="2.43862">
        <ele>425</ele>
        <time>2016-04-08T13:50:32Z</time>
      </trkpt>
      <trkpt lat="46.22411" lon="2.43856">
        <ele>425</ele>
        <time>2016-04-08T13:50:35Z</time>
      </trkpt>
      <trkpt lat="46.22412" lon="2.4385">
        <ele>425</ele>
        <time>2016-04-08T13:50:38Z</time>
      </trkpt>
      <trkpt lat="46.22414" lon="2.43845">
        <ele>425</ele>
        <time>2016-04-08T13:50:41Z</time>
      </trkpt>
      <trkpt lat="46.22415" lon="2.43839">
        <ele>425</ele>
        <time>2016-04-08T13:50:44Z</time>
      </trkpt>
      <trkpt lat="46.22416" lon="2.43832">
        <ele>425</ele>
        <time>2016-04-08T13:50:47Z</time>
      </trkpt>
      <trkpt lat="46.22416" lon="2.43826">
        <ele>425</ele>
        <time>2016-04-08T13:50:50Z</time>
      </trkpt>
      <trkpt lat="46.22415" lon="2.43819">
        <ele>425</ele>
        <time>2016-04-08T13:50:53Z</time>
      </trkpt>
      <trkpt lat="46.22415" lon="2.43813">
        <ele>425</ele>
        <time>2016-04-08T13:50:56Z</time>
      </trkpt>
      <trkpt lat="46.22414" lon="2.43806">
        <ele>425</ele>
        <time>2016-04-08T13:50:59Z</time>
      </trkpt>
      <trkpt lat="46.22414" lon="2.43799">
        <ele>425</ele>
        <time>2016-04-08T13:51:02Z</time>
      </trkpt>
      <trkpt lat="46.22413" lon="2.43792">
        <ele>425</ele>
        <time>2016-04-08T13:51:05Z</time>
      </trkpt>
      <trkpt lat="46.22412" lon="2.43785">
        <ele>425</ele>
        <time>2016-04-08T13:51:08Z</time>
      </trkpt>
      <trkpt lat="46.22411" lon="2.43778">
        <ele>425</ele>
        <time>2016-04-08T13:51:11Z</time>
      </trkpt>
      <trkpt lat="46.22411" lon="2.43771">
        <ele>425</ele>
        <time>2016-04-08T13:51:14Z</time>
      </trkpt>
      <trkpt lat="46.22409" lon="2.43764">
        <ele>425</ele>
        <time>2016-04-08T13:51:17Z</time>
      </trkpt>
      <trkpt lat="46.22409" lon="2.43758">
        <ele>425</ele>
        <time>2016-04-08T13:51:20Z</time>
      </trkpt>
      <trkpt lat="46.22408" lon="2.43751">
        <ele>425</ele>
        <time>2016-04-08T13:51:23Z</time>
      </trkpt>
      <trkpt lat="46.22407" lon="2.43745">
        <ele>425</ele>
        <time>2016-04-08T13:51:26Z</time>
      </trkpt>
      <trkpt lat="46.22406" lon="2.43738">
        <ele>425</ele>
        <time>2016-04-08T13:51:29Z</time>
      </trkpt>
      <trkpt lat="46.22405" lon="2.43731">
        <ele>425</ele>
        <time>2016-04-08T13:51:32Z</time>
      </trkpt>
      <trkpt lat="46.22404" lon="2.43725">
        <ele>425</ele>
        <time>2016-04-08T13:51:35Z</time>
      </trkpt>
      <trkpt lat="46.22403" lon="2.43718">
        <ele>425</ele>
        <time>2016-04-08T13:51:38Z</time>
      </trkpt>
      <trkpt lat="46.22402" lon="2.43712">
        <ele>425</ele>
        <time>2016-04-08T13:51:41Z</time>
      </trkpt>
      <trkpt lat="46.22401" lon="2.43705">
        <ele>426</ele>
        <time>2016-04-08T13:51:44Z</time>
      </trkpt>
      <trkpt lat="46.224" lon="2.43699">
        <ele>426</ele>
        <time>2016-04-08T13:51:47Z</time>
      </trkpt>
      <trkpt lat="46.22399" lon="2.43692">
        <ele>426</ele>
        <time>2016-04-08T13:51:50Z</time>
      </trkpt>
      <trkpt lat="46.22398" lon="2.43686">
        <ele>426</ele>
        <time>2016-04-08T13:51:53Z</time>
      </trkpt>
      <trkpt lat="46.22397" lon="2.43679">
        <ele>426</ele>
        <time>2016-04-08T13:51:56Z</time>
      </trkpt>
      <trkpt lat="46.22395" lon="2.43673">
        <ele>426</ele>
        <time>2016-04-08T13:51:59Z</time>
      </trkpt>
      <trkpt lat="46.22394" lon="2.43666">
        <ele>426</ele>
        <time>2016-04-08T13:52:02Z</time>
      </trkpt>
      <trkpt lat="46.22393" lon="2.43659">
        <ele>426</ele>
        <time>2016-04-08T13:52:05Z</time>
      </trkpt>
      <trkpt lat="46.22393" lon="2.43652">
        <ele>426</ele>
        <time>2016-04-08T13:52:08Z</time>
      </trkpt>
      <trkpt lat="46.22392" lon="2.43646">
        <ele>426</ele>
        <time>2016-04-08T13:52:11Z</time>
      </trkpt>
      <trkpt lat="46.22391" lon="2.43639">
        <ele>426</ele>
        <time>2016-04-08T13:52:14Z</time>
      </trkpt>
      <trkpt lat="46.2239" lon="2.43633">
        <ele>426</ele>
        <time>2016-04-08T13:52:17Z</time>
      </trkpt>
      <trkpt lat="46.2239" lon="2.43625">
        <ele>426</ele>
        <time>2016-04-08T13:52:20Z</time>
      </trkpt>
      <trkpt lat="46.2239" lon="2.43619">
        <ele>426</ele>
        <time>2016-04-08T13:52:23Z</time>
      </trkpt>
      <trkpt lat="46.2239" lon="2.43612">
        <ele>426</ele>
        <time>2016-04-08T13:52:26Z</time>
      </trkpt>
      <trkpt lat="46.22391" lon="2.43605">
        <ele>426</ele>
        <time>2016-04-08T13:52:29Z</time>
      </trkpt>
      <trkpt lat="46.22393" lon="2.43599">
        <ele>426</ele>
        <time>2016-04-08T13:52:32Z</time>
      </trkpt>
      <trkpt lat="46.22394" lon="2.43592">
        <ele>426</ele>
        <time>2016-04-08T13:52:35Z</time>
      </trkpt>
      <trkpt lat="46.22395" lon="2.43586">
        <ele>426</ele>
        <time>2016-04-08T13:52:38Z</time>
      </trkpt>
      <trkpt lat="46.22397" lon="2.43581">
        <ele>426</ele>
        <time>2016-04-08T13:52:41Z</time>
      </trkpt>
      <trkpt lat="46.22399" lon="2.43575">
        <ele>426</ele>
        <time>2016-04-08T13:52:44Z</time>
      </trkpt>
      <trkpt lat="46.22401" lon="2.4357">
        <ele>426</ele>
        <time>2016-04-08T13:52:47Z</time>
      </trkpt>
      <trkpt lat="46.22403" lon="2.43564">
        <ele>426</ele>
        <time>2016-04-08T13:52:50Z</time>
      </trkpt>
      <trkpt lat="46.22405" lon="2.43558">
        <ele>426</ele>
        <time>2016-04-08T13:52:53Z</time>
      </trkpt>
      <trkpt lat="46.22407" lon="2.43552">
        <ele>426</ele>
        <time>2016-04-08T13:52:56Z</time>
      </trkpt>
      <trkpt lat="46.22409" lon="2.43547">
        <ele>426</ele>
        <time>2016-04-08T13:52:59Z</time>
      </trkpt>
      <trkpt lat="46.22411" lon="2.43541">
        <ele>426</ele>
        <time>2016-04-08T13:53:02Z</time>
      </trkpt>
      <trkpt lat="46.22413" lon="2.43535">
        <ele>426</ele>
        <time>2016-04-08T13:53:05Z</time>
      </trkpt>
      <trkpt lat="46.22415" lon="2.4353">
        <ele>426</ele>
        <time>2016-04-08T13:53:08Z</time>
      </trkpt>
      <trkpt lat="46.22417" lon="2.43524">
        <ele>426</ele>
        <time>2016-04-08T13:53:11Z</time>
      </trkpt>
      <trkpt lat="46.22419" lon="2.43518">
        <ele>426</ele>
        <time>2016-04-08T13:53:14Z</time>
      </trkpt>
      <trkpt lat="46.22422" lon="2.43512">
        <ele>426</ele>
        <time>2016-04-08T13:53:17Z</time>
      </trkpt>
      <trkpt lat="46.22424" lon="2.43506">
        <ele>426</ele>
        <time>2016-04-08T13:53:20Z</time>
      </trkpt>
      <trkpt lat="46.22426" lon="2.435">
        <ele>426</ele>
        <time>2016-04-08T13:53:23Z</time>
      </trkpt>
      <trkpt lat="46.22428" lon="2.43494">
        <ele>426</ele>
        <time>2016-04-08T13:53:26Z</time>
      </trkpt>
      <trkpt lat="46.2243" lon="2.43489">
        <ele>426</ele>
        <time>2016-04-08T13:53:29Z</time>
      </trkpt>
      <trkpt lat="46.22433" lon="2.43483">
        <ele>426</ele>
        <time>2016-04-08T13:53:32Z</time>
      </trkpt>
      <trkpt lat="46.22435" lon="2.43478">
        <ele>427</ele>
        <time>2016-04-08T13:53:35Z</time>
      </trkpt>
      <trkpt lat="46.22439" lon="2.43474">
        <ele>427</ele>
        <time>2016-04-08T13:53:38Z</time>
      </trkpt>
      <trkpt lat="46.22443" lon="2.4347">
        <ele>427</ele>
        <time>2016-04-08T13:53:41Z</time>
      </trkpt>
      <trkpt lat="46.22446" lon="2.43466">
        <ele>427</ele>
        <time>2016-04-08T13:53:44Z</time>
      </trkpt>
      <trkpt lat="46.2245" lon="2.43464">
        <ele>427</ele>
        <time>2016-04-08T13:53:47Z</time>
      </trkpt>
      <trkpt lat="46.22454" lon="2.43461">
        <ele>427</ele>
        <time>2016-04-08T13:53:50Z</time>
      </trkpt>
      <trkpt lat="46.22459" lon="2.43459">
        <ele>427</ele>
        <time>2016-04-08T13:53:53Z</time>
      </trkpt>
      <trkpt lat="46.22463" lon="2.43456">
        <ele>427</ele>
        <time>2016-04-08T13:53:56Z</time>
      </trkpt>
      <trkpt lat="46.22467" lon="2.43454">
        <ele>427</ele>
        <time>2016-04-08T13:53:59Z</time>
      </trkpt>
      <trkpt lat="46.22471" lon="2.43449">
        <ele>427</ele>
        <time>2016-04-08T13:54:02Z</time>
      </trkpt>
      <trkpt lat="46.22472" lon="2.43443">
        <ele>427</ele>
        <time>2016-04-08T13:54:05Z</time>
      </trkpt>
      <trkpt lat="46.22471" lon="2.43437">
        <ele>427</ele>
        <time>2016-04-08T13:54:08Z</time>
      </trkpt>
      <trkpt lat="46.22471" lon="2.43431">
        <ele>427</ele>
        <time>2016-04-08T13:54:11Z</time>
      </trkpt>
      <trkpt lat="46.2247" lon="2.43423">
        <ele>427</ele>
        <time>2016-04-08T13:54:14Z</time>
      </trkpt>
      <trkpt lat="46.22469" lon="2.43417">
        <ele>427</ele>
        <time>2016-04-08T13:54:17Z</time>
      </trkpt>
      <trkpt lat="46.22469" lon="2.43411">
        <ele>427</ele>
        <time>2016-04-08T13:54:20Z</time>
      </trkpt>
      <trkpt lat="46.22468" lon="2.43405">
        <ele>427</ele>
        <time>2016-04-08T13:54:23Z</time>
      </trkpt>
      <trkpt lat="46.22468" lon="2.43398">
        <ele>427</ele>
        <time>2016-04-08T13:54:26Z</time>
      </trkpt>
      <trkpt lat="46.22467" lon="2.43392">
        <ele>427</ele>
        <time>2016-04-08T13:54:29Z</time>
      </trkpt>
      <trkpt lat="46.22467" lon="2.43384">
        <ele>427</ele>
        <time>2016-04-08T13:54:32Z</time>
      </trkpt>
      <trkpt lat="46.22467" lon="2.43377">
        <ele>427</ele>
        <time>2016-04-08T13:54:35Z</time>
      </trkpt>
      <trkpt lat="46.22466" lon="2.43371">
        <ele>427</ele>
        <time>2016-04-08T13:54:38Z</time>
      </trkpt>
      <trkpt lat="46.22466" lon="2.43364">
        <ele>427</ele>
        <time>2016-04-08T13:54:41Z</time>
      </trkpt>
      <trkpt lat="46.22466" lon="2.43358">
        <ele>427</ele>
        <time>2016-04-08T13:54:44Z</time>
      </trkpt>
      <trkpt lat="46.22466" lon="2.43352">
        <ele>427</ele>
        <time>2016-04-08T13:54:47Z</time>
      </trkpt>
      <trkpt lat="46.22466" lon="2.43346">
        <ele>427</ele>
        <time>2016-04-08T13:54:50Z</time>
      </trkpt>
      <trkpt lat="46.22466" lon="2.43339">
        <ele>427</ele>
        <time>2016-04-08T13:54:53Z</time>
      </trkpt>
      <trkpt lat="46.22466" lon="2.43332">
        <ele>427</ele>
        <time>2016-04-08T13:54:56Z</time>
      </trkpt>
      <trkpt lat="46.22467" lon="2.43325">
        <ele>427</ele>
        <time>2016-04-08T13:54:59Z</time>
      </trkpt>
      <trkpt lat="46.22468" lon="2.43318">
        <ele>427</ele>
        <time>2016-04-08T13:55:02Z</time>
      </trkpt>
      <trkpt lat="46.22469" lon="2.43311">
        <ele>427</ele>
        <time>2016-04-08T13:55:05Z</time>
      </trkpt>
      <trkpt lat="46.22469" lon="2.43304">
        <ele>427</ele>
        <time>2016-04-08T13:55:08Z</time>
      </trkpt>
      <trkpt lat="46.2247" lon="2.43297">
        <ele>427</ele>
        <time>2016-04-08T13:55:11Z</time>
      </trkpt>
      <trkpt lat="46.2247" lon="2.43291">
        <ele>427</ele>
        <time>2016-04-08T13:55:14Z</time>
      </trkpt>
      <trkpt lat="46.22471" lon="2.43284">
        <ele>427</ele>
        <time>2016-04-08T13:55:17Z</time>
      </trkpt>
      <trkpt lat="46.22473" lon="2.43278">
        <ele>427</ele>
        <time>2016-04-08T13:55:20Z</time>
      </trkpt>
      <trkpt lat="46.22474" lon="2.43272">
        <ele>427</ele>
        <time>2016-04-08T13:55:23Z</time>
      </trkpt>
      <trkpt lat="46.22474" lon="2.43265">
        <ele>427</ele>
        <time>2016-04-08T13:55:26Z</time>
      </trkpt>
      <trkpt lat="46.22474" lon="2.43258">
        <ele>427</ele>
        <time>2016-04-08T13:55:29Z</time>
      </trkpt>
      <trkpt lat="46.22474" lon="2.43251">
        <ele>427</ele>
        <time>2016-04-08T13:55:32Z</time>
      </trkpt>
      <trkpt lat="46.22475" lon="2.43244">
        <ele>427</ele>
        <time>2016-04-08T13:55:35Z</time>
      </trkpt>
      <trkpt lat="46.22475" lon="2.43237">
        <ele>427</ele>
        <time>2016-04-08T13:55:38Z</time>
      </trkpt>
      <trkpt lat="46.22476" lon="2.4323">
        <ele>427</ele>
        <time>2016-04-08T13:55:41Z</time>
      </trkpt>
      <trkpt lat="46.22476" lon="2.43224">
        <ele>427</ele>
        <time>2016-04-08T13:55:44Z</time>
      </trkpt>
      <trkpt lat="46.22477" lon="2.43218">
        <ele>427</ele>
        <time>2016-04-08T13:55:47Z</time>
      </trkpt>
      <trkpt lat="46.22479" lon="2.43212">
        <ele>427</ele>
        <time>2016-04-08T13:55:50Z</time>
      </trkpt>
      <trkpt lat="46.2248" lon="2.43206">
        <ele>427</ele>
        <time>2016-04-08T13:55:53Z</time>
      </trkpt>
      <trkpt lat="46.22481" lon="2.432">
        <ele>427</ele>
        <time>2016-04-08T13:55:56Z</time>
      </trkpt>
      <trkpt lat="46.22482" lon="2.43193">
        <ele>427</ele>
        <time>2016-04-08T13:55:59Z</time>
      </trkpt>
      <trkpt lat="46.22483" lon="2.43187">
        <ele>427</ele>
        <time>2016-04-08T13:56:02Z</time>
      </trkpt>
      <trkpt lat="46.22484" lon="2.43181">
        <ele>427</ele>
        <time>2016-04-08T13:56:05Z</time>
      </trkpt>
      <trkpt lat="46.22486" lon="2.43176">
        <ele>427</ele>
        <time>2016-04-08T13:56:08Z</time>
      </trkpt>
      <trkpt lat="46.22488" lon="2.43168">
        <ele>427</ele>
        <time>2016-04-08T13:56:11Z</time>
      </trkpt>
      <trkpt lat="46.22489" lon="2.43163">
        <ele>427</ele>
        <time>2016-04-08T13:56:14Z</time>
      </trkpt>
      <trkpt lat="46.22491" lon="2.43157">
        <ele>427</ele>
        <time>2016-04-08T13:56:17Z</time>
      </trkpt>
      <trkpt lat="46.22494" lon="2.4315">
        <ele>427</ele>
        <time>2016-04-08T13:56:20Z</time>
      </trkpt>
      <trkpt lat="46.22496" lon="2.43144">
        <ele>427</ele>
        <time>2016-04-08T13:56:23Z</time>
      </trkpt>
      <trkpt lat="46.22498" lon="2.43137">
        <ele>427</ele>
        <time>2016-04-08T13:56:26Z</time>
      </trkpt>
      <trkpt lat="46.22501" lon="2.43131">
        <ele>427</ele>
        <time>2016-04-08T13:56:29Z</time>
      </trkpt>
      <trkpt lat="46.22503" lon="2.43125">
        <ele>427</ele>
        <time>2016-04-08T13:56:32Z</time>
      </trkpt>
      <trkpt lat="46.22506" lon="2.4312">
        <ele>427</ele>
        <time>2016-04-08T13:56:35Z</time>
      </trkpt>
      <trkpt lat="46.22509" lon="2.43114">
        <ele>427</ele>
        <time>2016-04-08T13:56:39Z</time>
      </trkpt>
      <trkpt lat="46.22511" lon="2.43108">
        <ele>427</ele>
        <time>2016-04-08T13:56:42Z</time>
      </trkpt>
      <trkpt lat="46.22512" lon="2.43101">
        <ele>427</ele>
        <time>2016-04-08T13:56:45Z</time>
      </trkpt>
      <trkpt lat="46.22514" lon="2.43095">
        <ele>427</ele>
        <time>2016-04-08T13:56:48Z</time>
      </trkpt>
      <trkpt lat="46.22514" lon="2.43088">
        <ele>427</ele>
        <time>2016-04-08T13:56:51Z</time>
      </trkpt>
      <trkpt lat="46.22515" lon="2.43081">
        <ele>427</ele>
        <time>2016-04-08T13:56:54Z</time>
      </trkpt>
      <trkpt lat="46.22517" lon="2.43074">
        <ele>427</ele>
        <time>2016-04-08T13:56:57Z</time>
      </trkpt>
      <trkpt lat="46.22518" lon="2.43067">
        <ele>427</ele>
        <time>2016-04-08T13:57:00Z</time>
      </trkpt>
      <trkpt lat="46.22517" lon="2.4306">
        <ele>427</ele>
        <time>2016-04-08T13:57:03Z</time>
      </trkpt>
      <trkpt lat="46.22514" lon="2.43056">
        <ele>427</ele>
        <time>2016-04-08T13:57:06Z</time>
      </trkpt>
      <trkpt lat="46.2251" lon="2.43053">
        <ele>427</ele>
        <time>2016-04-08T13:57:09Z</time>
      </trkpt>
      <trkpt lat="46.22506" lon="2.43052">
        <ele>427</ele>
        <time>2016-04-08T13:57:13Z</time>
      </trkpt>
      <trkpt lat="46.22502" lon="2.4305">
        <ele>427</ele>
        <time>2016-04-08T13:57:16Z</time>
      </trkpt>
      <trkpt lat="46.22498" lon="2.43048">
        <ele>427</ele>
        <time>2016-04-08T13:57:19Z</time>
      </trkpt>
      <trkpt lat="46.22493" lon="2.43047">
        <ele>427</ele>
        <time>2016-04-08T13:57:22Z</time>
      </trkpt>
      <trkpt lat="46.22489" lon="2.43045">
        <ele>427</ele>
        <time>2016-04-08T13:57:25Z</time>
      </trkpt>
      <trkpt lat="46.22485" lon="2.43042">
        <ele>427</ele>
        <time>2016-04-08T13:57:28Z</time>
      </trkpt>
      <trkpt lat="46.22481" lon="2.43041">
        <ele>427</ele>
        <time>2016-04-08T13:57:31Z</time>
      </trkpt>
      <trkpt lat="46.22476" lon="2.43038">
        <ele>427</ele>
        <time>2016-04-08T13:57:34Z</time>
      </trkpt>
      <trkpt lat="46.22472" lon="2.43035">
        <ele>427</ele>
        <time>2016-04-08T13:57:37Z</time>
      </trkpt>
      <trkpt lat="46.22469" lon="2.43031">
        <ele>427</ele>
        <time>2016-04-08T13:57:40Z</time>
      </trkpt>
      <trkpt lat="46.22467" lon="2.43026">
        <ele>427</ele>
        <time>2016-04-08T13:57:44Z</time>
      </trkpt>
      <trkpt lat="46.22467" lon="2.4302">
        <ele>427</ele>
        <time>2016-04-08T13:57:47Z</time>
      </trkpt>
      <trkpt lat="46.22468" lon="2.4301">
        <ele>427</ele>
        <time>2016-04-08T13:57:50Z</time>
      </trkpt>
      <trkpt lat="46.22469" lon="2.43003">
        <ele>427</ele>
        <time>2016-04-08T13:57:53Z</time>
      </trkpt>
      <trkpt lat="46.22469" lon="2.42997">
        <ele>427</ele>
        <time>2016-04-08T13:57:56Z</time>
      </trkpt>
      <trkpt lat="46.2247" lon="2.4299">
        <ele>427</ele>
        <time>2016-04-08T13:57:59Z</time>
      </trkpt>
      <trkpt lat="46.22471" lon="2.42983">
        <ele>427</ele>
        <time>2016-04-08T13:58:02Z</time>
      </trkpt>
      <trkpt lat="46.22471" lon="2.42976">
        <ele>427</ele>
        <time>2016-04-08T13:58:05Z</time>
      </trkpt>
      <trkpt lat="46.22472" lon="2.4297">
        <ele>427</ele>
        <time>2016-04-08T13:58:08Z</time>
      </trkpt>
      <trkpt lat="46.22472" lon="2.42964">
        <ele>427</ele>
        <time>2016-04-08T13:58:11Z</time>
      </trkpt>
      <trkpt lat="46.22473" lon="2.42957">
        <ele>425</ele>
        <time>2016-04-08T13:58:14Z</time>
      </trkpt>
      <trkpt lat="46.22474" lon="2.42951">
        <ele>424</ele>
        <time>2016-04-08T13:58:17Z</time>
      </trkpt>
      <trkpt lat="46.22476" lon="2.42944">
        <ele>423</ele>
        <time>2016-04-08T13:58:20Z</time>
      </trkpt>
      <trkpt lat="46.22478" lon="2.42937">
        <ele>423</ele>
        <time>2016-04-08T13:58:23Z</time>
      </trkpt>
      <trkpt lat="46.22479" lon="2.42931">
        <ele>423</ele>
        <time>2016-04-08T13:58:26Z</time>
      </trkpt>
      <trkpt lat="46.22481" lon="2.42924">
        <ele>423</ele>
        <time>2016-04-08T13:58:29Z</time>
      </trkpt>
      <trkpt lat="46.22484" lon="2.42918">
        <ele>423</ele>
        <time>2016-04-08T13:58:32Z</time>
      </trkpt>
      <trkpt lat="46.22485" lon="2.42911">
        <ele>423</ele>
        <time>2016-04-08T13:58:35Z</time>
      </trkpt>
      <trkpt lat="46.22486" lon="2.42905">
        <ele>423</ele>
        <time>2016-04-08T13:58:38Z</time>
      </trkpt>
      <trkpt lat="46.22489" lon="2.429">
        <ele>423</ele>
        <time>2016-04-08T13:58:41Z</time>
      </trkpt>
      <trkpt lat="46.22491" lon="2.42893">
        <ele>423</ele>
        <time>2016-04-08T13:58:44Z</time>
      </trkpt>
      <trkpt lat="46.22491" lon="2.4289">
        <ele>423</ele>
        <time>2016-04-08T13:58:53Z</time>
      </trkpt>
      <trkpt lat="46.22491" lon="2.42886">
        <ele>423</ele>
        <time>2016-04-08T13:58:57Z</time>
      </trkpt>
      <trkpt lat="46.22493" lon="2.42882">
        <ele>423</ele>
        <time>2016-04-08T13:59:00Z</time>
      </trkpt>
      <trkpt lat="46.22494" lon="2.42878">
        <ele>423</ele>
        <time>2016-04-08T13:59:03Z</time>
      </trkpt>
      <trkpt lat="46.22496" lon="2.42872">
        <ele>424</ele>
        <time>2016-04-08T13:59:06Z</time>
      </trkpt>
      <trkpt lat="46.22497" lon="2.42866">
        <ele>424</ele>
        <time>2016-04-08T13:59:10Z</time>
      </trkpt>
      <trkpt lat="46.225" lon="2.42852">
        <ele>432</ele>
        <time>2016-04-08T13:59:14Z</time>
      </trkpt>
      <trkpt lat="46.22502" lon="2.42845">
        <ele>431</ele>
        <time>2016-04-08T13:59:17Z</time>
      </trkpt>
      <trkpt lat="46.22503" lon="2.42839">
        <ele>431</ele>
        <time>2016-04-08T13:59:20Z</time>
      </trkpt>
      <trkpt lat="46.22504" lon="2.42832">
        <ele>431</ele>
        <time>2016-04-08T13:59:23Z</time>
      </trkpt>
      <trkpt lat="46.22506" lon="2.42826">
        <ele>431</ele>
        <time>2016-04-08T13:59:26Z</time>
      </trkpt>
      <trkpt lat="46.22506" lon="2.4282">
        <ele>431</ele>
        <time>2016-04-08T13:59:29Z</time>
      </trkpt>
      <trkpt lat="46.22507" lon="2.42813">
        <ele>430</ele>
        <time>2016-04-08T13:59:32Z</time>
      </trkpt>
      <trkpt lat="46.22509" lon="2.42807">
        <ele>430</ele>
        <time>2016-04-08T13:59:35Z</time>
      </trkpt>
      <trkpt lat="46.2251" lon="2.42799">
        <ele>430</ele>
        <time>2016-04-08T13:59:38Z</time>
      </trkpt>
      <trkpt lat="46.22511" lon="2.42792">
        <ele>430</ele>
        <time>2016-04-08T13:59:41Z</time>
      </trkpt>
      <trkpt lat="46.22512" lon="2.42785">
        <ele>430</ele>
        <time>2016-04-08T13:59:44Z</time>
      </trkpt>
      <trkpt lat="46.22512" lon="2.42779">
        <ele>429</ele>
        <time>2016-04-08T13:59:47Z</time>
      </trkpt>
      <trkpt lat="46.22512" lon="2.42777">
        <ele>429</ele>
        <time>2016-04-08T13:59:52Z</time>
      </trkpt>
      <trkpt lat="46.22513" lon="2.42772">
        <ele>429</ele>
        <time>2016-04-08T13:59:55Z</time>
      </trkpt>
      <trkpt lat="46.22514" lon="2.42766">
        <ele>429</ele>
        <time>2016-04-08T13:59:58Z</time>
      </trkpt>
      <trkpt lat="46.22515" lon="2.4276">
        <ele>429</ele>
        <time>2016-04-08T14:00:01Z</time>
      </trkpt>
      <trkpt lat="46.22515" lon="2.42752">
        <ele>428</ele>
        <time>2016-04-08T14:00:04Z</time>
      </trkpt>
      <trkpt lat="46.22515" lon="2.42745">
        <ele>428</ele>
        <time>2016-04-08T14:00:07Z</time>
      </trkpt>
      <trkpt lat="46.22515" lon="2.42738">
        <ele>427</ele>
        <time>2016-04-08T14:00:10Z</time>
      </trkpt>
      <trkpt lat="46.22514" lon="2.42731">
        <ele>426</ele>
        <time>2016-04-08T14:00:13Z</time>
      </trkpt>
      <trkpt lat="46.22513" lon="2.42725">
        <ele>426</ele>
        <time>2016-04-08T14:00:16Z</time>
      </trkpt>
      <trkpt lat="46.22513" lon="2.42718">
        <ele>426</ele>
        <time>2016-04-08T14:00:19Z</time>
      </trkpt>
      <trkpt lat="46.22512" lon="2.42712">
        <ele>426</ele>
        <time>2016-04-08T14:00:22Z</time>
      </trkpt>
      <trkpt lat="46.2251" lon="2.42706">
        <ele>426</ele>
        <time>2016-04-08T14:00:25Z</time>
      </trkpt>
      <trkpt lat="46.22506" lon="2.42702">
        <ele>424</ele>
        <time>2016-04-08T14:00:28Z</time>
      </trkpt>
      <trkpt lat="46.22503" lon="2.42699">
        <ele>424</ele>
        <time>2016-04-08T14:00:31Z</time>
      </trkpt>
      <trkpt lat="46.225" lon="2.42693">
        <ele>424</ele>
        <time>2016-04-08T14:00:34Z</time>
      </trkpt>
      <trkpt lat="46.22496" lon="2.42688">
        <ele>424</ele>
        <time>2016-04-08T14:00:37Z</time>
      </trkpt>
      <trkpt lat="46.22493" lon="2.42683">
        <ele>424</ele>
        <time>2016-04-08T14:00:40Z</time>
      </trkpt>
      <trkpt lat="46.2249" lon="2.42678">
        <ele>423</ele>
        <time>2016-04-08T14:00:43Z</time>
      </trkpt>
      <trkpt lat="46.22486" lon="2.42674">
        <ele>422</ele>
        <time>2016-04-08T14:00:46Z</time>
      </trkpt>
      <trkpt lat="46.22482" lon="2.42671">
        <ele>422</ele>
        <time>2016-04-08T14:00:49Z</time>
      </trkpt>
      <trkpt lat="46.22479" lon="2.42669">
        <ele>420</ele>
        <time>2016-04-08T14:00:52Z</time>
      </trkpt>
      <trkpt lat="46.22476" lon="2.42665">
        <ele>419</ele>
        <time>2016-04-08T14:00:55Z</time>
      </trkpt>
      <trkpt lat="46.22472" lon="2.4266">
        <ele>419</ele>
        <time>2016-04-08T14:00:58Z</time>
      </trkpt>
      <trkpt lat="46.22469" lon="2.42655">
        <ele>419</ele>
        <time>2016-04-08T14:01:01Z</time>
      </trkpt>
      <trkpt lat="46.22467" lon="2.42649">
        <ele>419</ele>
        <time>2016-04-08T14:01:04Z</time>
      </trkpt>
      <trkpt lat="46.22465" lon="2.42641">
        <ele>419</ele>
        <time>2016-04-08T14:01:07Z</time>
      </trkpt>
      <trkpt lat="46.22462" lon="2.42635">
        <ele>419</ele>
        <time>2016-04-08T14:01:10Z</time>
      </trkpt>
      <trkpt lat="46.22459" lon="2.4263">
        <ele>419</ele>
        <time>2016-04-08T14:01:13Z</time>
      </trkpt>
      <trkpt lat="46.22456" lon="2.42625">
        <ele>419</ele>
        <time>2016-04-08T14:01:16Z</time>
      </trkpt>
      <trkpt lat="46.22453" lon="2.4262">
        <ele>419</ele>
        <time>2016-04-08T14:01:19Z</time>
      </trkpt>
      <trkpt lat="46.2245" lon="2.42615">
        <ele>419</ele>
        <time>2016-04-08T14:01:22Z</time>
      </trkpt>
      <trkpt lat="46.22447" lon="2.42611">
        <ele>419</ele>
        <time>2016-04-08T14:01:25Z</time>
      </trkpt>
      <trkpt lat="46.22443" lon="2.42606">
        <ele>419</ele>
        <time>2016-04-08T14:01:28Z</time>
      </trkpt>
      <trkpt lat="46.2244" lon="2.42602">
        <ele>419</ele>
        <time>2016-04-08T14:01:31Z</time>
      </trkpt>
      <trkpt lat="46.22437" lon="2.42597">
        <ele>419</ele>
        <time>2016-04-08T14:01:34Z</time>
      </trkpt>
      <trkpt lat="46.22433" lon="2.42592">
        <ele>419</ele>
        <time>2016-04-08T14:01:37Z</time>
      </trkpt>
      <trkpt lat="46.2243" lon="2.42586">
        <ele>420</ele>
        <time>2016-04-08T14:01:40Z</time>
      </trkpt>
      <trkpt lat="46.22427" lon="2.4258">
        <ele>421</ele>
        <time>2016-04-08T14:01:43Z</time>
      </trkpt>
      <trkpt lat="46.22423" lon="2.42576">
        <ele>422</ele>
        <time>2016-04-08T14:01:46Z</time>
      </trkpt>
      <trkpt lat="46.22419" lon="2.42572">
        <ele>422</ele>
        <time>2016-04-08T14:01:49Z</time>
      </trkpt>
      <trkpt lat="46.22415" lon="2.42568">
        <ele>422</ele>
        <time>2016-04-08T14:01:52Z</time>
      </trkpt>
      <trkpt lat="46.22411" lon="2.42566">
        <ele>422</ele>
        <time>2016-04-08T14:01:55Z</time>
      </trkpt>
      <trkpt lat="46.22407" lon="2.42564">
        <ele>422</ele>
        <time>2016-04-08T14:01:58Z</time>
      </trkpt>
      <trkpt lat="46.22402" lon="2.42562">
        <ele>422</ele>
        <time>2016-04-08T14:02:01Z</time>
      </trkpt>
      <trkpt lat="46.22398" lon="2.4256">
        <ele>422</ele>
        <time>2016-04-08T14:02:04Z</time>
      </trkpt>
      <trkpt lat="46.22393" lon="2.42558">
        <ele>422</ele>
        <time>2016-04-08T14:02:07Z</time>
      </trkpt>
      <trkpt lat="46.22389" lon="2.42554">
        <ele>422</ele>
        <time>2016-04-08T14:02:10Z</time>
      </trkpt>
      <trkpt lat="46.22385" lon="2.42551">
        <ele>422</ele>
        <time>2016-04-08T14:02:13Z</time>
      </trkpt>
      <trkpt lat="46.22381" lon="2.42549">
        <ele>422</ele>
        <time>2016-04-08T14:02:16Z</time>
      </trkpt>
      <trkpt lat="46.22377" lon="2.42546">
        <ele>422</ele>
        <time>2016-04-08T14:02:19Z</time>
      </trkpt>
      <trkpt lat="46.22373" lon="2.42544">
        <ele>422</ele>
        <time>2016-04-08T14:02:22Z</time>
      </trkpt>
      <trkpt lat="46.22369" lon="2.42541">
        <ele>422</ele>
        <time>2016-04-08T14:02:25Z</time>
      </trkpt>
      <trkpt lat="46.22365" lon="2.42537">
        <ele>422</ele>
        <time>2016-04-08T14:02:28Z</time>
      </trkpt>
      <trkpt lat="46.2236" lon="2.42533">
        <ele>422</ele>
        <time>2016-04-08T14:02:32Z</time>
      </trkpt>
      <trkpt lat="46.22359" lon="2.42531">
        <ele>422</ele>
        <time>2016-04-08T14:02:36Z</time>
      </trkpt>
      <trkpt lat="46.22358" lon="2.42529">
        <ele>422</ele>
        <time>2016-04-08T14:02:39Z</time>
      </trkpt>
      <trkpt lat="46.22357" lon="2.42528">
        <ele>425</ele>
        <time>2016-04-08T14:02:55Z</time>
      </trkpt>
      <trkpt lat="46.22355" lon="2.42528">
        <ele>425</ele>
        <time>2016-04-08T14:03:00Z</time>
      </trkpt>
      <trkpt lat="46.22353" lon="2.42527">
        <ele>425</ele>
        <time>2016-04-08T14:03:03Z</time>
      </trkpt>
      <trkpt lat="46.22348" lon="2.42524">
        <ele>425</ele>
        <time>2016-04-08T14:03:06Z</time>
      </trkpt>
      <trkpt lat="46.22345" lon="2.42521">
        <ele>425</ele>
        <time>2016-04-08T14:03:09Z</time>
      </trkpt>
      <trkpt lat="46.2234" lon="2.42518">
        <ele>425</ele>
        <time>2016-04-08T14:03:12Z</time>
      </trkpt>
      <trkpt lat="46.22336" lon="2.42515">
        <ele>425</ele>
        <time>2016-04-08T14:03:15Z</time>
      </trkpt>
      <trkpt lat="46.22332" lon="2.42512">
        <ele>425</ele>
        <time>2016-04-08T14:03:18Z</time>
      </trkpt>
      <trkpt lat="46.22327" lon="2.42509">
        <ele>424</ele>
        <time>2016-04-08T14:03:21Z</time>
      </trkpt>
      <trkpt lat="46.22322" lon="2.42506">
        <ele>424</ele>
        <time>2016-04-08T14:03:24Z</time>
      </trkpt>
      <trkpt lat="46.22318" lon="2.42503">
        <ele>423</ele>
        <time>2016-04-08T14:03:27Z</time>
      </trkpt>
      <trkpt lat="46.22313" lon="2.425">
        <ele>423</ele>
        <time>2016-04-08T14:03:30Z</time>
      </trkpt>
      <trkpt lat="46.22309" lon="2.42497">
        <ele>423</ele>
        <time>2016-04-08T14:03:33Z</time>
      </trkpt>
      <trkpt lat="46.22305" lon="2.42494">
        <ele>422</ele>
        <time>2016-04-08T14:03:36Z</time>
      </trkpt>
      <trkpt lat="46.223" lon="2.42491">
        <ele>422</ele>
        <time>2016-04-08T14:03:39Z</time>
      </trkpt>
      <trkpt lat="46.22296" lon="2.42486">
        <ele>422</ele>
        <time>2016-04-08T14:03:42Z</time>
      </trkpt>
      <trkpt lat="46.22291" lon="2.42482">
        <ele>422</ele>
        <time>2016-04-08T14:03:45Z</time>
      </trkpt>
      <trkpt lat="46.22287" lon="2.4248">
        <ele>422</ele>
        <time>2016-04-08T14:03:48Z</time>
      </trkpt>
      <trkpt lat="46.22283" lon="2.42477">
        <ele>422</ele>
        <time>2016-04-08T14:03:51Z</time>
      </trkpt>
      <trkpt lat="46.22278" lon="2.42474">
        <ele>422</ele>
        <time>2016-04-08T14:03:54Z</time>
      </trkpt>
      <trkpt lat="46.22274" lon="2.42472">
        <ele>421</ele>
        <time>2016-04-08T14:03:57Z</time>
      </trkpt>
      <trkpt lat="46.2227" lon="2.42469">
        <ele>421</ele>
        <time>2016-04-08T14:04:00Z</time>
      </trkpt>
      <trkpt lat="46.22266" lon="2.42465">
        <ele>421</ele>
        <time>2016-04-08T14:04:03Z</time>
      </trkpt>
      <trkpt lat="46.22262" lon="2.42462">
        <ele>421</ele>
        <time>2016-04-08T14:04:06Z</time>
      </trkpt>
      <trkpt lat="46.22258" lon="2.42459">
        <ele>420</ele>
        <time>2016-04-08T14:04:09Z</time>
      </trkpt>
      <trkpt lat="46.22253" lon="2.42456">
        <ele>419</ele>
        <time>2016-04-08T14:04:12Z</time>
      </trkpt>
      <trkpt lat="46.22249" lon="2.42453">
        <ele>419</ele>
        <time>2016-04-08T14:04:15Z</time>
      </trkpt>
      <trkpt lat="46.22245" lon="2.4245">
        <ele>418</ele>
        <time>2016-04-08T14:04:18Z</time>
      </trkpt>
      <trkpt lat="46.2224" lon="2.42447">
        <ele>418</ele>
        <time>2016-04-08T14:04:21Z</time>
      </trkpt>
      <trkpt lat="46.22236" lon="2.42443">
        <ele>418</ele>
        <time>2016-04-08T14:04:24Z</time>
      </trkpt>
      <trkpt lat="46.22232" lon="2.4244">
        <ele>417</ele>
        <time>2016-04-08T14:04:27Z</time>
      </trkpt>
      <trkpt lat="46.22227" lon="2.42434">
        <ele>417</ele>
        <time>2016-04-08T14:04:31Z</time>
      </trkpt>
      <trkpt lat="46.22225" lon="2.42429">
        <ele>417</ele>
        <time>2016-04-08T14:04:34Z</time>
      </trkpt>
      <trkpt lat="46.22223" lon="2.42423">
        <ele>416</ele>
        <time>2016-04-08T14:04:37Z</time>
      </trkpt>
      <trkpt lat="46.22221" lon="2.42416">
        <ele>415</ele>
        <time>2016-04-08T14:04:40Z</time>
      </trkpt>
      <trkpt lat="46.22219" lon="2.42409">
        <ele>415</ele>
        <time>2016-04-08T14:04:43Z</time>
      </trkpt>
      <trkpt lat="46.22218" lon="2.42402">
        <ele>415</ele>
        <time>2016-04-08T14:04:46Z</time>
      </trkpt>
      <trkpt lat="46.22216" lon="2.42395">
        <ele>415</ele>
        <time>2016-04-08T14:04:49Z</time>
      </trkpt>
      <trkpt lat="46.22216" lon="2.42388">
        <ele>415</ele>
        <time>2016-04-08T14:04:52Z</time>
      </trkpt>
      <trkpt lat="46.22216" lon="2.42381">
        <ele>415</ele>
        <time>2016-04-08T14:04:55Z</time>
      </trkpt>
      <trkpt lat="46.22215" lon="2.42374">
        <ele>415</ele>
        <time>2016-04-08T14:04:58Z</time>
      </trkpt>
      <trkpt lat="46.22214" lon="2.42367">
        <ele>415</ele>
        <time>2016-04-08T14:05:01Z</time>
      </trkpt>
      <trkpt lat="46.22214" lon="2.4236">
        <ele>415</ele>
        <time>2016-04-08T14:05:04Z</time>
      </trkpt>
      <trkpt lat="46.22213" lon="2.42353">
        <ele>415</ele>
        <time>2016-04-08T14:05:07Z</time>
      </trkpt>
      <trkpt lat="46.22212" lon="2.42347">
        <ele>415</ele>
        <time>2016-04-08T14:05:10Z</time>
      </trkpt>
      <trkpt lat="46.22211" lon="2.4234">
        <ele>415</ele>
        <time>2016-04-08T14:05:13Z</time>
      </trkpt>
      <trkpt lat="46.22211" lon="2.42334">
        <ele>415</ele>
        <time>2016-04-08T14:05:16Z</time>
      </trkpt>
      <trkpt lat="46.2221" lon="2.42327">
        <ele>415</ele>
        <time>2016-04-08T14:05:19Z</time>
      </trkpt>
      <trkpt lat="46.2221" lon="2.4232">
        <ele>415</ele>
        <time>2016-04-08T14:05:22Z</time>
      </trkpt>
      <trkpt lat="46.22209" lon="2.42313">
        <ele>415</ele>
        <time>2016-04-08T14:05:25Z</time>
      </trkpt>
      <trkpt lat="46.22209" lon="2.42307">
        <ele>415</ele>
        <time>2016-04-08T14:05:28Z</time>
      </trkpt>
      <trkpt lat="46.22209" lon="2.423">
        <ele>415</ele>
        <time>2016-04-08T14:05:31Z</time>
      </trkpt>
      <trkpt lat="46.22209" lon="2.42293">
        <ele>414</ele>
        <time>2016-04-08T14:05:34Z</time>
      </trkpt>
      <trkpt lat="46.22208" lon="2.42286">
        <ele>414</ele>
        <time>2016-04-08T14:05:37Z</time>
      </trkpt>
      <trkpt lat="46.22207" lon="2.4228">
        <ele>414</ele>
        <time>2016-04-08T14:05:40Z</time>
      </trkpt>
      <trkpt lat="46.22207" lon="2.42273">
        <ele>414</ele>
        <time>2016-04-08T14:05:43Z</time>
      </trkpt>
      <trkpt lat="46.22207" lon="2.42266">
        <ele>414</ele>
        <time>2016-04-08T14:05:46Z</time>
      </trkpt>
      <trkpt lat="46.22206" lon="2.4226">
        <ele>414</ele>
        <time>2016-04-08T14:05:49Z</time>
      </trkpt>
      <trkpt lat="46.22205" lon="2.42253">
        <ele>414</ele>
        <time>2016-04-08T14:05:52Z</time>
      </trkpt>
      <trkpt lat="46.22204" lon="2.42247">
        <ele>414</ele>
        <time>2016-04-08T14:05:55Z</time>
      </trkpt>
      <trkpt lat="46.22204" lon="2.4224">
        <ele>414</ele>
        <time>2016-04-08T14:05:58Z</time>
      </trkpt>
      <trkpt lat="46.22203" lon="2.42233">
        <ele>414</ele>
        <time>2016-04-08T14:06:01Z</time>
      </trkpt>
      <trkpt lat="46.22203" lon="2.42226">
        <ele>413</ele>
        <time>2016-04-08T14:06:04Z</time>
      </trkpt>
      <trkpt lat="46.22202" lon="2.42219">
        <ele>413</ele>
        <time>2016-04-08T14:06:07Z</time>
      </trkpt>
      <trkpt lat="46.22201" lon="2.42212">
        <ele>413</ele>
        <time>2016-04-08T14:06:10Z</time>
      </trkpt>
      <trkpt lat="46.222" lon="2.42205">
        <ele>413</ele>
        <time>2016-04-08T14:06:13Z</time>
      </trkpt>
      <trkpt lat="46.222" lon="2.42198">
        <ele>413</ele>
        <time>2016-04-08T14:06:16Z</time>
      </trkpt>
      <trkpt lat="46.22199" lon="2.42192">
        <ele>413</ele>
        <time>2016-04-08T14:06:19Z</time>
      </trkpt>
      <trkpt lat="46.22198" lon="2.42185">
        <ele>413</ele>
        <time>2016-04-08T14:06:22Z</time>
      </trkpt>
      <trkpt lat="46.22197" lon="2.42179">
        <ele>413</ele>
        <time>2016-04-08T14:06:25Z</time>
      </trkpt>
      <trkpt lat="46.22197" lon="2.42172">
        <ele>413</ele>
        <time>2016-04-08T14:06:28Z</time>
      </trkpt>
      <trkpt lat="46.22195" lon="2.42165">
        <ele>413</ele>
        <time>2016-04-08T14:06:31Z</time>
      </trkpt>
      <trkpt lat="46.22195" lon="2.42158">
        <ele>413</ele>
        <time>2016-04-08T14:06:34Z</time>
      </trkpt>
      <trkpt lat="46.22194" lon="2.42151">
        <ele>413</ele>
        <time>2016-04-08T14:06:37Z</time>
      </trkpt>
      <trkpt lat="46.22192" lon="2.42145">
        <ele>413</ele>
        <time>2016-04-08T14:06:40Z</time>
      </trkpt>
      <trkpt lat="46.22192" lon="2.42138">
        <ele>413</ele>
        <time>2016-04-08T14:06:43Z</time>
      </trkpt>
      <trkpt lat="46.2219" lon="2.42132">
        <ele>413</ele>
        <time>2016-04-08T14:06:46Z</time>
      </trkpt>
      <trkpt lat="46.22189" lon="2.42125">
        <ele>413</ele>
        <time>2016-04-08T14:06:49Z</time>
      </trkpt>
      <trkpt lat="46.22187" lon="2.42119">
        <ele>413</ele>
        <time>2016-04-08T14:06:52Z</time>
      </trkpt>
      <trkpt lat="46.22185" lon="2.42113">
        <ele>413</ele>
        <time>2016-04-08T14:06:55Z</time>
      </trkpt>
      <trkpt lat="46.22183" lon="2.42108">
        <ele>413</ele>
        <time>2016-04-08T14:06:58Z</time>
      </trkpt>
      <trkpt lat="46.2218" lon="2.42103">
        <ele>413</ele>
        <time>2016-04-08T14:07:01Z</time>
      </trkpt>
      <trkpt lat="46.22176" lon="2.42099">
        <ele>412</ele>
        <time>2016-04-08T14:07:04Z</time>
      </trkpt>
      <trkpt lat="46.22173" lon="2.42094">
        <ele>412</ele>
        <time>2016-04-08T14:07:07Z</time>
      </trkpt>
      <trkpt lat="46.2217" lon="2.4209">
        <ele>412</ele>
        <time>2016-04-08T14:07:10Z</time>
      </trkpt>
      <trkpt lat="46.22166" lon="2.42086">
        <ele>412</ele>
        <time>2016-04-08T14:07:13Z</time>
      </trkpt>
      <trkpt lat="46.22163" lon="2.42081">
        <ele>412</ele>
        <time>2016-04-08T14:07:16Z</time>
      </trkpt>
      <trkpt lat="46.22159" lon="2.42077">
        <ele>412</ele>
        <time>2016-04-08T14:07:19Z</time>
      </trkpt>
      <trkpt lat="46.22156" lon="2.42073">
        <ele>412</ele>
        <time>2016-04-08T14:07:22Z</time>
      </trkpt>
      <trkpt lat="46.22151" lon="2.42067">
        <ele>412</ele>
        <time>2016-04-08T14:07:26Z</time>
      </trkpt>
      <trkpt lat="46.22148" lon="2.42063">
        <ele>412</ele>
        <time>2016-04-08T14:07:29Z</time>
      </trkpt>
      <trkpt lat="46.22145" lon="2.42058">
        <ele>412</ele>
        <time>2016-04-08T14:07:32Z</time>
      </trkpt>
      <trkpt lat="46.22142" lon="2.42054">
        <ele>412</ele>
        <time>2016-04-08T14:07:35Z</time>
      </trkpt>
      <trkpt lat="46.22138" lon="2.4205">
        <ele>412</ele>
        <time>2016-04-08T14:07:38Z</time>
      </trkpt>
      <trkpt lat="46.22135" lon="2.42044">
        <ele>412</ele>
        <time>2016-04-08T14:07:41Z</time>
      </trkpt>
      <trkpt lat="46.22132" lon="2.42039">
        <ele>412</ele>
        <time>2016-04-08T14:07:44Z</time>
      </trkpt>
      <trkpt lat="46.22128" lon="2.42034">
        <ele>412</ele>
        <time>2016-04-08T14:07:48Z</time>
      </trkpt>
      <trkpt lat="46.22123" lon="2.42028">
        <ele>412</ele>
        <time>2016-04-08T14:07:52Z</time>
      </trkpt>
      <trkpt lat="46.22119" lon="2.42022">
        <ele>412</ele>
        <time>2016-04-08T14:07:56Z</time>
      </trkpt>
      <trkpt lat="46.22113" lon="2.42019">
        <ele>412</ele>
        <time>2016-04-08T14:08:00Z</time>
      </trkpt>
      <trkpt lat="46.22109" lon="2.42017">
        <ele>412</ele>
        <time>2016-04-08T14:08:03Z</time>
      </trkpt>
      <trkpt lat="46.22103" lon="2.42015">
        <ele>411</ele>
        <time>2016-04-08T14:08:07Z</time>
      </trkpt>
      <trkpt lat="46.22098" lon="2.42013">
        <ele>411</ele>
        <time>2016-04-08T14:08:10Z</time>
      </trkpt>
      <trkpt lat="46.22094" lon="2.42012">
        <ele>411</ele>
        <time>2016-04-08T14:08:13Z</time>
      </trkpt>
      <trkpt lat="46.22089" lon="2.42011">
        <ele>411</ele>
        <time>2016-04-08T14:08:16Z</time>
      </trkpt>
      <trkpt lat="46.22083" lon="2.42011">
        <ele>411</ele>
        <time>2016-04-08T14:08:20Z</time>
      </trkpt>
      <trkpt lat="46.22076" lon="2.42009">
        <ele>411</ele>
        <time>2016-04-08T14:08:24Z</time>
      </trkpt>
      <trkpt lat="46.2207" lon="2.42008">
        <ele>411</ele>
        <time>2016-04-08T14:08:28Z</time>
      </trkpt>
      <trkpt lat="46.22066" lon="2.42007">
        <ele>411</ele>
        <time>2016-04-08T14:08:31Z</time>
      </trkpt>
      <trkpt lat="46.2206" lon="2.42006">
        <ele>411</ele>
        <time>2016-04-08T14:08:35Z</time>
      </trkpt>
      <trkpt lat="46.22055" lon="2.42006">
        <ele>410</ele>
        <time>2016-04-08T14:08:38Z</time>
      </trkpt>
      <trkpt lat="46.22051" lon="2.42005">
        <ele>410</ele>
        <time>2016-04-08T14:08:41Z</time>
      </trkpt>
      <trkpt lat="46.22045" lon="2.42004">
        <ele>410</ele>
        <time>2016-04-08T14:08:45Z</time>
      </trkpt>
      <trkpt lat="46.22039" lon="2.42004">
        <ele>410</ele>
        <time>2016-04-08T14:08:49Z</time>
      </trkpt>
      <trkpt lat="46.22034" lon="2.42003">
        <ele>410</ele>
        <time>2016-04-08T14:08:52Z</time>
      </trkpt>
      <trkpt lat="46.22028" lon="2.42002">
        <ele>410</ele>
        <time>2016-04-08T14:08:56Z</time>
      </trkpt>
      <trkpt lat="46.22022" lon="2.42001">
        <ele>410</ele>
        <time>2016-04-08T14:09:00Z</time>
      </trkpt>
      <trkpt lat="46.22016" lon="2.42">
        <ele>410</ele>
        <time>2016-04-08T14:09:04Z</time>
      </trkpt>
      <trkpt lat="46.2201" lon="2.41999">
        <ele>410</ele>
        <time>2016-04-08T14:09:08Z</time>
      </trkpt>
      <trkpt lat="46.22005" lon="2.41999">
        <ele>410</ele>
        <time>2016-04-08T14:09:11Z</time>
      </trkpt>
      <trkpt lat="46.21999" lon="2.41998">
        <ele>410</ele>
        <time>2016-04-08T14:09:15Z</time>
      </trkpt>
      <trkpt lat="46.21995" lon="2.41997">
        <ele>410</ele>
        <time>2016-04-08T14:09:18Z</time>
      </trkpt>
      <trkpt lat="46.2199" lon="2.41996">
        <ele>410</ele>
        <time>2016-04-08T14:09:21Z</time>
      </trkpt>
      <trkpt lat="46.21986" lon="2.41996">
        <ele>410</ele>
        <time>2016-04-08T14:09:24Z</time>
      </trkpt>
      <trkpt lat="46.21981" lon="2.41995">
        <ele>410</ele>
        <time>2016-04-08T14:09:27Z</time>
      </trkpt>
      <trkpt lat="46.21977" lon="2.41994">
        <ele>410</ele>
        <time>2016-04-08T14:09:30Z</time>
      </trkpt>
      <trkpt lat="46.21973" lon="2.41994">
        <ele>409</ele>
        <time>2016-04-08T14:09:33Z</time>
      </trkpt>
      <trkpt lat="46.21968" lon="2.41994">
        <ele>409</ele>
        <time>2016-04-08T14:09:36Z</time>
      </trkpt>
      <trkpt lat="46.21964" lon="2.41993">
        <ele>409</ele>
        <time>2016-04-08T14:09:39Z</time>
      </trkpt>
      <trkpt lat="46.21959" lon="2.41993">
        <ele>409</ele>
        <time>2016-04-08T14:09:42Z</time>
      </trkpt>
      <trkpt lat="46.21954" lon="2.41992">
        <ele>409</ele>
        <time>2016-04-08T14:09:45Z</time>
      </trkpt>
      <trkpt lat="46.2195" lon="2.41991">
        <ele>409</ele>
        <time>2016-04-08T14:09:48Z</time>
      </trkpt>
      <trkpt lat="46.21945" lon="2.41991">
        <ele>409</ele>
        <time>2016-04-08T14:09:51Z</time>
      </trkpt>
      <trkpt lat="46.21941" lon="2.4199">
        <ele>409</ele>
        <time>2016-04-08T14:09:54Z</time>
      </trkpt>
      <trkpt lat="46.21936" lon="2.41987">
        <ele>409</ele>
        <time>2016-04-08T14:09:57Z</time>
      </trkpt>
      <trkpt lat="46.21932" lon="2.41987">
        <ele>409</ele>
        <time>2016-04-08T14:10:00Z</time>
      </trkpt>
      <trkpt lat="46.21927" lon="2.41987">
        <ele>409</ele>
        <time>2016-04-08T14:10:03Z</time>
      </trkpt>
      <trkpt lat="46.21923" lon="2.41987">
        <ele>409</ele>
        <time>2016-04-08T14:10:06Z</time>
      </trkpt>
      <trkpt lat="46.21918" lon="2.41989">
        <ele>409</ele>
        <time>2016-04-08T14:10:09Z</time>
      </trkpt>
      <trkpt lat="46.21914" lon="2.4199">
        <ele>409</ele>
        <time>2016-04-08T14:10:12Z</time>
      </trkpt>
      <trkpt lat="46.2191" lon="2.41992">
        <ele>409</ele>
        <time>2016-04-08T14:10:15Z</time>
      </trkpt>
      <trkpt lat="46.21906" lon="2.41993">
        <ele>409</ele>
        <time>2016-04-08T14:10:18Z</time>
      </trkpt>
      <trkpt lat="46.21902" lon="2.41995">
        <ele>409</ele>
        <time>2016-04-08T14:10:21Z</time>
      </trkpt>
      <trkpt lat="46.21898" lon="2.41997">
        <ele>409</ele>
        <time>2016-04-08T14:10:24Z</time>
      </trkpt>
      <trkpt lat="46.21894" lon="2.42">
        <ele>409</ele>
        <time>2016-04-08T14:10:27Z</time>
      </trkpt>
      <trkpt lat="46.2189" lon="2.42003">
        <ele>409</ele>
        <time>2016-04-08T14:10:30Z</time>
      </trkpt>
      <trkpt lat="46.21886" lon="2.42006">
        <ele>409</ele>
        <time>2016-04-08T14:10:33Z</time>
      </trkpt>
      <trkpt lat="46.21882" lon="2.4201">
        <ele>409</ele>
        <time>2016-04-08T14:10:36Z</time>
      </trkpt>
      <trkpt lat="46.21878" lon="2.42014">
        <ele>409</ele>
        <time>2016-04-08T14:10:39Z</time>
      </trkpt>
      <trkpt lat="46.21875" lon="2.42018">
        <ele>409</ele>
        <time>2016-04-08T14:10:42Z</time>
      </trkpt>
      <trkpt lat="46.21869" lon="2.42022">
        <ele>409</ele>
        <time>2016-04-08T14:10:46Z</time>
      </trkpt>
      <trkpt lat="46.21865" lon="2.42026">
        <ele>409</ele>
        <time>2016-04-08T14:10:49Z</time>
      </trkpt>
      <trkpt lat="46.21862" lon="2.4203">
        <ele>409</ele>
        <time>2016-04-08T14:10:52Z</time>
      </trkpt>
      <trkpt lat="46.21857" lon="2.42036">
        <ele>409</ele>
        <time>2016-04-08T14:10:56Z</time>
      </trkpt>
      <trkpt lat="46.21854" lon="2.4204">
        <ele>409</ele>
        <time>2016-04-08T14:10:59Z</time>
      </trkpt>
      <trkpt lat="46.21849" lon="2.42045">
        <ele>409</ele>
        <time>2016-04-08T14:11:03Z</time>
      </trkpt>
      <trkpt lat="46.21846" lon="2.4205">
        <ele>409</ele>
        <time>2016-04-08T14:11:06Z</time>
      </trkpt>
      <trkpt lat="46.21842" lon="2.42054">
        <ele>409</ele>
        <time>2016-04-08T14:11:09Z</time>
      </trkpt>
      <trkpt lat="46.21838" lon="2.42058">
        <ele>409</ele>
        <time>2016-04-08T14:11:12Z</time>
      </trkpt>
      <trkpt lat="46.21834" lon="2.42062">
        <ele>409</ele>
        <time>2016-04-08T14:11:15Z</time>
      </trkpt>
      <trkpt lat="46.21831" lon="2.42066">
        <ele>409</ele>
        <time>2016-04-08T14:11:18Z</time>
      </trkpt>
      <trkpt lat="46.21827" lon="2.42071">
        <ele>409</ele>
        <time>2016-04-08T14:11:21Z</time>
      </trkpt>
      <trkpt lat="46.21823" lon="2.42075">
        <ele>409</ele>
        <time>2016-04-08T14:11:24Z</time>
      </trkpt>
      <trkpt lat="46.2182" lon="2.4208">
        <ele>409</ele>
        <time>2016-04-08T14:11:27Z</time>
      </trkpt>
      <trkpt lat="46.21817" lon="2.42086">
        <ele>409</ele>
        <time>2016-04-08T14:11:30Z</time>
      </trkpt>
      <trkpt lat="46.21814" lon="2.4209">
        <ele>409</ele>
        <time>2016-04-08T14:11:33Z</time>
      </trkpt>
      <trkpt lat="46.2181" lon="2.42094">
        <ele>409</ele>
        <time>2016-04-08T14:11:37Z</time>
      </trkpt>
      <trkpt lat="46.21806" lon="2.42097">
        <ele>409</ele>
        <time>2016-04-08T14:11:41Z</time>
      </trkpt>
      <trkpt lat="46.21803" lon="2.421">
        <ele>409</ele>
        <time>2016-04-08T14:11:44Z</time>
      </trkpt>
      <trkpt lat="46.21798" lon="2.42103">
        <ele>409</ele>
        <time>2016-04-08T14:11:47Z</time>
      </trkpt>
      <trkpt lat="46.21794" lon="2.42105">
        <ele>409</ele>
        <time>2016-04-08T14:11:50Z</time>
      </trkpt>
      <trkpt lat="46.21788" lon="2.42107">
        <ele>409</ele>
        <time>2016-04-08T14:11:54Z</time>
      </trkpt>
      <trkpt lat="46.21782" lon="2.42108">
        <ele>409</ele>
        <time>2016-04-08T14:11:58Z</time>
      </trkpt>
      <trkpt lat="46.21777" lon="2.42108">
        <ele>409</ele>
        <time>2016-04-08T14:12:02Z</time>
      </trkpt>
      <trkpt lat="46.21772" lon="2.42107">
        <ele>409</ele>
        <time>2016-04-08T14:12:05Z</time>
      </trkpt>
      <trkpt lat="46.21768" lon="2.42107">
        <ele>409</ele>
        <time>2016-04-08T14:12:08Z</time>
      </trkpt>
      <trkpt lat="46.21764" lon="2.42106">
        <ele>409</ele>
        <time>2016-04-08T14:12:11Z</time>
      </trkpt>
      <trkpt lat="46.21759" lon="2.42104">
        <ele>409</ele>
        <time>2016-04-08T14:12:14Z</time>
      </trkpt>
      <trkpt lat="46.21752" lon="2.42102">
        <ele>409</ele>
        <time>2016-04-08T14:12:18Z</time>
      </trkpt>
      <trkpt lat="46.21748" lon="2.42099">
        <ele>409</ele>
        <time>2016-04-08T14:12:21Z</time>
      </trkpt>
      <trkpt lat="46.21743" lon="2.42098">
        <ele>409</ele>
        <time>2016-04-08T14:12:24Z</time>
      </trkpt>
      <trkpt lat="46.21738" lon="2.42096">
        <ele>409</ele>
        <time>2016-04-08T14:12:27Z</time>
      </trkpt>
      <trkpt lat="46.21733" lon="2.42095">
        <ele>409</ele>
        <time>2016-04-08T14:12:30Z</time>
      </trkpt>
      <trkpt lat="46.21729" lon="2.42093">
        <ele>409</ele>
        <time>2016-04-08T14:12:33Z</time>
      </trkpt>
      <trkpt lat="46.21724" lon="2.42092">
        <ele>409</ele>
        <time>2016-04-08T14:12:36Z</time>
      </trkpt>
      <trkpt lat="46.21719" lon="2.42091">
        <ele>409</ele>
        <time>2016-04-08T14:12:39Z</time>
      </trkpt>
      <trkpt lat="46.21713" lon="2.42089">
        <ele>409</ele>
        <time>2016-04-08T14:12:43Z</time>
      </trkpt>
      <trkpt lat="46.21709" lon="2.42087">
        <ele>409</ele>
        <time>2016-04-08T14:12:46Z</time>
      </trkpt>
      <trkpt lat="46.21704" lon="2.42086">
        <ele>409</ele>
        <time>2016-04-08T14:12:49Z</time>
      </trkpt>
      <trkpt lat="46.21699" lon="2.42084">
        <ele>409</ele>
        <time>2016-04-08T14:12:52Z</time>
      </trkpt>
      <trkpt lat="46.21695" lon="2.42082">
        <ele>409</ele>
        <time>2016-04-08T14:12:55Z</time>
      </trkpt>
      <trkpt lat="46.2169" lon="2.42081">
        <ele>409</ele>
        <time>2016-04-08T14:12:58Z</time>
      </trkpt>
      <trkpt lat="46.21685" lon="2.42079">
        <ele>409</ele>
        <time>2016-04-08T14:13:01Z</time>
      </trkpt>
      <trkpt lat="46.21681" lon="2.42078">
        <ele>409</ele>
        <time>2016-04-08T14:13:04Z</time>
      </trkpt>
      <trkpt lat="46.21677" lon="2.42076">
        <ele>409</ele>
        <time>2016-04-08T14:13:07Z</time>
      </trkpt>
      <trkpt lat="46.21671" lon="2.42074">
        <ele>409</ele>
        <time>2016-04-08T14:13:11Z</time>
      </trkpt>
      <trkpt lat="46.21665" lon="2.42072">
        <ele>409</ele>
        <time>2016-04-08T14:13:15Z</time>
      </trkpt>
      <trkpt lat="46.21658" lon="2.42069">
        <ele>409</ele>
        <time>2016-04-08T14:13:19Z</time>
      </trkpt>
      <trkpt lat="46.21654" lon="2.42068">
        <ele>409</ele>
        <time>2016-04-08T14:13:22Z</time>
      </trkpt>
      <trkpt lat="46.2165" lon="2.42066">
        <ele>409</ele>
        <time>2016-04-08T14:13:25Z</time>
      </trkpt>
      <trkpt lat="46.21646" lon="2.42064">
        <ele>409</ele>
        <time>2016-04-08T14:13:28Z</time>
      </trkpt>
      <trkpt lat="46.21641" lon="2.42061">
        <ele>409</ele>
        <time>2016-04-08T14:13:31Z</time>
      </trkpt>
      <trkpt lat="46.21636" lon="2.42058">
        <ele>409</ele>
        <time>2016-04-08T14:13:34Z</time>
      </trkpt>
      <trkpt lat="46.21632" lon="2.42056">
        <ele>409</ele>
        <time>2016-04-08T14:13:37Z</time>
      </trkpt>
      <trkpt lat="46.21626" lon="2.42053">
        <ele>409</ele>
        <time>2016-04-08T14:13:41Z</time>
      </trkpt>
      <trkpt lat="46.21621" lon="2.42051">
        <ele>409</ele>
        <time>2016-04-08T14:13:44Z</time>
      </trkpt>
      <trkpt lat="46.21617" lon="2.42049">
        <ele>409</ele>
        <time>2016-04-08T14:13:47Z</time>
      </trkpt>
      <trkpt lat="46.21611" lon="2.42046">
        <ele>409</ele>
        <time>2016-04-08T14:13:51Z</time>
      </trkpt>
      <trkpt lat="46.21606" lon="2.42044">
        <ele>409</ele>
        <time>2016-04-08T14:13:54Z</time>
      </trkpt>
      <trkpt lat="46.216" lon="2.4204">
        <ele>409</ele>
        <time>2016-04-08T14:13:58Z</time>
      </trkpt>
      <trkpt lat="46.21594" lon="2.42037">
        <ele>409</ele>
        <time>2016-04-08T14:14:02Z</time>
      </trkpt>
      <trkpt lat="46.2159" lon="2.42035">
        <ele>409</ele>
        <time>2016-04-08T14:14:05Z</time>
      </trkpt>
      <trkpt lat="46.21584" lon="2.42033">
        <ele>409</ele>
        <time>2016-04-08T14:14:09Z</time>
      </trkpt>
      <trkpt lat="46.21579" lon="2.4203">
        <ele>409</ele>
        <time>2016-04-08T14:14:12Z</time>
      </trkpt>
      <trkpt lat="46.21575" lon="2.42028">
        <ele>409</ele>
        <time>2016-04-08T14:14:15Z</time>
      </trkpt>
      <trkpt lat="46.21569" lon="2.42025">
        <ele>409</ele>
        <time>2016-04-08T14:14:19Z</time>
      </trkpt>
      <trkpt lat="46.21565" lon="2.42023">
        <ele>409</ele>
        <time>2016-04-08T14:14:22Z</time>
      </trkpt>
      <trkpt lat="46.2156" lon="2.4202">
        <ele>409</ele>
        <time>2016-04-08T14:14:26Z</time>
      </trkpt>
      <trkpt lat="46.21554" lon="2.42018">
        <ele>409</ele>
        <time>2016-04-08T14:14:30Z</time>
      </trkpt>
      <trkpt lat="46.21551" lon="2.42016">
        <ele>409</ele>
        <time>2016-04-08T14:14:33Z</time>
      </trkpt>
      <trkpt lat="46.21548" lon="2.42018">
        <ele>409</ele>
        <time>2016-04-08T14:14:36Z</time>
      </trkpt>
      <trkpt lat="46.21545" lon="2.42021">
        <ele>410</ele>
        <time>2016-04-08T14:14:40Z</time>
      </trkpt>
      <trkpt lat="46.21544" lon="2.42025">
        <ele>410</ele>
        <time>2016-04-08T14:14:43Z</time>
      </trkpt>
      <trkpt lat="46.21543" lon="2.4203">
        <ele>410</ele>
        <time>2016-04-08T14:14:46Z</time>
      </trkpt>
      <trkpt lat="46.21542" lon="2.42034">
        <ele>410</ele>
        <time>2016-04-08T14:14:50Z</time>
      </trkpt>
      <trkpt lat="46.21541" lon="2.4204">
        <ele>410</ele>
        <time>2016-04-08T14:14:54Z</time>
      </trkpt>
      <trkpt lat="46.21541" lon="2.42045">
        <ele>410</ele>
        <time>2016-04-08T14:14:57Z</time>
      </trkpt>
      <trkpt lat="46.2154" lon="2.4205">
        <ele>410</ele>
        <time>2016-04-08T14:15:00Z</time>
      </trkpt>
      <trkpt lat="46.21539" lon="2.42055">
        <ele>410</ele>
        <time>2016-04-08T14:15:03Z</time>
      </trkpt>
      <trkpt lat="46.21537" lon="2.42062">
        <ele>410</ele>
        <time>2016-04-08T14:15:07Z</time>
      </trkpt>
      <trkpt lat="46.21536" lon="2.4207">
        <ele>410</ele>
        <time>2016-04-08T14:15:11Z</time>
      </trkpt>
      <trkpt lat="46.21535" lon="2.42077">
        <ele>410</ele>
        <time>2016-04-08T14:15:14Z</time>
      </trkpt>
      <trkpt lat="46.21534" lon="2.42086">
        <ele>410</ele>
        <time>2016-04-08T14:15:18Z</time>
      </trkpt>
      <trkpt lat="46.21532" lon="2.42093">
        <ele>410</ele>
        <time>2016-04-08T14:15:21Z</time>
      </trkpt>
      <trkpt lat="46.21531" lon="2.421">
        <ele>410</ele>
        <time>2016-04-08T14:15:24Z</time>
      </trkpt>
      <trkpt lat="46.2153" lon="2.42108">
        <ele>410</ele>
        <time>2016-04-08T14:15:27Z</time>
      </trkpt>
      <trkpt lat="46.21529" lon="2.42116">
        <ele>410</ele>
        <time>2016-04-08T14:15:31Z</time>
      </trkpt>
      <trkpt lat="46.21528" lon="2.42123">
        <ele>410</ele>
        <time>2016-04-08T14:15:34Z</time>
      </trkpt>
      <trkpt lat="46.21526" lon="2.42132">
        <ele>411</ele>
        <time>2016-04-08T14:15:38Z</time>
      </trkpt>
      <trkpt lat="46.21526" lon="2.42139">
        <ele>411</ele>
        <time>2016-04-08T14:15:41Z</time>
      </trkpt>
      <trkpt lat="46.21524" lon="2.42144">
        <ele>411</ele>
        <time>2016-04-08T14:15:44Z</time>
      </trkpt>
      <trkpt lat="46.21523" lon="2.42151">
        <ele>411</ele>
        <time>2016-04-08T14:15:47Z</time>
      </trkpt>
      <trkpt lat="46.21523" lon="2.42158">
        <ele>411</ele>
        <time>2016-04-08T14:15:50Z</time>
      </trkpt>
      <trkpt lat="46.21521" lon="2.42166">
        <ele>411</ele>
        <time>2016-04-08T14:15:54Z</time>
      </trkpt>
      <trkpt lat="46.2152" lon="2.42173">
        <ele>411</ele>
        <time>2016-04-08T14:15:57Z</time>
      </trkpt>
      <trkpt lat="46.21519" lon="2.42179">
        <ele>411</ele>
        <time>2016-04-08T14:16:00Z</time>
      </trkpt>
      <trkpt lat="46.21518" lon="2.42186">
        <ele>411</ele>
        <time>2016-04-08T14:16:03Z</time>
      </trkpt>
      <trkpt lat="46.21518" lon="2.42192">
        <ele>411</ele>
        <time>2016-04-08T14:16:06Z</time>
      </trkpt>
      <trkpt lat="46.21516" lon="2.42201">
        <ele>411</ele>
        <time>2016-04-08T14:16:10Z</time>
      </trkpt>
      <trkpt lat="46.21514" lon="2.4221">
        <ele>411</ele>
        <time>2016-04-08T14:16:14Z</time>
      </trkpt>
      <trkpt lat="46.21513" lon="2.42218">
        <ele>411</ele>
        <time>2016-04-08T14:16:18Z</time>
      </trkpt>
      <trkpt lat="46.21511" lon="2.42226">
        <ele>411</ele>
        <time>2016-04-08T14:16:22Z</time>
      </trkpt>
      <trkpt lat="46.2151" lon="2.42232">
        <ele>411</ele>
        <time>2016-04-08T14:16:25Z</time>
      </trkpt>
      <trkpt lat="46.21507" lon="2.42239">
        <ele>411</ele>
        <time>2016-04-08T14:16:29Z</time>
      </trkpt>
      <trkpt lat="46.21504" lon="2.42244">
        <ele>411</ele>
        <time>2016-04-08T14:16:32Z</time>
      </trkpt>
      <trkpt lat="46.21502" lon="2.4225">
        <ele>411</ele>
        <time>2016-04-08T14:16:35Z</time>
      </trkpt>
      <trkpt lat="46.21498" lon="2.42255">
        <ele>411</ele>
        <time>2016-04-08T14:16:38Z</time>
      </trkpt>
      <trkpt lat="46.21495" lon="2.42264">
        <ele>411</ele>
        <time>2016-04-08T14:16:42Z</time>
      </trkpt>
      <trkpt lat="46.21492" lon="2.42272">
        <ele>411</ele>
        <time>2016-04-08T14:16:46Z</time>
      </trkpt>
      <trkpt lat="46.21489" lon="2.42277">
        <ele>411</ele>
        <time>2016-04-08T14:16:49Z</time>
      </trkpt>
      <trkpt lat="46.21486" lon="2.42283">
        <ele>411</ele>
        <time>2016-04-08T14:16:52Z</time>
      </trkpt>
      <trkpt lat="46.21484" lon="2.42288">
        <ele>411</ele>
        <time>2016-04-08T14:16:55Z</time>
      </trkpt>
      <trkpt lat="46.21481" lon="2.42295">
        <ele>411</ele>
        <time>2016-04-08T14:16:58Z</time>
      </trkpt>
      <trkpt lat="46.21478" lon="2.42303">
        <ele>411</ele>
        <time>2016-04-08T14:17:02Z</time>
      </trkpt>
      <trkpt lat="46.21474" lon="2.4231">
        <ele>411</ele>
        <time>2016-04-08T14:17:06Z</time>
      </trkpt>
      <trkpt lat="46.21472" lon="2.42316">
        <ele>411</ele>
        <time>2016-04-08T14:17:09Z</time>
      </trkpt>
      <trkpt lat="46.21469" lon="2.42322">
        <ele>411</ele>
        <time>2016-04-08T14:17:12Z</time>
      </trkpt>
      <trkpt lat="46.21467" lon="2.42327">
        <ele>411</ele>
        <time>2016-04-08T14:17:15Z</time>
      </trkpt>
      <trkpt lat="46.21465" lon="2.42333">
        <ele>411</ele>
        <time>2016-04-08T14:17:18Z</time>
      </trkpt>
      <trkpt lat="46.21462" lon="2.42339">
        <ele>411</ele>
        <time>2016-04-08T14:17:21Z</time>
      </trkpt>
      <trkpt lat="46.2146" lon="2.42344">
        <ele>411</ele>
        <time>2016-04-08T14:17:24Z</time>
      </trkpt>
      <trkpt lat="46.21457" lon="2.42349">
        <ele>411</ele>
        <time>2016-04-08T14:17:27Z</time>
      </trkpt>
      <trkpt lat="46.21455" lon="2.42355">
        <ele>411</ele>
        <time>2016-04-08T14:17:30Z</time>
      </trkpt>
      <trkpt lat="46.21452" lon="2.4236">
        <ele>411</ele>
        <time>2016-04-08T14:17:33Z</time>
      </trkpt>
      <trkpt lat="46.21449" lon="2.42366">
        <ele>411</ele>
        <time>2016-04-08T14:17:36Z</time>
      </trkpt>
      <trkpt lat="46.21447" lon="2.42371">
        <ele>411</ele>
        <time>2016-04-08T14:17:39Z</time>
      </trkpt>
      <trkpt lat="46.21444" lon="2.42376">
        <ele>411</ele>
        <time>2016-04-08T14:17:42Z</time>
      </trkpt>
      <trkpt lat="46.21442" lon="2.42382">
        <ele>411</ele>
        <time>2016-04-08T14:17:45Z</time>
      </trkpt>
      <trkpt lat="46.21438" lon="2.42389">
        <ele>411</ele>
        <time>2016-04-08T14:17:49Z</time>
      </trkpt>
      <trkpt lat="46.21436" lon="2.42395">
        <ele>411</ele>
        <time>2016-04-08T14:17:53Z</time>
      </trkpt>
      <trkpt lat="46.21433" lon="2.424">
        <ele>411</ele>
        <time>2016-04-08T14:17:56Z</time>
      </trkpt>
      <trkpt lat="46.21431" lon="2.42406">
        <ele>411</ele>
        <time>2016-04-08T14:17:59Z</time>
      </trkpt>
      <trkpt lat="46.21428" lon="2.42411">
        <ele>411</ele>
        <time>2016-04-08T14:18:02Z</time>
      </trkpt>
      <trkpt lat="46.21426" lon="2.42416">
        <ele>411</ele>
        <time>2016-04-08T14:18:05Z</time>
      </trkpt>
      <trkpt lat="46.21423" lon="2.42424">
        <ele>411</ele>
        <time>2016-04-08T14:18:09Z</time>
      </trkpt>
      <trkpt lat="46.2142" lon="2.42429">
        <ele>411</ele>
        <time>2016-04-08T14:18:12Z</time>
      </trkpt>
      <trkpt lat="46.21417" lon="2.42435">
        <ele>411</ele>
        <time>2016-04-08T14:18:15Z</time>
      </trkpt>
      <trkpt lat="46.21414" lon="2.42442">
        <ele>411</ele>
        <time>2016-04-08T14:18:19Z</time>
      </trkpt>
      <trkpt lat="46.21412" lon="2.42447">
        <ele>411</ele>
        <time>2016-04-08T14:18:22Z</time>
      </trkpt>
      <trkpt lat="46.2141" lon="2.42452">
        <ele>411</ele>
        <time>2016-04-08T14:18:25Z</time>
      </trkpt>
      <trkpt lat="46.21406" lon="2.42459">
        <ele>411</ele>
        <time>2016-04-08T14:18:29Z</time>
      </trkpt>
      <trkpt lat="46.21404" lon="2.42463">
        <ele>411</ele>
        <time>2016-04-08T14:18:32Z</time>
      </trkpt>
      <trkpt lat="46.21402" lon="2.42469">
        <ele>411</ele>
        <time>2016-04-08T14:18:35Z</time>
      </trkpt>
      <trkpt lat="46.21399" lon="2.42476">
        <ele>411</ele>
        <time>2016-04-08T14:18:39Z</time>
      </trkpt>
      <trkpt lat="46.21397" lon="2.42482">
        <ele>411</ele>
        <time>2016-04-08T14:18:42Z</time>
      </trkpt>
      <trkpt lat="46.21394" lon="2.42488">
        <ele>411</ele>
        <time>2016-04-08T14:18:45Z</time>
      </trkpt>
      <trkpt lat="46.2139" lon="2.42495">
        <ele>411</ele>
        <time>2016-04-08T14:18:49Z</time>
      </trkpt>
      <trkpt lat="46.21387" lon="2.42502">
        <ele>411</ele>
        <time>2016-04-08T14:18:53Z</time>
      </trkpt>
      <trkpt lat="46.21384" lon="2.42507">
        <ele>411</ele>
        <time>2016-04-08T14:18:56Z</time>
      </trkpt>
      <trkpt lat="46.21382" lon="2.42513">
        <ele>411</ele>
        <time>2016-04-08T14:18:59Z</time>
      </trkpt>
      <trkpt lat="46.21379" lon="2.42519">
        <ele>411</ele>
        <time>2016-04-08T14:19:03Z</time>
      </trkpt>
      <trkpt lat="46.21376" lon="2.42525">
        <ele>411</ele>
        <time>2016-04-08T14:19:06Z</time>
      </trkpt>
      <trkpt lat="46.21374" lon="2.4253">
        <ele>411</ele>
        <time>2016-04-08T14:19:09Z</time>
      </trkpt>
      <trkpt lat="46.21371" lon="2.42535">
        <ele>411</ele>
        <time>2016-04-08T14:19:12Z</time>
      </trkpt>
      <trkpt lat="46.21368" lon="2.4254">
        <ele>412</ele>
        <time>2016-04-08T14:19:15Z</time>
      </trkpt>
      <trkpt lat="46.21365" lon="2.42547">
        <ele>412</ele>
        <time>2016-04-08T14:19:19Z</time>
      </trkpt>
      <trkpt lat="46.21363" lon="2.42552">
        <ele>412</ele>
        <time>2016-04-08T14:19:22Z</time>
      </trkpt>
      <trkpt lat="46.2136" lon="2.42557">
        <ele>412</ele>
        <time>2016-04-08T14:19:25Z</time>
      </trkpt>
      <trkpt lat="46.21356" lon="2.42563">
        <ele>412</ele>
        <time>2016-04-08T14:19:29Z</time>
      </trkpt>
      <trkpt lat="46.21354" lon="2.42568">
        <ele>412</ele>
        <time>2016-04-08T14:19:32Z</time>
      </trkpt>
      <trkpt lat="46.21351" lon="2.42573">
        <ele>412</ele>
        <time>2016-04-08T14:19:35Z</time>
      </trkpt>
      <trkpt lat="46.21348" lon="2.4258">
        <ele>412</ele>
        <time>2016-04-08T14:19:39Z</time>
      </trkpt>
      <trkpt lat="46.21345" lon="2.42584">
        <ele>412</ele>
        <time>2016-04-08T14:19:42Z</time>
      </trkpt>
      <trkpt lat="46.21342" lon="2.4259">
        <ele>412</ele>
        <time>2016-04-08T14:19:45Z</time>
      </trkpt>
      <trkpt lat="46.21339" lon="2.42597">
        <ele>412</ele>
        <time>2016-04-08T14:19:49Z</time>
      </trkpt>
      <trkpt lat="46.21336" lon="2.42602">
        <ele>412</ele>
        <time>2016-04-08T14:19:52Z</time>
      </trkpt>
      <trkpt lat="46.21334" lon="2.42607">
        <ele>412</ele>
        <time>2016-04-08T14:19:55Z</time>
      </trkpt>
      <trkpt lat="46.2133" lon="2.42614">
        <ele>412</ele>
        <time>2016-04-08T14:19:59Z</time>
      </trkpt>
      <trkpt lat="46.21327" lon="2.42618">
        <ele>412</ele>
        <time>2016-04-08T14:20:02Z</time>
      </trkpt>
      <trkpt lat="46.21324" lon="2.42625">
        <ele>412</ele>
        <time>2016-04-08T14:20:06Z</time>
      </trkpt>
      <trkpt lat="46.21321" lon="2.4263">
        <ele>412</ele>
        <time>2016-04-08T14:20:09Z</time>
      </trkpt>
      <trkpt lat="46.21318" lon="2.42635">
        <ele>412</ele>
        <time>2016-04-08T14:20:12Z</time>
      </trkpt>
      <trkpt lat="46.21316" lon="2.4264">
        <ele>412</ele>
        <time>2016-04-08T14:20:15Z</time>
      </trkpt>
      <trkpt lat="46.21313" lon="2.42645">
        <ele>412</ele>
        <time>2016-04-08T14:20:18Z</time>
      </trkpt>
      <trkpt lat="46.2131" lon="2.4265">
        <ele>412</ele>
        <time>2016-04-08T14:20:21Z</time>
      </trkpt>
      <trkpt lat="46.21307" lon="2.42656">
        <ele>412</ele>
        <time>2016-04-08T14:20:25Z</time>
      </trkpt>
      <trkpt lat="46.21304" lon="2.42661">
        <ele>412</ele>
        <time>2016-04-08T14:20:28Z</time>
      </trkpt>
      <trkpt lat="46.21302" lon="2.42666">
        <ele>412</ele>
        <time>2016-04-08T14:20:31Z</time>
      </trkpt>
      <trkpt lat="46.21299" lon="2.42672">
        <ele>412</ele>
        <time>2016-04-08T14:20:35Z</time>
      </trkpt>
      <trkpt lat="46.21296" lon="2.42677">
        <ele>412</ele>
        <time>2016-04-08T14:20:38Z</time>
      </trkpt>
      <trkpt lat="46.21294" lon="2.42683">
        <ele>412</ele>
        <time>2016-04-08T14:20:41Z</time>
      </trkpt>
      <trkpt lat="46.21291" lon="2.42688">
        <ele>412</ele>
        <time>2016-04-08T14:20:44Z</time>
      </trkpt>
      <trkpt lat="46.21287" lon="2.42693">
        <ele>412</ele>
        <time>2016-04-08T14:20:47Z</time>
      </trkpt>
      <trkpt lat="46.21283" lon="2.427">
        <ele>412</ele>
        <time>2016-04-08T14:20:51Z</time>
      </trkpt>
      <trkpt lat="46.2128" lon="2.42705">
        <ele>412</ele>
        <time>2016-04-08T14:20:54Z</time>
      </trkpt>
      <trkpt lat="46.21277" lon="2.4271">
        <ele>412</ele>
        <time>2016-04-08T14:20:57Z</time>
      </trkpt>
      <trkpt lat="46.21274" lon="2.42716">
        <ele>412</ele>
        <time>2016-04-08T14:21:00Z</time>
      </trkpt>
      <trkpt lat="46.21271" lon="2.4272">
        <ele>412</ele>
        <time>2016-04-08T14:21:03Z</time>
      </trkpt>
      <trkpt lat="46.21269" lon="2.42725">
        <ele>412</ele>
        <time>2016-04-08T14:21:06Z</time>
      </trkpt>
      <trkpt lat="46.21266" lon="2.42731">
        <ele>412</ele>
        <time>2016-04-08T14:21:10Z</time>
      </trkpt>
      <trkpt lat="46.21263" lon="2.42736">
        <ele>412</ele>
        <time>2016-04-08T14:21:13Z</time>
      </trkpt>
      <trkpt lat="46.21261" lon="2.42742">
        <ele>412</ele>
        <time>2016-04-08T14:21:16Z</time>
      </trkpt>
      <trkpt lat="46.21258" lon="2.42747">
        <ele>412</ele>
        <time>2016-04-08T14:21:19Z</time>
      </trkpt>
      <trkpt lat="46.21256" lon="2.42752">
        <ele>412</ele>
        <time>2016-04-08T14:21:22Z</time>
      </trkpt>
      <trkpt lat="46.21253" lon="2.42759">
        <ele>412</ele>
        <time>2016-04-08T14:21:26Z</time>
      </trkpt>
      <trkpt lat="46.21251" lon="2.42765">
        <ele>412</ele>
        <time>2016-04-08T14:21:29Z</time>
      </trkpt>
      <trkpt lat="46.21249" lon="2.42771">
        <ele>412</ele>
        <time>2016-04-08T14:21:32Z</time>
      </trkpt>
      <trkpt lat="46.21246" lon="2.42776">
        <ele>413</ele>
        <time>2016-04-08T14:21:35Z</time>
      </trkpt>
      <trkpt lat="46.21244" lon="2.42781">
        <ele>413</ele>
        <time>2016-04-08T14:21:38Z</time>
      </trkpt>
      <trkpt lat="46.21242" lon="2.42787">
        <ele>413</ele>
        <time>2016-04-08T14:21:41Z</time>
      </trkpt>
      <trkpt lat="46.2124" lon="2.42792">
        <ele>413</ele>
        <time>2016-04-08T14:21:44Z</time>
      </trkpt>
      <trkpt lat="46.21237" lon="2.42798">
        <ele>413</ele>
        <time>2016-04-08T14:21:47Z</time>
      </trkpt>
      <trkpt lat="46.21234" lon="2.42804">
        <ele>413</ele>
        <time>2016-04-08T14:21:51Z</time>
      </trkpt>
      <trkpt lat="46.21232" lon="2.42811">
        <ele>413</ele>
        <time>2016-04-08T14:21:54Z</time>
      </trkpt>
      <trkpt lat="46.2123" lon="2.42816">
        <ele>413</ele>
        <time>2016-04-08T14:21:57Z</time>
      </trkpt>
      <trkpt lat="46.21228" lon="2.42822">
        <ele>413</ele>
        <time>2016-04-08T14:22:00Z</time>
      </trkpt>
      <trkpt lat="46.21227" lon="2.42827">
        <ele>413</ele>
        <time>2016-04-08T14:22:03Z</time>
      </trkpt>
      <trkpt lat="46.21225" lon="2.42833">
        <ele>413</ele>
        <time>2016-04-08T14:22:06Z</time>
      </trkpt>
      <trkpt lat="46.21223" lon="2.42837">
        <ele>413</ele>
        <time>2016-04-08T14:22:09Z</time>
      </trkpt>
      <trkpt lat="46.21221" lon="2.42843">
        <ele>413</ele>
        <time>2016-04-08T14:22:12Z</time>
      </trkpt>
      <trkpt lat="46.21219" lon="2.42849">
        <ele>413</ele>
        <time>2016-04-08T14:22:15Z</time>
      </trkpt>
      <trkpt lat="46.21216" lon="2.42854">
        <ele>413</ele>
        <time>2016-04-08T14:22:18Z</time>
      </trkpt>
      <trkpt lat="46.21214" lon="2.4286">
        <ele>413</ele>
        <time>2016-04-08T14:22:21Z</time>
      </trkpt>
      <trkpt lat="46.21213" lon="2.42866">
        <ele>413</ele>
        <time>2016-04-08T14:22:24Z</time>
      </trkpt>
      <trkpt lat="46.21212" lon="2.42873">
        <ele>413</ele>
        <time>2016-04-08T14:22:27Z</time>
      </trkpt>
      <trkpt lat="46.2121" lon="2.42879">
        <ele>413</ele>
        <time>2016-04-08T14:22:30Z</time>
      </trkpt>
      <trkpt lat="46.21209" lon="2.42884">
        <ele>413</ele>
        <time>2016-04-08T14:22:33Z</time>
      </trkpt>
      <trkpt lat="46.21208" lon="2.42888">
        <ele>413</ele>
        <time>2016-04-08T14:22:36Z</time>
      </trkpt>
      <trkpt lat="46.21205" lon="2.42893">
        <ele>413</ele>
        <time>2016-04-08T14:22:39Z</time>
      </trkpt>
      <trkpt lat="46.21202" lon="2.42899">
        <ele>413</ele>
        <time>2016-04-08T14:22:42Z</time>
      </trkpt>
      <trkpt lat="46.21199" lon="2.42904">
        <ele>414</ele>
        <time>2016-04-08T14:22:45Z</time>
      </trkpt>
      <trkpt lat="46.21196" lon="2.42908">
        <ele>415</ele>
        <time>2016-04-08T14:22:48Z</time>
      </trkpt>
      <trkpt lat="46.21194" lon="2.42914">
        <ele>415</ele>
        <time>2016-04-08T14:22:51Z</time>
      </trkpt>
      <trkpt lat="46.21191" lon="2.42919">
        <ele>415</ele>
        <time>2016-04-08T14:22:54Z</time>
      </trkpt>
      <trkpt lat="46.21188" lon="2.42925">
        <ele>415</ele>
        <time>2016-04-08T14:22:57Z</time>
      </trkpt>
      <trkpt lat="46.21184" lon="2.42931">
        <ele>415</ele>
        <time>2016-04-08T14:23:01Z</time>
      </trkpt>
      <trkpt lat="46.21182" lon="2.42937">
        <ele>415</ele>
        <time>2016-04-08T14:23:04Z</time>
      </trkpt>
      <trkpt lat="46.21179" lon="2.42942">
        <ele>415</ele>
        <time>2016-04-08T14:23:07Z</time>
      </trkpt>
      <trkpt lat="46.21177" lon="2.42947">
        <ele>415</ele>
        <time>2016-04-08T14:23:10Z</time>
      </trkpt>
      <trkpt lat="46.21174" lon="2.42952">
        <ele>415</ele>
        <time>2016-04-08T14:23:13Z</time>
      </trkpt>
      <trkpt lat="46.21172" lon="2.42957">
        <ele>415</ele>
        <time>2016-04-08T14:23:16Z</time>
      </trkpt>
      <trkpt lat="46.2117" lon="2.42963">
        <ele>415</ele>
        <time>2016-04-08T14:23:19Z</time>
      </trkpt>
      <trkpt lat="46.21167" lon="2.42967">
        <ele>415</ele>
        <time>2016-04-08T14:23:22Z</time>
      </trkpt>
      <trkpt lat="46.21165" lon="2.42972">
        <ele>415</ele>
        <time>2016-04-08T14:23:25Z</time>
      </trkpt>
      <trkpt lat="46.21162" lon="2.42976">
        <ele>416</ele>
        <time>2016-04-08T14:23:28Z</time>
      </trkpt>
      <trkpt lat="46.2116" lon="2.42981">
        <ele>416</ele>
        <time>2016-04-08T14:23:31Z</time>
      </trkpt>
      <trkpt lat="46.21156" lon="2.42987">
        <ele>416</ele>
        <time>2016-04-08T14:23:34Z</time>
      </trkpt>
      <trkpt lat="46.21152" lon="2.42992">
        <ele>416</ele>
        <time>2016-04-08T14:23:37Z</time>
      </trkpt>
      <trkpt lat="46.21149" lon="2.42998">
        <ele>416</ele>
        <time>2016-04-08T14:23:41Z</time>
      </trkpt>
      <trkpt lat="46.21147" lon="2.43002">
        <ele>416</ele>
        <time>2016-04-08T14:23:44Z</time>
      </trkpt>
      <trkpt lat="46.21145" lon="2.43006">
        <ele>416</ele>
        <time>2016-04-08T14:23:47Z</time>
      </trkpt>
      <trkpt lat="46.21141" lon="2.4301">
        <ele>416</ele>
        <time>2016-04-08T14:23:50Z</time>
      </trkpt>
      <trkpt lat="46.21138" lon="2.43013">
        <ele>416</ele>
        <time>2016-04-08T14:23:53Z</time>
      </trkpt>
      <trkpt lat="46.21134" lon="2.43017">
        <ele>416</ele>
        <time>2016-04-08T14:23:56Z</time>
      </trkpt>
      <trkpt lat="46.2113" lon="2.4302">
        <ele>416</ele>
        <time>2016-04-08T14:23:59Z</time>
      </trkpt>
      <trkpt lat="46.21126" lon="2.43024">
        <ele>416</ele>
        <time>2016-04-08T14:24:02Z</time>
      </trkpt>
      <trkpt lat="46.21123" lon="2.43027">
        <ele>416</ele>
        <time>2016-04-08T14:24:05Z</time>
      </trkpt>
      <trkpt lat="46.21119" lon="2.43032">
        <ele>416</ele>
        <time>2016-04-08T14:24:08Z</time>
      </trkpt>
      <trkpt lat="46.21116" lon="2.43038">
        <ele>416</ele>
        <time>2016-04-08T14:24:11Z</time>
      </trkpt>
      <trkpt lat="46.21112" lon="2.43042">
        <ele>417</ele>
        <time>2016-04-08T14:24:14Z</time>
      </trkpt>
      <trkpt lat="46.21109" lon="2.43046">
        <ele>417</ele>
        <time>2016-04-08T14:24:17Z</time>
      </trkpt>
      <trkpt lat="46.21106" lon="2.43051">
        <ele>417</ele>
        <time>2016-04-08T14:24:20Z</time>
      </trkpt>
      <trkpt lat="46.21102" lon="2.43057">
        <ele>417</ele>
        <time>2016-04-08T14:24:24Z</time>
      </trkpt>
      <trkpt lat="46.21099" lon="2.43061">
        <ele>417</ele>
        <time>2016-04-08T14:24:27Z</time>
      </trkpt>
      <trkpt lat="46.21095" lon="2.43065">
        <ele>417</ele>
        <time>2016-04-08T14:24:30Z</time>
      </trkpt>
      <trkpt lat="46.21092" lon="2.43068">
        <ele>418</ele>
        <time>2016-04-08T14:24:33Z</time>
      </trkpt>
      <trkpt lat="46.21088" lon="2.43071">
        <ele>419</ele>
        <time>2016-04-08T14:24:37Z</time>
      </trkpt>
      <trkpt lat="46.21084" lon="2.43074">
        <ele>419</ele>
        <time>2016-04-08T14:24:40Z</time>
      </trkpt>
      <trkpt lat="46.21081" lon="2.43078">
        <ele>419</ele>
        <time>2016-04-08T14:24:43Z</time>
      </trkpt>
      <trkpt lat="46.21077" lon="2.43081">
        <ele>419</ele>
        <time>2016-04-08T14:24:46Z</time>
      </trkpt>
      <trkpt lat="46.21074" lon="2.43085">
        <ele>419</ele>
        <time>2016-04-08T14:24:49Z</time>
      </trkpt>
      <trkpt lat="46.2107" lon="2.43089">
        <ele>419</ele>
        <time>2016-04-08T14:24:52Z</time>
      </trkpt>
      <trkpt lat="46.21066" lon="2.43094">
        <ele>419</ele>
        <time>2016-04-08T14:24:56Z</time>
      </trkpt>
      <trkpt lat="46.21062" lon="2.43098">
        <ele>419</ele>
        <time>2016-04-08T14:24:59Z</time>
      </trkpt>
      <trkpt lat="46.21059" lon="2.43102">
        <ele>419</ele>
        <time>2016-04-08T14:25:02Z</time>
      </trkpt>
      <trkpt lat="46.21056" lon="2.43104">
        <ele>419</ele>
        <time>2016-04-08T14:25:05Z</time>
      </trkpt>
      <trkpt lat="46.21052" lon="2.43106">
        <ele>419</ele>
        <time>2016-04-08T14:25:08Z</time>
      </trkpt>
      <trkpt lat="46.21047" lon="2.43106">
        <ele>419</ele>
        <time>2016-04-08T14:25:11Z</time>
      </trkpt>
      <trkpt lat="46.21043" lon="2.43106">
        <ele>419</ele>
        <time>2016-04-08T14:25:14Z</time>
      </trkpt>
      <trkpt lat="46.21037" lon="2.43105">
        <ele>419</ele>
        <time>2016-04-08T14:25:17Z</time>
      </trkpt>
      <trkpt lat="46.21033" lon="2.43103">
        <ele>419</ele>
        <time>2016-04-08T14:25:20Z</time>
      </trkpt>
      <trkpt lat="46.21029" lon="2.43102">
        <ele>419</ele>
        <time>2016-04-08T14:25:23Z</time>
      </trkpt>
      <trkpt lat="46.21025" lon="2.431">
        <ele>418</ele>
        <time>2016-04-08T14:25:26Z</time>
      </trkpt>
      <trkpt lat="46.21021" lon="2.43098">
        <ele>417</ele>
        <time>2016-04-08T14:25:29Z</time>
      </trkpt>
      <trkpt lat="46.21016" lon="2.43097">
        <ele>416</ele>
        <time>2016-04-08T14:25:32Z</time>
      </trkpt>
      <trkpt lat="46.21011" lon="2.43096">
        <ele>414</ele>
        <time>2016-04-08T14:25:35Z</time>
      </trkpt>
      <trkpt lat="46.21006" lon="2.43093">
        <ele>414</ele>
        <time>2016-04-08T14:25:38Z</time>
      </trkpt>
      <trkpt lat="46.21002" lon="2.43091">
        <ele>414</ele>
        <time>2016-04-08T14:25:41Z</time>
      </trkpt>
      <trkpt lat="46.20998" lon="2.43088">
        <ele>414</ele>
        <time>2016-04-08T14:25:44Z</time>
      </trkpt>
      <trkpt lat="46.20993" lon="2.43086">
        <ele>414</ele>
        <time>2016-04-08T14:25:47Z</time>
      </trkpt>
      <trkpt lat="46.20989" lon="2.43083">
        <ele>414</ele>
        <time>2016-04-08T14:25:50Z</time>
      </trkpt>
      <trkpt lat="46.20984" lon="2.43081">
        <ele>414</ele>
        <time>2016-04-08T14:25:54Z</time>
      </trkpt>
      <trkpt lat="46.2098" lon="2.43079">
        <ele>414</ele>
        <time>2016-04-08T14:25:57Z</time>
      </trkpt>
      <trkpt lat="46.20975" lon="2.43078">
        <ele>414</ele>
        <time>2016-04-08T14:26:00Z</time>
      </trkpt>
      <trkpt lat="46.20971" lon="2.43075">
        <ele>414</ele>
        <time>2016-04-08T14:26:03Z</time>
      </trkpt>
      <trkpt lat="46.20966" lon="2.43072">
        <ele>414</ele>
        <time>2016-04-08T14:26:06Z</time>
      </trkpt>
      <trkpt lat="46.20961" lon="2.4307">
        <ele>414</ele>
        <time>2016-04-08T14:26:09Z</time>
      </trkpt>
      <trkpt lat="46.20956" lon="2.43069">
        <ele>414</ele>
        <time>2016-04-08T14:26:12Z</time>
      </trkpt>
      <trkpt lat="46.20951" lon="2.43067">
        <ele>414</ele>
        <time>2016-04-08T14:26:16Z</time>
      </trkpt>
      <trkpt lat="46.20947" lon="2.43065">
        <ele>414</ele>
        <time>2016-04-08T14:26:19Z</time>
      </trkpt>
      <trkpt lat="46.20942" lon="2.43063">
        <ele>414</ele>
        <time>2016-04-08T14:26:22Z</time>
      </trkpt>
      <trkpt lat="46.20937" lon="2.43062">
        <ele>414</ele>
        <time>2016-04-08T14:26:25Z</time>
      </trkpt>
      <trkpt lat="46.20933" lon="2.43061">
        <ele>414</ele>
        <time>2016-04-08T14:26:28Z</time>
      </trkpt>
      <trkpt lat="46.20929" lon="2.43061">
        <ele>414</ele>
        <time>2016-04-08T14:26:31Z</time>
      </trkpt>
      <trkpt lat="46.20924" lon="2.43061">
        <ele>414</ele>
        <time>2016-04-08T14:26:34Z</time>
      </trkpt>
      <trkpt lat="46.20919" lon="2.43061">
        <ele>415</ele>
        <time>2016-04-08T14:26:37Z</time>
      </trkpt>
      <trkpt lat="46.20915" lon="2.43062">
        <ele>415</ele>
        <time>2016-04-08T14:26:40Z</time>
      </trkpt>
      <trkpt lat="46.20911" lon="2.43062">
        <ele>415</ele>
        <time>2016-04-08T14:26:43Z</time>
      </trkpt>
      <trkpt lat="46.20907" lon="2.43062">
        <ele>415</ele>
        <time>2016-04-08T14:26:46Z</time>
      </trkpt>
      <trkpt lat="46.20903" lon="2.4306">
        <ele>415</ele>
        <time>2016-04-08T14:26:49Z</time>
      </trkpt>
      <trkpt lat="46.20898" lon="2.4306">
        <ele>415</ele>
        <time>2016-04-08T14:26:52Z</time>
      </trkpt>
      <trkpt lat="46.20894" lon="2.43058">
        <ele>415</ele>
        <time>2016-04-08T14:26:55Z</time>
      </trkpt>
      <trkpt lat="46.20889" lon="2.43058">
        <ele>415</ele>
        <time>2016-04-08T14:26:58Z</time>
      </trkpt>
      <trkpt lat="46.20885" lon="2.43057">
        <ele>415</ele>
        <time>2016-04-08T14:27:01Z</time>
      </trkpt>
      <trkpt lat="46.20881" lon="2.43056">
        <ele>415</ele>
        <time>2016-04-08T14:27:04Z</time>
      </trkpt>
      <trkpt lat="46.20876" lon="2.43056">
        <ele>415</ele>
        <time>2016-04-08T14:27:07Z</time>
      </trkpt>
      <trkpt lat="46.20871" lon="2.43055">
        <ele>415</ele>
        <time>2016-04-08T14:27:10Z</time>
      </trkpt>
      <trkpt lat="46.20867" lon="2.43055">
        <ele>415</ele>
        <time>2016-04-08T14:27:13Z</time>
      </trkpt>
      <trkpt lat="46.20863" lon="2.43055">
        <ele>415</ele>
        <time>2016-04-08T14:27:16Z</time>
      </trkpt>
      <trkpt lat="46.20858" lon="2.43056">
        <ele>415</ele>
        <time>2016-04-08T14:27:19Z</time>
      </trkpt>
      <trkpt lat="46.20853" lon="2.43055">
        <ele>415</ele>
        <time>2016-04-08T14:27:22Z</time>
      </trkpt>
      <trkpt lat="46.20849" lon="2.43053">
        <ele>415</ele>
        <time>2016-04-08T14:27:25Z</time>
      </trkpt>
      <trkpt lat="46.20845" lon="2.43052">
        <ele>415</ele>
        <time>2016-04-08T14:27:28Z</time>
      </trkpt>
      <trkpt lat="46.2084" lon="2.4305">
        <ele>415</ele>
        <time>2016-04-08T14:27:31Z</time>
      </trkpt>
      <trkpt lat="46.20835" lon="2.43049">
        <ele>415</ele>
        <time>2016-04-08T14:27:34Z</time>
      </trkpt>
      <trkpt lat="46.20831" lon="2.43047">
        <ele>415</ele>
        <time>2016-04-08T14:27:37Z</time>
      </trkpt>
      <trkpt lat="46.20826" lon="2.43046">
        <ele>415</ele>
        <time>2016-04-08T14:27:40Z</time>
      </trkpt>
      <trkpt lat="46.20823" lon="2.43045">
        <ele>415</ele>
        <time>2016-04-08T14:27:43Z</time>
      </trkpt>
      <trkpt lat="46.20818" lon="2.43045">
        <ele>415</ele>
        <time>2016-04-08T14:27:46Z</time>
      </trkpt>
      <trkpt lat="46.20814" lon="2.43044">
        <ele>415</ele>
        <time>2016-04-08T14:27:49Z</time>
      </trkpt>
      <trkpt lat="46.2081" lon="2.43044">
        <ele>415</ele>
        <time>2016-04-08T14:27:52Z</time>
      </trkpt>
      <trkpt lat="46.20806" lon="2.43044">
        <ele>415</ele>
        <time>2016-04-08T14:27:55Z</time>
      </trkpt>
      <trkpt lat="46.20802" lon="2.43044">
        <ele>415</ele>
        <time>2016-04-08T14:27:58Z</time>
      </trkpt>
      <trkpt lat="46.20796" lon="2.43045">
        <ele>415</ele>
        <time>2016-04-08T14:28:01Z</time>
      </trkpt>
      <trkpt lat="46.20792" lon="2.43046">
        <ele>415</ele>
        <time>2016-04-08T14:28:04Z</time>
      </trkpt>
      <trkpt lat="46.20787" lon="2.43047">
        <ele>415</ele>
        <time>2016-04-08T14:28:07Z</time>
      </trkpt>
      <trkpt lat="46.20783" lon="2.43048">
        <ele>415</ele>
        <time>2016-04-08T14:28:10Z</time>
      </trkpt>
      <trkpt lat="46.2078" lon="2.4305">
        <ele>415</ele>
        <time>2016-04-08T14:28:13Z</time>
      </trkpt>
      <trkpt lat="46.20777" lon="2.43049">
        <ele>415</ele>
        <time>2016-04-08T14:28:16Z</time>
      </trkpt>
      <trkpt lat="46.20773" lon="2.4305">
        <ele>415</ele>
        <time>2016-04-08T14:28:20Z</time>
      </trkpt>
      <trkpt lat="46.20769" lon="2.43051">
        <ele>415</ele>
        <time>2016-04-08T14:28:23Z</time>
      </trkpt>
      <trkpt lat="46.20765" lon="2.43051">
        <ele>415</ele>
        <time>2016-04-08T14:28:26Z</time>
      </trkpt>
      <trkpt lat="46.2076" lon="2.43052">
        <ele>415</ele>
        <time>2016-04-08T14:28:29Z</time>
      </trkpt>
      <trkpt lat="46.20756" lon="2.43054">
        <ele>415</ele>
        <time>2016-04-08T14:28:32Z</time>
      </trkpt>
      <trkpt lat="46.20752" lon="2.43056">
        <ele>415</ele>
        <time>2016-04-08T14:28:35Z</time>
      </trkpt>
      <trkpt lat="46.20749" lon="2.43058">
        <ele>415</ele>
        <time>2016-04-08T14:28:38Z</time>
      </trkpt>
      <trkpt lat="46.20745" lon="2.4306">
        <ele>415</ele>
        <time>2016-04-08T14:28:41Z</time>
      </trkpt>
      <trkpt lat="46.20741" lon="2.43064">
        <ele>415</ele>
        <time>2016-04-08T14:28:45Z</time>
      </trkpt>
      <trkpt lat="46.20737" lon="2.43067">
        <ele>416</ele>
        <time>2016-04-08T14:28:48Z</time>
      </trkpt>
      <trkpt lat="46.20736" lon="2.43072">
        <ele>418</ele>
        <time>2016-04-08T14:28:51Z</time>
      </trkpt>
      <trkpt lat="46.20734" lon="2.43076">
        <ele>419</ele>
        <time>2016-04-08T14:28:54Z</time>
      </trkpt>
      <trkpt lat="46.20733" lon="2.43081">
        <ele>420</ele>
        <time>2016-04-08T14:28:57Z</time>
      </trkpt>
      <trkpt lat="46.20732" lon="2.43086">
        <ele>421</ele>
        <time>2016-04-08T14:29:00Z</time>
      </trkpt>
      <trkpt lat="46.20732" lon="2.43092">
        <ele>422</ele>
        <time>2016-04-08T14:29:03Z</time>
      </trkpt>
      <trkpt lat="46.20732" lon="2.43097">
        <ele>422</ele>
        <time>2016-04-08T14:29:06Z</time>
      </trkpt>
      <trkpt lat="46.20734" lon="2.43102">
        <ele>423</ele>
        <time>2016-04-08T14:29:09Z</time>
      </trkpt>
      <trkpt lat="46.20737" lon="2.43108">
        <ele>423</ele>
        <time>2016-04-08T14:29:13Z</time>
      </trkpt>
      <trkpt lat="46.20742" lon="2.43112">
        <ele>424</ele>
        <time>2016-04-08T14:29:17Z</time>
      </trkpt>
      <trkpt lat="46.20745" lon="2.43115">
        <ele>425</ele>
        <time>2016-04-08T14:29:20Z</time>
      </trkpt>
      <trkpt lat="46.20749" lon="2.43119">
        <ele>425</ele>
        <time>2016-04-08T14:29:24Z</time>
      </trkpt>
      <trkpt lat="46.20752" lon="2.43122">
        <ele>425</ele>
        <time>2016-04-08T14:29:27Z</time>
      </trkpt>
      <trkpt lat="46.20753" lon="2.43127">
        <ele>426</ele>
        <time>2016-04-08T14:29:30Z</time>
      </trkpt>
      <trkpt lat="46.20753" lon="2.43133">
        <ele>426</ele>
        <time>2016-04-08T14:29:33Z</time>
      </trkpt>
      <trkpt lat="46.20753" lon="2.43138">
        <ele>426</ele>
        <time>2016-04-08T14:29:36Z</time>
      </trkpt>
      <trkpt lat="46.20752" lon="2.43144">
        <ele>426</ele>
        <time>2016-04-08T14:29:39Z</time>
      </trkpt>
      <trkpt lat="46.20751" lon="2.4315">
        <ele>426</ele>
        <time>2016-04-08T14:29:42Z</time>
      </trkpt>
      <trkpt lat="46.20751" lon="2.43156">
        <ele>427</ele>
        <time>2016-04-08T14:29:45Z</time>
      </trkpt>
      <trkpt lat="46.20749" lon="2.43162">
        <ele>427</ele>
        <time>2016-04-08T14:29:48Z</time>
      </trkpt>
      <trkpt lat="46.20749" lon="2.43168">
        <ele>427</ele>
        <time>2016-04-08T14:29:51Z</time>
      </trkpt>
      <trkpt lat="46.20747" lon="2.43173">
        <ele>427</ele>
        <time>2016-04-08T14:29:54Z</time>
      </trkpt>
      <trkpt lat="46.20746" lon="2.4318">
        <ele>427</ele>
        <time>2016-04-08T14:29:57Z</time>
      </trkpt>
      <trkpt lat="46.20746" lon="2.43186">
        <ele>427</ele>
        <time>2016-04-08T14:30:00Z</time>
      </trkpt>
      <trkpt lat="46.20745" lon="2.43192">
        <ele>427</ele>
        <time>2016-04-08T14:30:03Z</time>
      </trkpt>
      <trkpt lat="46.20743" lon="2.43198">
        <ele>427</ele>
        <time>2016-04-08T14:30:06Z</time>
      </trkpt>
      <trkpt lat="46.20741" lon="2.43205">
        <ele>427</ele>
        <time>2016-04-08T14:30:09Z</time>
      </trkpt>
      <trkpt lat="46.20739" lon="2.4321">
        <ele>427</ele>
        <time>2016-04-08T14:30:12Z</time>
      </trkpt>
      <trkpt lat="46.20737" lon="2.43215">
        <ele>427</ele>
        <time>2016-04-08T14:30:15Z</time>
      </trkpt>
      <trkpt lat="46.20734" lon="2.4322">
        <ele>427</ele>
        <time>2016-04-08T14:30:18Z</time>
      </trkpt>
      <trkpt lat="46.20731" lon="2.43225">
        <ele>427</ele>
        <time>2016-04-08T14:30:21Z</time>
      </trkpt>
      <trkpt lat="46.20729" lon="2.4323">
        <ele>427</ele>
        <time>2016-04-08T14:30:24Z</time>
      </trkpt>
      <trkpt lat="46.20726" lon="2.43235">
        <ele>427</ele>
        <time>2016-04-08T14:30:27Z</time>
      </trkpt>
      <trkpt lat="46.20723" lon="2.4324">
        <ele>427</ele>
        <time>2016-04-08T14:30:30Z</time>
      </trkpt>
      <trkpt lat="46.20721" lon="2.43246">
        <ele>427</ele>
        <time>2016-04-08T14:30:33Z</time>
      </trkpt>
      <trkpt lat="46.20718" lon="2.43251">
        <ele>427</ele>
        <time>2016-04-08T14:30:36Z</time>
      </trkpt>
      <trkpt lat="46.20716" lon="2.43257">
        <ele>427</ele>
        <time>2016-04-08T14:30:39Z</time>
      </trkpt>
      <trkpt lat="46.20714" lon="2.43262">
        <ele>427</ele>
        <time>2016-04-08T14:30:42Z</time>
      </trkpt>
      <trkpt lat="46.20711" lon="2.43267">
        <ele>427</ele>
        <time>2016-04-08T14:30:45Z</time>
      </trkpt>
      <trkpt lat="46.20709" lon="2.43273">
        <ele>427</ele>
        <time>2016-04-08T14:30:48Z</time>
      </trkpt>
      <trkpt lat="46.20706" lon="2.43278">
        <ele>427</ele>
        <time>2016-04-08T14:30:51Z</time>
      </trkpt>
      <trkpt lat="46.20704" lon="2.43283">
        <ele>427</ele>
        <time>2016-04-08T14:30:54Z</time>
      </trkpt>
      <trkpt lat="46.20702" lon="2.43288">
        <ele>427</ele>
        <time>2016-04-08T14:30:57Z</time>
      </trkpt>
      <trkpt lat="46.20699" lon="2.43294">
        <ele>427</ele>
        <time>2016-04-08T14:31:00Z</time>
      </trkpt>
      <trkpt lat="46.20697" lon="2.43299">
        <ele>427</ele>
        <time>2016-04-08T14:31:03Z</time>
      </trkpt>
      <trkpt lat="46.20694" lon="2.43304">
        <ele>427</ele>
        <time>2016-04-08T14:31:06Z</time>
      </trkpt>
      <trkpt lat="46.20692" lon="2.43309">
        <ele>427</ele>
        <time>2016-04-08T14:31:09Z</time>
      </trkpt>
      <trkpt lat="46.2069" lon="2.43315">
        <ele>427</ele>
        <time>2016-04-08T14:31:12Z</time>
      </trkpt>
      <trkpt lat="46.20688" lon="2.4332">
        <ele>427</ele>
        <time>2016-04-08T14:31:15Z</time>
      </trkpt>
      <trkpt lat="46.20686" lon="2.43326">
        <ele>427</ele>
        <time>2016-04-08T14:31:18Z</time>
      </trkpt>
      <trkpt lat="46.20685" lon="2.43332">
        <ele>427</ele>
        <time>2016-04-08T14:31:21Z</time>
      </trkpt>
      <trkpt lat="46.20684" lon="2.43338">
        <ele>427</ele>
        <time>2016-04-08T14:31:24Z</time>
      </trkpt>
      <trkpt lat="46.20683" lon="2.43344">
        <ele>427</ele>
        <time>2016-04-08T14:31:27Z</time>
      </trkpt>
      <trkpt lat="46.20682" lon="2.4335">
        <ele>427</ele>
        <time>2016-04-08T14:31:30Z</time>
      </trkpt>
      <trkpt lat="46.20682" lon="2.43356">
        <ele>427</ele>
        <time>2016-04-08T14:31:33Z</time>
      </trkpt>
      <trkpt lat="46.20681" lon="2.43362">
        <ele>427</ele>
        <time>2016-04-08T14:31:36Z</time>
      </trkpt>
      <trkpt lat="46.2068" lon="2.43368">
        <ele>427</ele>
        <time>2016-04-08T14:31:39Z</time>
      </trkpt>
      <trkpt lat="46.20679" lon="2.43374">
        <ele>427</ele>
        <time>2016-04-08T14:31:42Z</time>
      </trkpt>
      <trkpt lat="46.20679" lon="2.4338">
        <ele>427</ele>
        <time>2016-04-08T14:31:45Z</time>
      </trkpt>
      <trkpt lat="46.20678" lon="2.43387">
        <ele>427</ele>
        <time>2016-04-08T14:31:48Z</time>
      </trkpt>
      <trkpt lat="46.20678" lon="2.43393">
        <ele>427</ele>
        <time>2016-04-08T14:31:51Z</time>
      </trkpt>
      <trkpt lat="46.20677" lon="2.434">
        <ele>427</ele>
        <time>2016-04-08T14:31:54Z</time>
      </trkpt>
      <trkpt lat="46.20677" lon="2.43407">
        <ele>427</ele>
        <time>2016-04-08T14:31:57Z</time>
      </trkpt>
      <trkpt lat="46.20676" lon="2.43413">
        <ele>427</ele>
        <time>2016-04-08T14:32:00Z</time>
      </trkpt>
      <trkpt lat="46.20675" lon="2.43419">
        <ele>427</ele>
        <time>2016-04-08T14:32:03Z</time>
      </trkpt>
      <trkpt lat="46.20674" lon="2.43425">
        <ele>427</ele>
        <time>2016-04-08T14:32:06Z</time>
      </trkpt>
      <trkpt lat="46.20674" lon="2.43432">
        <ele>427</ele>
        <time>2016-04-08T14:32:09Z</time>
      </trkpt>
      <trkpt lat="46.20673" lon="2.43438">
        <ele>427</ele>
        <time>2016-04-08T14:32:12Z</time>
      </trkpt>
      <trkpt lat="46.20673" lon="2.43445">
        <ele>427</ele>
        <time>2016-04-08T14:32:15Z</time>
      </trkpt>
      <trkpt lat="46.20672" lon="2.43451">
        <ele>427</ele>
        <time>2016-04-08T14:32:18Z</time>
      </trkpt>
      <trkpt lat="46.20672" lon="2.43458">
        <ele>427</ele>
        <time>2016-04-08T14:32:21Z</time>
      </trkpt>
      <trkpt lat="46.20672" lon="2.43464">
        <ele>427</ele>
        <time>2016-04-08T14:32:24Z</time>
      </trkpt>
      <trkpt lat="46.20671" lon="2.4347">
        <ele>427</ele>
        <time>2016-04-08T14:32:27Z</time>
      </trkpt>
      <trkpt lat="46.20671" lon="2.43475">
        <ele>428</ele>
        <time>2016-04-08T14:32:30Z</time>
      </trkpt>
      <trkpt lat="46.20669" lon="2.4348">
        <ele>428</ele>
        <time>2016-04-08T14:32:34Z</time>
      </trkpt>
      <trkpt lat="46.20666" lon="2.43485">
        <ele>429</ele>
        <time>2016-04-08T14:32:37Z</time>
      </trkpt>
      <trkpt lat="46.20663" lon="2.4349">
        <ele>429</ele>
        <time>2016-04-08T14:32:40Z</time>
      </trkpt>
      <trkpt lat="46.20661" lon="2.43494">
        <ele>429</ele>
        <time>2016-04-08T14:32:43Z</time>
      </trkpt>
      <trkpt lat="46.20658" lon="2.43499">
        <ele>429</ele>
        <time>2016-04-08T14:32:46Z</time>
      </trkpt>
      <trkpt lat="46.20655" lon="2.43504">
        <ele>429</ele>
        <time>2016-04-08T14:32:49Z</time>
      </trkpt>
      <trkpt lat="46.20652" lon="2.43509">
        <ele>429</ele>
        <time>2016-04-08T14:32:52Z</time>
      </trkpt>
      <trkpt lat="46.20648" lon="2.43514">
        <ele>430</ele>
        <time>2016-04-08T14:32:55Z</time>
      </trkpt>
      <trkpt lat="46.20645" lon="2.43518">
        <ele>431</ele>
        <time>2016-04-08T14:32:58Z</time>
      </trkpt>
      <trkpt lat="46.20642" lon="2.43521">
        <ele>432</ele>
        <time>2016-04-08T14:33:01Z</time>
      </trkpt>
      <trkpt lat="46.20639" lon="2.43524">
        <ele>433</ele>
        <time>2016-04-08T14:33:04Z</time>
      </trkpt>
      <trkpt lat="46.20637" lon="2.43528">
        <ele>433</ele>
        <time>2016-04-08T14:33:07Z</time>
      </trkpt>
      <trkpt lat="46.20633" lon="2.43531">
        <ele>433</ele>
        <time>2016-04-08T14:33:10Z</time>
      </trkpt>
      <trkpt lat="46.20628" lon="2.43535">
        <ele>435</ele>
        <time>2016-04-08T14:33:13Z</time>
      </trkpt>
      <trkpt lat="46.20623" lon="2.43539">
        <ele>436</ele>
        <time>2016-04-08T14:33:16Z</time>
      </trkpt>
      <trkpt lat="46.20618" lon="2.43542">
        <ele>437</ele>
        <time>2016-04-08T14:33:19Z</time>
      </trkpt>
      <trkpt lat="46.20613" lon="2.43547">
        <ele>437</ele>
        <time>2016-04-08T14:33:22Z</time>
      </trkpt>
      <trkpt lat="46.20609" lon="2.43551">
        <ele>437</ele>
        <time>2016-04-08T14:33:25Z</time>
      </trkpt>
      <trkpt lat="46.20606" lon="2.43556">
        <ele>437</ele>
        <time>2016-04-08T14:33:28Z</time>
      </trkpt>
      <trkpt lat="46.20603" lon="2.4356">
        <ele>437</ele>
        <time>2016-04-08T14:33:31Z</time>
      </trkpt>
      <trkpt lat="46.206" lon="2.43564">
        <ele>437</ele>
        <time>2016-04-08T14:33:34Z</time>
      </trkpt>
      <trkpt lat="46.20596" lon="2.4357">
        <ele>437</ele>
        <time>2016-04-08T14:33:38Z</time>
      </trkpt>
      <trkpt lat="46.20592" lon="2.43573">
        <ele>438</ele>
        <time>2016-04-08T14:33:41Z</time>
      </trkpt>
      <trkpt lat="46.20589" lon="2.43577">
        <ele>438</ele>
        <time>2016-04-08T14:33:44Z</time>
      </trkpt>
      <trkpt lat="46.20585" lon="2.4358">
        <ele>439</ele>
        <time>2016-04-08T14:33:47Z</time>
      </trkpt>
      <trkpt lat="46.20581" lon="2.43583">
        <ele>441</ele>
        <time>2016-04-08T14:33:51Z</time>
      </trkpt>
      <trkpt lat="46.20578" lon="2.43586">
        <ele>442</ele>
        <time>2016-04-08T14:33:54Z</time>
      </trkpt>
      <trkpt lat="46.20575" lon="2.43592">
        <ele>442</ele>
        <time>2016-04-08T14:33:58Z</time>
      </trkpt>
      <trkpt lat="46.20571" lon="2.43597">
        <ele>442</ele>
        <time>2016-04-08T14:34:02Z</time>
      </trkpt>
      <trkpt lat="46.20568" lon="2.43601">
        <ele>442</ele>
        <time>2016-04-08T14:34:05Z</time>
      </trkpt>
      <trkpt lat="46.20563" lon="2.43606">
        <ele>442</ele>
        <time>2016-04-08T14:34:09Z</time>
      </trkpt>
      <trkpt lat="46.2056" lon="2.43609">
        <ele>442</ele>
        <time>2016-04-08T14:34:12Z</time>
      </trkpt>
      <trkpt lat="46.20556" lon="2.43613">
        <ele>442</ele>
        <time>2016-04-08T14:34:15Z</time>
      </trkpt>
      <trkpt lat="46.20552" lon="2.43612">
        <ele>442</ele>
        <time>2016-04-08T14:34:18Z</time>
      </trkpt>
      <trkpt lat="46.20549" lon="2.43608">
        <ele>442</ele>
        <time>2016-04-08T14:34:22Z</time>
      </trkpt>
      <trkpt lat="46.20547" lon="2.43605">
        <ele>441</ele>
        <time>2016-04-08T14:34:25Z</time>
      </trkpt>
      <trkpt lat="46.20544" lon="2.43598">
        <ele>439</ele>
        <time>2016-04-08T14:34:29Z</time>
      </trkpt>
      <trkpt lat="46.20541" lon="2.43594">
        <ele>438</ele>
        <time>2016-04-08T14:34:33Z</time>
      </trkpt>
      <trkpt lat="46.20538" lon="2.4359">
        <ele>437</ele>
        <time>2016-04-08T14:34:36Z</time>
      </trkpt>
      <trkpt lat="46.20535" lon="2.43586">
        <ele>435</ele>
        <time>2016-04-08T14:34:41Z</time>
      </trkpt>
      <trkpt lat="46.20533" lon="2.43583">
        <ele>433</ele>
        <time>2016-04-08T14:34:44Z</time>
      </trkpt>
      <trkpt lat="46.20528" lon="2.43578">
        <ele>432</ele>
        <time>2016-04-08T14:34:47Z</time>
      </trkpt>
      <trkpt lat="46.20525" lon="2.43574">
        <ele>432</ele>
        <time>2016-04-08T14:34:50Z</time>
      </trkpt>
      <trkpt lat="46.20521" lon="2.4357">
        <ele>432</ele>
        <time>2016-04-08T14:34:53Z</time>
      </trkpt>
      <trkpt lat="46.20516" lon="2.43566">
        <ele>431</ele>
        <time>2016-04-08T14:34:57Z</time>
      </trkpt>
      <trkpt lat="46.20513" lon="2.43562">
        <ele>430</ele>
        <time>2016-04-08T14:35:01Z</time>
      </trkpt>
      <trkpt lat="46.2051" lon="2.43558">
        <ele>430</ele>
        <time>2016-04-08T14:35:04Z</time>
      </trkpt>
      <trkpt lat="46.20507" lon="2.43554">
        <ele>429</ele>
        <time>2016-04-08T14:35:08Z</time>
      </trkpt>
      <trkpt lat="46.20503" lon="2.43549">
        <ele>429</ele>
        <time>2016-04-08T14:35:11Z</time>
      </trkpt>
      <trkpt lat="46.20499" lon="2.43543">
        <ele>429</ele>
        <time>2016-04-08T14:35:15Z</time>
      </trkpt>
      <trkpt lat="46.20496" lon="2.43539">
        <ele>429</ele>
        <time>2016-04-08T14:35:18Z</time>
      </trkpt>
      <trkpt lat="46.20492" lon="2.43534">
        <ele>429</ele>
        <time>2016-04-08T14:35:21Z</time>
      </trkpt>
      <trkpt lat="46.20488" lon="2.43531">
        <ele>429</ele>
        <time>2016-04-08T14:35:24Z</time>
      </trkpt>
      <trkpt lat="46.20483" lon="2.43526">
        <ele>429</ele>
        <time>2016-04-08T14:35:27Z</time>
      </trkpt>
      <trkpt lat="46.20478" lon="2.43522">
        <ele>429</ele>
        <time>2016-04-08T14:35:30Z</time>
      </trkpt>
      <trkpt lat="46.20474" lon="2.43519">
        <ele>429</ele>
        <time>2016-04-08T14:35:33Z</time>
      </trkpt>
      <trkpt lat="46.2047" lon="2.43516">
        <ele>429</ele>
        <time>2016-04-08T14:35:36Z</time>
      </trkpt>
      <trkpt lat="46.20466" lon="2.43512">
        <ele>429</ele>
        <time>2016-04-08T14:35:39Z</time>
      </trkpt>
      <trkpt lat="46.20462" lon="2.43509">
        <ele>429</ele>
        <time>2016-04-08T14:35:42Z</time>
      </trkpt>
      <trkpt lat="46.20458" lon="2.43506">
        <ele>429</ele>
        <time>2016-04-08T14:35:45Z</time>
      </trkpt>
      <trkpt lat="46.20454" lon="2.43503">
        <ele>429</ele>
        <time>2016-04-08T14:35:48Z</time>
      </trkpt>
      <trkpt lat="46.2045" lon="2.435">
        <ele>429</ele>
        <time>2016-04-08T14:35:51Z</time>
      </trkpt>
      <trkpt lat="46.20445" lon="2.43496">
        <ele>429</ele>
        <time>2016-04-08T14:35:54Z</time>
      </trkpt>
      <trkpt lat="46.20441" lon="2.43494">
        <ele>429</ele>
        <time>2016-04-08T14:35:57Z</time>
      </trkpt>
      <trkpt lat="46.20437" lon="2.43491">
        <ele>429</ele>
        <time>2016-04-08T14:36:00Z</time>
      </trkpt>
      <trkpt lat="46.20433" lon="2.43488">
        <ele>429</ele>
        <time>2016-04-08T14:36:03Z</time>
      </trkpt>
      <trkpt lat="46.20429" lon="2.43485">
        <ele>429</ele>
        <time>2016-04-08T14:36:06Z</time>
      </trkpt>
      <trkpt lat="46.20425" lon="2.43483">
        <ele>429</ele>
        <time>2016-04-08T14:36:09Z</time>
      </trkpt>
      <trkpt lat="46.2042" lon="2.4348">
        <ele>430</ele>
        <time>2016-04-08T14:36:12Z</time>
      </trkpt>
      <trkpt lat="46.20416" lon="2.43478">
        <ele>430</ele>
        <time>2016-04-08T14:36:15Z</time>
      </trkpt>
      <trkpt lat="46.20412" lon="2.43476">
        <ele>431</ele>
        <time>2016-04-08T14:36:18Z</time>
      </trkpt>
      <trkpt lat="46.20408" lon="2.43474">
        <ele>431</ele>
        <time>2016-04-08T14:36:21Z</time>
      </trkpt>
      <trkpt lat="46.20404" lon="2.43472">
        <ele>431</ele>
        <time>2016-04-08T14:36:24Z</time>
      </trkpt>
      <trkpt lat="46.204" lon="2.4347">
        <ele>431</ele>
        <time>2016-04-08T14:36:27Z</time>
      </trkpt>
      <trkpt lat="46.20396" lon="2.43468">
        <ele>431</ele>
        <time>2016-04-08T14:36:30Z</time>
      </trkpt>
      <trkpt lat="46.20391" lon="2.43467">
        <ele>431</ele>
        <time>2016-04-08T14:36:33Z</time>
      </trkpt>
      <trkpt lat="46.20387" lon="2.43465">
        <ele>431</ele>
        <time>2016-04-08T14:36:36Z</time>
      </trkpt>
      <trkpt lat="46.20383" lon="2.43463">
        <ele>431</ele>
        <time>2016-04-08T14:36:39Z</time>
      </trkpt>
      <trkpt lat="46.20379" lon="2.43461">
        <ele>431</ele>
        <time>2016-04-08T14:36:42Z</time>
      </trkpt>
      <trkpt lat="46.20375" lon="2.43459">
        <ele>431</ele>
        <time>2016-04-08T14:36:45Z</time>
      </trkpt>
      <trkpt lat="46.20371" lon="2.43458">
        <ele>432</ele>
        <time>2016-04-08T14:36:48Z</time>
      </trkpt>
      <trkpt lat="46.20368" lon="2.43456">
        <ele>432</ele>
        <time>2016-04-08T14:36:53Z</time>
      </trkpt>
      <trkpt lat="46.20367" lon="2.43455">
        <ele>433</ele>
        <time>2016-04-08T14:36:56Z</time>
      </trkpt>
      <trkpt lat="46.20366" lon="2.43455">
        <ele>435</ele>
        <time>2016-04-08T14:37:00Z</time>
      </trkpt>
      <trkpt lat="46.20366" lon="2.43454">
        <ele>437</ele>
        <time>2016-04-08T14:37:08Z</time>
      </trkpt>
      <trkpt lat="46.20366" lon="2.43452">
        <ele>437</ele>
        <time>2016-04-08T14:37:15Z</time>
      </trkpt>
      <trkpt lat="46.20364" lon="2.43448">
        <ele>437</ele>
        <time>2016-04-08T14:37:19Z</time>
      </trkpt>
      <trkpt lat="46.20363" lon="2.43448">
        <ele>437</ele>
        <time>2016-04-08T14:37:22Z</time>
      </trkpt>
      <trkpt lat="46.20361" lon="2.43452">
        <ele>438</ele>
        <time>2016-04-08T14:37:26Z</time>
      </trkpt>
      <trkpt lat="46.20361" lon="2.43454">
        <ele>438</ele>
        <time>2016-04-08T14:37:33Z</time>
      </trkpt>
      <trkpt lat="46.20361" lon="2.43452">
        <ele>438</ele>
        <time>2016-04-08T14:37:41Z</time>
      </trkpt>
      <trkpt lat="46.20361" lon="2.4345">
        <ele>438</ele>
        <time>2016-04-08T14:37:48Z</time>
      </trkpt>
      <trkpt lat="46.20357" lon="2.43446">
        <ele>438</ele>
        <time>2016-04-08T14:37:52Z</time>
      </trkpt>
      <trkpt lat="46.20353" lon="2.43445">
        <ele>438</ele>
        <time>2016-04-08T14:37:56Z</time>
      </trkpt>
      <trkpt lat="46.2035" lon="2.43444">
        <ele>438</ele>
        <time>2016-04-08T14:37:59Z</time>
      </trkpt>
      <trkpt lat="46.20346" lon="2.43443">
        <ele>439</ele>
        <time>2016-04-08T14:38:02Z</time>
      </trkpt>
      <trkpt lat="46.20343" lon="2.43442">
        <ele>439</ele>
        <time>2016-04-08T14:38:05Z</time>
      </trkpt>
      <trkpt lat="46.20339" lon="2.4344">
        <ele>439</ele>
        <time>2016-04-08T14:38:08Z</time>
      </trkpt>
      <trkpt lat="46.20335" lon="2.43438">
        <ele>439</ele>
        <time>2016-04-08T14:38:11Z</time>
      </trkpt>
      <trkpt lat="46.20332" lon="2.43437">
        <ele>439</ele>
        <time>2016-04-08T14:38:14Z</time>
      </trkpt>
      <trkpt lat="46.20328" lon="2.43434">
        <ele>439</ele>
        <time>2016-04-08T14:38:18Z</time>
      </trkpt>
      <trkpt lat="46.20324" lon="2.43431">
        <ele>439</ele>
        <time>2016-04-08T14:38:22Z</time>
      </trkpt>
      <trkpt lat="46.20321" lon="2.43429">
        <ele>439</ele>
        <time>2016-04-08T14:38:25Z</time>
      </trkpt>
      <trkpt lat="46.20317" lon="2.43427">
        <ele>439</ele>
        <time>2016-04-08T14:38:28Z</time>
      </trkpt>
      <trkpt lat="46.20314" lon="2.43425">
        <ele>439</ele>
        <time>2016-04-08T14:38:31Z</time>
      </trkpt>
      <trkpt lat="46.20309" lon="2.43423">
        <ele>439</ele>
        <time>2016-04-08T14:38:35Z</time>
      </trkpt>
      <trkpt lat="46.20306" lon="2.43421">
        <ele>439</ele>
        <time>2016-04-08T14:38:38Z</time>
      </trkpt>
      <trkpt lat="46.20301" lon="2.43419">
        <ele>439</ele>
        <time>2016-04-08T14:38:42Z</time>
      </trkpt>
      <trkpt lat="46.20297" lon="2.43417">
        <ele>439</ele>
        <time>2016-04-08T14:38:45Z</time>
      </trkpt>
      <trkpt lat="46.20293" lon="2.43414">
        <ele>439</ele>
        <time>2016-04-08T14:38:48Z</time>
      </trkpt>
      <trkpt lat="46.20288" lon="2.43413">
        <ele>439</ele>
        <time>2016-04-08T14:38:51Z</time>
      </trkpt>
      <trkpt lat="46.20284" lon="2.4341">
        <ele>439</ele>
        <time>2016-04-08T14:38:54Z</time>
      </trkpt>
      <trkpt lat="46.2028" lon="2.43408">
        <ele>439</ele>
        <time>2016-04-08T14:38:57Z</time>
      </trkpt>
      <trkpt lat="46.20276" lon="2.43405">
        <ele>439</ele>
        <time>2016-04-08T14:39:00Z</time>
      </trkpt>
      <trkpt lat="46.20271" lon="2.43402">
        <ele>439</ele>
        <time>2016-04-08T14:39:03Z</time>
      </trkpt>
      <trkpt lat="46.20266" lon="2.43399">
        <ele>439</ele>
        <time>2016-04-08T14:39:06Z</time>
      </trkpt>
      <trkpt lat="46.20262" lon="2.43397">
        <ele>439</ele>
        <time>2016-04-08T14:39:09Z</time>
      </trkpt>
      <trkpt lat="46.20257" lon="2.43394">
        <ele>439</ele>
        <time>2016-04-08T14:39:12Z</time>
      </trkpt>
      <trkpt lat="46.20253" lon="2.43392">
        <ele>439</ele>
        <time>2016-04-08T14:39:15Z</time>
      </trkpt>
      <trkpt lat="46.20249" lon="2.4339">
        <ele>439</ele>
        <time>2016-04-08T14:39:18Z</time>
      </trkpt>
      <trkpt lat="46.20245" lon="2.43387">
        <ele>439</ele>
        <time>2016-04-08T14:39:21Z</time>
      </trkpt>
      <trkpt lat="46.2024" lon="2.43385">
        <ele>439</ele>
        <time>2016-04-08T14:39:24Z</time>
      </trkpt>
      <trkpt lat="46.20236" lon="2.43382">
        <ele>439</ele>
        <time>2016-04-08T14:39:27Z</time>
      </trkpt>
      <trkpt lat="46.20232" lon="2.4338">
        <ele>439</ele>
        <time>2016-04-08T14:39:30Z</time>
      </trkpt>
      <trkpt lat="46.20227" lon="2.43377">
        <ele>439</ele>
        <time>2016-04-08T14:39:33Z</time>
      </trkpt>
      <trkpt lat="46.20223" lon="2.43374">
        <ele>439</ele>
        <time>2016-04-08T14:39:36Z</time>
      </trkpt>
      <trkpt lat="46.20219" lon="2.43372">
        <ele>439</ele>
        <time>2016-04-08T14:39:39Z</time>
      </trkpt>
      <trkpt lat="46.20214" lon="2.43369">
        <ele>439</ele>
        <time>2016-04-08T14:39:42Z</time>
      </trkpt>
      <trkpt lat="46.2021" lon="2.43367">
        <ele>439</ele>
        <time>2016-04-08T14:39:45Z</time>
      </trkpt>
      <trkpt lat="46.20206" lon="2.43365">
        <ele>439</ele>
        <time>2016-04-08T14:39:48Z</time>
      </trkpt>
      <trkpt lat="46.20202" lon="2.43363">
        <ele>439</ele>
        <time>2016-04-08T14:39:51Z</time>
      </trkpt>
      <trkpt lat="46.20198" lon="2.43361">
        <ele>438</ele>
        <time>2016-04-08T14:39:54Z</time>
      </trkpt>
      <trkpt lat="46.20193" lon="2.43359">
        <ele>437</ele>
        <time>2016-04-08T14:39:57Z</time>
      </trkpt>
      <trkpt lat="46.20189" lon="2.43357">
        <ele>437</ele>
        <time>2016-04-08T14:40:00Z</time>
      </trkpt>
      <trkpt lat="46.20185" lon="2.43355">
        <ele>436</ele>
        <time>2016-04-08T14:40:03Z</time>
      </trkpt>
      <trkpt lat="46.20181" lon="2.43354">
        <ele>436</ele>
        <time>2016-04-08T14:40:06Z</time>
      </trkpt>
      <trkpt lat="46.20176" lon="2.43353">
        <ele>436</ele>
        <time>2016-04-08T14:40:09Z</time>
      </trkpt>
      <trkpt lat="46.20173" lon="2.43351">
        <ele>435</ele>
        <time>2016-04-08T14:40:12Z</time>
      </trkpt>
      <trkpt lat="46.20168" lon="2.43349">
        <ele>435</ele>
        <time>2016-04-08T14:40:15Z</time>
      </trkpt>
      <trkpt lat="46.20164" lon="2.43347">
        <ele>435</ele>
        <time>2016-04-08T14:40:18Z</time>
      </trkpt>
      <trkpt lat="46.2016" lon="2.43345">
        <ele>435</ele>
        <time>2016-04-08T14:40:21Z</time>
      </trkpt>
      <trkpt lat="46.20155" lon="2.43343">
        <ele>435</ele>
        <time>2016-04-08T14:40:24Z</time>
      </trkpt>
      <trkpt lat="46.20151" lon="2.4334">
        <ele>434</ele>
        <time>2016-04-08T14:40:27Z</time>
      </trkpt>
      <trkpt lat="46.20147" lon="2.43338">
        <ele>434</ele>
        <time>2016-04-08T14:40:30Z</time>
      </trkpt>
      <trkpt lat="46.20143" lon="2.43335">
        <ele>434</ele>
        <time>2016-04-08T14:40:33Z</time>
      </trkpt>
      <trkpt lat="46.20139" lon="2.43331">
        <ele>434</ele>
        <time>2016-04-08T14:40:36Z</time>
      </trkpt>
      <trkpt lat="46.20135" lon="2.43329">
        <ele>434</ele>
        <time>2016-04-08T14:40:39Z</time>
      </trkpt>
      <trkpt lat="46.20131" lon="2.43326">
        <ele>434</ele>
        <time>2016-04-08T14:40:42Z</time>
      </trkpt>
      <trkpt lat="46.20126" lon="2.43324">
        <ele>434</ele>
        <time>2016-04-08T14:40:45Z</time>
      </trkpt>
      <trkpt lat="46.20122" lon="2.43321">
        <ele>434</ele>
        <time>2016-04-08T14:40:48Z</time>
      </trkpt>
      <trkpt lat="46.20118" lon="2.4332">
        <ele>434</ele>
        <time>2016-04-08T14:40:51Z</time>
      </trkpt>
      <trkpt lat="46.20114" lon="2.43317">
        <ele>434</ele>
        <time>2016-04-08T14:40:54Z</time>
      </trkpt>
      <trkpt lat="46.2011" lon="2.43315">
        <ele>434</ele>
        <time>2016-04-08T14:40:57Z</time>
      </trkpt>
      <trkpt lat="46.20105" lon="2.43314">
        <ele>434</ele>
        <time>2016-04-08T14:41:00Z</time>
      </trkpt>
      <trkpt lat="46.20101" lon="2.43312">
        <ele>434</ele>
        <time>2016-04-08T14:41:03Z</time>
      </trkpt>
      <trkpt lat="46.20096" lon="2.4331">
        <ele>434</ele>
        <time>2016-04-08T14:41:06Z</time>
      </trkpt>
      <trkpt lat="46.20092" lon="2.43309">
        <ele>434</ele>
        <time>2016-04-08T14:41:09Z</time>
      </trkpt>
      <trkpt lat="46.20087" lon="2.43308">
        <ele>433</ele>
        <time>2016-04-08T14:41:12Z</time>
      </trkpt>
      <trkpt lat="46.20082" lon="2.43307">
        <ele>433</ele>
        <time>2016-04-08T14:41:15Z</time>
      </trkpt>
      <trkpt lat="46.20078" lon="2.43307">
        <ele>433</ele>
        <time>2016-04-08T14:41:18Z</time>
      </trkpt>
      <trkpt lat="46.20073" lon="2.43307">
        <ele>433</ele>
        <time>2016-04-08T14:41:21Z</time>
      </trkpt>
      <trkpt lat="46.20068" lon="2.43308">
        <ele>433</ele>
        <time>2016-04-08T14:41:24Z</time>
      </trkpt>
      <trkpt lat="46.20064" lon="2.4331">
        <ele>432</ele>
        <time>2016-04-08T14:41:27Z</time>
      </trkpt>
      <trkpt lat="46.2006" lon="2.43311">
        <ele>432</ele>
        <time>2016-04-08T14:41:30Z</time>
      </trkpt>
      <trkpt lat="46.20055" lon="2.43313">
        <ele>432</ele>
        <time>2016-04-08T14:41:33Z</time>
      </trkpt>
      <trkpt lat="46.2005" lon="2.43314">
        <ele>432</ele>
        <time>2016-04-08T14:41:36Z</time>
      </trkpt>
      <trkpt lat="46.20045" lon="2.43315">
        <ele>432</ele>
        <time>2016-04-08T14:41:39Z</time>
      </trkpt>
      <trkpt lat="46.20041" lon="2.43316">
        <ele>432</ele>
        <time>2016-04-08T14:41:42Z</time>
      </trkpt>
      <trkpt lat="46.20037" lon="2.43315">
        <ele>432</ele>
        <time>2016-04-08T14:41:45Z</time>
      </trkpt>
      <trkpt lat="46.20032" lon="2.43314">
        <ele>432</ele>
        <time>2016-04-08T14:41:48Z</time>
      </trkpt>
      <trkpt lat="46.20028" lon="2.43311">
        <ele>432</ele>
        <time>2016-04-08T14:41:51Z</time>
      </trkpt>
      <trkpt lat="46.20023" lon="2.43309">
        <ele>431</ele>
        <time>2016-04-08T14:41:54Z</time>
      </trkpt>
      <trkpt lat="46.20019" lon="2.43306">
        <ele>431</ele>
        <time>2016-04-08T14:41:57Z</time>
      </trkpt>
      <trkpt lat="46.20015" lon="2.43303">
        <ele>431</ele>
        <time>2016-04-08T14:42:00Z</time>
      </trkpt>
      <trkpt lat="46.20011" lon="2.433">
        <ele>431</ele>
        <time>2016-04-08T14:42:03Z</time>
      </trkpt>
      <trkpt lat="46.20007" lon="2.43297">
        <ele>430</ele>
        <time>2016-04-08T14:42:06Z</time>
      </trkpt>
      <trkpt lat="46.20004" lon="2.43294">
        <ele>430</ele>
        <time>2016-04-08T14:42:09Z</time>
      </trkpt>
      <trkpt lat="46.2" lon="2.43291">
        <ele>430</ele>
        <time>2016-04-08T14:42:12Z</time>
      </trkpt>
      <trkpt lat="46.19996" lon="2.43288">
        <ele>430</ele>
        <time>2016-04-08T14:42:15Z</time>
      </trkpt>
      <trkpt lat="46.19992" lon="2.43286">
        <ele>429</ele>
        <time>2016-04-08T14:42:18Z</time>
      </trkpt>
      <trkpt lat="46.19987" lon="2.43283">
        <ele>429</ele>
        <time>2016-04-08T14:42:21Z</time>
      </trkpt>
      <trkpt lat="46.19984" lon="2.43281">
        <ele>429</ele>
        <time>2016-04-08T14:42:24Z</time>
      </trkpt>
      <trkpt lat="46.19979" lon="2.43279">
        <ele>428</ele>
        <time>2016-04-08T14:42:27Z</time>
      </trkpt>
      <trkpt lat="46.19976" lon="2.43276">
        <ele>428</ele>
        <time>2016-04-08T14:42:30Z</time>
      </trkpt>
      <trkpt lat="46.19972" lon="2.43273">
        <ele>428</ele>
        <time>2016-04-08T14:42:33Z</time>
      </trkpt>
      <trkpt lat="46.19968" lon="2.4327">
        <ele>427</ele>
        <time>2016-04-08T14:42:36Z</time>
      </trkpt>
      <trkpt lat="46.19965" lon="2.43267">
        <ele>427</ele>
        <time>2016-04-08T14:42:39Z</time>
      </trkpt>
      <trkpt lat="46.19961" lon="2.43262">
        <ele>427</ele>
        <time>2016-04-08T14:42:43Z</time>
      </trkpt>
      <trkpt lat="46.19957" lon="2.43259">
        <ele>427</ele>
        <time>2016-04-08T14:42:46Z</time>
      </trkpt>
      <trkpt lat="46.19955" lon="2.43254">
        <ele>426</ele>
        <time>2016-04-08T14:42:49Z</time>
      </trkpt>
      <trkpt lat="46.1995" lon="2.43249">
        <ele>426</ele>
        <time>2016-04-08T14:42:53Z</time>
      </trkpt>
      <trkpt lat="46.19947" lon="2.43245">
        <ele>425</ele>
        <time>2016-04-08T14:42:56Z</time>
      </trkpt>
      <trkpt lat="46.19944" lon="2.43241">
        <ele>425</ele>
        <time>2016-04-08T14:42:59Z</time>
      </trkpt>
      <trkpt lat="46.19939" lon="2.43235">
        <ele>425</ele>
        <time>2016-04-08T14:43:03Z</time>
      </trkpt>
      <trkpt lat="46.19936" lon="2.4323">
        <ele>425</ele>
        <time>2016-04-08T14:43:06Z</time>
      </trkpt>
      <trkpt lat="46.19933" lon="2.43226">
        <ele>425</ele>
        <time>2016-04-08T14:43:09Z</time>
      </trkpt>
      <trkpt lat="46.19929" lon="2.43221">
        <ele>424</ele>
        <time>2016-04-08T14:43:12Z</time>
      </trkpt>
      <trkpt lat="46.19926" lon="2.43217">
        <ele>424</ele>
        <time>2016-04-08T14:43:15Z</time>
      </trkpt>
      <trkpt lat="46.19922" lon="2.43213">
        <ele>424</ele>
        <time>2016-04-08T14:43:18Z</time>
      </trkpt>
      <trkpt lat="46.19918" lon="2.43209">
        <ele>424</ele>
        <time>2016-04-08T14:43:21Z</time>
      </trkpt>
      <trkpt lat="46.19914" lon="2.43206">
        <ele>424</ele>
        <time>2016-04-08T14:43:24Z</time>
      </trkpt>
      <trkpt lat="46.1991" lon="2.43201">
        <ele>424</ele>
        <time>2016-04-08T14:43:27Z</time>
      </trkpt>
      <trkpt lat="46.19907" lon="2.43198">
        <ele>423</ele>
        <time>2016-04-08T14:43:30Z</time>
      </trkpt>
      <trkpt lat="46.19903" lon="2.43194">
        <ele>423</ele>
        <time>2016-04-08T14:43:33Z</time>
      </trkpt>
      <trkpt lat="46.19899" lon="2.43191">
        <ele>423</ele>
        <time>2016-04-08T14:43:36Z</time>
      </trkpt>
      <trkpt lat="46.19896" lon="2.43186">
        <ele>423</ele>
        <time>2016-04-08T14:43:39Z</time>
      </trkpt>
      <trkpt lat="46.19892" lon="2.43183">
        <ele>423</ele>
        <time>2016-04-08T14:43:42Z</time>
      </trkpt>
      <trkpt lat="46.19888" lon="2.43177">
        <ele>423</ele>
        <time>2016-04-08T14:43:46Z</time>
      </trkpt>
      <trkpt lat="46.19884" lon="2.43173">
        <ele>423</ele>
        <time>2016-04-08T14:43:49Z</time>
      </trkpt>
      <trkpt lat="46.1988" lon="2.43169">
        <ele>423</ele>
        <time>2016-04-08T14:43:52Z</time>
      </trkpt>
      <trkpt lat="46.19876" lon="2.43166">
        <ele>422</ele>
        <time>2016-04-08T14:43:55Z</time>
      </trkpt>
      <trkpt lat="46.19873" lon="2.43162">
        <ele>422</ele>
        <time>2016-04-08T14:43:58Z</time>
      </trkpt>
      <trkpt lat="46.1987" lon="2.43157">
        <ele>422</ele>
        <time>2016-04-08T14:44:01Z</time>
      </trkpt>
      <trkpt lat="46.19866" lon="2.43152">
        <ele>422</ele>
        <time>2016-04-08T14:44:04Z</time>
      </trkpt>
      <trkpt lat="46.19863" lon="2.43148">
        <ele>422</ele>
        <time>2016-04-08T14:44:07Z</time>
      </trkpt>
      <trkpt lat="46.1986" lon="2.43143">
        <ele>422</ele>
        <time>2016-04-08T14:44:10Z</time>
      </trkpt>
      <trkpt lat="46.19858" lon="2.43138">
        <ele>422</ele>
        <time>2016-04-08T14:44:13Z</time>
      </trkpt>
      <trkpt lat="46.19855" lon="2.43132">
        <ele>422</ele>
        <time>2016-04-08T14:44:16Z</time>
      </trkpt>
      <trkpt lat="46.19852" lon="2.43127">
        <ele>422</ele>
        <time>2016-04-08T14:44:19Z</time>
      </trkpt>
      <trkpt lat="46.19848" lon="2.43123">
        <ele>422</ele>
        <time>2016-04-08T14:44:22Z</time>
      </trkpt>
      <trkpt lat="46.19846" lon="2.43117">
        <ele>422</ele>
        <time>2016-04-08T14:44:25Z</time>
      </trkpt>
      <trkpt lat="46.19843" lon="2.43113">
        <ele>422</ele>
        <time>2016-04-08T14:44:28Z</time>
      </trkpt>
      <trkpt lat="46.19839" lon="2.43109">
        <ele>422</ele>
        <time>2016-04-08T14:44:31Z</time>
      </trkpt>
      <trkpt lat="46.19836" lon="2.43105">
        <ele>422</ele>
        <time>2016-04-08T14:44:34Z</time>
      </trkpt>
      <trkpt lat="46.19833" lon="2.43101">
        <ele>422</ele>
        <time>2016-04-08T14:44:37Z</time>
      </trkpt>
      <trkpt lat="46.19829" lon="2.43097">
        <ele>422</ele>
        <time>2016-04-08T14:44:40Z</time>
      </trkpt>
      <trkpt lat="46.19826" lon="2.43094">
        <ele>422</ele>
        <time>2016-04-08T14:44:43Z</time>
      </trkpt>
      <trkpt lat="46.19822" lon="2.43091">
        <ele>422</ele>
        <time>2016-04-08T14:44:46Z</time>
      </trkpt>
      <trkpt lat="46.19819" lon="2.43087">
        <ele>422</ele>
        <time>2016-04-08T14:44:49Z</time>
      </trkpt>
      <trkpt lat="46.19815" lon="2.43082">
        <ele>422</ele>
        <time>2016-04-08T14:44:52Z</time>
      </trkpt>
      <trkpt lat="46.19811" lon="2.43079">
        <ele>422</ele>
        <time>2016-04-08T14:44:55Z</time>
      </trkpt>
      <trkpt lat="46.19807" lon="2.43076">
        <ele>422</ele>
        <time>2016-04-08T14:44:58Z</time>
      </trkpt>
      <trkpt lat="46.19804" lon="2.43073">
        <ele>422</ele>
        <time>2016-04-08T14:45:01Z</time>
      </trkpt>
      <trkpt lat="46.198" lon="2.4307">
        <ele>422</ele>
        <time>2016-04-08T14:45:04Z</time>
      </trkpt>
      <trkpt lat="46.19796" lon="2.43067">
        <ele>422</ele>
        <time>2016-04-08T14:45:07Z</time>
      </trkpt>
      <trkpt lat="46.19792" lon="2.43064">
        <ele>422</ele>
        <time>2016-04-08T14:45:10Z</time>
      </trkpt>
      <trkpt lat="46.19788" lon="2.4306">
        <ele>422</ele>
        <time>2016-04-08T14:45:14Z</time>
      </trkpt>
      <trkpt lat="46.19783" lon="2.43057">
        <ele>421</ele>
        <time>2016-04-08T14:45:17Z</time>
      </trkpt>
      <trkpt lat="46.1978" lon="2.43054">
        <ele>421</ele>
        <time>2016-04-08T14:45:20Z</time>
      </trkpt>
      <trkpt lat="46.19777" lon="2.43051">
        <ele>420</ele>
        <time>2016-04-08T14:45:23Z</time>
      </trkpt>
      <trkpt lat="46.19773" lon="2.43048">
        <ele>420</ele>
        <time>2016-04-08T14:45:26Z</time>
      </trkpt>
      <trkpt lat="46.1977" lon="2.43046">
        <ele>420</ele>
        <time>2016-04-08T14:45:29Z</time>
      </trkpt>
      <trkpt lat="46.19766" lon="2.43042">
        <ele>420</ele>
        <time>2016-04-08T14:45:32Z</time>
      </trkpt>
      <trkpt lat="46.19762" lon="2.4304">
        <ele>420</ele>
        <time>2016-04-08T14:45:35Z</time>
      </trkpt>
      <trkpt lat="46.19759" lon="2.43038">
        <ele>420</ele>
        <time>2016-04-08T14:45:38Z</time>
      </trkpt>
      <trkpt lat="46.19754" lon="2.43035">
        <ele>419</ele>
        <time>2016-04-08T14:45:41Z</time>
      </trkpt>
      <trkpt lat="46.19751" lon="2.43033">
        <ele>419</ele>
        <time>2016-04-08T14:45:44Z</time>
      </trkpt>
      <trkpt lat="46.19746" lon="2.43029">
        <ele>418</ele>
        <time>2016-04-08T14:45:48Z</time>
      </trkpt>
      <trkpt lat="46.19741" lon="2.43026">
        <ele>417</ele>
        <time>2016-04-08T14:45:52Z</time>
      </trkpt>
      <trkpt lat="46.19737" lon="2.43024">
        <ele>416</ele>
        <time>2016-04-08T14:45:55Z</time>
      </trkpt>
      <trkpt lat="46.19733" lon="2.43022">
        <ele>416</ele>
        <time>2016-04-08T14:45:58Z</time>
      </trkpt>
      <trkpt lat="46.19727" lon="2.4302">
        <ele>416</ele>
        <time>2016-04-08T14:46:01Z</time>
      </trkpt>
      <trkpt lat="46.19722" lon="2.43017">
        <ele>416</ele>
        <time>2016-04-08T14:46:04Z</time>
      </trkpt>
      <trkpt lat="46.19716" lon="2.43014">
        <ele>416</ele>
        <time>2016-04-08T14:46:07Z</time>
      </trkpt>
      <trkpt lat="46.19712" lon="2.43013">
        <ele>416</ele>
        <time>2016-04-08T14:46:10Z</time>
      </trkpt>
      <trkpt lat="46.19709" lon="2.43011">
        <ele>416</ele>
        <time>2016-04-08T14:46:13Z</time>
      </trkpt>
      <trkpt lat="46.19705" lon="2.4301">
        <ele>416</ele>
        <time>2016-04-08T14:46:16Z</time>
      </trkpt>
      <trkpt lat="46.19701" lon="2.43008">
        <ele>416</ele>
        <time>2016-04-08T14:46:19Z</time>
      </trkpt>
      <trkpt lat="46.19697" lon="2.43005">
        <ele>416</ele>
        <time>2016-04-08T14:46:22Z</time>
      </trkpt>
      <trkpt lat="46.19693" lon="2.43002">
        <ele>416</ele>
        <time>2016-04-08T14:46:25Z</time>
      </trkpt>
      <trkpt lat="46.19689" lon="2.43">
        <ele>416</ele>
        <time>2016-04-08T14:46:28Z</time>
      </trkpt>
      <trkpt lat="46.19685" lon="2.42998">
        <ele>416</ele>
        <time>2016-04-08T14:46:31Z</time>
      </trkpt>
      <trkpt lat="46.19681" lon="2.42996">
        <ele>416</ele>
        <time>2016-04-08T14:46:35Z</time>
      </trkpt>
      <trkpt lat="46.1967" lon="2.42984">
        <ele>421</ele>
        <time>2016-04-08T14:46:39Z</time>
      </trkpt>
      <trkpt lat="46.19667" lon="2.42982">
        <ele>421</ele>
        <time>2016-04-08T14:46:43Z</time>
      </trkpt>
      <trkpt lat="46.19662" lon="2.4298">
        <ele>421</ele>
        <time>2016-04-08T14:46:47Z</time>
      </trkpt>
      <trkpt lat="46.19659" lon="2.42979">
        <ele>421</ele>
        <time>2016-04-08T14:46:50Z</time>
      </trkpt>
      <trkpt lat="46.19656" lon="2.42977">
        <ele>421</ele>
        <time>2016-04-08T14:46:53Z</time>
      </trkpt>
      <trkpt lat="46.19652" lon="2.42976">
        <ele>420</ele>
        <time>2016-04-08T14:46:57Z</time>
      </trkpt>
      <trkpt lat="46.19649" lon="2.42974">
        <ele>420</ele>
        <time>2016-04-08T14:47:00Z</time>
      </trkpt>
      <trkpt lat="46.19645" lon="2.42972">
        <ele>419</ele>
        <time>2016-04-08T14:47:03Z</time>
      </trkpt>
      <trkpt lat="46.19642" lon="2.4297">
        <ele>418</ele>
        <time>2016-04-08T14:47:06Z</time>
      </trkpt>
      <trkpt lat="46.19638" lon="2.42968">
        <ele>417</ele>
        <time>2016-04-08T14:47:09Z</time>
      </trkpt>
      <trkpt lat="46.19633" lon="2.42965">
        <ele>416</ele>
        <time>2016-04-08T14:47:12Z</time>
      </trkpt>
      <trkpt lat="46.19629" lon="2.42962">
        <ele>416</ele>
        <time>2016-04-08T14:47:15Z</time>
      </trkpt>
      <trkpt lat="46.19625" lon="2.42959">
        <ele>416</ele>
        <time>2016-04-08T14:47:18Z</time>
      </trkpt>
      <trkpt lat="46.19621" lon="2.42957">
        <ele>416</ele>
        <time>2016-04-08T14:47:22Z</time>
      </trkpt>
      <trkpt lat="46.19617" lon="2.42956">
        <ele>416</ele>
        <time>2016-04-08T14:47:25Z</time>
      </trkpt>
      <trkpt lat="46.19613" lon="2.42954">
        <ele>416</ele>
        <time>2016-04-08T14:47:28Z</time>
      </trkpt>
      <trkpt lat="46.1961" lon="2.42952">
        <ele>416</ele>
        <time>2016-04-08T14:47:31Z</time>
      </trkpt>
      <trkpt lat="46.19606" lon="2.4295">
        <ele>416</ele>
        <time>2016-04-08T14:47:34Z</time>
      </trkpt>
      <trkpt lat="46.19602" lon="2.42949">
        <ele>416</ele>
        <time>2016-04-08T14:47:37Z</time>
      </trkpt>
      <trkpt lat="46.19598" lon="2.42947">
        <ele>416</ele>
        <time>2016-04-08T14:47:40Z</time>
      </trkpt>
      <trkpt lat="46.19594" lon="2.42945">
        <ele>415</ele>
        <time>2016-04-08T14:47:43Z</time>
      </trkpt>
      <trkpt lat="46.1959" lon="2.42943">
        <ele>415</ele>
        <time>2016-04-08T14:47:46Z</time>
      </trkpt>
      <trkpt lat="46.19587" lon="2.4294">
        <ele>414</ele>
        <time>2016-04-08T14:47:49Z</time>
      </trkpt>
      <trkpt lat="46.19582" lon="2.42936">
        <ele>414</ele>
        <time>2016-04-08T14:47:52Z</time>
      </trkpt>
      <trkpt lat="46.19579" lon="2.42933">
        <ele>414</ele>
        <time>2016-04-08T14:47:55Z</time>
      </trkpt>
      <trkpt lat="46.19574" lon="2.42929">
        <ele>414</ele>
        <time>2016-04-08T14:47:58Z</time>
      </trkpt>
      <trkpt lat="46.1957" lon="2.42927">
        <ele>414</ele>
        <time>2016-04-08T14:48:01Z</time>
      </trkpt>
      <trkpt lat="46.19566" lon="2.42925">
        <ele>414</ele>
        <time>2016-04-08T14:48:04Z</time>
      </trkpt>
      <trkpt lat="46.19562" lon="2.42922">
        <ele>414</ele>
        <time>2016-04-08T14:48:07Z</time>
      </trkpt>
      <trkpt lat="46.19558" lon="2.42919">
        <ele>414</ele>
        <time>2016-04-08T14:48:10Z</time>
      </trkpt>
      <trkpt lat="46.19554" lon="2.42916">
        <ele>414</ele>
        <time>2016-04-08T14:48:13Z</time>
      </trkpt>
      <trkpt lat="46.19551" lon="2.42913">
        <ele>414</ele>
        <time>2016-04-08T14:48:16Z</time>
      </trkpt>
      <trkpt lat="46.19547" lon="2.4291">
        <ele>414</ele>
        <time>2016-04-08T14:48:19Z</time>
      </trkpt>
      <trkpt lat="46.19543" lon="2.42907">
        <ele>414</ele>
        <time>2016-04-08T14:48:22Z</time>
      </trkpt>
      <trkpt lat="46.1954" lon="2.42902">
        <ele>414</ele>
        <time>2016-04-08T14:48:25Z</time>
      </trkpt>
      <trkpt lat="46.19536" lon="2.42899">
        <ele>414</ele>
        <time>2016-04-08T14:48:28Z</time>
      </trkpt>
      <trkpt lat="46.19533" lon="2.42896">
        <ele>414</ele>
        <time>2016-04-08T14:48:31Z</time>
      </trkpt>
      <trkpt lat="46.1953" lon="2.42893">
        <ele>414</ele>
        <time>2016-04-08T14:48:34Z</time>
      </trkpt>
      <trkpt lat="46.19526" lon="2.42889">
        <ele>414</ele>
        <time>2016-04-08T14:48:37Z</time>
      </trkpt>
      <trkpt lat="46.19523" lon="2.42884">
        <ele>414</ele>
        <time>2016-04-08T14:48:40Z</time>
      </trkpt>
      <trkpt lat="46.19519" lon="2.4288">
        <ele>414</ele>
        <time>2016-04-08T14:48:43Z</time>
      </trkpt>
      <trkpt lat="46.19515" lon="2.42876">
        <ele>413</ele>
        <time>2016-04-08T14:48:46Z</time>
      </trkpt>
      <trkpt lat="46.19512" lon="2.42873">
        <ele>412</ele>
        <time>2016-04-08T14:48:49Z</time>
      </trkpt>
      <trkpt lat="46.19508" lon="2.42869">
        <ele>412</ele>
        <time>2016-04-08T14:48:52Z</time>
      </trkpt>
      <trkpt lat="46.19505" lon="2.42865">
        <ele>411</ele>
        <time>2016-04-08T14:48:55Z</time>
      </trkpt>
      <trkpt lat="46.19501" lon="2.42861">
        <ele>411</ele>
        <time>2016-04-08T14:48:58Z</time>
      </trkpt>
      <trkpt lat="46.19496" lon="2.42856">
        <ele>410</ele>
        <time>2016-04-08T14:49:02Z</time>
      </trkpt>
      <trkpt lat="46.19493" lon="2.42851">
        <ele>409</ele>
        <time>2016-04-08T14:49:05Z</time>
      </trkpt>
      <trkpt lat="46.19489" lon="2.42848">
        <ele>409</ele>
        <time>2016-04-08T14:49:08Z</time>
      </trkpt>
      <trkpt lat="46.19483" lon="2.42844">
        <ele>409</ele>
        <time>2016-04-08T14:49:11Z</time>
      </trkpt>
      <trkpt lat="46.19479" lon="2.42841">
        <ele>409</ele>
        <time>2016-04-08T14:49:14Z</time>
      </trkpt>
      <trkpt lat="46.19474" lon="2.42836">
        <ele>409</ele>
        <time>2016-04-08T14:49:18Z</time>
      </trkpt>
      <trkpt lat="46.19469" lon="2.42832">
        <ele>409</ele>
        <time>2016-04-08T14:49:22Z</time>
      </trkpt>
      <trkpt lat="46.19465" lon="2.42828">
        <ele>408</ele>
        <time>2016-04-08T14:49:26Z</time>
      </trkpt>
      <trkpt lat="46.19462" lon="2.42824">
        <ele>407</ele>
        <time>2016-04-08T14:49:29Z</time>
      </trkpt>
      <trkpt lat="46.19459" lon="2.42821">
        <ele>405</ele>
        <time>2016-04-08T14:49:32Z</time>
      </trkpt>
      <trkpt lat="46.19455" lon="2.42816">
        <ele>404</ele>
        <time>2016-04-08T14:49:35Z</time>
      </trkpt>
      <trkpt lat="46.19452" lon="2.42812">
        <ele>404</ele>
        <time>2016-04-08T14:49:38Z</time>
      </trkpt>
      <trkpt lat="46.19446" lon="2.42808">
        <ele>404</ele>
        <time>2016-04-08T14:49:42Z</time>
      </trkpt>
      <trkpt lat="46.19442" lon="2.42804">
        <ele>403</ele>
        <time>2016-04-08T14:49:45Z</time>
      </trkpt>
      <trkpt lat="46.19439" lon="2.428">
        <ele>403</ele>
        <time>2016-04-08T14:49:48Z</time>
      </trkpt>
      <trkpt lat="46.19434" lon="2.42798">
        <ele>403</ele>
        <time>2016-04-08T14:49:51Z</time>
      </trkpt>
      <trkpt lat="46.1943" lon="2.42797">
        <ele>403</ele>
        <time>2016-04-08T14:49:54Z</time>
      </trkpt>
      <trkpt lat="46.19426" lon="2.42795">
        <ele>403</ele>
        <time>2016-04-08T14:49:57Z</time>
      </trkpt>
      <trkpt lat="46.19422" lon="2.42794">
        <ele>403</ele>
        <time>2016-04-08T14:50:00Z</time>
      </trkpt>
      <trkpt lat="46.19418" lon="2.42793">
        <ele>403</ele>
        <time>2016-04-08T14:50:03Z</time>
      </trkpt>
      <trkpt lat="46.19414" lon="2.42793">
        <ele>403</ele>
        <time>2016-04-08T14:50:06Z</time>
      </trkpt>
      <trkpt lat="46.19409" lon="2.42793">
        <ele>403</ele>
        <time>2016-04-08T14:50:09Z</time>
      </trkpt>
      <trkpt lat="46.19405" lon="2.42794">
        <ele>403</ele>
        <time>2016-04-08T14:50:12Z</time>
      </trkpt>
      <trkpt lat="46.194" lon="2.42796">
        <ele>403</ele>
        <time>2016-04-08T14:50:15Z</time>
      </trkpt>
      <trkpt lat="46.19397" lon="2.42798">
        <ele>403</ele>
        <time>2016-04-08T14:50:18Z</time>
      </trkpt>
      <trkpt lat="46.19393" lon="2.428">
        <ele>403</ele>
        <time>2016-04-08T14:50:22Z</time>
      </trkpt>
      <trkpt lat="46.19389" lon="2.42803">
        <ele>403</ele>
        <time>2016-04-08T14:50:25Z</time>
      </trkpt>
      <trkpt lat="46.19386" lon="2.42804">
        <ele>403</ele>
        <time>2016-04-08T14:50:28Z</time>
      </trkpt>
      <trkpt lat="46.19381" lon="2.42804">
        <ele>403</ele>
        <time>2016-04-08T14:50:31Z</time>
      </trkpt>
      <trkpt lat="46.19377" lon="2.42805">
        <ele>403</ele>
        <time>2016-04-08T14:50:34Z</time>
      </trkpt>
      <trkpt lat="46.19373" lon="2.42804">
        <ele>403</ele>
        <time>2016-04-08T14:50:38Z</time>
      </trkpt>
      <trkpt lat="46.1937" lon="2.42804">
        <ele>403</ele>
        <time>2016-04-08T14:50:41Z</time>
      </trkpt>
      <trkpt lat="46.19365" lon="2.42805">
        <ele>402</ele>
        <time>2016-04-08T14:50:45Z</time>
      </trkpt>
      <trkpt lat="46.19361" lon="2.42806">
        <ele>402</ele>
        <time>2016-04-08T14:50:49Z</time>
      </trkpt>
      <trkpt lat="46.19358" lon="2.42808">
        <ele>401</ele>
        <time>2016-04-08T14:50:53Z</time>
      </trkpt>
      <trkpt lat="46.19355" lon="2.42809">
        <ele>401</ele>
        <time>2016-04-08T14:50:56Z</time>
      </trkpt>
      <trkpt lat="46.19353" lon="2.42809">
        <ele>401</ele>
        <time>2016-04-08T14:50:59Z</time>
      </trkpt>
      <trkpt lat="46.19352" lon="2.42809">
        <ele>401</ele>
        <time>2016-04-08T14:51:05Z</time>
      </trkpt>
      <trkpt lat="46.19351" lon="2.42811">
        <ele>401</ele>
        <time>2016-04-08T14:51:13Z</time>
      </trkpt>
      <trkpt lat="46.19348" lon="2.42814">
        <ele>401</ele>
        <time>2016-04-08T14:51:16Z</time>
      </trkpt>
      <trkpt lat="46.19344" lon="2.42816">
        <ele>401</ele>
        <time>2016-04-08T14:51:19Z</time>
      </trkpt>
      <trkpt lat="46.1934" lon="2.42819">
        <ele>401</ele>
        <time>2016-04-08T14:51:23Z</time>
      </trkpt>
      <trkpt lat="46.19336" lon="2.42822">
        <ele>401</ele>
        <time>2016-04-08T14:51:26Z</time>
      </trkpt>
      <trkpt lat="46.19332" lon="2.42824">
        <ele>401</ele>
        <time>2016-04-08T14:51:29Z</time>
      </trkpt>
      <trkpt lat="46.19327" lon="2.42828">
        <ele>401</ele>
        <time>2016-04-08T14:51:33Z</time>
      </trkpt>
      <trkpt lat="46.19322" lon="2.42832">
        <ele>400</ele>
        <time>2016-04-08T14:51:37Z</time>
      </trkpt>
      <trkpt lat="46.19318" lon="2.42836">
        <ele>399</ele>
        <time>2016-04-08T14:51:41Z</time>
      </trkpt>
      <trkpt lat="46.19315" lon="2.42838">
        <ele>398</ele>
        <time>2016-04-08T14:51:45Z</time>
      </trkpt>
      <trkpt lat="46.19312" lon="2.42842">
        <ele>397</ele>
        <time>2016-04-08T14:51:48Z</time>
      </trkpt>
      <trkpt lat="46.19307" lon="2.42846">
        <ele>397</ele>
        <time>2016-04-08T14:51:52Z</time>
      </trkpt>
      <trkpt lat="46.19304" lon="2.4285">
        <ele>396</ele>
        <time>2016-04-08T14:51:55Z</time>
      </trkpt>
      <trkpt lat="46.193" lon="2.42853">
        <ele>396</ele>
        <time>2016-04-08T14:51:58Z</time>
      </trkpt>
      <trkpt lat="46.19297" lon="2.42856">
        <ele>395</ele>
        <time>2016-04-08T14:52:01Z</time>
      </trkpt>
      <trkpt lat="46.19294" lon="2.42857">
        <ele>394</ele>
        <time>2016-04-08T14:52:04Z</time>
      </trkpt>
      <trkpt lat="46.1929" lon="2.42859">
        <ele>394</ele>
        <time>2016-04-08T14:52:07Z</time>
      </trkpt>
      <trkpt lat="46.19287" lon="2.42859">
        <ele>394</ele>
        <time>2016-04-08T14:52:10Z</time>
      </trkpt>
      <trkpt lat="46.19283" lon="2.42859">
        <ele>394</ele>
        <time>2016-04-08T14:52:13Z</time>
      </trkpt>
      <trkpt lat="46.1928" lon="2.4286">
        <ele>393</ele>
        <time>2016-04-08T14:52:16Z</time>
      </trkpt>
      <trkpt lat="46.19276" lon="2.42859">
        <ele>392</ele>
        <time>2016-04-08T14:52:19Z</time>
      </trkpt>
      <trkpt lat="46.19272" lon="2.42858">
        <ele>391</ele>
        <time>2016-04-08T14:52:22Z</time>
      </trkpt>
      <trkpt lat="46.19268" lon="2.42857">
        <ele>389</ele>
        <time>2016-04-08T14:52:25Z</time>
      </trkpt>
      <trkpt lat="46.19265" lon="2.42853">
        <ele>388</ele>
        <time>2016-04-08T14:52:29Z</time>
      </trkpt>
      <trkpt lat="46.19262" lon="2.42849">
        <ele>387</ele>
        <time>2016-04-08T14:52:32Z</time>
      </trkpt>
      <trkpt lat="46.1926" lon="2.42844">
        <ele>386</ele>
        <time>2016-04-08T14:52:35Z</time>
      </trkpt>
      <trkpt lat="46.19257" lon="2.42837">
        <ele>385</ele>
        <time>2016-04-08T14:52:38Z</time>
      </trkpt>
      <trkpt lat="46.19257" lon="2.42831">
        <ele>385</ele>
        <time>2016-04-08T14:52:41Z</time>
      </trkpt>
      <trkpt lat="46.19258" lon="2.42824">
        <ele>384</ele>
        <time>2016-04-08T14:52:44Z</time>
      </trkpt>
      <trkpt lat="46.19258" lon="2.42818">
        <ele>384</ele>
        <time>2016-04-08T14:52:47Z</time>
      </trkpt>
      <trkpt lat="46.19261" lon="2.42812">
        <ele>383</ele>
        <time>2016-04-08T14:52:50Z</time>
      </trkpt>
      <trkpt lat="46.19263" lon="2.42806">
        <ele>382</ele>
        <time>2016-04-08T14:52:53Z</time>
      </trkpt>
      <trkpt lat="46.19265" lon="2.428">
        <ele>382</ele>
        <time>2016-04-08T14:52:56Z</time>
      </trkpt>
      <trkpt lat="46.19266" lon="2.42795">
        <ele>381</ele>
        <time>2016-04-08T14:52:59Z</time>
      </trkpt>
      <trkpt lat="46.19267" lon="2.42788">
        <ele>380</ele>
        <time>2016-04-08T14:53:02Z</time>
      </trkpt>
      <trkpt lat="46.19266" lon="2.42781">
        <ele>379</ele>
        <time>2016-04-08T14:53:05Z</time>
      </trkpt>
      <trkpt lat="46.19266" lon="2.42775">
        <ele>378</ele>
        <time>2016-04-08T14:53:08Z</time>
      </trkpt>
      <trkpt lat="46.19265" lon="2.42769">
        <ele>377</ele>
        <time>2016-04-08T14:53:11Z</time>
      </trkpt>
      <trkpt lat="46.19263" lon="2.42763">
        <ele>377</ele>
        <time>2016-04-08T14:53:14Z</time>
      </trkpt>
      <trkpt lat="46.19261" lon="2.42756">
        <ele>377</ele>
        <time>2016-04-08T14:53:17Z</time>
      </trkpt>
      <trkpt lat="46.19257" lon="2.42751">
        <ele>377</ele>
        <time>2016-04-08T14:53:21Z</time>
      </trkpt>
      <trkpt lat="46.19254" lon="2.42747">
        <ele>376</ele>
        <time>2016-04-08T14:53:25Z</time>
      </trkpt>
      <trkpt lat="46.1925" lon="2.42746">
        <ele>375</ele>
        <time>2016-04-08T14:53:28Z</time>
      </trkpt>
      <trkpt lat="46.19247" lon="2.42746">
        <ele>374</ele>
        <time>2016-04-08T14:53:31Z</time>
      </trkpt>
      <trkpt lat="46.19243" lon="2.42745">
        <ele>372</ele>
        <time>2016-04-08T14:53:34Z</time>
      </trkpt>
      <trkpt lat="46.19239" lon="2.42744">
        <ele>371</ele>
        <time>2016-04-08T14:53:37Z</time>
      </trkpt>
      <trkpt lat="46.19234" lon="2.42742">
        <ele>371</ele>
        <time>2016-04-08T14:53:40Z</time>
      </trkpt>
      <trkpt lat="46.1923" lon="2.4274">
        <ele>371</ele>
        <time>2016-04-08T14:53:43Z</time>
      </trkpt>
      <trkpt lat="46.19225" lon="2.42739">
        <ele>371</ele>
        <time>2016-04-08T14:53:46Z</time>
      </trkpt>
      <trkpt lat="46.1922" lon="2.42739">
        <ele>371</ele>
        <time>2016-04-08T14:53:49Z</time>
      </trkpt>
      <trkpt lat="46.19216" lon="2.42738">
        <ele>371</ele>
        <time>2016-04-08T14:53:52Z</time>
      </trkpt>
      <trkpt lat="46.19211" lon="2.42737">
        <ele>371</ele>
        <time>2016-04-08T14:53:55Z</time>
      </trkpt>
      <trkpt lat="46.19207" lon="2.42737">
        <ele>371</ele>
        <time>2016-04-08T14:53:58Z</time>
      </trkpt>
      <trkpt lat="46.19203" lon="2.42736">
        <ele>371</ele>
        <time>2016-04-08T14:54:01Z</time>
      </trkpt>
      <trkpt lat="46.19198" lon="2.42736">
        <ele>370</ele>
        <time>2016-04-08T14:54:04Z</time>
      </trkpt>
      <trkpt lat="46.19194" lon="2.42736">
        <ele>370</ele>
        <time>2016-04-08T14:54:07Z</time>
      </trkpt>
      <trkpt lat="46.19189" lon="2.42736">
        <ele>370</ele>
        <time>2016-04-08T14:54:10Z</time>
      </trkpt>
      <trkpt lat="46.19185" lon="2.42735">
        <ele>370</ele>
        <time>2016-04-08T14:54:13Z</time>
      </trkpt>
      <trkpt lat="46.19181" lon="2.42735">
        <ele>370</ele>
        <time>2016-04-08T14:54:16Z</time>
      </trkpt>
      <trkpt lat="46.19176" lon="2.42735">
        <ele>369</ele>
        <time>2016-04-08T14:54:19Z</time>
      </trkpt>
      <trkpt lat="46.19172" lon="2.42734">
        <ele>369</ele>
        <time>2016-04-08T14:54:22Z</time>
      </trkpt>
      <trkpt lat="46.19168" lon="2.42734">
        <ele>368</ele>
        <time>2016-04-08T14:54:25Z</time>
      </trkpt>
      <trkpt lat="46.19164" lon="2.42734">
        <ele>368</ele>
        <time>2016-04-08T14:54:28Z</time>
      </trkpt>
      <trkpt lat="46.1916" lon="2.42734">
        <ele>368</ele>
        <time>2016-04-08T14:54:31Z</time>
      </trkpt>
      <trkpt lat="46.19155" lon="2.42733">
        <ele>368</ele>
        <time>2016-04-08T14:54:34Z</time>
      </trkpt>
      <trkpt lat="46.19151" lon="2.42732">
        <ele>367</ele>
        <time>2016-04-08T14:54:37Z</time>
      </trkpt>
      <trkpt lat="46.19147" lon="2.42731">
        <ele>367</ele>
        <time>2016-04-08T14:54:40Z</time>
      </trkpt>
      <trkpt lat="46.19143" lon="2.42731">
        <ele>367</ele>
        <time>2016-04-08T14:54:43Z</time>
      </trkpt>
      <trkpt lat="46.19139" lon="2.4273">
        <ele>366</ele>
        <time>2016-04-08T14:54:46Z</time>
      </trkpt>
      <trkpt lat="46.19135" lon="2.42731">
        <ele>365</ele>
        <time>2016-04-08T14:54:49Z</time>
      </trkpt>
      <trkpt lat="46.19131" lon="2.4273">
        <ele>365</ele>
        <time>2016-04-08T14:54:52Z</time>
      </trkpt>
      <trkpt lat="46.19127" lon="2.4273">
        <ele>365</ele>
        <time>2016-04-08T14:54:55Z</time>
      </trkpt>
      <trkpt lat="46.19123" lon="2.42729">
        <ele>365</ele>
        <time>2016-04-08T14:54:58Z</time>
      </trkpt>
      <trkpt lat="46.19119" lon="2.42729">
        <ele>364</ele>
        <time>2016-04-08T14:55:01Z</time>
      </trkpt>
      <trkpt lat="46.19114" lon="2.42728">
        <ele>364</ele>
        <time>2016-04-08T14:55:04Z</time>
      </trkpt>
      <trkpt lat="46.1911" lon="2.42728">
        <ele>364</ele>
        <time>2016-04-08T14:55:07Z</time>
      </trkpt>
      <trkpt lat="46.19104" lon="2.42728">
        <ele>363</ele>
        <time>2016-04-08T14:55:11Z</time>
      </trkpt>
      <trkpt lat="46.191" lon="2.42728">
        <ele>363</ele>
        <time>2016-04-08T14:55:14Z</time>
      </trkpt>
      <trkpt lat="46.19096" lon="2.42728">
        <ele>363</ele>
        <time>2016-04-08T14:55:17Z</time>
      </trkpt>
      <trkpt lat="46.19091" lon="2.42727">
        <ele>363</ele>
        <time>2016-04-08T14:55:20Z</time>
      </trkpt>
      <trkpt lat="46.19087" lon="2.42727">
        <ele>363</ele>
        <time>2016-04-08T14:55:23Z</time>
      </trkpt>
      <trkpt lat="46.19083" lon="2.42728">
        <ele>363</ele>
        <time>2016-04-08T14:55:26Z</time>
      </trkpt>
      <trkpt lat="46.19078" lon="2.42727">
        <ele>363</ele>
        <time>2016-04-08T14:55:29Z</time>
      </trkpt>
      <trkpt lat="46.19074" lon="2.42726">
        <ele>363</ele>
        <time>2016-04-08T14:55:32Z</time>
      </trkpt>
      <trkpt lat="46.1907" lon="2.42725">
        <ele>363</ele>
        <time>2016-04-08T14:55:35Z</time>
      </trkpt>
      <trkpt lat="46.19065" lon="2.42724">
        <ele>363</ele>
        <time>2016-04-08T14:55:38Z</time>
      </trkpt>
      <trkpt lat="46.19062" lon="2.42722">
        <ele>362</ele>
        <time>2016-04-08T14:55:41Z</time>
      </trkpt>
      <trkpt lat="46.19058" lon="2.42719">
        <ele>362</ele>
        <time>2016-04-08T14:55:44Z</time>
      </trkpt>
      <trkpt lat="46.19055" lon="2.42713">
        <ele>361</ele>
        <time>2016-04-08T14:55:47Z</time>
      </trkpt>
      <trkpt lat="46.19053" lon="2.42707">
        <ele>361</ele>
        <time>2016-04-08T14:55:50Z</time>
      </trkpt>
      <trkpt lat="46.19051" lon="2.42701">
        <ele>361</ele>
        <time>2016-04-08T14:55:53Z</time>
      </trkpt>
      <trkpt lat="46.19049" lon="2.42695">
        <ele>361</ele>
        <time>2016-04-08T14:55:56Z</time>
      </trkpt>
      <trkpt lat="46.19048" lon="2.42688">
        <ele>361</ele>
        <time>2016-04-08T14:55:59Z</time>
      </trkpt>
      <trkpt lat="46.19048" lon="2.42682">
        <ele>360</ele>
        <time>2016-04-08T14:56:02Z</time>
      </trkpt>
      <trkpt lat="46.19048" lon="2.42675">
        <ele>360</ele>
        <time>2016-04-08T14:56:05Z</time>
      </trkpt>
      <trkpt lat="46.19048" lon="2.4267">
        <ele>359</ele>
        <time>2016-04-08T14:56:08Z</time>
      </trkpt>
      <trkpt lat="46.19048" lon="2.42663">
        <ele>358</ele>
        <time>2016-04-08T14:56:11Z</time>
      </trkpt>
      <trkpt lat="46.19048" lon="2.42657">
        <ele>358</ele>
        <time>2016-04-08T14:56:14Z</time>
      </trkpt>
      <trkpt lat="46.19048" lon="2.42652">
        <ele>357</ele>
        <time>2016-04-08T14:56:17Z</time>
      </trkpt>
      <trkpt lat="46.19048" lon="2.42647">
        <ele>357</ele>
        <time>2016-04-08T14:56:20Z</time>
      </trkpt>
      <trkpt lat="46.19049" lon="2.42642">
        <ele>356</ele>
        <time>2016-04-08T14:56:24Z</time>
      </trkpt>
      <trkpt lat="46.19049" lon="2.42637">
        <ele>356</ele>
        <time>2016-04-08T14:56:28Z</time>
      </trkpt>
      <trkpt lat="46.1905" lon="2.42633">
        <ele>355</ele>
        <time>2016-04-08T14:56:32Z</time>
      </trkpt>
      <trkpt lat="46.1905" lon="2.42629">
        <ele>354</ele>
        <time>2016-04-08T14:56:36Z</time>
      </trkpt>
      <trkpt lat="46.1905" lon="2.42627">
        <ele>353</ele>
        <time>2016-04-08T14:56:39Z</time>
      </trkpt>
      <trkpt lat="46.19049" lon="2.42624">
        <ele>353</ele>
        <time>2016-04-08T14:56:43Z</time>
      </trkpt>
      <trkpt lat="46.19048" lon="2.42621">
        <ele>353</ele>
        <time>2016-04-08T14:57:01Z</time>
      </trkpt>
      <trkpt lat="46.19048" lon="2.42618">
        <ele>353</ele>
        <time>2016-04-08T14:57:11Z</time>
      </trkpt>
      <trkpt lat="46.19047" lon="2.42618">
        <ele>353</ele>
        <time>2016-04-08T14:57:31Z</time>
      </trkpt>
      <trkpt lat="46.19046" lon="2.42616">
        <ele>353</ele>
        <time>2016-04-08T14:57:43Z</time>
      </trkpt>
      <trkpt lat="46.19046" lon="2.42615">
        <ele>353</ele>
        <time>2016-04-08T14:58:00Z</time>
      </trkpt>
      <trkpt lat="46.19046" lon="2.42613">
        <ele>354</ele>
        <time>2016-04-08T14:58:15Z</time>
      </trkpt>
      <trkpt lat="46.19047" lon="2.42611">
        <ele>354</ele>
        <time>2016-04-08T14:58:32Z</time>
      </trkpt>
      <trkpt lat="46.19048" lon="2.42606">
        <ele>354</ele>
        <time>2016-04-08T14:58:35Z</time>
      </trkpt>
      <trkpt lat="46.19048" lon="2.42601">
        <ele>354</ele>
        <time>2016-04-08T14:58:38Z</time>
      </trkpt>
      <trkpt lat="46.19048" lon="2.42596">
        <ele>354</ele>
        <time>2016-04-08T14:58:41Z</time>
      </trkpt>
      <trkpt lat="46.19048" lon="2.42591">
        <ele>354</ele>
        <time>2016-04-08T14:58:45Z</time>
      </trkpt>
      <trkpt lat="46.19049" lon="2.42587">
        <ele>354</ele>
        <time>2016-04-08T14:58:48Z</time>
      </trkpt>
      <trkpt lat="46.1905" lon="2.42582">
        <ele>354</ele>
        <time>2016-04-08T14:58:51Z</time>
      </trkpt>
      <trkpt lat="46.19051" lon="2.42576">
        <ele>354</ele>
        <time>2016-04-08T14:58:54Z</time>
      </trkpt>
      <trkpt lat="46.19051" lon="2.4257">
        <ele>354</ele>
        <time>2016-04-08T14:58:57Z</time>
      </trkpt>
      <trkpt lat="46.19052" lon="2.42564">
        <ele>354</ele>
        <time>2016-04-08T14:59:00Z</time>
      </trkpt>
      <trkpt lat="46.19052" lon="2.42557">
        <ele>354</ele>
        <time>2016-04-08T14:59:03Z</time>
      </trkpt>
      <trkpt lat="46.19053" lon="2.42551">
        <ele>354</ele>
        <time>2016-04-08T14:59:06Z</time>
      </trkpt>
      <trkpt lat="46.19054" lon="2.42545">
        <ele>353</ele>
        <time>2016-04-08T14:59:09Z</time>
      </trkpt>
      <trkpt lat="46.19055" lon="2.4254">
        <ele>352</ele>
        <time>2016-04-08T14:59:12Z</time>
      </trkpt>
      <trkpt lat="46.19055" lon="2.42533">
        <ele>352</ele>
        <time>2016-04-08T14:59:15Z</time>
      </trkpt>
      <trkpt lat="46.19055" lon="2.42526">
        <ele>352</ele>
        <time>2016-04-08T14:59:18Z</time>
      </trkpt>
      <trkpt lat="46.19055" lon="2.42518">
        <ele>352</ele>
        <time>2016-04-08T14:59:21Z</time>
      </trkpt>
      <trkpt lat="46.19057" lon="2.42512">
        <ele>352</ele>
        <time>2016-04-08T14:59:24Z</time>
      </trkpt>
      <trkpt lat="46.19057" lon="2.42506">
        <ele>352</ele>
        <time>2016-04-08T14:59:27Z</time>
      </trkpt>
      <trkpt lat="46.19058" lon="2.425">
        <ele>351</ele>
        <time>2016-04-08T14:59:30Z</time>
      </trkpt>
      <trkpt lat="46.19059" lon="2.42495">
        <ele>350</ele>
        <time>2016-04-08T14:59:33Z</time>
      </trkpt>
      <trkpt lat="46.19061" lon="2.42489">
        <ele>350</ele>
        <time>2016-04-08T14:59:36Z</time>
      </trkpt>
      <trkpt lat="46.19062" lon="2.42483">
        <ele>349</ele>
        <time>2016-04-08T14:59:39Z</time>
      </trkpt>
      <trkpt lat="46.19063" lon="2.42477">
        <ele>349</ele>
        <time>2016-04-08T14:59:42Z</time>
      </trkpt>
      <trkpt lat="46.19065" lon="2.42472">
        <ele>348</ele>
        <time>2016-04-08T14:59:45Z</time>
      </trkpt>
      <trkpt lat="46.19065" lon="2.42465">
        <ele>347</ele>
        <time>2016-04-08T14:59:48Z</time>
      </trkpt>
      <trkpt lat="46.19066" lon="2.4246">
        <ele>346</ele>
        <time>2016-04-08T14:59:51Z</time>
      </trkpt>
      <trkpt lat="46.19068" lon="2.42453">
        <ele>346</ele>
        <time>2016-04-08T14:59:54Z</time>
      </trkpt>
      <trkpt lat="46.19069" lon="2.42447">
        <ele>346</ele>
        <time>2016-04-08T14:59:57Z</time>
      </trkpt>
      <trkpt lat="46.19069" lon="2.4244">
        <ele>345</ele>
        <time>2016-04-08T15:00:00Z</time>
      </trkpt>
      <trkpt lat="46.19069" lon="2.42433">
        <ele>345</ele>
        <time>2016-04-08T15:00:03Z</time>
      </trkpt>
      <trkpt lat="46.19069" lon="2.42429">
        <ele>344</ele>
        <time>2016-04-08T15:00:32Z</time>
      </trkpt>
      <trkpt lat="46.19071" lon="2.42425">
        <ele>344</ele>
        <time>2016-04-08T15:00:36Z</time>
      </trkpt>
      <trkpt lat="46.19072" lon="2.42419">
        <ele>344</ele>
        <time>2016-04-08T15:00:40Z</time>
      </trkpt>
      <trkpt lat="46.19073" lon="2.42413">
        <ele>344</ele>
        <time>2016-04-08T15:00:43Z</time>
      </trkpt>
      <trkpt lat="46.19074" lon="2.42407">
        <ele>344</ele>
        <time>2016-04-08T15:00:46Z</time>
      </trkpt>
      <trkpt lat="46.19076" lon="2.42401">
        <ele>344</ele>
        <time>2016-04-08T15:00:49Z</time>
      </trkpt>
      <trkpt lat="46.19077" lon="2.42394">
        <ele>344</ele>
        <time>2016-04-08T15:00:52Z</time>
      </trkpt>
      <trkpt lat="46.19078" lon="2.42389">
        <ele>344</ele>
        <time>2016-04-08T15:00:55Z</time>
      </trkpt>
      <trkpt lat="46.19081" lon="2.4238">
        <ele>342</ele>
        <time>2016-04-08T15:00:59Z</time>
      </trkpt>
      <trkpt lat="46.19083" lon="2.42375">
        <ele>340</ele>
        <time>2016-04-08T15:01:02Z</time>
      </trkpt>
      <trkpt lat="46.19084" lon="2.42369">
        <ele>338</ele>
        <time>2016-04-08T15:01:05Z</time>
      </trkpt>
      <trkpt lat="46.19086" lon="2.42363">
        <ele>337</ele>
        <time>2016-04-08T15:01:09Z</time>
      </trkpt>
      <trkpt lat="46.19087" lon="2.42356">
        <ele>336</ele>
        <time>2016-04-08T15:01:13Z</time>
      </trkpt>
      <trkpt lat="46.19089" lon="2.4235">
        <ele>336</ele>
        <time>2016-04-08T15:01:16Z</time>
      </trkpt>
      <trkpt lat="46.19091" lon="2.42345">
        <ele>336</ele>
        <time>2016-04-08T15:01:19Z</time>
      </trkpt>
      <trkpt lat="46.19091" lon="2.42335">
        <ele>336</ele>
        <time>2016-04-08T15:01:23Z</time>
      </trkpt>
      <trkpt lat="46.19093" lon="2.42329">
        <ele>336</ele>
        <time>2016-04-08T15:01:26Z</time>
      </trkpt>
      <trkpt lat="46.19094" lon="2.42321">
        <ele>336</ele>
        <time>2016-04-08T15:01:30Z</time>
      </trkpt>
      <trkpt lat="46.19095" lon="2.42315">
        <ele>336</ele>
        <time>2016-04-08T15:01:33Z</time>
      </trkpt>
      <trkpt lat="46.19096" lon="2.42308">
        <ele>336</ele>
        <time>2016-04-08T15:01:36Z</time>
      </trkpt>
      <trkpt lat="46.19096" lon="2.423">
        <ele>336</ele>
        <time>2016-04-08T15:01:39Z</time>
      </trkpt>
      <trkpt lat="46.19093" lon="2.42296">
        <ele>336</ele>
        <time>2016-04-08T15:01:42Z</time>
      </trkpt>
      <trkpt lat="46.19088" lon="2.4229">
        <ele>336</ele>
        <time>2016-04-08T15:01:46Z</time>
      </trkpt>
      <trkpt lat="46.19084" lon="2.42288">
        <ele>336</ele>
        <time>2016-04-08T15:01:49Z</time>
      </trkpt>
      <trkpt lat="46.19079" lon="2.42287">
        <ele>335</ele>
        <time>2016-04-08T15:01:53Z</time>
      </trkpt>
      <trkpt lat="46.19076" lon="2.42292">
        <ele>335</ele>
        <time>2016-04-08T15:01:56Z</time>
      </trkpt>
      <trkpt lat="46.19073" lon="2.42298">
        <ele>335</ele>
        <time>2016-04-08T15:01:59Z</time>
      </trkpt>
      <trkpt lat="46.19072" lon="2.42304">
        <ele>335</ele>
        <time>2016-04-08T15:02:02Z</time>
      </trkpt>
      <trkpt lat="46.19071" lon="2.42311">
        <ele>335</ele>
        <time>2016-04-08T15:02:05Z</time>
      </trkpt>
      <trkpt lat="46.19069" lon="2.42317">
        <ele>335</ele>
        <time>2016-04-08T15:02:08Z</time>
      </trkpt>
      <trkpt lat="46.19068" lon="2.42324">
        <ele>335</ele>
        <time>2016-04-08T15:02:11Z</time>
      </trkpt>
      <trkpt lat="46.19066" lon="2.4233">
        <ele>335</ele>
        <time>2016-04-08T15:02:14Z</time>
      </trkpt>
      <trkpt lat="46.19064" lon="2.42336">
        <ele>335</ele>
        <time>2016-04-08T15:02:17Z</time>
      </trkpt>
      <trkpt lat="46.19062" lon="2.42341">
        <ele>335</ele>
        <time>2016-04-08T15:02:20Z</time>
      </trkpt>
      <trkpt lat="46.1906" lon="2.42347">
        <ele>335</ele>
        <time>2016-04-08T15:02:23Z</time>
      </trkpt>
      <trkpt lat="46.19058" lon="2.42353">
        <ele>335</ele>
        <time>2016-04-08T15:02:26Z</time>
      </trkpt>
      <trkpt lat="46.19059" lon="2.42356">
        <ele>335</ele>
        <time>2016-04-08T15:02:39Z</time>
      </trkpt>
      <trkpt lat="46.19059" lon="2.42358">
        <ele>336</ele>
        <time>2016-04-08T15:02:46Z</time>
      </trkpt>
      <trkpt lat="46.19057" lon="2.42363">
        <ele>336</ele>
        <time>2016-04-08T15:02:49Z</time>
      </trkpt>
      <trkpt lat="46.19055" lon="2.4237">
        <ele>336</ele>
        <time>2016-04-08T15:02:53Z</time>
      </trkpt>
      <trkpt lat="46.19054" lon="2.42375">
        <ele>336</ele>
        <time>2016-04-08T15:02:56Z</time>
      </trkpt>
      <trkpt lat="46.19052" lon="2.4238">
        <ele>336</ele>
        <time>2016-04-08T15:02:59Z</time>
      </trkpt>
      <trkpt lat="46.1905" lon="2.42386">
        <ele>336</ele>
        <time>2016-04-08T15:03:02Z</time>
      </trkpt>
      <trkpt lat="46.19048" lon="2.42391">
        <ele>336</ele>
        <time>2016-04-08T15:03:05Z</time>
      </trkpt>
      <trkpt lat="46.19046" lon="2.42397">
        <ele>336</ele>
        <time>2016-04-08T15:03:08Z</time>
      </trkpt>
      <trkpt lat="46.19045" lon="2.42403">
        <ele>336</ele>
        <time>2016-04-08T15:03:11Z</time>
      </trkpt>
      <trkpt lat="46.19042" lon="2.4241">
        <ele>336</ele>
        <time>2016-04-08T15:03:15Z</time>
      </trkpt>
      <trkpt lat="46.1904" lon="2.42415">
        <ele>336</ele>
        <time>2016-04-08T15:03:18Z</time>
      </trkpt>
      <trkpt lat="46.19038" lon="2.42421">
        <ele>336</ele>
        <time>2016-04-08T15:03:21Z</time>
      </trkpt>
      <trkpt lat="46.19036" lon="2.42426">
        <ele>336</ele>
        <time>2016-04-08T15:03:24Z</time>
      </trkpt>
      <trkpt lat="46.19033" lon="2.42432">
        <ele>336</ele>
        <time>2016-04-08T15:03:28Z</time>
      </trkpt>
      <trkpt lat="46.1903" lon="2.42439">
        <ele>336</ele>
        <time>2016-04-08T15:03:32Z</time>
      </trkpt>
      <trkpt lat="46.19027" lon="2.42446">
        <ele>336</ele>
        <time>2016-04-08T15:03:36Z</time>
      </trkpt>
      <trkpt lat="46.19025" lon="2.42451">
        <ele>336</ele>
        <time>2016-04-08T15:03:39Z</time>
      </trkpt>
      <trkpt lat="46.19022" lon="2.42458">
        <ele>336</ele>
        <time>2016-04-08T15:03:43Z</time>
      </trkpt>
      <trkpt lat="46.1902" lon="2.42464">
        <ele>336</ele>
        <time>2016-04-08T15:03:46Z</time>
      </trkpt>
      <trkpt lat="46.19018" lon="2.42468">
        <ele>336</ele>
        <time>2016-04-08T15:03:49Z</time>
      </trkpt>
      <trkpt lat="46.19015" lon="2.42472">
        <ele>336</ele>
        <time>2016-04-08T15:03:52Z</time>
      </trkpt>
      <trkpt lat="46.1901" lon="2.42477">
        <ele>336</ele>
        <time>2016-04-08T15:03:56Z</time>
      </trkpt>
      <trkpt lat="46.19006" lon="2.4248">
        <ele>336</ele>
        <time>2016-04-08T15:03:59Z</time>
      </trkpt>
      <trkpt lat="46.19001" lon="2.42482">
        <ele>336</ele>
        <time>2016-04-08T15:04:02Z</time>
      </trkpt>
      <trkpt lat="46.18997" lon="2.42484">
        <ele>336</ele>
        <time>2016-04-08T15:04:05Z</time>
      </trkpt>
      <trkpt lat="46.18991" lon="2.42485">
        <ele>336</ele>
        <time>2016-04-08T15:04:08Z</time>
      </trkpt>
      <trkpt lat="46.18986" lon="2.42485">
        <ele>336</ele>
        <time>2016-04-08T15:04:11Z</time>
      </trkpt>
      <trkpt lat="46.18981" lon="2.42484">
        <ele>336</ele>
        <time>2016-04-08T15:04:14Z</time>
      </trkpt>
      <trkpt lat="46.18976" lon="2.42483">
        <ele>336</ele>
        <time>2016-04-08T15:04:18Z</time>
      </trkpt>
      <trkpt lat="46.18971" lon="2.4248">
        <ele>336</ele>
        <time>2016-04-08T15:04:22Z</time>
      </trkpt>
      <trkpt lat="46.18967" lon="2.42481">
        <ele>335</ele>
        <time>2016-04-08T15:04:25Z</time>
      </trkpt>
      <trkpt lat="46.18964" lon="2.42488">
        <ele>335</ele>
        <time>2016-04-08T15:04:29Z</time>
      </trkpt>
      <trkpt lat="46.18961" lon="2.42493">
        <ele>334</ele>
        <time>2016-04-08T15:04:32Z</time>
      </trkpt>
      <trkpt lat="46.18958" lon="2.425">
        <ele>334</ele>
        <time>2016-04-08T15:04:35Z</time>
      </trkpt>
      <trkpt lat="46.18956" lon="2.42508">
        <ele>334</ele>
        <time>2016-04-08T15:04:39Z</time>
      </trkpt>
      <trkpt lat="46.18954" lon="2.42513">
        <ele>334</ele>
        <time>2016-04-08T15:04:42Z</time>
      </trkpt>
      <trkpt lat="46.18951" lon="2.42517">
        <ele>334</ele>
        <time>2016-04-08T15:04:45Z</time>
      </trkpt>
      <trkpt lat="46.18947" lon="2.42524">
        <ele>334</ele>
        <time>2016-04-08T15:04:49Z</time>
      </trkpt>
      <trkpt lat="46.18943" lon="2.42527">
        <ele>334</ele>
        <time>2016-04-08T15:04:53Z</time>
      </trkpt>
      <trkpt lat="46.18935" lon="2.42526">
        <ele>333</ele>
        <time>2016-04-08T15:04:58Z</time>
      </trkpt>
      <trkpt lat="46.18932" lon="2.42524">
        <ele>332</ele>
        <time>2016-04-08T15:05:01Z</time>
      </trkpt>
      <trkpt lat="46.18928" lon="2.42522">
        <ele>332</ele>
        <time>2016-04-08T15:05:04Z</time>
      </trkpt>
      <trkpt lat="46.18924" lon="2.4252">
        <ele>332</ele>
        <time>2016-04-08T15:05:07Z</time>
      </trkpt>
      <trkpt lat="46.18918" lon="2.42516">
        <ele>332</ele>
        <time>2016-04-08T15:05:10Z</time>
      </trkpt>
      <trkpt lat="46.18914" lon="2.42513">
        <ele>332</ele>
        <time>2016-04-08T15:05:13Z</time>
      </trkpt>
      <trkpt lat="46.1891" lon="2.4251">
        <ele>334</ele>
        <time>2016-04-08T15:05:16Z</time>
      </trkpt>
      <trkpt lat="46.18905" lon="2.42508">
        <ele>335</ele>
        <time>2016-04-08T15:05:20Z</time>
      </trkpt>
      <trkpt lat="46.18901" lon="2.42507">
        <ele>335</ele>
        <time>2016-04-08T15:05:23Z</time>
      </trkpt>
      <trkpt lat="46.18897" lon="2.42506">
        <ele>335</ele>
        <time>2016-04-08T15:05:27Z</time>
      </trkpt>
      <trkpt lat="46.18894" lon="2.42505">
        <ele>335</ele>
        <time>2016-04-08T15:05:30Z</time>
      </trkpt>
      <trkpt lat="46.18893" lon="2.42505">
        <ele>335</ele>
        <time>2016-04-08T15:05:31Z</time>
      </trkpt>
    </trkseg>
  </trk>
</gpx>